# Wetter Temperatur Luftdruck Luftfeuchtigkeit Sichtweite Windgeschwindigkeit Windrichtung Zeit
1 Clouds 25 1012 83 7000 0.14 100.491 20:56 17.10.2019
2 Clouds 25 1012 83 7000 0.14 100.491 20:56 17.10.2019
3 Clouds 25 1012 83 7000 0.14 100.491 20:56 17.10.2019
4 Clouds 22 1010 81 0 0.14 100.491 20:37 17.10.2019
5 Clouds 27 1011 83 8000 2.1 50 20:18 17.10.2019
6 Clouds 22 1010 81 0 0.14 100.491 19:42 17.10.2019
7 Clouds 27 1011 83 8000 3.1 90 19:20 17.10.2019
8 Clouds 27 1011 83 8000 3.1 90 18:59 17.10.2019
9 Clouds 27 1011 83 8000 3.1 90 18:39 17.10.2019
10 Clouds 27 1011 83 8000 3.1 90 18:20 17.10.2019
11 Clouds 28 1010 69 10000 3.1 160 17:44 17.10.2019
12 Clouds 28 1010 69 10000 3.1 160 17:25 17.10.2019
13 Clouds 31 1011 58 10000 3.1 180 16:59 17.10.2019
14 Clouds 31 1011 58 10000 3.1 180 16:41 17.10.2019
15 Clouds 31 1011 58 10000 3.1 180 16:19 17.10.2019
16 Clouds 31 1011 58 10000 0.787 274 15:57 17.10.2019
17 Clouds 31 1011 58 10000 0.787 274 15:38 17.10.2019
18 Clouds 31 1011 58 10000 0.787 274 15:38 17.10.2019
19 Clouds 31 1011 58 10000 1.492 323 15:20 17.10.2019
20 Clouds 29 1012 66 10000 3.1 320 14:56 17.10.2019
21 Clouds 28 1009 60 0 1.993 285 14:38 17.10.2019
22 Clouds 29 1013 66 10000 2.1 360 14:19 17.10.2019
23 Clouds 28 1009 60 0 1.993 285 13:40 17.10.2019
24 Clouds 29 1014 66 10000 2.1 330 13:20 17.10.2019
25 Clouds 29 1014 66 10000 2.1 330 12:58 17.10.2019
26 Clouds 28 1009 60 0 1.993 285 12:37 17.10.2019
27 Clouds 28 1015 69 10000 2.1 330 12:19 17.10.2019
28 Clouds 28 1015 69 10000 2.1 330 11:42 17.10.2019
29 Clouds 28 1015 69 10000 2.1 330 11:22 17.10.2019
30 Clouds 26 1015 78 8000 2.1 360 10:59 17.10.2019
31 Clouds 26 1015 78 8000 2.1 360 10:41 17.10.2019
32 Clouds 26 1015 78 8000 2.1 360 10:41 17.10.2019
33 Clouds 26 1015 78 8000 2.1 360 10:19 17.10.2019
34 Rain 22 1014 93 0 0.685 268 09:56 17.10.2019
35 Rain 22 1014 97 0 0.944 290 09:38 17.10.2019
36 Clouds 22 1015 94 7000 2.1 270 09:19 17.10.2019
37 Clouds 22 1015 94 7000 2.1 270 08:48 17.10.2019
38 Clouds 21 1015 98 0 0.748 147 08:27 17.10.2019
39 Clouds 21 1015 98 0 0.748 147 07:59 17.10.2019
40 Clouds 21 1015 98 0 0.748 147 07:41 17.10.2019
41 Clouds 21 1015 98 0 0.748 147 07:21 17.10.2019
42 Clouds 21 1015 98 0 0.748 147 06:51 17.10.2019
43 Clouds 21 1015 98 0 0.748 147 06:31 17.10.2019
44 Clouds 20 1012 99 0 0.993 121 05:59 17.10.2019
45 Clouds 20 1012 99 0 0.993 121 05:37 17.10.2019
46 Clouds 20 1012 99 0 0.993 121 05:19 17.10.2019
47 Clouds 20 1012 99 0 0.993 121 04:45 17.10.2019
48 Clouds 20 1012 99 0 0.993 121 03:45 17.10.2019
49 Clouds 20 1012 98 0 0.306 150 01:56 17.10.2019
50 Clouds 20 1012 98 0 0.306 150 00:42 17.10.2019
51 Clouds 20 1013 98 0 0.544 249 00:21 17.10.2019
52 Clouds 20 1013 98 0 0.544 249 23:58 16.10.2019
53 Clouds 20 1013 98 0 0.544 249 23:39 16.10.2019
54 Clouds 20 1013 98 0 0.544 249 23:18 16.10.2019
55 Clouds 20 1013 98 0 0.544 249 22:54 16.10.2019
56 Clouds 20 1013 98 0 0.544 249 22:36 16.10.2019
57 Clouds 20 1013 98 0 0.544 249 22:18 16.10.2019
58 Clouds 20 1013 98 0 0.544 249 21:54 16.10.2019
59 Clouds 20 1013 98 0 0.544 249 21:54 16.10.2019
60 -273 0 0 0 0 0 21:54 16.10.2019
61 Clouds 20 1013 99 0 0.258 173 21:36 16.10.2019
62 Clouds 21 1012 95 0 0.731 305 21:18 16.10.2019
63 Clouds 21 1012 95 0 0.731 305 20:54 16.10.2019
64 Clouds 21 1012 95 0 0.731 305 20:36 16.10.2019
65 Clouds 21 1012 95 0 0.731 305 20:18 16.10.2019
66 Clouds 21 1012 95 0 0.731 305 19:40 16.10.2019
67 Clouds 23 1012 88 10000 2.1 190 19:21 16.10.2019
68 -273 0 0 0 0 0 18:57 16.10.2019
69 Clouds 23 1012 88 10000 2.1 190 18:56 16.10.2019
70 Clouds 23 1012 88 10000 2.1 190 18:56 16.10.2019
71 Clouds 23 1012 88 10000 2.1 190 18:37 16.10.2019
72 Clouds 23 1012 88 10000 2.1 190 18:18 16.10.2019
73 Clouds 23 1012 88 10000 2.1 190 18:18 16.10.2019
74 Clouds 24 1012 83 10000 2.1 180 17:55 16.10.2019
75 Clouds 24 1012 83 10000 2.1 180 17:36 16.10.2019
76 Clouds 24 1012 83 10000 2.1 180 17:18 16.10.2019
77 Clouds 25 1012 78 10000 2.14 286 16:43 16.10.2019
78 Clouds 25 1012 78 10000 2.14 286 16:23 16.10.2019
79 Rain 23 1009 87 0 2.14 286 15:59 16.10.2019
80 Rain 23 1009 87 0 2.14 286 15:39 16.10.2019
81 Clouds 24 1013 83 10000 2.1 320 15:19 16.10.2019
82 Clouds 24 1013 83 10000 2.1 320 14:58 16.10.2019
83 Clouds 24 1013 83 10000 2.1 320 14:39 16.10.2019
84 Clouds 24 1013 83 10000 2.1 320 14:20 16.10.2019
85 Clouds 24 1014 78 8000 1.799 293 13:57 16.10.2019
86 Clouds 24 1014 78 8000 1.799 293 13:39 16.10.2019
87 Clouds 24 1014 78 8000 1.799 293 13:21 16.10.2019
88 Clouds 23 1014 100 8000 3.1 320 12:42 16.10.2019
89 Rain 21 1015 100 6000 3.1 320 12:20 16.10.2019
90 Rain 21 1015 100 6000 3.1 320 11:55 16.10.2019
91 Rain 21 1015 100 6000 3.1 320 11:36 16.10.2019
92 Rain 21 1015 100 6000 3.1 320 11:18 16.10.2019
93 Rain 22 1014 99 0 0.763 323 10:36 16.10.2019
94 Rain 22 1014 99 0 0.763 323 10:36 16.10.2019
95 Rain 21 1015 100 5000 0.763 323 10:18 16.10.2019
96 Rain 22 1014 99 0 0.763 323 09:40 16.10.2019
97 Rain 20 1015 100 4000 3.1 280 09:22 16.10.2019
98 Rain 21 1014 99 0 0.718 132 08:57 16.10.2019
99 Rain 21 1014 99 0 0.718 132 08:38 16.10.2019
100 Rain 21 1014 99 0 0.718 132 08:19 16.10.2019
101 Rain 21 1014 99 0 0.718 132 07:42 16.10.2019
102 Rain 21 1014 99 0 0.718 132 07:23 16.10.2019
103 Rain 21 1014 99 0 0.718 132 06:48 16.10.2019
104 Rain 21 1014 99 0 0.718 132 06:29 16.10.2019
105 Rain 21 1010 99 0 0.533 47 04:48 16.10.2019
106 Rain 21 1010 99 0 1.156 283 02:51 16.10.2019
107 Rain 21 1010 99 0 1.49 283 01:21 16.10.2019
108 Rain 21 1010 99 0 1.49 283 00:59 16.10.2019
109 Rain 21 1010 99 0 1.49 283 00:40 16.10.2019
110 Rain 21 1011 97 0 1.188 293 23:59 15.10.2019
111 Rain 21 1011 97 0 1.188 293 23:38 15.10.2019
112 Rain 21 1011 97 0 1.188 293 23:20 15.10.2019
113 Rain 21 1011 97 0 1.188 293 22:55 15.10.2019
114 Rain 21 1011 97 0 1.188 293 22:37 15.10.2019
115 Rain 21 1011 97 0 1.188 293 22:18 15.10.2019
116 Rain 21 1011 97 0 1.188 293 21:55 15.10.2019
117 Rain 21 1011 97 0 1.188 293 21:55 15.10.2019
118 Rain 21 1011 98 0 1.14 283 21:36 15.10.2019
119 Rain 21 1011 98 0 1.14 283 21:36 15.10.2019
120 Rain 21 1011 98 0 1.14 283 21:36 15.10.2019
121 Rain 22 1009 96 0 1.245 225 21:18 15.10.2019
122 Rain 22 1009 96 0 1.245 225 20:55 15.10.2019
123 Rain 22 1009 96 0 1.245 225 20:37 15.10.2019
124 Rain 22 1009 96 0 1.245 225 20:19 15.10.2019
125 Rain 22 1009 96 0 1.245 225 19:55 15.10.2019
126 Rain 22 1009 96 0 1.245 225 19:55 15.10.2019
127 Rain 22 1009 96 0 1.245 225 19:55 15.10.2019
128 Rain 22 1009 96 0 1.245 225 19:37 15.10.2019
129 Rain 22 1009 96 0 1.245 225 19:37 15.10.2019
130 Clouds 28 1008 74 10000 3.1 240 19:18 15.10.2019
131 Clouds 28 1008 74 10000 3.1 240 18:44 15.10.2019
132 Clouds 28 1008 74 10000 3.1 240 18:25 15.10.2019
133 Clouds 30 1007 70 10000 3.1 240 17:55 15.10.2019
134 Clouds 30 1007 70 10000 3.1 240 17:55 15.10.2019
135 Clouds 30 1007 70 10000 3.1 240 17:37 15.10.2019
136 Clouds 30 1007 70 10000 3.1 240 17:19 15.10.2019
137 Clouds 30 1007 70 10000 3.1 240 17:19 15.10.2019
138 Clouds 32 1017 55 10000 3.1 220 16:45 15.10.2019
139 Clouds 32 1017 55 10000 3.1 220 16:22 15.10.2019
140 Clouds 32 1008 59 10000 3.1 240 15:58 15.10.2019
141 Clouds 32 1008 59 10000 3.1 240 15:58 15.10.2019
142 Clouds 32 1008 59 10000 3.1 240 15:40 15.10.2019
143 Clouds 32 1010 62 10000 3.1 180 15:20 15.10.2019
144 Clouds 32 1010 62 10000 3.1 180 14:56 15.10.2019
145 Clouds 32 1010 62 10000 3.1 180 14:37 15.10.2019
146 Clouds 31 1011 66 10000 2.1 250 14:19 15.10.2019
147 Clouds 31 1011 66 10000 2.1 250 13:43 15.10.2019
148 Clouds 30 1012 66 10000 3.1 250 13:21 15.10.2019
149 Clouds 30 1012 66 10000 3.1 250 12:59 15.10.2019
150 Clouds 30 1012 66 10000 3.1 250 12:59 15.10.2019
151 Clouds 30 1012 66 10000 3.1 250 12:38 15.10.2019
152 Clouds 30 1012 66 10000 3.1 250 12:20 15.10.2019
153 Rain 26 1011 91 0 1.591 296 11:44 15.10.2019
154 Clouds 28 1013 74 10000 2.1 270 11:21 15.10.2019
155 Clouds 28 1013 74 10000 2.1 270 10:58 15.10.2019
156 Clouds 28 1013 74 10000 2.1 270 10:39 15.10.2019
157 Clouds 26 1013 78 10000 1.59 296.388 10:19 15.10.2019
158 Clouds 26 1013 78 10000 1.59 296.388 09:57 15.10.2019
159 Clouds 26 1013 78 10000 1.59 296.388 09:37 15.10.2019
160 Clouds 24 1013 84 0 0.75 295.258 09:19 15.10.2019
161 Clouds 25 1012 82 0 0.47 77.445 08:41 15.10.2019
162 Clouds 25 1012 82 0 0.47 77.445 08:21 15.10.2019
163 Clouds 25 1012 82 0 0.47 77.445 07:56 15.10.2019
164 Clouds 25 1012 82 0 0.47 77.445 07:56 15.10.2019
165 Clouds 25 1012 82 0 0.47 77.445 07:38 15.10.2019
166 Clouds 25 1012 82 0 0.47 77.445 07:18 15.10.2019
167 Clouds 25 1012 82 0 0.47 77.445 06:43 15.10.2019
168 Clouds 25 1012 82 0 0.47 77.445 06:24 15.10.2019
169 Clouds 21 1010 96 0 0.57 351.87 05:41 15.10.2019
170 Clouds 21 1010 96 0 0.57 351.87 05:22 15.10.2019
171 Clouds 21 1010 96 0 0.57 351.87 04:23 15.10.2019
172 Clouds 21 1010 96 0 0.57 351.87 03:36 15.10.2019
173 Clouds 22 1009 93 0 0.69 241.416 02:23 15.10.2019
174 Clouds 22 1009 93 0 0.69 241.416 01:47 15.10.2019
175 Clouds 22 1009 90 0 0.73 225.776 01:19 15.10.2019
176 Clouds 22 1009 90 0 0.73 225.776 00:48 15.10.2019
177 Clouds 23 1010 87 0 0.04 310.314 00:21 15.10.2019
178 Clouds 23 1010 87 0 0.04 310.314 23:40 14.10.2019
179 Clouds 23 1010 87 0 0.04 310.314 23:20 14.10.2019
180 Clouds 23 1010 87 0 0.04 310.314 22:41 14.10.2019
181 Clouds 23 1010 87 0 0.04 310.314 22:21 14.10.2019
182 Clouds 23 1010 87 0 0.04 310.314 21:59 14.10.2019
183 Clouds 23 1010 87 0 0.04 310.314 21:40 14.10.2019
184 Clouds 24 1009 83 0 0.84 159.572 21:22 14.10.2019
185 Clouds 24 1008 84 0 1.14 122.786 20:59 14.10.2019
186 Clouds 24 1008 84 0 1.14 122.786 20:39 14.10.2019
187 Clouds 24 1008 84 0 1.14 122.786 20:20 14.10.2019
188 Clouds 24 1008 84 0 1.14 122.786 19:58 14.10.2019
189 Clouds 24 1008 84 0 1.143 122 19:40 14.10.2019
190 Clouds 24 1008 84 0 1.143 122 19:22 14.10.2019
191 Clouds 24 1008 84 0 1.14 122.786 18:58 14.10.2019
192 Clouds 24 1008 84 0 1.14 122.786 18:38 14.10.2019
193 Clouds 29 1006 65 0 0.61 20.809 18:18 14.10.2019
194 Clouds 29 1006 65 0 0.61 20.809 17:44 14.10.2019
195 Clouds 29 1006 65 0 0.61 20.809 17:26 14.10.2019
196 Clouds 29 1006 65 0 0.61 20.809 16:59 14.10.2019
197 -273 0 0 0 0 0 16:40 14.10.2019
198 Clouds 32 1009 62 10000 2.1 10 16:20 14.10.2019
199 Clouds 32 1009 62 10000 2.1 10 16:20 14.10.2019
200 Clouds 32 1009 62 10000 2.1 10 15:42 14.10.2019
201 Clouds 32 1009 62 10000 2.1 10 15:22 14.10.2019
202 Thunderstorm 30 1010 70 10000 2.1 20 14:56 14.10.2019
203 Thunderstorm 30 1010 70 10000 2.1 20 14:56 14.10.2019
204 Clouds 34 1007 45 0 0.84 279.158 14:38 14.10.2019
205 Clouds 31 1011 66 10000 4.1 160 14:18 14.10.2019
206 Clouds 31 1011 66 10000 4.1 160 13:42 14.10.2019
207 Clouds 31 1011 66 10000 4.1 160 13:21 14.10.2019
208 -273 0 0 0 0 0 12:54 14.10.2019
209 Clouds 30 1013 70 10000 2.1 120 12:36 14.10.2019
210 Clouds 30 1013 70 10000 2.1 120 12:18 14.10.2019
211 Clouds 30 1013 66 10000 2.1 70 11:43 14.10.2019
212 Clouds 30 1013 66 10000 2.1 70 11:24 14.10.2019
213 Clouds 28 1014 78 10000 3.1 90 10:55 14.10.2019
214 Rain 25 1012 87 0 0.45 289.756 10:37 14.10.2019
215 Rain 25 1012 87 0 0.45 289.756 10:18 14.10.2019
216 Rain 25 1012 87 0 0.45 289.756 09:41 14.10.2019
217 Clouds 23 1013 92 0 0.93 99.563 09:21 14.10.2019
218 Clouds 23 1013 92 0 0.93 99.563 08:50 14.10.2019
219 Clouds 23 1013 92 0 0.93 99.563 08:23 14.10.2019
220 Clouds 23 1013 92 0 0.93 99.563 07:47 14.10.2019
221 Clouds 23 1013 92 0 0.93 99.563 07:25 14.10.2019
222 Clouds 23 1013 92 0 0.93 99.563 06:58 14.10.2019
223 Clouds 23 1013 92 0 0.93 99.563 06:28 14.10.2019
224 Clouds 21 1010 98 0 0.97 97.22 05:57 14.10.2019
225 Clouds 21 1010 98 0 0.97 97.22 05:26 14.10.2019
226 Clouds 21 1010 98 0 0.97 97.22 03:50 14.10.2019
227 Clouds 21 1010 98 0 0.97 97.22 03:26 14.10.2019
228 Clouds 21 1010 98 0 0.73 125.024 02:32 14.10.2019
229 Clouds 21 1010 98 0 0.6 118.915 01:21 14.10.2019
230 Clouds 21 1010 98 0 0.6 118.915 00:42 14.10.2019
231 Clouds 21 1011 97 0 0.18 357.469 00:18 14.10.2019
232 Clouds 21 1011 97 0 0.18 357.469 23:41 13.10.2019
233 Clouds 21 1011 97 0 0.18 357.469 23:20 13.10.2019
234 Clouds 21 1011 97 0 0.18 357.469 22:57 13.10.2019
235 Clouds 21 1011 97 0 0.18 357.469 22:39 13.10.2019
236 Clouds 21 1011 97 0 0.18 357.469 22:39 13.10.2019
237 Clouds 21 1011 97 0 0.18 357.469 22:20 13.10.2019
238 Clouds 21 1011 97 0 0.18 357.469 21:57 13.10.2019
239 Clouds 21 1011 97 0 0.18 357.469 21:36 13.10.2019
240 Rain 22 1010 97 0 1.16 56.775 21:18 13.10.2019
241 -273 0 0 0 0 0 20:57 13.10.2019
242 Rain 22 1009 97 0 1.91 75.513 20:37 13.10.2019
243 Rain 22 1009 97 0 1.91 75.513 20:19 13.10.2019
244 Rain 22 1009 97 0 1.91 75.513 19:55 13.10.2019
245 Rain 22 1009 97 0 1.91 75.513 19:55 13.10.2019
246 Rain 22 1009 97 0 1.91 75.513 19:37 13.10.2019
247 Rain 22 1009 97 0 1.91 75.513 19:19 13.10.2019
248 Rain 22 1009 97 0 1.91 75.513 18:54 13.10.2019
249 Rain 22 1009 97 0 1.91 75.513 18:36 13.10.2019
250 Clouds 30 1009 62 8000 3.1 270 18:18 13.10.2019
251 Clouds 30 1009 62 8000 3.1 270 17:42 13.10.2019
252 Clouds 30 1009 62 8000 3.1 270 17:42 13.10.2019
253 Clouds 30 1009 62 8000 3.1 270 17:24 13.10.2019
254 Clouds 30 1009 62 9000 3.1 330 16:45 13.10.2019
255 Clouds 27 1006 78 0 1.11 63.573 16:45 13.10.2019
256 Clouds 27 1006 78 0 1.11 63.573 16:20 13.10.2019
257 Clouds 27 1006 78 0 1.11 63.573 15:59 13.10.2019
258 Clouds 27 1006 78 0 1.11 63.573 15:39 13.10.2019
259 Clouds 30 1011 62 8000 3.1 30 15:21 13.10.2019
260 Clouds 30 1011 62 8000 3.1 30 14:59 13.10.2019
261 Clouds 30 1011 62 8000 3.1 30 14:40 13.10.2019
262 Clouds 30 1011 62 8000 3.1 30 14:22 13.10.2019
263 Clouds 26 1012 78 8000 3.1 30 13:59 13.10.2019
264 Clouds 26 1012 78 8000 3.1 30 13:38 13.10.2019
265 Clouds 26 1012 78 8000 3.1 30 13:20 13.10.2019
266 Clouds 27 1013 78 8000 2.1 180 12:56 13.10.2019
267 Clouds 27 1013 78 8000 2.1 180 12:38 13.10.2019
268 Clouds 27 1013 78 8000 2.1 180 12:19 13.10.2019
269 Clouds 26 1014 78 8000 2.1 30 11:55 13.10.2019
270 Clouds 26 1014 78 8000 2.1 30 11:37 13.10.2019
271 Clouds 26 1014 78 8000 2.1 30 11:37 13.10.2019
272 Clouds 26 1014 78 8000 2.1 30 11:18 13.10.2019
273 Clouds 31 1012 50 0 1.41 308.622 10:41 13.10.2019
274 Clouds 31 1012 50 0 1.41 308.622 10:23 13.10.2019
275 Clouds 31 1012 50 0 1.41 308.622 09:41 13.10.2019
276 Clouds 24 1012 80 0 1.08 349.156 09:22 13.10.2019
277 Clouds 24 1012 80 0 1.08 349.156 08:59 13.10.2019
278 Clouds 23 1012 87 0 0.81 8.892 08:40 13.10.2019
279 Clouds 23 1012 87 0 0.81 8.892 08:21 13.10.2019
280 Clouds 23 1012 87 0 0.81 8.892 07:46 13.10.2019
281 Clouds 23 1012 87 0 0.81 8.892 07:21 13.10.2019
282 Clouds 23 1012 87 0 0.81 8.892 06:42 13.10.2019
283 Clouds 20 1011 97 0 0.34 351.062 05:49 13.10.2019
284 Clouds 20 1011 97 0 0.34 351.062 04:49 13.10.2019
285 Clouds 20 1011 97 0 0.34 351.062 04:29 13.10.2019
286 Clouds 20 1010 97 0 0.39 338.199 02:42 13.10.2019
287 Clouds 20 1010 97 0 0.39 338.199 01:59 13.10.2019
288 Clouds 20 1010 97 0 0.39 338.199 01:30 13.10.2019
289 Clouds 20 1010 98 0 0.27 203.665 00:49 13.10.2019
290 Clouds 21 1011 94 0 1.29 309.299 00:22 13.10.2019
291 Clouds 21 1011 94 0 1.29 309.299 23:57 12.10.2019
292 Clouds 21 1011 94 0 1.29 309.299 23:39 12.10.2019
293 Clouds 21 1011 94 0 1.29 309.299 23:19 12.10.2019
294 Clouds 21 1011 94 0 1.29 309.299 22:57 12.10.2019
295 Clouds 21 1011 94 0 1.29 309.299 22:38 12.10.2019
296 Clouds 21 1011 94 0 1.29 309.299 22:20 12.10.2019
297 Clouds 21 1011 94 0 1.29 309.299 21:55 12.10.2019
298 Clouds 21 1011 94 0 1.29 309.299 21:36 12.10.2019
299 Clouds 22 1011 91 0 1.51 350.763 21:18 12.10.2019
300 Rain 22 1010 95 0 1.6 339.406 20:40 12.10.2019
301 Rain 22 1010 95 0 1.6 339.406 20:22 12.10.2019
302 Rain 22 1010 95 0 1.6 339.406 19:38 12.10.2019
303 Clouds 25 1011 83 10000 4.1 270 19:20 12.10.2019
304 Clouds 25 1011 83 10000 4.1 270 18:57 12.10.2019
305 Clouds 25 1011 83 10000 4.1 270 18:39 12.10.2019
306 Clouds 25 1011 83 10000 4.1 270 18:20 12.10.2019
307 Clouds 27 1011 74 10000 2.22 309.195 17:43 12.10.2019
308 Clouds 28 1010 69 10000 2.1 260 17:19 12.10.2019
309 Clouds 28 1010 69 10000 2.1 260 16:54 12.10.2019
310 Clouds 28 1010 69 10000 2.1 260 16:54 12.10.2019
311 Clouds 28 1010 69 10000 2.1 260 16:36 12.10.2019
312 Clouds 28 1010 69 10000 2.1 260 16:18 12.10.2019
313 Rain 26 1008 80 0 2.22 309.195 15:44 12.10.2019
314 Rain 24 1008 85 0 2.51 306.893 15:25 12.10.2019
315 Rain 24 1008 85 0 2.51 306.893 14:43 12.10.2019
316 Rain 24 1008 85 0 2.51 306.893 14:22 12.10.2019
317 Rain 24 1008 85 0 2.51 306.893 13:59 12.10.2019
318 Rain 24 1008 85 0 2.51 306.893 13:40 12.10.2019
319 Clouds 26 1014 78 10000 3.1 260 13:21 12.10.2019
320 Clouds 26 1014 78 10000 3.1 260 12:39 12.10.2019
321 Clouds 26 1014 78 10000 3.1 260 12:21 12.10.2019
322 Clouds 26 1014 78 10000 3.1 240 11:58 12.10.2019
323 Rain 22 1013 96 0 1.47 313.069 11:39 12.10.2019
324 Clouds 25 1014 83 10000 2.1 90 11:20 12.10.2019
325 Clouds 25 1014 83 10000 2.1 90 10:43 12.10.2019
326 Clouds 25 1014 83 10000 2.1 90 10:23 12.10.2019
327 Clouds 23 1014 94 6000 1.47 313.069 09:58 12.10.2019
328 Clouds 23 1014 94 6000 1.47 313.069 09:39 12.10.2019
329 Clouds 23 1014 94 6000 1.34 315.212 09:21 12.10.2019
330 Rain 22 1013 97 0 1.43 286.707 08:57 12.10.2019
331 Rain 22 1013 97 0 1.43 286.707 08:57 12.10.2019
332 Rain 22 1013 97 0 1.43 286.707 08:38 12.10.2019
333 Rain 22 1013 97 0 1.43 286.707 08:19 12.10.2019
334 Rain 22 1013 97 0 1.43 286.707 07:34 12.10.2019
335 Rain 22 1013 97 0 1.43 286.707 06:51 12.10.2019
336 Rain 21 1010 99 0 1.42 251.769 05:47 12.10.2019
337 Rain 21 1010 99 0 1.42 251.769 05:22 12.10.2019
338 Rain 21 1010 99 0 1.42 251.769 04:24 12.10.2019
339 Rain 21 1010 99 0 1.42 251.769 03:30 12.10.2019
340 Rain 21 1010 99 0 1.08 263.806 01:38 12.10.2019
341 Rain 21 1010 99 0 1.26 267.224 01:19 12.10.2019
342 Rain 21 1010 99 0 1.26 267.224 00:40 12.10.2019
343 Rain 21 1011 99 0 1.5 250.403 23:59 11.10.2019
344 Rain 21 1011 99 0 1.5 250.403 23:40 11.10.2019
345 Rain 21 1011 99 0 1.5 250.403 23:20 11.10.2019
346 Rain 21 1011 99 0 1.5 250.403 22:40 11.10.2019
347 Rain 21 1011 99 0 1.5 250.403 22:40 11.10.2019
348 Rain 21 1011 99 0 1.5 250.403 22:21 11.10.2019
349 Rain 21 1011 99 0 1.5 250.403 21:56 11.10.2019
350 Rain 21 1011 99 0 1.5 250.403 21:38 11.10.2019
351 Rain 22 1010 96 0 3.36 225.325 21:20 11.10.2019
352 Rain 22 1009 96 0 1.62 238.441 20:44 11.10.2019
353 Rain 22 1009 96 0 1.62 238.441 20:26 11.10.2019
354 Rain 22 1009 96 0 1.62 238.441 19:57 11.10.2019
355 Rain 22 1009 96 0 1.62 238.441 19:57 11.10.2019
356 Rain 22 1009 96 0 1.62 238.441 19:38 11.10.2019
357 Clouds 25 1009 83 10000 3.1 260 19:18 11.10.2019
358 Clouds 25 1009 83 10000 3.1 260 18:58 11.10.2019
359 Clouds 25 1009 83 10000 3.1 260 18:58 11.10.2019
360 Clouds 25 1009 83 10000 3.1 260 18:38 11.10.2019
361 Clouds 25 1009 83 10000 3.1 260 18:19 11.10.2019
362 Clouds 29 1009 66 10000 3.1 260 17:58 11.10.2019
363 Clouds 29 1009 66 10000 3.1 260 17:37 11.10.2019
364 Clouds 29 1009 66 10000 3.1 260 17:19 11.10.2019
365 Clouds 29 1010 62 10000 3.1 260 16:56 11.10.2019
366 Clouds 29 1010 62 10000 3.1 260 16:37 11.10.2019
367 Clouds 29 1010 62 10000 3.1 260 16:18 11.10.2019
368 Clouds 29 1010 62 10000 3.1 260 16:18 11.10.2019
369 Clouds 29 1010 66 10000 2.1 240 15:41 11.10.2019
370 Clouds 29 1010 66 10000 2.1 240 15:20 11.10.2019
371 Clouds 28 1011 69 10000 2.1 300 14:58 11.10.2019
372 Clouds 28 1011 69 10000 2.1 300 14:58 11.10.2019
373 Rain 27 1006 89 0 1.24 335.07 14:37 11.10.2019
374 Rain 27 1006 89 0 1.24 335.07 14:19 11.10.2019
375 Rain 27 1006 89 0 1.24 335.07 13:43 11.10.2019
376 Clouds 27 1013 74 10000 2.1 270 13:24 11.10.2019
377 Clouds 27 1013 74 10000 2.1 270 12:56 11.10.2019
378 Clouds 27 1013 74 10000 2.1 270 12:38 11.10.2019
379 Clouds 27 1013 74 10000 2.1 270 12:20 11.10.2019
380 Clouds 25 1013 83 10000 2.1 170 11:57 11.10.2019
381 Clouds 25 1013 83 10000 2.1 170 11:38 11.10.2019
382 Clouds 25 1013 83 10000 2.1 170 11:20 11.10.2019
383 Clouds 24 1013 83 10000 2.05 299.814 10:42 11.10.2019
384 Clouds 24 1013 83 10000 2.05 299.814 10:23 11.10.2019
385 Clouds 22 1013 94 8000 2.05 299.814 09:59 11.10.2019
386 Clouds 22 1013 94 8000 1.76 308.339 09:40 11.10.2019
387 Clouds 22 1013 94 8000 0.7 336.054 09:20 11.10.2019
388 Rain 21 1012 96 0 0.7 336.054 08:56 11.10.2019
389 Rain 21 1012 96 0 0.7 336.054 08:37 11.10.2019
390 Rain 21 1012 96 0 0.7 336.054 08:19 11.10.2019
391 Rain 21 1012 96 0 0.7 336.054 07:51 11.10.2019
392 Rain 21 1012 96 0 0.7 336.054 07:33 11.10.2019
393 Rain 21 1012 96 0 0.7 336.054 06:49 11.10.2019
394 Rain 21 1012 96 0 0.7 336.054 06:24 11.10.2019
395 Rain 19 1010 99 0 1.06 338.44 05:41 11.10.2019
396 Rain 19 1010 99 0 1.06 338.44 05:23 11.10.2019
397 Rain 19 1010 99 0 1.06 338.44 04:38 11.10.2019
398 Rain 20 1010 98 0 1.24 307.293 02:59 11.10.2019
399 Rain 20 1009 98 0 0.88 348.181 00:52 11.10.2019
400 Rain 20 1009 98 0 0.88 348.181 00:30 11.10.2019
401 Rain 21 1011 98 0 0.9 283.713 23:50 10.10.2019
402 Rain 21 1011 98 0 0.9 283.713 23:24 10.10.2019
403 Rain 21 1011 98 0 0.9 283.713 22:59 10.10.2019
404 Rain 21 1011 98 0 0.9 283.713 22:40 10.10.2019
405 Rain 21 1011 98 0 0.9 283.713 22:21 10.10.2019
406 Rain 21 1011 98 0 0.9 283.713 22:21 10.10.2019
407 Rain 21 1011 98 0 0.9 283.713 22:21 10.10.2019
408 Rain 21 1011 98 0 0.9 283.713 22:21 10.10.2019
409 Rain 21 1011 98 0 0.9 283.713 21:59 10.10.2019
410 Rain 21 1011 98 0 0.9 283.713 21:40 10.10.2019
411 Rain 21 1011 98 0 0.9 283.713 21:40 10.10.2019
412 Rain 20 1012 100 6000 2.1 30 21:22 10.10.2019
413 Rain 20 1012 100 6000 2.1 30 20:57 10.10.2019
414 Rain 20 1012 100 6000 2.1 30 20:39 10.10.2019
415 Rain 20 1012 100 6000 2.1 30 20:19 10.10.2019
416 Rain 20 1013 100 6000 3.1 50 19:54 10.10.2019
417 Rain 20 1013 100 6000 3.1 50 19:36 10.10.2019
418 Rain 20 1013 100 6000 3.1 50 19:18 10.10.2019
419 Rain 22 1009 95 0 1.07 209.805 18:41 10.10.2019
420 Clouds 29 1006 62 0 0.91 235.801 18:20 10.10.2019
421 Clouds 29 1006 62 0 0.91 235.801 17:56 10.10.2019
422 Clouds 29 1006 62 0 0.91 235.801 17:37 10.10.2019
423 Clouds 29 1006 62 0 0.91 235.801 17:18 10.10.2019
424 Clouds 29 1006 62 0 0.91 235.801 16:48 10.10.2019
425 Clouds 29 1006 62 0 0.91 235.801 16:26 10.10.2019
426 Clouds 29 1006 62 0 0.91 235.801 15:58 10.10.2019
427 Clouds 29 1006 62 0 0.91 235.801 15:38 10.10.2019
428 Clouds 29 1009 70 10000 4.1 280 15:20 10.10.2019
429 Clouds 29 1009 70 10000 4.1 280 14:55 10.10.2019
430 Clouds 30 1006 54 0 1.66 283.357 14:36 10.10.2019
431 Clouds 30 1010 66 10000 4.1 330 14:18 10.10.2019
432 Clouds 30 1010 66 10000 4.1 330 13:46 10.10.2019
433 Clouds 30 1010 66 10000 4.1 330 13:27 10.10.2019
434 Clouds 29 1011 70 10000 4.1 270 12:59 10.10.2019
435 Clouds 32 1006 51 0 1.23 302.834 12:40 10.10.2019
436 Clouds 27 1012 78 10000 3.1 250 12:20 10.10.2019
437 Clouds 27 1012 78 10000 3.1 250 11:58 10.10.2019
438 Clouds 25 1011 80 0 0.57 256.061 11:38 10.10.2019
439 Clouds 26 1013 83 7000 3.1 270 11:19 10.10.2019
440 Clouds 26 1013 83 7000 3.1 270 10:45 10.10.2019
441 Clouds 26 1013 83 7000 3.1 270 10:26 10.10.2019
442 Clouds 25 1011 80 0 0.57 256.061 09:58 10.10.2019
443 Clouds 25 1011 80 0 0.57 256.061 09:39 10.10.2019
444 Clouds 23 1012 87 0 1.34 83.646 09:21 10.10.2019
445 Rain 23 1012 89 0 1.39 78.86 08:57 10.10.2019
446 Rain 23 1012 89 0 1.39 78.86 08:38 10.10.2019
447 Rain 23 1012 89 0 1.39 78.86 08:19 10.10.2019
448 Rain 23 1012 89 0 1.39 78.86 08:19 10.10.2019
449 Rain 23 1012 89 0 1.39 78.86 07:45 10.10.2019
450 Rain 23 1012 89 0 1.39 78.86 07:22 10.10.2019
451 Rain 23 1012 89 0 1.39 78.86 06:49 10.10.2019
452 Rain 23 1012 89 0 1.39 78.86 06:29 10.10.2019
453 Clouds 21 1009 90 0 0.77 288.082 05:28 10.10.2019
454 Clouds 21 1009 90 0 0.77 288.082 05:28 10.10.2019
455 Clouds 21 1009 90 0 0.77 288.082 04:54 10.10.2019
456 Clouds 21 1009 90 0 0.77 288.082 04:33 10.10.2019
457 Clear 22 1008 88 0 0.66 230.662 01:50 10.10.2019
458 Clear 22 1008 90 0 0.47 253.487 01:30 10.10.2019
459 Clear 22 1008 90 0 0.47 253.487 01:00 10.10.2019
460 Clear 22 1008 90 0 0.47 253.487 00:24 10.10.2019
461 Clear 22 1010 86 0 0.69 233.715 23:41 09.10.2019
462 Clear 22 1010 86 0 0.69 233.715 23:23 09.10.2019
463 Clear 22 1010 86 0 0.69 233.715 22:59 09.10.2019
464 Clear 22 1010 86 0 0.69 233.715 22:40 09.10.2019
465 Clear 22 1010 86 0 0.69 233.715 22:22 09.10.2019
466 Clear 22 1010 86 0 0.69 233.715 21:41 09.10.2019
467 Clouds 23 1008 84 0 0.17 212.112 21:21 09.10.2019
468 Clouds 23 1008 83 0 0.16 195.385 20:56 09.10.2019
469 Clouds 23 1008 83 0 0.16 195.385 20:38 09.10.2019
470 Clouds 23 1008 83 0 0.16 195.385 20:19 09.10.2019
471 Clouds 23 1008 83 0 0.16 195.385 19:58 09.10.2019
472 Clouds 23 1008 83 0 0.16 195.385 19:40 09.10.2019
473 Clouds 23 1008 83 0 0.16 195.385 19:22 09.10.2019
474 Clouds 23 1008 83 0 0.16 195.385 19:22 09.10.2019
475 Clouds 23 1008 83 0 0.16 195.385 18:38 09.10.2019
476 Clouds 23 1008 83 0 0.16 195.385 18:38 09.10.2019
477 Clouds 29 1006 62 0 0.56 271.424 18:20 09.10.2019
478 Clouds 29 1006 62 0 0.56 271.424 17:58 09.10.2019
479 Clouds 29 1006 62 0 0.56 271.424 17:37 09.10.2019
480 Clouds 29 1006 62 0 0.56 271.424 17:37 09.10.2019
481 Clouds 29 1006 62 0 0.56 271.424 17:19 09.10.2019
482 Clouds 29 1006 62 0 0.56 271.424 16:56 09.10.2019
483 Clouds 29 1006 62 0 0.56 271.424 16:37 09.10.2019
484 Clouds 29 1006 62 0 0.56 271.424 16:18 09.10.2019
485 Clouds 29 1006 62 0 0.56 271.424 15:55 09.10.2019
486 Clouds 29 1006 62 0 0.56 271.424 15:37 09.10.2019
487 Clouds 31 1007 51 0 1.28 15.452 15:18 09.10.2019
488 Clouds 31 1007 51 0 1.28 15.452 14:44 09.10.2019
489 Clouds 31 1007 51 0 1.28 15.452 14:19 09.10.2019
490 Clouds 31 1007 51 0 1.28 15.452 13:59 09.10.2019
491 Clouds 31 1007 51 0 1.28 15.452 13:37 09.10.2019
492 Rain 29 1008 57 0 1.94 7.905 13:18 09.10.2019
493 Rain 29 1008 57 0 1.94 7.905 12:43 09.10.2019
494 Clouds 26 1013 70 0 1.94 10.471 12:22 09.10.2019
495 Clouds 26 1013 70 0 1.94 10.471 12:22 09.10.2019
496 Clouds 26 1013 70 0 1.94 10.471 11:58 09.10.2019
497 Clouds 26 1013 70 0 1.94 10.471 11:39 09.10.2019
498 -273 0 0 0 0 0 11:20 09.10.2019
499 Clouds 26 1013 70 0 1.94 10.471 10:57 09.10.2019
500 Clouds 26 1013 70 0 1.94 10.471 10:57 09.10.2019
501 Clouds 26 1013 70 0 1.94 10.471 10:39 09.10.2019
502 Clouds 24 1013 88 7000 3.1 330 10:18 09.10.2019
503 Clouds 24 1013 88 7000 3.1 330 09:42 09.10.2019
504 Clouds 24 1013 88 7000 3.1 330 09:20 09.10.2019
505 Rain 22 1013 89 0 1.82 13.761 08:57 09.10.2019
506 Rain 21 1014 95 0 2.35 10.774 08:37 09.10.2019
507 Rain 21 1014 95 0 2.35 10.774 08:18 09.10.2019
508 Rain 21 1014 95 0 2.35 10.774 07:46 09.10.2019
509 Rain 21 1014 95 0 2.35 10.774 07:24 09.10.2019
510 Rain 21 1014 95 0 2.35 10.774 07:24 09.10.2019
511 Rain 21 1014 95 0 2.35 10.774 06:54 09.10.2019
512 Clouds 20 1010 97 0 0.96 44.579 06:20 09.10.2019
513 Clouds 20 1010 97 0 0.96 44.579 05:46 09.10.2019
514 Clouds 20 1010 97 0 0.96 44.579 04:41 09.10.2019
515 Clouds 20 1010 98 0 0.56 65.903 03:24 09.10.2019
516 Clouds 20 1010 98 0 0.56 65.903 01:48 09.10.2019
517 Clouds 20 1010 99 0 0.69 66.475 01:22 09.10.2019
518 Clouds 20 1010 99 0 0.69 66.475 00:59 09.10.2019
519 Clouds 20 1010 99 0 0.69 66.475 00:40 09.10.2019
520 Clouds 20 1011 99 0 0.22 39.533 00:22 09.10.2019
521 Clouds 20 1011 99 0 0.22 39.533 23:57 08.10.2019
522 Clouds 20 1011 99 0 0.22 39.533 23:37 08.10.2019
523 Clouds 20 1011 99 0 0.22 39.533 23:18 08.10.2019
524 Clouds 20 1011 99 0 0.22 39.533 22:39 08.10.2019
525 Clouds 20 1011 99 0 0.22 39.533 22:20 08.10.2019
526 Clouds 20 1011 99 0 0.22 39.533 22:20 08.10.2019
527 Clouds 20 1011 99 0 0.22 39.533 22:20 08.10.2019
528 Clouds 20 1011 99 0 0.22 39.533 22:20 08.10.2019
529 Clouds 20 1011 99 0 0.22 39.533 21:58 08.10.2019
530 Clouds 20 1011 99 0 0.22 39.533 21:39 08.10.2019
531 Clouds 21 1010 98 0 0.77 287.376 21:19 08.10.2019
532 Clouds 21 1010 98 0 0.77 287.376 20:57 08.10.2019
533 Clouds 21 1010 98 0 0.77 287.376 20:57 08.10.2019
534 Clouds 21 1010 98 0 0.77 287.376 20:57 08.10.2019
535 Clouds 21 1010 98 0 0.58 300.795 20:39 08.10.2019
536 Clouds 21 1010 98 0 0.58 300.795 20:21 08.10.2019
537 Clouds 21 1010 98 0 0.58 300.795 19:58 08.10.2019
538 Clouds 21 1010 98 0 0.58 300.795 19:58 08.10.2019
539 Clouds 21 1010 98 0 0.58 300.795 19:40 08.10.2019
540 Clouds 21 1010 98 0 0.58 300.795 19:22 08.10.2019
541 Clouds 21 1010 98 0 0.58 300.795 18:55 08.10.2019
542 Clouds 21 1010 98 0 0.58 300.795 18:55 08.10.2019
543 Clouds 21 1010 98 0 0.58 300.795 18:36 08.10.2019
544 Clouds 25 1007 79 0 1.58 289.216 18:18 08.10.2019
545 Clouds 25 1007 79 0 1.58 289.216 17:40 08.10.2019
546 Clouds 25 1007 79 0 1.58 289.216 17:21 08.10.2019
547 Clouds 25 1007 79 0 1.58 289.216 16:58 08.10.2019
548 Clouds 25 1007 79 0 1.58 289.216 16:39 08.10.2019
549 Clouds 25 1007 79 0 1.58 289.216 16:21 08.10.2019
550 Clouds 25 1007 79 0 1.58 289.216 15:41 08.10.2019
551 Clouds 23 1011 88 10000 4.1 270 15:21 08.10.2019
552 Clouds 23 1011 88 10000 4.1 270 14:58 08.10.2019
553 Clouds 23 1011 88 10000 4.1 270 14:39 08.10.2019
554 Clouds 23 1011 88 10000 4.1 270 14:20 08.10.2019
555 Clouds 23 1012 88 9000 2.1 260 13:57 08.10.2019
556 Clouds 23 1012 88 9000 2.1 260 13:38 08.10.2019
557 Clouds 23 1012 88 9000 2.1 260 13:19 08.10.2019
558 Clouds 23 1012 88 9000 2.1 260 13:19 08.10.2019
559 Rain 25 1009 78 0 1.92 294.008 12:58 08.10.2019
560 Rain 25 1009 78 0 1.92 294.008 12:37 08.10.2019
561 Rain 22 1013 98 0 0.76 297.006 12:18 08.10.2019
562 Rain 22 1013 98 0 0.76 297.006 11:41 08.10.2019
563 Rain 22 1013 98 0 0.76 297.006 11:41 08.10.2019
564 Thunderstorm 20 1014 100 4000 3.1 280 11:23 08.10.2019
565 Thunderstorm 20 1014 100 4000 3.1 280 10:56 08.10.2019
566 Thunderstorm 20 1014 100 4000 3.1 280 10:37 08.10.2019
567 Thunderstorm 20 1014 100 4000 3.1 280 10:19 08.10.2019
568 Rain 22 1013 98 0 0.76 297.006 09:55 08.10.2019
569 Rain 22 1013 98 0 0.76 297.006 09:37 08.10.2019
570 Rain 21 1013 99 0 0.67 25.537 09:19 08.10.2019
571 Rain 22 1013 99 0 0.35 301.885 08:42 08.10.2019
572 Rain 22 1013 99 0 0.35 301.885 08:23 08.10.2019
573 Rain 22 1013 99 0 0.35 301.885 08:23 08.10.2019
574 Rain 22 1013 99 0 0.35 301.885 07:44 08.10.2019
575 Rain 22 1013 99 0 0.35 301.885 07:21 08.10.2019
576 Rain 22 1013 99 0 0.35 301.885 06:51 08.10.2019
577 Rain 22 1013 99 0 0.35 301.885 06:28 08.10.2019
578 Rain 21 1009 99 0 0.67 339.603 05:46 08.10.2019
579 Rain 21 1009 99 0 0.67 339.603 05:26 08.10.2019
580 Rain 21 1009 99 0 0.67 339.603 04:31 08.10.2019
581 Rain 21 1009 99 0 0.67 339.603 03:27 08.10.2019
582 Rain 21 1008 99 0 2.52 272.551 02:36 08.10.2019
583 Rain 21 1008 99 0 2.52 272.551 01:47 08.10.2019
584 Rain 21 1008 99 0 1.8 267.831 01:27 08.10.2019
585 Rain 21 1008 99 0 1.8 267.831 00:46 08.10.2019
586 Rain 22 1008 97 0 1.15 257.477 00:21 08.10.2019
587 Rain 22 1008 97 0 1.15 257.477 23:40 07.10.2019
588 Rain 22 1008 97 0 1.15 257.477 23:20 07.10.2019
589 Rain 22 1008 97 0 1.15 257.477 22:56 07.10.2019
590 Rain 22 1008 97 0 1.15 257.477 22:56 07.10.2019
591 Rain 22 1008 97 0 1.15 257.477 22:38 07.10.2019
592 Rain 22 1008 97 0 1.15 257.477 22:38 07.10.2019
593 Rain 22 1008 97 0 1.15 257.477 22:20 07.10.2019
594 Rain 22 1008 97 0 1.15 257.477 21:56 07.10.2019
595 Rain 22 1008 97 0 1.15 257.477 21:56 07.10.2019
596 Rain 22 1008 97 0 1.15 257.477 21:38 07.10.2019
597 Rain 23 1006 91 0 1.31 182.491 21:20 07.10.2019
598 Rain 23 1007 94 0 0.84 232.137 20:57 07.10.2019
599 Rain 23 1007 94 0 0.84 232.137 20:39 07.10.2019
600 Rain 23 1007 94 0 0.84 232.137 20:20 07.10.2019
601 Rain 23 1007 94 0 0.84 232.137 19:57 07.10.2019
602 Rain 23 1007 94 0 0.84 232.137 19:39 07.10.2019
603 Clouds 30 1007 62 10000 0.84 232.137 19:18 07.10.2019
604 Clouds 30 1007 62 10000 0.84 232.137 18:56 07.10.2019
605 Clouds 30 1007 62 10000 0.84 232.137 18:38 07.10.2019
606 Clouds 30 1007 62 10000 1.99 229.667 18:18 07.10.2019
607 Clouds 32 1007 55 10000 1.99 229.667 17:42 07.10.2019
608 Clouds 32 1007 55 10000 1.99 229.667 17:20 07.10.2019
609 Rain 25 1004 93 0 1.99 229.667 16:56 07.10.2019
610 Rain 25 1004 93 0 1.99 229.667 16:38 07.10.2019
611 Clouds 32 1008 62 10000 2.1 60 16:19 07.10.2019
612 Clouds 32 1008 62 10000 2.1 60 15:43 07.10.2019
613 Clouds 32 1008 62 10000 2.1 60 15:25 07.10.2019
614 Clouds 31 1005 52 0 0.91 16.82 14:43 07.10.2019
615 Clouds 30 1010 62 10000 3.1 360 14:24 07.10.2019
616 Clouds 30 1010 62 10000 3.1 360 14:24 07.10.2019
617 Clouds 30 1010 62 10000 3.1 360 13:59 07.10.2019
618 Clouds 31 1005 52 0 0.91 16.82 13:41 07.10.2019
619 Clouds 34 1005 42 0 1.06 335.718 13:19 07.10.2019
620 Clouds 34 1005 42 0 1.06 335.718 12:55 07.10.2019
621 Clouds 34 1005 42 0 1.06 335.718 12:37 07.10.2019
622 Clouds 28 1013 65 10000 2.1 60 12:18 07.10.2019
623 Clouds 28 1013 65 10000 2.1 60 11:56 07.10.2019
624 Clouds 28 1013 65 10000 2.1 60 11:37 07.10.2019
625 Clouds 28 1013 65 10000 2.1 60 11:18 07.10.2019
626 Clouds 32 1010 53 0 1 22.218 10:41 07.10.2019
627 Clouds 32 1010 53 0 1 22.218 10:41 07.10.2019
628 Clouds 32 1010 53 0 1 22.218 10:20 07.10.2019
629 Clouds 32 1010 53 0 1 22.218 09:42 07.10.2019
630 Clouds 21 1013 94 6000 0.86 9.462 09:24 07.10.2019
631 Clouds 21 1013 94 6000 0.86 9.462 08:57 07.10.2019
632 Rain 23 1012 95 0 1.2 347.892 08:39 07.10.2019
633 Rain 23 1012 95 0 1.2 347.892 08:19 07.10.2019
634 Rain 23 1012 95 0 1.2 347.892 07:41 07.10.2019
635 Rain 23 1012 95 0 1.2 347.892 07:23 07.10.2019
636 Rain 23 1012 95 0 1.2 347.892 06:54 07.10.2019
637 Rain 23 1012 95 0 1.2 347.892 06:34 07.10.2019
638 Rain 21 1009 99 0 1 325.192 05:49 07.10.2019
639 Rain 21 1009 99 0 1 325.192 05:23 07.10.2019
640 Rain 21 1009 99 0 1 325.192 04:28 07.10.2019
641 Rain 21 1009 99 0 1 325.192 03:45 07.10.2019
642 Rain 22 1009 98 0 1.49 63.625 03:23 07.10.2019
643 Rain 22 1009 98 0 1.49 63.625 02:23 07.10.2019
644 Rain 22 1009 98 0 1.49 63.625 01:52 07.10.2019
645 Clouds 21 1009 94 0 0.61 312.28 01:22 07.10.2019
646 Clouds 21 1009 94 0 0.61 312.28 00:41 07.10.2019
647 Clouds 22 1009 94 0 0.51 281.31 00:22 07.10.2019
648 Clouds 22 1009 94 0 0.51 281.31 23:54 06.10.2019
649 Clouds 22 1009 94 0 0.51 281.31 23:36 06.10.2019
650 Clouds 22 1009 94 0 0.51 281.31 23:18 06.10.2019
651 Clouds 22 1009 94 0 0.51 281.31 22:41 06.10.2019
652 Clouds 22 1009 94 0 0.51 281.31 22:22 06.10.2019
653 Clouds 22 1009 94 0 0.51 281.31 21:58 06.10.2019
654 Clouds 22 1009 94 0 0.51 281.31 21:38 06.10.2019
655 Rain 23 1009 88 0 0.92 295.45 21:19 06.10.2019
656 Rain 23 1009 88 0 0.92 295.45 20:58 06.10.2019
657 Rain 23 1009 92 0 1.38 327.049 20:40 06.10.2019
658 Rain 23 1009 92 0 1.38 327.049 20:21 06.10.2019
659 Rain 23 1009 92 0 1.38 327.049 19:58 06.10.2019
660 Rain 23 1009 92 0 1.38 327.049 19:38 06.10.2019
661 Clouds 21 1010 100 7000 3.1 30 19:20 06.10.2019
662 Clouds 21 1010 100 7000 3.1 30 19:20 06.10.2019
663 Clouds 21 1010 100 7000 3.1 30 18:57 06.10.2019
664 Clouds 21 1010 100 7000 3.1 30 18:39 06.10.2019
665 Clouds 21 1010 100 7000 3.1 30 18:20 06.10.2019
666 Clouds 21 1009 100 7000 3.1 30 17:59 06.10.2019
667 Clouds 21 1009 100 7000 3.1 30 17:39 06.10.2019
668 Clouds 21 1009 100 7000 3.1 30 17:19 06.10.2019
669 Rain 29 1005 72 0 1.15 316.697 16:43 06.10.2019
670 Rain 29 1005 72 0 1.15 316.697 16:24 06.10.2019
671 Rain 29 1005 72 0 1.15 316.697 15:59 06.10.2019
672 Rain 29 1005 72 0 1.15 316.697 15:41 06.10.2019
673 Clouds 31 1006 53 0 1.55 268.894 15:18 06.10.2019
674 Clouds 31 1006 53 0 1.55 268.894 14:43 06.10.2019
675 Clouds 31 1006 53 0 1.55 268.894 14:24 06.10.2019
676 Clouds 31 1006 53 0 1.55 268.894 13:58 06.10.2019
677 Clouds 31 1006 53 0 1.55 268.894 13:39 06.10.2019
678 Thunderstorm 28 1012 74 7000 3.1 310 13:21 06.10.2019
679 Thunderstorm 28 1012 74 7000 3.1 310 12:57 06.10.2019
680 Thunderstorm 28 1012 74 7000 3.1 310 12:39 06.10.2019
681 Thunderstorm 28 1012 74 7000 3.1 310 12:20 06.10.2019
682 Thunderstorm 28 1012 74 7000 3.1 310 12:20 06.10.2019
683 Thunderstorm 28 1013 69 8000 3.1 130 11:57 06.10.2019
684 Thunderstorm 28 1013 69 8000 3.1 130 11:38 06.10.2019
685 Thunderstorm 28 1013 69 8000 3.1 130 11:20 06.10.2019
686 Clouds 27 1013 78 9000 3.1 330 10:44 06.10.2019
687 Clouds 27 1013 78 9000 3.1 330 10:44 06.10.2019
688 Clouds 27 1013 78 8000 3.1 30 10:25 06.10.2019
689 Clouds 27 1013 78 8000 3.1 30 09:58 06.10.2019
690 Clouds 27 1013 78 8000 3.1 30 09:39 06.10.2019
691 Clouds 27 1013 78 8000 3.1 30 09:18 06.10.2019
692 Clouds 24 1012 84 0 0.24 15.745 08:43 06.10.2019
693 Clouds 24 1012 84 0 0.37 12.879 08:21 06.10.2019
694 Clouds 24 1012 84 0 0.37 12.879 07:44 06.10.2019
695 Clouds 24 1012 84 0 0.37 12.879 07:19 06.10.2019
696 Clouds 20 1009 97 0 0.41 59.012 06:20 06.10.2019
697 Clouds 20 1009 97 0 0.41 59.012 05:34 06.10.2019
698 Clouds 20 1009 97 0 0.41 59.012 03:56 06.10.2019
699 Clouds 21 1010 98 0 0.73 101.124 02:43 06.10.2019
700 Clouds 21 1010 98 0 0.73 101.124 02:22 06.10.2019
701 Clouds 21 1010 98 0 0.73 101.124 01:45 06.10.2019
702 Clouds 21 1009 97 0 0.65 84.518 01:27 06.10.2019
703 Clouds 21 1009 97 0 0.65 84.518 00:53 06.10.2019
704 Rain 21 1010 96 0 0.74 87.134 00:27 06.10.2019
705 Rain 21 1010 96 0 0.74 87.134 23:45 05.10.2019
706 Rain 21 1010 96 0 0.74 87.134 23:22 05.10.2019
707 Rain 21 1010 96 0 0.74 87.134 22:58 05.10.2019
708 Rain 21 1010 96 0 0.74 87.134 22:40 05.10.2019
709 Rain 21 1010 96 0 0.74 87.134 22:40 05.10.2019
710 Rain 21 1010 96 0 0.74 87.134 22:20 05.10.2019
711 Rain 21 1010 96 0 0.74 87.134 22:20 05.10.2019
712 Rain 21 1010 96 0 0.74 87.134 21:57 05.10.2019
713 Rain 21 1010 96 0 0.74 87.134 21:38 05.10.2019
714 Clouds 27 1010 74 8000 4.1 50 21:18 05.10.2019
715 Rain 22 1009 93 0 0.37 112.06 20:56 05.10.2019
716 Rain 22 1009 92 0 0.13 163.867 20:37 05.10.2019
717 Clouds 28 1009 69 8000 4.1 180 20:18 05.10.2019
718 Clouds 28 1009 69 8000 4.1 180 19:38 05.10.2019
719 Clouds 28 1009 69 8000 4.1 180 19:19 05.10.2019
720 Clouds 29 1009 66 10000 4.1 180 18:55 05.10.2019
721 Clouds 29 1009 66 10000 4.1 180 18:37 05.10.2019
722 Clouds 29 1009 66 10000 4.1 180 18:19 05.10.2019
723 Clouds 31 1008 58 10000 3.1 180 17:43 05.10.2019
724 Clouds 32 1008 59 10000 3.1 180 17:25 05.10.2019
725 Clouds 32 1008 59 10000 3.1 180 16:58 05.10.2019
726 Clouds 32 1008 59 10000 3.1 180 16:40 05.10.2019
727 Clouds 32 1008 59 10000 3.1 180 16:21 05.10.2019
728 Clouds 32 1010 55 10000 3.1 270 15:57 05.10.2019
729 Clouds 32 1010 55 10000 3.1 270 15:38 05.10.2019
730 Clouds 32 1010 55 10000 3.1 270 15:20 05.10.2019
731 Rain 31 1010 58 10000 2.1 250 14:44 05.10.2019
732 Rain 27 1007 86 0 0.89 286.452 14:26 05.10.2019
733 Rain 27 1007 86 0 0.89 286.452 14:26 05.10.2019
734 Rain 27 1007 86 0 0.89 286.452 13:59 05.10.2019
735 Rain 27 1007 86 0 0.89 286.452 13:41 05.10.2019
736 Clouds 30 1013 66 10000 2.1 160 13:20 05.10.2019
737 Clouds 30 1013 66 10000 2.1 160 12:44 05.10.2019
738 Rain 27 1011 76 0 1.39 314.592 12:20 05.10.2019
739 Rain 27 1011 76 0 1.39 314.592 11:54 05.10.2019
740 Rain 27 1011 76 0 1.39 314.592 11:36 05.10.2019
741 Rain 27 1011 76 0 1.39 314.592 11:18 05.10.2019
742 Rain 27 1011 76 0 1.39 314.592 10:44 05.10.2019
743 Clouds 27 1018 78 10000 1.5 0 10:24 05.10.2019
744 Clouds 27 1018 78 10000 1.5 0 09:56 05.10.2019
745 Clouds 27 1018 78 10000 1.5 0 09:38 05.10.2019
746 Clouds 27 1018 78 10000 1.5 0 09:38 05.10.2019
747 Clouds 27 1018 78 10000 1.5 0 09:20 05.10.2019
748 Clouds 22 1013 97 0 0.84 287.854 08:39 05.10.2019
749 Clouds 22 1013 97 0 0.84 287.854 08:19 05.10.2019
750 Clouds 22 1013 97 0 0.84 287.854 08:19 05.10.2019
751 Clouds 22 1013 97 0 0.84 287.854 07:53 05.10.2019
752 Clouds 22 1013 97 0 0.84 287.854 07:32 05.10.2019
753 Clouds 22 1013 97 0 0.84 287.854 06:57 05.10.2019
754 Clouds 22 1013 97 0 0.84 287.854 06:26 05.10.2019
755 Rain 21 1010 98 0 0.74 313.911 05:40 05.10.2019
756 Rain 21 1010 98 0 0.74 313.911 03:41 05.10.2019
757 Rain 21 1010 98 0 0.74 313.911 03:41 05.10.2019
758 Rain 21 1010 99 0 0.24 260.38 03:22 05.10.2019
759 Rain 21 1010 98 0 0.77 219.787 01:30 05.10.2019
760 Rain 21 1010 98 0 0.77 219.787 00:58 05.10.2019
761 Rain 21 1010 98 0 0.77 219.787 00:40 05.10.2019
762 Rain 21 1011 98 0 0.39 224.379 00:22 05.10.2019
763 Rain 21 1011 98 0 0.39 224.379 23:43 04.10.2019
764 Rain 21 1011 98 0 0.39 224.379 23:43 04.10.2019
765 Rain 21 1011 98 0 0.39 224.379 23:24 04.10.2019
766 Rain 21 1011 98 0 0.39 224.379 22:59 04.10.2019
767 Rain 21 1011 98 0 0.39 224.379 22:39 04.10.2019
768 Rain 21 1011 98 0 0.39 224.379 22:20 04.10.2019
769 Rain 21 1011 98 0 0.39 224.379 21:56 04.10.2019
770 Rain 21 1011 98 0 0.39 224.379 21:38 04.10.2019
771 Rain 22 1010 97 0 1.07 182.364 21:19 04.10.2019
772 Rain 22 1009 96 0 0.99 181.043 20:54 04.10.2019
773 Rain 22 1009 96 0 0.99 181.043 20:36 04.10.2019
774 Rain 22 1009 96 0 0.99 181.043 20:18 04.10.2019
775 Rain 22 1009 96 0 0.99 181.043 19:41 04.10.2019
776 Rain 22 1009 96 0 0.99 181.043 19:23 04.10.2019
777 Rain 22 1009 96 0 0.99 181.043 18:56 04.10.2019
778 Rain 22 1009 96 0 0.99 181.043 18:37 04.10.2019
779 Clouds 29 1009 62 10000 2.1 240 18:19 04.10.2019
780 Rain 28 1006 73 0 0.43 168.847 17:42 04.10.2019
781 Rain 28 1006 73 0 0.43 168.847 17:22 04.10.2019
782 Rain 28 1006 73 0 0.43 168.847 16:59 04.10.2019
783 Rain 28 1006 73 0 0.43 168.847 16:41 04.10.2019
784 Clouds 30 1010 62 10000 2.1 240 16:19 04.10.2019
785 Clouds 30 1010 62 10000 2.1 240 15:58 04.10.2019
786 Clouds 30 1010 62 10000 2.1 240 15:39 04.10.2019
787 Clouds 30 1010 62 10000 2.1 240 15:20 04.10.2019
788 Clouds 29 1011 66 10000 2.1 200 14:57 04.10.2019
789 Clouds 29 1011 66 10000 2.1 200 14:39 04.10.2019
790 Clouds 29 1011 66 10000 2.1 200 14:21 04.10.2019
791 Rain 28 1008 72 0 0.96 296.084 13:45 04.10.2019
792 Rain 28 1008 73 0 1.15 255.072 13:23 04.10.2019
793 Rain 28 1008 73 0 1.15 255.072 12:58 04.10.2019
794 Rain 28 1008 73 0 1.15 255.072 12:40 04.10.2019
795 Clouds 26 1014 78 10000 3.1 310 12:21 04.10.2019
796 Clouds 29 1013 59 0 1.09 276.404 11:43 04.10.2019
797 Clouds 29 1013 59 0 1.09 276.404 11:42 04.10.2019
798 Clouds 29 1013 59 0 1.09 276.404 11:22 04.10.2019
799 Clouds 29 1013 59 0 1.09 276.404 10:55 04.10.2019
800 Clouds 29 1013 59 0 1.09 276.404 10:37 04.10.2019
801 Clouds 29 1013 59 0 1.09 276.404 10:18 04.10.2019
802 Clouds 29 1013 59 0 1.09 276.404 09:41 04.10.2019
803 Rain 22 1014 100 6000 3.1 340 09:23 04.10.2019
804 Rain 22 1014 100 6000 3.1 340 08:45 04.10.2019
805 Rain 22 1014 100 6000 3.1 340 08:26 04.10.2019
806 Rain 22 1013 96 0 1.05 304.1 07:47 04.10.2019
807 Rain 22 1013 96 0 1.05 304.1 07:26 04.10.2019
808 Rain 22 1013 96 0 1.05 304.1 06:59 04.10.2019
809 Rain 22 1013 96 0 1.05 304.1 06:59 04.10.2019
810 Rain 22 1013 96 0 1.05 304.1 06:39 04.10.2019
811 Rain 22 1013 96 0 1.05 304.1 06:39 04.10.2019
812 Rain 21 1010 99 0 1.3 267.743 06:21 04.10.2019
813 Rain 21 1010 99 0 1.3 267.743 05:21 04.10.2019
814 Rain 21 1010 99 0 1.3 267.743 04:38 04.10.2019
815 Rain 21 1010 99 0 1.3 267.743 03:28 04.10.2019
816 Rain 21 1010 99 0 1 295.289 02:44 04.10.2019
817 Rain 21 1010 99 0 1 295.289 01:54 04.10.2019
818 Rain 21 1010 99 0 1.19 282.524 01:26 04.10.2019
819 Rain 21 1010 99 0 1.19 282.524 00:33 04.10.2019
820 Rain 21 1011 98 0 1.33 268.795 23:40 03.10.2019
821 Rain 21 1011 98 0 1.33 268.795 23:21 03.10.2019
822 Rain 21 1011 98 0 1.33 268.795 22:57 03.10.2019
823 Rain 21 1011 98 0 1.33 268.795 22:39 03.10.2019
824 Rain 21 1011 98 0 1.33 268.795 22:21 03.10.2019
825 Rain 21 1011 98 0 1.33 268.795 22:21 03.10.2019
826 Rain 21 1011 98 0 1.33 268.795 21:58 03.10.2019
827 Rain 21 1011 98 0 1.33 268.795 21:39 03.10.2019
828 Rain 22 1010 97 0 1.43 247.841 21:20 03.10.2019
829 Rain 22 1010 97 0 1.43 247.841 20:58 03.10.2019
830 Rain 22 1010 97 0 1.43 247.841 20:58 03.10.2019
831 Rain 22 1010 97 0 1.25 273.385 20:38 03.10.2019
832 Rain 22 1010 97 0 1.25 273.385 20:20 03.10.2019
833 Rain 22 1010 97 0 1.25 273.385 19:56 03.10.2019
834 Rain 22 1010 97 0 1.25 273.385 19:37 03.10.2019
835 Clouds 25 1010 83 8000 1.5 0 19:19 03.10.2019
836 Clouds 25 1010 83 8000 1.5 0 18:55 03.10.2019
837 Rain 22 1010 97 0 1.25 273.385 18:37 03.10.2019
838 Clouds 26 1009 78 8000 3.1 340 18:18 03.10.2019
839 Rain 25 1007 94 0 1.26 237.595 17:42 03.10.2019
840 Rain 25 1007 94 0 1.26 237.595 17:42 03.10.2019
841 Rain 25 1007 94 0 1.26 237.595 17:21 03.10.2019
842 Rain 25 1007 94 0 1.26 237.595 16:55 03.10.2019
843 Rain 25 1007 94 0 1.26 237.595 16:37 03.10.2019
844 Thunderstorm 30 1009 70 10000 2.1 120 16:19 03.10.2019
845 Thunderstorm 30 1009 70 10000 2.1 120 15:43 03.10.2019
846 Rain 27 1007 89 0 1.81 288.225 15:24 03.10.2019
847 Rain 27 1007 89 0 1.81 288.225 14:58 03.10.2019
848 Rain 27 1007 89 0 1.81 288.225 14:36 03.10.2019
849 Rain 27 1007 89 0 1.81 288.225 14:36 03.10.2019
850 Clouds 30 1010 66 10000 2.1 250 14:18 03.10.2019
851 Clouds 30 1010 66 10000 2.1 250 13:43 03.10.2019
852 -273 0 0 0 0 0 13:43 03.10.2019
853 Clouds 30 1010 66 10000 2.1 250 13:24 03.10.2019
854 Clouds 30 1012 70 10000 2.1 250 12:58 03.10.2019
855 Clouds 30 1012 70 10000 2.1 250 12:39 03.10.2019
856 Clouds 30 1012 70 10000 2.1 250 12:39 03.10.2019
857 Clouds 30 1012 70 10000 2.1 250 12:20 03.10.2019
858 Clouds 29 1013 66 10000 3.1 280 11:57 03.10.2019
859 Clouds 29 1013 66 10000 3.1 280 11:39 03.10.2019
860 Clouds 29 1013 66 10000 3.1 280 11:21 03.10.2019
861 Rain 24 1012 90 0 2.28 261.443 10:56 03.10.2019
862 Rain 24 1012 90 0 2.28 261.443 10:38 03.10.2019
863 Clouds 25 1014 83 10000 2.28 261.443 10:18 03.10.2019
864 Clouds 25 1014 83 10000 2.28 261.443 09:56 03.10.2019
865 Clouds 25 1014 83 10000 2.28 261.443 09:37 03.10.2019
866 Clouds 25 1014 83 10000 2.29 324.349 09:19 03.10.2019
867 Rain 21 1013 99 0 2.13 34.033 08:42 03.10.2019
868 Rain 21 1013 99 0 2.13 34.033 08:23 03.10.2019
869 Rain 21 1013 99 0 2.13 34.033 07:42 03.10.2019
870 Rain 21 1013 99 0 2.13 34.033 07:42 03.10.2019
871 Rain 21 1013 99 0 2.13 34.033 07:20 03.10.2019
872 Rain 21 1013 99 0 2.13 34.033 07:20 03.10.2019
873 Rain 21 1013 99 0 2.13 34.033 06:52 03.10.2019
874 Rain 21 1010 99 0 1.14 352.212 06:26 03.10.2019
875 Rain 21 1010 99 0 1.14 352.212 05:48 03.10.2019
876 Rain 21 1010 99 0 1.14 352.212 05:27 03.10.2019
877 Rain 21 1010 99 0 1.14 352.212 04:44 03.10.2019
878 Rain 21 1010 99 0 1.14 352.212 03:54 03.10.2019
879 Rain 21 1009 97 0 0.27 242.124 03:18 03.10.2019
880 Rain 21 1009 97 0 0.27 242.124 02:21 03.10.2019
881 Rain 21 1009 97 0 0.27 242.124 01:38 03.10.2019
882 Rain 21 1009 96 0 0.53 257.671 00:52 03.10.2019
883 Rain 21 1009 96 0 0.53 257.671 00:31 03.10.2019
884 Rain 22 1011 96 0 0.88 167.436 23:44 02.10.2019
885 Rain 22 1011 96 0 0.88 167.436 23:25 02.10.2019
886 Rain 22 1011 96 0 0.88 167.436 22:57 02.10.2019
887 Rain 22 1011 96 0 0.88 167.436 22:38 02.10.2019
888 Rain 22 1011 96 0 0.88 167.436 22:18 02.10.2019
889 Rain 22 1011 96 0 0.88 167.436 21:55 02.10.2019
890 Rain 22 1011 96 0 0.88 167.436 21:36 02.10.2019
891 Thunderstorm 27 1008 74 7000 3.1 90 21:18 02.10.2019
892 Thunderstorm 27 1008 74 7000 3.1 90 20:55 02.10.2019
893 Thunderstorm 27 1008 74 7000 3.1 90 20:36 02.10.2019
894 Thunderstorm 27 1008 74 7000 3.1 90 20:18 02.10.2019
895 Clouds 24 1009 84 0 1.12 187.379 19:43 02.10.2019
896 Clouds 29 1008 66 10000 4.1 330 19:22 02.10.2019
897 Clouds 29 1008 66 10000 4.1 330 18:58 02.10.2019
898 Clouds 24 1009 84 0 1.12 187.379 18:39 02.10.2019
899 Clouds 32 1018 55 10000 4.1 330 18:21 02.10.2019
900 Clouds 32 1018 55 10000 4.1 330 17:57 02.10.2019
901 Clouds 32 1018 55 10000 4.1 330 17:57 02.10.2019
902 Clear 30 1006 60 0 1.21 232.892 17:38 02.10.2019
903 Clouds 33 1018 55 10000 4.1 330 17:20 02.10.2019
904 Clouds 33 1018 55 10000 4.1 330 16:45 02.10.2019
905 Clear 30 1006 60 0 1.21 232.892 16:22 02.10.2019
906 Clear 30 1006 60 0 1.21 232.892 15:59 02.10.2019
907 Clear 30 1006 60 0 1.21 232.892 15:41 02.10.2019
908 Clouds 31 1010 66 10000 1.35 240.735 15:23 02.10.2019
909 Clouds 31 1010 66 10000 1.35 240.735 14:58 02.10.2019
910 Clouds 31 1010 66 10000 1.35 240.735 14:40 02.10.2019
911 Rain 32 1007 48 0 1.35 240.735 14:20 02.10.2019
912 Rain 32 1007 48 0 1.35 240.735 13:45 02.10.2019
913 Clouds 31 1013 66 10000 2.1 150 13:26 02.10.2019
914 Clouds 31 1013 66 10000 2.1 150 12:59 02.10.2019
915 Clouds 31 1013 66 10000 2.1 150 12:38 02.10.2019
916 Clouds 29 1013 70 10000 3.1 170 12:20 02.10.2019
917 Clouds 29 1013 70 10000 3.1 170 11:45 02.10.2019
918 Rain 27 1012 80 0 1.38 281.31 11:23 02.10.2019
919 Rain 27 1012 80 0 1.38 281.31 10:42 02.10.2019
920 Clouds 27 1014 74 8000 3.1 330 10:20 02.10.2019
921 Clouds 27 1014 74 8000 3.1 330 09:59 02.10.2019
922 Clouds 27 1014 74 8000 3.1 330 09:38 02.10.2019
923 Clouds 23 1014 88 6000 3.1 250 09:20 02.10.2019
924 Clouds 23 1014 88 6000 3.1 250 08:46 02.10.2019
925 Clouds 23 1013 93 0 0.34 93.904 08:25 02.10.2019
926 Clouds 23 1013 93 0 0.34 93.904 07:59 02.10.2019
927 Clouds 23 1013 93 0 0.34 93.904 07:39 02.10.2019
928 Clouds 23 1013 93 0 0.34 93.904 07:20 02.10.2019
929 Clouds 23 1013 93 0 0.34 93.904 06:40 02.10.2019
930 Rain 21 1010 98 0 0.11 212.8 05:55 02.10.2019
931 -273 0 0 0 0 0 05:24 02.10.2019
932 Rain 21 1010 98 0 0.11 212.8 04:53 02.10.2019
933 Rain 21 1010 98 0 0.11 212.8 03:52 02.10.2019
934 Rain 21 1009 98 0 0.7 217.117 02:42 02.10.2019
935 Rain 21 1009 98 0 0.7 217.117 02:23 02.10.2019
936 Rain 21 1009 98 0 0.7 217.117 01:40 02.10.2019
937 Rain 21 1009 98 0 0.22 169.649 00:50 02.10.2019
938 Rain 21 1009 98 0 0.22 169.649 00:27 02.10.2019
939 Rain 21 1011 97 0 0.93 212.443 23:44 01.10.2019
940 Rain 21 1011 97 0 0.93 212.443 23:25 01.10.2019
941 Rain 21 1011 97 0 0.93 212.443 22:59 01.10.2019
942 Rain 21 1011 97 0 0.93 212.443 22:40 01.10.2019
943 Rain 21 1011 97 0 0.93 212.443 22:20 01.10.2019
944 Rain 21 1011 97 0 0.93 212.443 22:20 01.10.2019
945 Rain 21 1011 97 0 0.93 212.443 22:20 01.10.2019
946 Rain 21 1011 97 0 0.93 212.443 21:57 01.10.2019
947 Rain 21 1011 97 0 0.93 212.443 21:38 01.10.2019
948 Rain 23 1009 86 0 0.62 193.768 21:20 01.10.2019
949 Rain 23 1009 86 0 0.62 193.768 20:56 01.10.2019
950 Clouds 24 1008 81 0 1.06 214.97 20:38 01.10.2019
951 Clouds 24 1008 81 0 1.06 214.97 20:19 01.10.2019
952 Clouds 24 1008 81 0 1.06 214.97 19:56 01.10.2019
953 Clouds 24 1008 81 0 1.06 214.97 19:38 01.10.2019
954 Clouds 24 1008 81 0 1.06 214.97 19:18 01.10.2019
955 Clouds 24 1008 81 0 1.06 214.97 18:40 01.10.2019
956 Clouds 29 1005 62 0 0.87 289.041 18:22 01.10.2019
957 Clouds 29 1005 62 0 0.87 289.041 17:58 01.10.2019
958 Clouds 29 1005 62 0 0.87 289.041 17:40 01.10.2019
959 Clouds 29 1005 62 0 0.87 289.041 17:19 01.10.2019
960 Clouds 29 1005 62 0 0.87 289.041 16:57 01.10.2019
961 Clouds 29 1005 62 0 0.87 289.041 16:39 01.10.2019
962 Clouds 29 1005 62 0 0.87 289.041 16:21 01.10.2019
963 Clouds 29 1005 62 0 0.87 289.041 15:46 01.10.2019
964 Clouds 31 1006 50 0 1.9 280.54 15:23 01.10.2019
965 Clouds 31 1006 50 0 1.9 280.54 14:42 01.10.2019
966 Clouds 28 1012 69 8000 4.1 250 14:21 01.10.2019
967 Clouds 28 1012 69 8000 4.1 250 13:59 01.10.2019
968 Clouds 28 1012 69 8000 4.1 250 13:39 01.10.2019
969 Clouds 32 1006 47 0 1.96 288.823 13:21 01.10.2019
970 Clouds 32 1006 47 0 1.96 288.823 12:58 01.10.2019
971 Clouds 32 1006 47 0 1.96 288.823 12:39 01.10.2019
972 Clouds 26 1014 83 7000 4.1 250 12:19 01.10.2019
973 Clouds 26 1014 83 7000 4.1 250 11:58 01.10.2019
974 Clouds 26 1014 83 7000 4.1 250 11:38 01.10.2019
975 Clouds 25 1015 94 7000 4.1 250 11:19 01.10.2019
976 Clouds 25 1015 94 7000 4.1 250 10:49 01.10.2019
977 Clouds 30 1012 50 0 1.66 276.103 10:29 01.10.2019
978 Clouds 30 1012 50 0 1.66 276.103 09:57 01.10.2019
979 Clouds 30 1012 50 0 1.66 276.103 09:39 01.10.2019
980 Clouds 23 1013 79 0 0.54 267.543 09:21 01.10.2019
981 Clouds 23 1013 79 0 1.04 299.087 08:42 01.10.2019
982 Clouds 23 1013 79 0 1.04 299.087 08:24 01.10.2019
983 Clouds 23 1013 79 0 1.04 299.087 07:48 01.10.2019
984 Clouds 23 1013 79 0 1.04 299.087 07:25 01.10.2019
985 Clouds 23 1013 79 0 1.04 299.087 06:48 01.10.2019
986 Clouds 19 1011 95 0 0.76 283.927 06:19 01.10.2019
987 Clouds 19 1011 95 0 0.76 283.927 05:46 01.10.2019
988 Clouds 19 1011 95 0 0.76 283.927 05:18 01.10.2019
989 Clouds 19 1011 95 0 0.76 283.927 04:29 01.10.2019
990 Clouds 20 1011 92 0 0.59 280.41 02:29 01.10.2019
991 Clouds 20 1011 92 0 0.59 280.41 01:59 01.10.2019
992 Clouds 21 1010 89 0 0.69 289.361 00:57 01.10.2019
993 Clouds 21 1010 89 0 0.69 289.361 00:29 01.10.2019
994 Clouds 21 1012 89 0 0.96 292.537 23:57 30.09.2019
995 Clouds 21 1012 89 0 0.96 292.537 23:39 30.09.2019
996 Clouds 21 1012 89 0 0.96 292.537 23:19 30.09.2019
997 Clouds 21 1012 89 0 0.96 292.537 22:43 30.09.2019
998 Clouds 21 1012 89 0 0.96 292.537 22:24 30.09.2019
999 Clouds 21 1012 89 0 0.96 292.537 21:57 30.09.2019
1000 Clouds 21 1012 89 0 0.96 292.537 21:38 30.09.2019
1001 Clouds 21 1011 92 0 0.89 272.119 21:19 30.09.2019
1002 Clouds 21 1011 92 0 0.89 272.119 20:57 30.09.2019
1003 Clouds 21 1010 88 0 0.71 278.826 20:38 30.09.2019
1004 Clouds 21 1010 88 0 0.71 278.826 20:20 30.09.2019
1005 Clouds 21 1010 88 0 0.71 278.826 19:56 30.09.2019
1006 Clouds 21 1010 88 0 0.71 278.826 19:38 30.09.2019
1007 Clouds 21 1010 88 0 0.71 278.826 19:19 30.09.2019
1008 Clouds 21 1010 88 0 0.71 278.826 18:57 30.09.2019
1009 Clouds 21 1010 88 0 0.71 278.826 18:57 30.09.2019
1010 Clouds 21 1010 88 0 0.71 278.826 18:37 30.09.2019
1011 Clouds 30 1009 62 10000 3.1 190 18:19 30.09.2019
1012 Clouds 30 1009 62 10000 3.1 190 17:42 30.09.2019
1013 Clouds 30 1009 62 10000 2.1 290 17:22 30.09.2019
1014 Clouds 30 1009 62 10000 2.1 290 16:57 30.09.2019
1015 Clouds 25 1008 69 0 1.04 294.671 16:39 30.09.2019
1016 Clouds 30 1010 66 10000 2.1 270 16:19 30.09.2019
1017 Clouds 30 1010 66 10000 2.1 270 15:58 30.09.2019
1018 Clouds 30 1010 66 10000 2.1 270 15:37 30.09.2019
1019 Clouds 30 1012 62 10000 3.1 90 15:19 30.09.2019
1020 Clouds 22 1009 91 0 0.82 313.022 14:57 30.09.2019
1021 Clouds 22 1009 91 0 0.82 313.022 14:37 30.09.2019
1022 Clouds 27 1013 74 10000 4.1 320 14:18 30.09.2019
1023 Clouds 27 1013 74 10000 4.1 320 14:18 30.09.2019
1024 Clouds 27 1013 74 10000 4.1 320 14:18 30.09.2019
1025 Clouds 27 1013 74 10000 4.1 320 13:56 30.09.2019
1026 Clouds 27 1013 74 10000 4.1 320 13:37 30.09.2019
1027 Clouds 26 1014 78 10000 1.47 299.856 13:19 30.09.2019
1028 Clouds 26 1014 78 10000 1.47 299.856 12:42 30.09.2019
1029 Clouds 22 1014 94 0 0.29 264.408 12:22 30.09.2019
1030 Clouds 22 1014 94 0 0.29 264.408 11:56 30.09.2019
1031 Clouds 22 1014 94 0 0.29 264.408 11:56 30.09.2019
1032 Clouds 22 1014 94 0 0.29 264.408 11:56 30.09.2019
1033 Clouds 22 1014 94 0 0.29 264.408 11:38 30.09.2019
1034 Clouds 22 1014 94 0 0.29 264.408 11:19 30.09.2019
1035 Clouds 22 1014 94 0 0.29 264.408 10:41 30.09.2019
1036 Clouds 22 1014 94 0 0.29 264.408 10:41 30.09.2019
1037 Clouds 22 1014 94 0 0.29 264.408 10:19 30.09.2019
1038 Clouds 22 1014 94 0 0.29 264.408 09:59 30.09.2019
1039 Clouds 22 1014 94 0 0.29 264.408 09:39 30.09.2019
1040 Rain 21 1014 98 0 0.55 159.811 09:20 30.09.2019
1041 Rain 21 1014 98 0 0.55 159.811 08:47 30.09.2019
1042 Rain 21 1014 98 0 0.55 159.811 08:47 30.09.2019
1043 Rain 20 1014 98 0 0.84 177.603 08:29 30.09.2019
1044 Rain 20 1014 98 0 0.84 177.603 07:46 30.09.2019
1045 Rain 20 1014 98 0 0.84 177.603 07:28 30.09.2019
1046 Rain 20 1014 98 0 0.84 177.603 06:56 30.09.2019
1047 Rain 20 1014 98 0 0.84 177.603 06:56 30.09.2019
1048 Rain 20 1014 98 0 0.84 177.603 06:56 30.09.2019
1049 Rain 20 1014 98 0 0.84 177.603 06:34 30.09.2019
1050 Rain 20 1011 99 0 0.09 145.46 05:48 30.09.2019
1051 Rain 20 1011 99 0 0.09 145.46 05:48 30.09.2019
1052 Rain 20 1011 99 0 0.09 145.46 04:53 30.09.2019
1053 Rain 20 1011 99 0 0.51 282.784 02:48 30.09.2019
1054 Rain 20 1011 98 0 0.22 35.446 01:39 30.09.2019
1055 Rain 20 1011 98 0 0.22 35.446 00:43 30.09.2019
1056 Clouds 20 1012 98 0 0.91 341.982 00:23 30.09.2019
1057 Clouds 20 1012 98 0 0.91 341.982 23:56 29.09.2019
1058 Clouds 20 1012 98 0 0.91 341.982 23:38 29.09.2019
1059 Clouds 20 1012 98 0 0.91 341.982 23:19 29.09.2019
1060 Clouds 20 1012 98 0 0.91 341.982 22:42 29.09.2019
1061 Clouds 20 1012 98 0 0.91 341.982 22:23 29.09.2019
1062 Clouds 20 1012 98 0 0.91 341.982 21:58 29.09.2019
1063 Clouds 20 1012 98 0 0.91 341.982 21:38 29.09.2019
1064 Rain 21 1012 97 0 1.41 293.855 21:19 29.09.2019
1065 Rain 21 1012 97 0 1.41 293.855 21:19 29.09.2019
1066 Rain 21 1012 97 0 1.41 293.855 20:55 29.09.2019
1067 Rain 21 1012 97 0 1.41 293.855 20:55 29.09.2019
1068 Rain 21 1012 97 0 1.41 293.855 20:55 29.09.2019
1069 Rain 21 1012 97 0 1.41 293.855 20:37 29.09.2019
1070 Rain 21 1011 99 0 1.09 260.339 20:19 29.09.2019
1071 Rain 21 1011 99 0 1.09 260.339 19:39 29.09.2019
1072 Rain 21 1011 99 0 1.09 260.339 19:19 29.09.2019
1073 Rain 21 1011 99 0 1.09 260.339 18:57 29.09.2019
1074 Rain 21 1011 99 0 1.09 260.339 18:57 29.09.2019
1075 Rain 21 1011 99 0 1.09 260.339 18:38 29.09.2019
1076 Rain 24 1009 91 0 1.9 252.279 18:20 29.09.2019
1077 Rain 24 1009 91 0 1.9 252.279 17:59 29.09.2019
1078 Rain 24 1009 91 0 1.9 252.279 17:41 29.09.2019
1079 Rain 24 1009 91 0 1.9 252.279 17:41 29.09.2019
1080 Rain 24 1009 91 0 1.9 252.279 17:20 29.09.2019
1081 Rain 24 1009 91 0 1.9 252.279 17:20 29.09.2019
1082 Rain 24 1009 91 0 1.9 252.279 16:59 29.09.2019
1083 Rain 24 1009 91 0 1.9 252.279 16:59 29.09.2019
1084 Rain 24 1009 91 0 1.9 252.279 16:40 29.09.2019
1085 Rain 21 1013 100 4000 2.1 180 16:19 29.09.2019
1086 Rain 21 1013 100 4000 2.1 180 15:57 29.09.2019
1087 Rain 21 1013 100 4000 2.1 180 15:37 29.09.2019
1088 Thunderstorm 21 1013 100 4000 2.1 90 15:18 29.09.2019
1089 Thunderstorm 21 1013 100 4000 2.1 90 14:56 29.09.2019
1090 Rain 28 1009 68 0 2.95 249.564 14:37 29.09.2019
1091 Thunderstorm 21 1014 100 4000 4.1 280 14:18 29.09.2019
1092 Thunderstorm 21 1014 100 4000 4.1 280 13:54 29.09.2019
1093 Thunderstorm 21 1015 100 1000 8.2 340 13:36 29.09.2019
1094 Thunderstorm 21 1015 100 1000 8.2 340 13:18 29.09.2019
1095 Thunderstorm 21 1015 100 1000 8.2 340 12:55 29.09.2019
1096 Rain 28 1009 67 0 2.96 248.296 12:37 29.09.2019
1097 Thunderstorm 24 1015 88 1000 5.1 300 12:19 29.09.2019
1098 Thunderstorm 24 1015 88 1000 5.1 300 11:41 29.09.2019
1099 Clouds 25 1015 83 6000 3.1 280 11:19 29.09.2019
1100 Clouds 25 1015 83 6000 3.1 280 10:58 29.09.2019
1101 Rain 25 1013 82 0 2.78 270.68 10:38 29.09.2019
1102 Rain 25 1013 82 0 2.78 270.68 10:20 29.09.2019
1103 Rain 25 1013 82 0 2.78 270.68 09:57 29.09.2019
1104 Rain 25 1013 82 0 2.78 270.68 09:38 29.09.2019
1105 Rain 21 1014 99 0 1.4 260.974 09:18 29.09.2019
1106 Rain 21 1014 99 0 1.4 260.974 08:42 29.09.2019
1107 Rain 22 1014 99 0 0.85 272.504 08:22 29.09.2019
1108 Rain 22 1014 99 0 0.85 272.504 07:44 29.09.2019
1109 Rain 22 1014 99 0 0.85 272.504 07:26 29.09.2019
1110 Rain 22 1014 99 0 0.85 272.504 06:49 29.09.2019
1111 Rain 21 1010 99 0 0.74 47.898 05:58 29.09.2019
1112 Rain 21 1010 99 0 0.74 47.898 04:45 29.09.2019
1113 Rain 21 1010 99 0 0.74 47.898 04:23 29.09.2019
1114 Rain 21 1009 99 0 0.83 272.7 02:58 29.09.2019
1115 Rain 21 1009 99 0 0.83 272.7 02:19 29.09.2019
1116 Rain 21 1009 99 0 0.83 272.7 01:40 29.09.2019
1117 Rain 21 1009 99 0 0.56 257.614 00:55 29.09.2019
1118 Rain 21 1009 99 0 0.56 257.614 00:36 29.09.2019
1119 Rain 22 1011 96 0 0.74 223.622 00:18 29.09.2019
1120 Rain 22 1011 96 0 0.74 223.622 23:37 28.09.2019
1121 Rain 22 1011 96 0 0.74 223.622 23:37 28.09.2019
1122 Rain 22 1011 96 0 0.74 223.622 23:19 28.09.2019
1123 Rain 22 1011 96 0 0.74 223.622 22:40 28.09.2019
1124 Rain 22 1011 96 0 0.74 223.622 22:21 28.09.2019
1125 Rain 22 1011 96 0 0.74 223.622 22:21 28.09.2019
1126 Rain 22 1011 96 0 0.74 223.622 21:58 28.09.2019
1127 Rain 22 1011 96 0 0.74 223.622 21:40 28.09.2019
1128 Rain 23 1009 93 0 1.15 227.333 21:21 28.09.2019
1129 Rain 23 1009 93 0 1.15 227.333 20:57 28.09.2019
1130 Rain 23 1009 93 0 0.79 201.183 20:39 28.09.2019
1131 Rain 23 1009 93 0 0.79 201.183 20:19 28.09.2019
1132 Rain 23 1009 93 0 0.79 201.183 20:19 28.09.2019
1133 Rain 23 1009 93 0 0.79 201.183 19:56 28.09.2019
1134 Rain 23 1009 93 0 0.79 201.183 19:38 28.09.2019
1135 Thunderstorm 25 1010 83 3000 5.1 120 19:20 28.09.2019
1136 Thunderstorm 25 1010 83 3000 5.1 120 18:57 28.09.2019
1137 Thunderstorm 25 1010 83 3000 5.1 120 18:38 28.09.2019
1138 Rain 28 1007 81 0 0.61 88.119 18:20 28.09.2019
1139 Rain 28 1007 81 0 0.61 88.119 17:56 28.09.2019
1140 Rain 28 1007 81 0 0.61 88.119 17:37 28.09.2019
1141 Rain 28 1007 81 0 0.61 88.119 17:19 28.09.2019
1142 Rain 28 1007 81 0 0.61 88.119 16:41 28.09.2019
1143 Rain 28 1007 81 0 0.61 88.119 16:23 28.09.2019
1144 Rain 28 1007 81 0 0.61 88.119 15:42 28.09.2019
1145 Clouds 29 1009 74 10000 3.1 120 15:23 28.09.2019
1146 Clouds 29 1009 74 10000 3.1 120 14:58 28.09.2019
1147 Clouds 29 1009 74 10000 3.1 120 14:39 28.09.2019
1148 Clouds 32 1011 62 10000 3.1 120 14:21 28.09.2019
1149 Clouds 32 1011 62 10000 3.1 120 13:57 28.09.2019
1150 Clouds 33 1007 46 0 0.9 106.253 13:38 28.09.2019
1151 Clouds 31 1013 66 10000 3.1 90 13:19 28.09.2019
1152 Clouds 31 1013 66 10000 3.1 90 12:44 28.09.2019
1153 Clouds 31 1023 62 10000 3.1 120 12:20 28.09.2019
1154 Clouds 31 1023 62 10000 3.1 120 11:55 28.09.2019
1155 Rain 28 1012 74 0 1.23 86.406 11:37 28.09.2019
1156 Rain 28 1012 74 0 1.23 86.406 11:18 28.09.2019
1157 Rain 28 1012 74 0 1.23 86.406 11:18 28.09.2019
1158 Rain 28 1012 74 0 1.23 86.406 10:42 28.09.2019
1159 Rain 28 1012 74 0 1.23 86.406 10:20 28.09.2019
1160 Rain 28 1012 74 0 1.23 86.406 09:56 28.09.2019
1161 Rain 28 1012 74 0 1.23 86.406 09:37 28.09.2019
1162 Rain 22 1014 95 0 0.72 53.194 09:18 28.09.2019
1163 Rain 22 1014 94 0 1.03 77.994 08:44 28.09.2019
1164 Rain 22 1014 94 0 1.03 77.994 08:26 28.09.2019
1165 Rain 22 1014 94 0 1.03 77.994 07:45 28.09.2019
1166 Rain 22 1014 94 0 1.03 77.994 07:21 28.09.2019
1167 Rain 22 1014 94 0 1.03 77.994 06:55 28.09.2019
1168 Rain 22 1014 94 0 1.03 77.994 06:32 28.09.2019
1169 Clouds 21 1011 91 0 0.73 103.088 05:55 28.09.2019
1170 Clouds 21 1011 91 0 0.73 103.088 05:21 28.09.2019
1171 Clouds 21 1011 91 0 0.73 103.088 04:40 28.09.2019
1172 Clouds 21 1011 91 0 0.73 103.088 03:58 28.09.2019
1173 Clouds 22 1011 90 0 0.75 94.598 03:24 28.09.2019
1174 Clouds 22 1011 90 0 0.75 94.598 02:57 28.09.2019
1175 Clouds 22 1011 90 0 0.75 94.598 02:34 28.09.2019
1176 Clouds 22 1011 90 0 0.75 94.598 01:50 28.09.2019
1177 Clouds 22 1010 90 0 0.85 98.149 01:27 28.09.2019
1178 Clouds 22 1010 90 0 0.85 98.149 00:58 28.09.2019
1179 Clouds 22 1010 90 0 0.85 98.149 00:38 28.09.2019
1180 Clouds 23 1012 83 0 1.19 137.41 00:18 28.09.2019
1181 Clouds 23 1012 83 0 1.19 137.41 23:37 27.09.2019
1182 Clouds 23 1012 83 0 1.19 137.41 23:19 27.09.2019
1183 Clouds 23 1012 83 0 1.19 137.41 22:47 27.09.2019
1184 Clouds 23 1012 83 0 1.19 137.41 22:19 27.09.2019
1185 Clouds 23 1012 83 0 1.19 137.41 21:57 27.09.2019
1186 Clouds 23 1012 83 0 1.19 137.41 21:37 27.09.2019
1187 Clouds 24 1010 80 0 0.71 163.464 21:19 27.09.2019
1188 Clouds 24 1010 80 0 0.71 163.464 20:58 27.09.2019
1189 Clouds 24 1010 79 0 0.18 185.839 20:39 27.09.2019
1190 Clouds 24 1010 79 0 0.18 185.839 20:19 27.09.2019
1191 Clouds 24 1010 79 0 0.18 185.839 19:57 27.09.2019
1192 Clouds 24 1010 79 0 0.18 185.839 19:57 27.09.2019
1193 Clouds 24 1010 79 0 0.18 185.839 19:37 27.09.2019
1194 Clouds 30 1009 55 10000 3.1 120 19:18 27.09.2019
1195 Clouds 30 1009 55 10000 3.1 120 18:41 27.09.2019
1196 Clouds 33 1009 52 10000 3.1 180 18:22 27.09.2019
1197 Clouds 33 1009 52 10000 3.1 180 18:22 27.09.2019
1198 Clouds 33 1009 52 10000 3.1 180 17:56 27.09.2019
1199 Clouds 33 1009 52 10000 3.1 210 17:37 27.09.2019
1200 Clouds 33 1009 52 10000 3.1 210 17:18 27.09.2019
1201 Clouds 33 1009 52 10000 3.1 210 16:57 27.09.2019
1202 Clouds 29 1007 60 0 0.47 275.539 16:37 27.09.2019
1203 Clouds 29 1007 60 0 0.47 275.539 16:18 27.09.2019
1204 Clouds 29 1007 60 0 0.47 275.539 15:45 27.09.2019
1205 Clouds 29 1007 60 0 0.47 275.539 15:45 27.09.2019
1206 Rain 27 1009 79 0 0.77 356.886 15:21 27.09.2019
1207 Rain 27 1009 79 0 0.77 356.886 14:58 27.09.2019
1208 Rain 27 1009 79 0 0.77 356.886 14:39 27.09.2019
1209 Rain 27 1009 79 0 0.77 356.886 14:20 27.09.2019
1210 Rain 27 1009 79 0 0.77 356.886 13:57 27.09.2019
1211 Rain 27 1009 79 0 0.77 356.886 13:39 27.09.2019
1212 Clouds 30 1013 70 10000 3.1 180 13:20 27.09.2019
1213 Clouds 30 1013 70 10000 3.1 180 12:52 27.09.2019
1214 Clouds 30 1014 70 10000 3.1 330 12:23 27.09.2019
1215 Clouds 30 1014 70 10000 3.1 330 11:57 27.09.2019
1216 Rain 22 1015 95 0 2.81 145.14 11:38 27.09.2019
1217 Clouds 29 1015 70 8000 3.1 120 11:19 27.09.2019
1218 Clouds 29 1015 70 8000 3.1 120 10:43 27.09.2019
1219 Rain 22 1015 95 0 2.81 145.14 10:21 27.09.2019
1220 Rain 22 1015 95 0 2.81 145.14 09:56 27.09.2019
1221 Rain 22 1015 95 0 2.81 145.14 09:38 27.09.2019
1222 Clouds 23 1015 87 0 1.39 117.688 09:18 27.09.2019
1223 Clouds 23 1015 87 0 1.39 117.688 08:41 27.09.2019
1224 Rain 22 1015 97 0 1.77 147.298 08:21 27.09.2019
1225 Rain 22 1015 97 0 1.77 147.298 07:49 27.09.2019
1226 Rain 22 1015 97 0 1.77 147.298 07:26 27.09.2019
1227 Rain 22 1015 97 0 1.77 147.298 06:46 27.09.2019
1228 Rain 22 1015 97 0 1.77 147.298 06:28 27.09.2019
1229 Clouds 21 1012 95 0 0.65 201.932 05:54 27.09.2019
1230 Clouds 21 1012 95 0 0.65 201.932 05:54 27.09.2019
1231 Clouds 21 1012 95 0 0.65 201.932 05:33 27.09.2019
1232 Clouds 21 1012 95 0 0.65 201.932 04:24 27.09.2019
1233 Clouds 21 1012 95 0 0.65 201.932 03:38 27.09.2019
1234 Clouds 21 1012 95 0 0.35 224.187 01:53 27.09.2019
1235 Clouds 21 1012 93 0 0.41 212.32 01:30 27.09.2019
1236 Clouds 21 1012 93 0 0.41 212.32 00:40 27.09.2019
1237 Clouds 21 1013 93 0 0.26 236.611 23:57 26.09.2019
1238 Clouds 21 1013 93 0 0.26 236.611 23:39 26.09.2019
1239 Clouds 21 1013 93 0 0.26 236.611 23:19 26.09.2019
1240 Clouds 21 1013 93 0 0.26 236.611 22:58 26.09.2019
1241 Clouds 21 1013 93 0 0.26 236.611 22:58 26.09.2019
1242 Clouds 21 1013 93 0 0.26 236.611 22:39 26.09.2019
1243 Clouds 21 1013 93 0 0.26 236.611 22:18 26.09.2019
1244 Clouds 21 1013 93 0 0.26 236.611 21:58 26.09.2019
1245 Clouds 21 1013 93 0 0.26 236.611 21:37 26.09.2019
1246 Clouds 23 1011 90 0 0.96 290.248 21:19 26.09.2019
1247 Rain 23 1011 88 0 0.6 31.275 20:58 26.09.2019
1248 Rain 23 1011 88 0 0.6 31.275 20:39 26.09.2019
1249 Rain 23 1011 88 0 0.6 31.275 20:21 26.09.2019
1250 Rain 23 1011 88 0 0.6 31.275 19:56 26.09.2019
1251 Rain 23 1011 88 0 0.6 31.275 19:37 26.09.2019
1252 Clouds 27 1011 74 8000 1.5 0 19:18 26.09.2019
1253 Clouds 27 1011 74 8000 1.5 0 19:18 26.09.2019
1254 Clouds 27 1011 74 8000 1.5 0 18:42 26.09.2019
1255 Clouds 29 1011 66 10000 4.1 330 18:22 26.09.2019
1256 Clouds 29 1011 66 10000 4.1 330 17:59 26.09.2019
1257 Clouds 29 1011 66 10000 4.1 330 17:38 26.09.2019
1258 Clouds 29 1011 66 10000 4.1 340 17:19 26.09.2019
1259 Clouds 29 1011 66 10000 4.1 340 16:55 26.09.2019
1260 Clouds 29 1011 66 10000 4.1 340 16:37 26.09.2019
1261 Rain 25 1009 85 0 1.7 341.129 16:18 26.09.2019
1262 Rain 25 1009 85 0 1.7 341.129 15:42 26.09.2019
1263 Rain 28 1009 78 0 1.29 301.343 15:23 26.09.2019
1264 Rain 28 1009 78 0 1.29 301.343 14:59 26.09.2019
1265 Rain 28 1009 78 0 1.29 301.343 14:40 26.09.2019
1266 Rain 28 1009 78 0 1.29 301.343 14:21 26.09.2019
1267 Rain 28 1009 78 0 1.29 301.343 13:57 26.09.2019
1268 Rain 28 1009 78 0 1.29 301.343 13:39 26.09.2019
1269 Rain 28 1009 78 0 1.29 301.343 13:39 26.09.2019
1270 Clouds 28 1014 69 10000 3.1 320 13:19 26.09.2019
1271 Clouds 28 1014 69 10000 3.1 320 12:44 26.09.2019
1272 Clouds 27 1016 74 10000 1.5 0 12:23 26.09.2019
1273 Clouds 27 1016 74 10000 1.5 0 11:57 26.09.2019
1274 Clouds 27 1016 74 10000 1.5 0 11:39 26.09.2019
1275 Clouds 27 1016 74 10000 1.5 0 11:39 26.09.2019
1276 Clouds 29 1013 54 0 1.79 258.031 11:19 26.09.2019
1277 Clouds 29 1013 54 0 1.79 258.031 11:19 26.09.2019
1278 Clouds 29 1013 54 0 1.79 258.031 10:42 26.09.2019
1279 Clouds 23 1016 94 6000 2.1 90 10:23 26.09.2019
1280 Clouds 23 1016 94 6000 2.1 90 09:59 26.09.2019
1281 Clouds 23 1016 94 6000 2.1 90 09:40 26.09.2019
1282 Clouds 23 1014 85 0 0.91 172.742 09:20 26.09.2019
1283 Rain 23 1014 93 0 0.62 185.849 08:51 26.09.2019
1284 Rain 23 1014 93 0 0.62 185.849 08:31 26.09.2019
1285 Rain 23 1014 93 0 0.62 185.849 07:48 26.09.2019
1286 Rain 23 1014 93 0 0.62 185.849 07:22 26.09.2019
1287 Rain 23 1014 93 0 0.62 185.849 07:22 26.09.2019
1288 Rain 23 1014 93 0 0.62 185.849 06:55 26.09.2019
1289 Rain 23 1014 93 0 0.62 185.849 06:29 26.09.2019
1290 Rain 21 1013 94 0 1.32 197.517 05:59 26.09.2019
1291 Rain 21 1013 94 0 1.32 197.517 05:29 26.09.2019
1292 Rain 21 1013 94 0 1.32 197.517 03:51 26.09.2019
1293 Clouds 22 1011 94 0 1.15 231.02 02:25 26.09.2019
1294 Clouds 22 1011 94 0 1.15 231.02 01:48 26.09.2019
1295 Clouds 22 1010 98 0 1.32 245.109 01:22 26.09.2019
1296 Clouds 22 1010 98 0 1.32 245.109 00:45 26.09.2019
1297 Clouds 22 1010 98 0 1.32 245.109 00:25 26.09.2019
1298 Clouds 22 1012 97 0 0.55 306.012 23:43 25.09.2019
1299 Clouds 22 1012 97 0 0.55 306.012 23:23 25.09.2019
1300 Clouds 22 1012 97 0 0.55 306.012 22:55 25.09.2019
1301 Clouds 22 1012 97 0 0.55 306.012 22:37 25.09.2019
1302 Clouds 22 1012 97 0 0.55 306.012 22:18 25.09.2019
1303 Clouds 22 1012 97 0 0.55 306.012 21:55 25.09.2019
1304 Clouds 22 1012 97 0 0.55 306.012 21:37 25.09.2019
1305 Clouds 23 1010 94 0 0.28 7.718 21:18 25.09.2019
1306 Clouds 23 1010 94 0 0.28 7.718 20:55 25.09.2019
1307 Rain 22 1009 97 0 1.18 312.558 20:37 25.09.2019
1308 Rain 22 1009 97 0 1.18 312.558 20:18 25.09.2019
1309 Rain 22 1009 97 0 1.18 312.558 19:40 25.09.2019
1310 Clouds 22 1011 100 7000 2.1 240 19:21 25.09.2019
1311 Clouds 22 1011 100 7000 2.1 240 18:56 25.09.2019
1312 Rain 22 1009 97 0 1.18 312.558 18:38 25.09.2019
1313 Clouds 22 1010 100 7000 0.43 9.728 18:19 25.09.2019
1314 Rain 22 1007 96 0 0.43 9.728 17:40 25.09.2019
1315 Rain 22 1007 96 0 0.43 9.728 17:22 25.09.2019
1316 Rain 22 1007 96 0 0.43 9.728 16:58 25.09.2019
1317 Rain 22 1007 96 0 0.43 9.728 16:58 25.09.2019
1318 Rain 22 1007 96 0 0.43 9.728 16:40 25.09.2019
1319 Rain 22 1007 96 0 0.43 9.728 16:22 25.09.2019
1320 Rain 22 1007 96 0 0.43 9.728 15:56 25.09.2019
1321 Rain 22 1007 96 0 0.43 9.728 15:56 25.09.2019
1322 Rain 22 1007 96 0 0.43 9.728 15:38 25.09.2019
1323 Rain 33 1008 46 0 1.7 270.439 15:19 25.09.2019
1324 Rain 33 1008 46 0 1.7 270.439 14:42 25.09.2019
1325 Clouds 25 1014 83 10000 2.1 270 14:22 25.09.2019
1326 Clouds 25 1014 83 10000 2.1 270 13:58 25.09.2019
1327 Clouds 25 1014 83 10000 2.1 270 13:39 25.09.2019
1328 Rain 34 1008 43 0 0.83 183.456 13:20 25.09.2019
1329 Rain 34 1008 43 0 0.83 183.456 12:54 25.09.2019
1330 Clouds 26 1014 78 10000 2.1 330 12:36 25.09.2019
1331 Clouds 26 1014 78 10000 2.1 330 12:18 25.09.2019
1332 Clouds 26 1014 78 10000 2.1 330 11:40 25.09.2019
1333 Clouds 27 1014 83 10000 3.1 360 11:20 25.09.2019
1334 Clouds 27 1014 83 10000 3.1 360 10:47 25.09.2019
1335 Rain 28 1011 81 0 0.67 322.96 10:27 25.09.2019
1336 Rain 28 1011 81 0 0.67 322.96 09:59 25.09.2019
1337 Rain 28 1011 81 0 0.67 322.96 09:59 25.09.2019
1338 Rain 28 1011 81 0 0.67 322.96 09:41 25.09.2019
1339 Rain 24 1012 92 0 0.58 5.017 09:23 25.09.2019
1340 Rain 24 1013 93 0 0.62 30.077 08:57 25.09.2019
1341 Rain 24 1013 93 0 0.62 30.077 08:39 25.09.2019
1342 Rain 24 1013 93 0 0.62 30.077 08:19 25.09.2019
1343 Rain 24 1013 93 0 0.62 30.077 07:40 25.09.2019
1344 Rain 24 1013 93 0 0.62 30.077 07:22 25.09.2019
1345 Rain 24 1013 93 0 0.62 30.077 06:55 25.09.2019
1346 Rain 24 1013 93 0 0.62 30.077 06:33 25.09.2019
1347 Rain 21 1010 98 0 1.42 176.557 05:43 25.09.2019
1348 Rain 21 1010 98 0 1.42 176.557 04:58 25.09.2019
1349 Rain 22 1008 94 0 1.06 307.281 02:32 25.09.2019
1350 Rain 22 1008 95 0 1.1 269.01 01:29 25.09.2019
1351 Rain 22 1008 95 0 1.1 269.01 00:37 25.09.2019
1352 Clouds 23 1009 90 0 0.69 9.38 00:19 25.09.2019
1353 Clouds 23 1009 90 0 0.69 9.38 23:41 24.09.2019
1354 Clouds 23 1009 90 0 0.69 9.38 23:22 24.09.2019
1355 Clouds 23 1009 90 0 0.69 9.38 22:57 24.09.2019
1356 Clouds 23 1009 90 0 0.69 9.38 22:38 24.09.2019
1357 Clouds 23 1009 90 0 0.69 9.38 22:18 24.09.2019
1358 Rain 23 1008 84 0 0.36 346.08 21:55 24.09.2019
1359 Rain 23 1008 84 0 0.36 346.08 21:36 24.09.2019
1360 Rain 27 1009 74 8000 3.1 250 21:18 24.09.2019
1361 Rain 27 1009 74 8000 3.1 250 20:55 24.09.2019
1362 Rain 27 1009 74 8000 3.1 250 20:37 24.09.2019
1363 Rain 28 1008 69 8000 3.1 250 20:18 24.09.2019
1364 Rain 28 1008 69 8000 3.1 250 19:42 24.09.2019
1365 Clear 30 1007 62 10000 3.1 330 19:19 24.09.2019
1366 Clear 30 1007 62 10000 3.1 330 19:19 24.09.2019
1367 Clear 30 1007 62 10000 3.1 330 18:57 24.09.2019
1368 Clear 30 1007 62 10000 3.1 330 18:57 24.09.2019
1369 Rain 25 1007 82 0 0.83 350.379 18:39 24.09.2019
1370 Rain 25 1007 82 0 0.83 350.379 18:39 24.09.2019
1371 Clear 31 1007 58 10000 3.1 330 18:20 24.09.2019
1372 Clear 31 1007 58 10000 3.1 330 18:20 24.09.2019
1373 Clear 31 1007 58 10000 3.1 330 17:56 24.09.2019
1374 Clouds 31 1006 57 0 1.66 21.283 17:37 24.09.2019
1375 Clear 32 1008 59 10000 3.1 330 17:19 24.09.2019
1376 Clear 32 1008 59 10000 3.1 330 16:42 24.09.2019
1377 Clear 32 1008 49 10000 3.1 30 16:21 24.09.2019
1378 Clear 32 1008 49 10000 3.1 30 15:58 24.09.2019
1379 Clear 32 1008 49 10000 3.1 30 15:39 24.09.2019
1380 Clouds 32 1019 49 10000 4.1 50 15:21 24.09.2019
1381 Clouds 32 1019 49 10000 4.1 50 14:40 24.09.2019
1382 Clouds 31 1010 55 10000 3.1 90 14:19 24.09.2019
1383 Clouds 31 1010 55 10000 3.1 90 13:45 24.09.2019
1384 Clouds 30 1012 55 10000 3.1 30 13:22 24.09.2019
1385 Clouds 30 1012 55 10000 3.1 30 12:57 24.09.2019
1386 Clouds 30 1012 55 10000 3.1 30 12:39 24.09.2019
1387 Rain 29 1011 70 0 1.79 17.27 12:18 24.09.2019
1388 Rain 29 1011 70 0 1.79 17.27 11:41 24.09.2019
1389 Rain 29 1011 70 0 1.79 17.27 11:21 24.09.2019
1390 Rain 29 1011 70 0 1.79 17.27 10:55 24.09.2019
1391 Rain 29 1011 70 0 1.79 17.27 10:36 24.09.2019
1392 Rain 29 1011 70 0 1.79 17.27 10:18 24.09.2019
1393 Rain 29 1011 70 0 1.79 17.27 09:43 24.09.2019
1394 Rain 23 1012 94 0 1.81 43.945 09:21 24.09.2019
1395 Rain 23 1012 94 0 1.81 43.945 08:57 24.09.2019
1396 Rain 23 1012 94 0 1.81 43.945 08:57 24.09.2019
1397 Rain 24 1012 88 0 1.44 19.922 08:38 24.09.2019
1398 Rain 24 1012 88 0 1.44 19.922 08:19 24.09.2019
1399 Rain 24 1012 88 0 1.44 19.922 07:47 24.09.2019
1400 Rain 24 1012 88 0 1.44 19.922 07:25 24.09.2019
1401 Rain 24 1012 88 0 1.44 19.922 06:56 24.09.2019
1402 Rain 24 1012 88 0 1.44 19.922 06:32 24.09.2019
1403 Clear 22 1010 89 0 0.82 291.243 05:51 24.09.2019
1404 Clear 22 1010 89 0 0.82 291.243 05:18 24.09.2019
1405 Clear 22 1010 89 0 0.82 291.243 03:44 24.09.2019
1406 Clouds 23 1009 82 0 0.33 317.597 02:48 24.09.2019
1407 Clouds 23 1009 82 0 0.33 317.597 02:30 24.09.2019
1408 Clouds 23 1009 85 0 0.59 302.15 00:44 24.09.2019
1409 Clouds 23 1009 85 0 0.59 302.15 00:26 24.09.2019
1410 Clouds 24 1010 79 0 0.7 81.615 23:58 23.09.2019
1411 Clouds 24 1010 79 0 0.7 81.615 23:40 23.09.2019
1412 Clouds 24 1010 79 0 0.7 81.615 23:20 23.09.2019
1413 Clouds 24 1010 79 0 0.7 81.615 22:39 23.09.2019
1414 Clouds 24 1010 79 0 0.7 81.615 22:21 23.09.2019
1415 Clouds 24 1010 79 0 0.7 81.615 21:58 23.09.2019
1416 Clouds 24 1010 79 0 0.7 81.615 21:39 23.09.2019
1417 Clouds 26 1008 70 0 0.69 188.294 21:19 23.09.2019
1418 Clouds 26 1008 65 0 0.67 207.902 20:41 23.09.2019
1419 Clouds 27 1009 74 8000 2.1 120 20:20 23.09.2019
1420 Clouds 27 1009 74 8000 2.1 120 20:20 23.09.2019
1421 Clouds 27 1009 74 8000 2.1 120 20:20 23.09.2019
1422 Clouds 27 1009 74 8000 2.1 120 19:59 23.09.2019
1423 Clouds 27 1009 74 8000 2.1 120 19:39 23.09.2019
1424 Clouds 29 1008 70 8000 2.1 180 19:21 23.09.2019
1425 Clouds 29 1008 70 8000 2.1 180 18:55 23.09.2019
1426 Clouds 26 1008 65 0 0.67 207.902 18:37 23.09.2019
1427 Clouds 33 1006 52 0 0.66 159.342 18:18 23.09.2019
1428 Clouds 33 1006 52 0 0.66 159.342 17:55 23.09.2019
1429 Clouds 33 1006 52 0 0.66 159.342 17:37 23.09.2019
1430 Thunderstorm 32 1009 62 4000 3.1 30 17:18 23.09.2019
1431 Thunderstorm 32 1009 62 4000 3.1 30 16:40 23.09.2019
1432 Clouds 32 1009 84 10000 2.1 320 16:22 23.09.2019
1433 Clouds 32 1009 84 10000 2.1 320 15:59 23.09.2019
1434 Clouds 32 1009 84 10000 2.1 320 15:41 23.09.2019
1435 Clouds 32 1010 55 10000 2.1 270 15:20 23.09.2019
1436 Clouds 32 1010 55 10000 2.1 270 14:58 23.09.2019
1437 Clouds 32 1010 55 10000 2.1 270 14:39 23.09.2019
1438 Clouds 32 1011 66 10000 3.1 180 14:19 23.09.2019
1439 Clouds 32 1011 66 10000 3.1 180 13:57 23.09.2019
1440 Clouds 37 1007 37 0 0.32 100.776 13:37 23.09.2019
1441 Clouds 32 1012 62 10000 3.1 360 13:18 23.09.2019
1442 Clouds 32 1012 62 10000 3.1 360 13:18 23.09.2019
1443 Clouds 32 1012 62 10000 3.1 360 12:40 23.09.2019
1444 Clouds 33 1011 48 0 0.74 44.453 12:21 23.09.2019
1445 Clouds 33 1011 48 0 0.74 44.453 11:55 23.09.2019
1446 Clouds 33 1011 48 0 0.74 44.453 11:37 23.09.2019
1447 Clouds 33 1011 48 0 0.74 44.453 11:18 23.09.2019
1448 Clouds 33 1011 48 0 0.74 44.453 11:18 23.09.2019
1449 Clouds 33 1011 48 0 0.74 44.453 10:44 23.09.2019
1450 Clouds 29 1014 70 8000 0.74 44.453 10:20 23.09.2019
1451 Clouds 29 1014 70 8000 0.74 44.453 09:43 23.09.2019
1452 Clouds 26 1014 83 6000 3.1 330 09:25 23.09.2019
1453 Rain 26 1014 83 6000 3.1 330 08:58 23.09.2019
1454 Rain 26 1014 83 6000 3.1 330 08:39 23.09.2019
1455 Rain 23 1013 94 0 0.82 74.856 08:18 23.09.2019
1456 Rain 23 1013 94 0 0.82 74.856 07:34 23.09.2019
1457 Rain 23 1013 94 0 0.82 74.856 06:58 23.09.2019
1458 Rain 21 1010 95 0 0.54 55.345 06:20 23.09.2019
1459 Rain 21 1010 95 0 0.54 55.345 05:38 23.09.2019
1460 Rain 21 1010 95 0 0.54 55.345 04:58 23.09.2019
1461 Rain 21 1010 95 0 0.54 55.345 03:59 23.09.2019
1462 Clear 22 1010 85 0 0.39 351.685 01:26 23.09.2019
1463 Clear 22 1010 85 0 0.39 351.685 00:38 23.09.2019
1464 Clear 24 1010 80 0 0.63 170.895 00:18 23.09.2019
1465 Clear 24 1010 80 0 0.63 170.895 23:40 22.09.2019
1466 Clear 24 1010 80 0 0.63 170.895 23:21 22.09.2019
1467 Clear 24 1010 80 0 0.63 170.895 22:55 22.09.2019
1468 Clear 24 1010 80 0 0.63 170.895 22:37 22.09.2019
1469 Clear 24 1010 80 0 0.63 170.895 22:18 22.09.2019
1470 Clear 24 1010 80 0 0.63 170.895 21:42 22.09.2019
1471 Clear 24 1010 80 0 0.63 170.895 21:42 22.09.2019
1472 Clouds 25 1008 74 0 0.71 321.77 21:20 22.09.2019
1473 Clouds 25 1008 74 0 0.71 321.77 20:45 22.09.2019
1474 Clouds 25 1008 74 0 0.71 321.77 20:45 22.09.2019
1475 Clouds 24 1009 85 0 0.17 264.806 20:27 22.09.2019
1476 Clouds 24 1009 85 0 0.17 264.806 19:59 22.09.2019
1477 Clouds 24 1009 85 0 0.17 264.806 19:40 22.09.2019
1478 Clouds 24 1009 85 0 0.17 264.806 19:21 22.09.2019
1479 Clouds 24 1009 85 0 0.17 264.806 18:57 22.09.2019
1480 Clouds 24 1009 85 0 0.17 264.806 18:57 22.09.2019
1481 Clouds 24 1009 85 0 0.17 264.806 18:38 22.09.2019
1482 Clouds 31 1009 58 10000 5.1 360 18:18 22.09.2019
1483 Clouds 31 1009 58 10000 5.1 360 17:47 22.09.2019
1484 Clouds 30 1007 60 0 0.25 349.324 17:27 22.09.2019
1485 Clouds 30 1007 60 0 0.25 349.324 16:58 22.09.2019
1486 Clouds 30 1007 60 0 0.25 349.324 16:40 22.09.2019
1487 Clouds 32 1010 59 10000 2.1 240 16:20 22.09.2019
1488 Clouds 32 1010 59 10000 2.1 240 15:46 22.09.2019
1489 Clouds 31 1011 58 10000 0.25 349.324 15:26 22.09.2019
1490 Clouds 31 1011 58 10000 0.98 348.311 14:55 22.09.2019
1491 Clouds 33 1008 47 0 0.98 348.311 14:37 22.09.2019
1492 Clouds 33 1008 47 0 0.98 348.311 14:37 22.09.2019
1493 Clouds 33 1008 47 0 0.98 348.311 14:19 22.09.2019
1494 Clouds 33 1008 47 0 0.98 348.311 13:43 22.09.2019
1495 Clouds 33 1008 47 0 0.98 348.311 13:43 22.09.2019
1496 Clouds 31 1023 66 10000 1.5 0 13:25 22.09.2019
1497 Clouds 31 1023 66 10000 1.5 0 12:57 22.09.2019
1498 Clouds 31 1023 66 10000 1.5 0 12:39 22.09.2019
1499 Rain 23 1012 90 0 0.89 29.456 12:19 22.09.2019
1500 Rain 23 1012 90 0 0.89 29.456 11:56 22.09.2019
1501 Rain 23 1012 90 0 0.89 29.456 11:37 22.09.2019
1502 Clouds 30 1014 37 10000 3.1 360 11:18 22.09.2019
1503 Clouds 30 1014 37 10000 3.1 360 10:42 22.09.2019
1504 Clouds 30 1014 37 10000 3.1 360 10:42 22.09.2019
1505 Clouds 27 1015 78 10000 1.5 0 10:20 22.09.2019
1506 Clouds 27 1015 78 10000 1.5 0 10:20 22.09.2019
1507 Rain 23 1012 90 0 0.89 29.456 09:55 22.09.2019
1508 Rain 23 1012 90 0 0.89 29.456 09:36 22.09.2019
1509 Rain 23 1014 94 0 0.42 16.189 09:18 22.09.2019
1510 Rain 21 1013 97 0 0.8 15.955 08:42 22.09.2019
1511 Rain 21 1013 97 0 0.8 15.955 08:22 22.09.2019
1512 Rain 21 1013 97 0 0.8 15.955 07:46 22.09.2019
1513 Rain 21 1013 97 0 0.8 15.955 07:26 22.09.2019
1514 Rain 21 1013 97 0 0.8 15.955 06:58 22.09.2019
1515 Rain 21 1013 97 0 0.8 15.955 06:37 22.09.2019
1516 Clouds 21 1011 89 0 0.35 19.743 05:18 22.09.2019
1517 Clouds 22 1010 84 0 0.46 160.929 02:45 22.09.2019
1518 Clouds 22 1010 84 0 0.46 160.929 02:24 22.09.2019
1519 Clouds 22 1010 84 0 0.46 160.929 01:43 22.09.2019
1520 Clouds 22 1010 86 0 0.38 158.422 00:54 22.09.2019
1521 Clouds 22 1010 86 0 0.38 158.422 00:32 22.09.2019
1522 Clouds 23 1011 77 0 1.23 255.581 23:54 21.09.2019
1523 Clouds 23 1011 77 0 1.23 255.581 23:36 21.09.2019
1524 Clouds 23 1011 77 0 1.23 255.581 22:47 21.09.2019
1525 Clouds 23 1011 77 0 1.23 255.581 22:26 21.09.2019
1526 Clouds 23 1011 77 0 1.23 255.581 21:59 21.09.2019
1527 Clouds 23 1011 77 0 1.23 255.581 21:59 21.09.2019
1528 Clouds 23 1011 77 0 1.23 255.581 21:59 21.09.2019
1529 Clouds 23 1011 77 0 1.23 255.581 21:41 21.09.2019
1530 Clouds 25 1010 69 0 0.65 229.456 21:19 21.09.2019
1531 Clouds 25 1010 69 0 0.65 229.456 20:56 21.09.2019
1532 Clouds 25 1009 70 0 0.65 224.256 20:36 21.09.2019
1533 Clouds 25 1009 70 0 0.65 224.256 20:18 21.09.2019
1534 Clouds 25 1009 70 0 0.65 224.256 20:18 21.09.2019
1535 Clouds 25 1009 70 0 0.65 224.256 19:43 21.09.2019
1536 Clouds 27 1011 78 10000 1.5 0 19:19 21.09.2019
1537 Clouds 27 1011 78 10000 1.5 0 18:40 21.09.2019
1538 Clouds 28 1012 69 10000 1.5 0 18:21 21.09.2019
1539 Clouds 28 1012 69 10000 1.5 0 17:43 21.09.2019
1540 Clouds 29 1007 60 0 0.82 250.101 17:23 21.09.2019
1541 Clouds 29 1007 60 0 0.82 250.101 16:57 21.09.2019
1542 Clouds 29 1007 60 0 0.82 250.101 16:38 21.09.2019
1543 Clouds 29 1007 60 0 0.82 250.101 16:19 21.09.2019
1544 Clouds 29 1007 60 0 0.82 250.101 15:44 21.09.2019
1545 Clouds 34 1007 38 0 1.57 285.544 15:22 21.09.2019
1546 Clouds 34 1007 38 0 1.57 285.544 14:49 21.09.2019
1547 Clouds 34 1007 38 0 1.57 285.544 14:31 21.09.2019
1548 Clouds 34 1007 38 0 1.57 285.544 13:55 21.09.2019
1549 Clouds 34 1007 38 0 1.57 285.544 13:36 21.09.2019
1550 Clouds 27 1014 78 10000 3.1 250 13:18 21.09.2019
1551 Clouds 27 1014 78 10000 3.1 250 12:42 21.09.2019
1552 Clouds 31 1012 46 0 1.61 297.22 12:22 21.09.2019
1553 Clouds 31 1012 46 0 1.61 297.22 11:59 21.09.2019
1554 Clouds 31 1012 46 0 1.61 297.22 11:41 21.09.2019
1555 Clouds 24 1015 83 10000 1.5 0 11:22 21.09.2019
1556 Clouds 24 1015 83 10000 1.5 0 10:43 21.09.2019
1557 Clouds 31 1012 46 0 1.61 297.22 10:24 21.09.2019
1558 Clouds 31 1012 46 0 1.61 297.22 09:58 21.09.2019
1559 Clouds 31 1012 46 0 1.61 297.22 09:39 21.09.2019
1560 Clouds 24 1013 76 0 1.26 323.879 09:20 21.09.2019
1561 Clouds 24 1013 76 0 1.26 323.879 09:20 21.09.2019
1562 Clouds 24 1013 76 0 1.26 323.879 08:52 21.09.2019
1563 Rain 22 1013 87 0 1.21 323.347 08:27 21.09.2019
1564 Rain 22 1013 87 0 1.21 323.347 07:42 21.09.2019
1565 Rain 22 1013 87 0 1.21 323.347 07:23 21.09.2019
1566 Rain 22 1013 87 0 1.21 323.347 06:57 21.09.2019
1567 Rain 22 1013 87 0 1.21 323.347 06:32 21.09.2019
1568 Clouds 20 1011 95 0 0.95 326.694 05:32 21.09.2019
1569 Clouds 20 1011 95 0 0.95 326.694 04:36 21.09.2019
1570 Clouds 21 1010 96 0 0.68 311.438 02:38 21.09.2019
1571 Clouds 21 1010 96 0 0.68 311.438 02:20 21.09.2019
1572 Clouds 21 1010 96 0 0.68 311.438 01:45 21.09.2019
1573 Clouds 21 1010 96 0 0.68 311.438 00:43 21.09.2019
1574 Clouds 21 1012 95 0 0.77 310.149 00:20 21.09.2019
1575 Clouds 21 1012 95 0 0.77 310.149 23:42 20.09.2019
1576 Clouds 21 1012 95 0 0.77 310.149 23:24 20.09.2019
1577 Clouds 21 1012 95 0 0.77 310.149 22:41 20.09.2019
1578 Clouds 21 1012 95 0 0.77 310.149 22:23 20.09.2019
1579 Clouds 21 1012 95 0 0.77 310.149 21:57 20.09.2019
1580 Clouds 21 1012 95 0 0.77 310.149 21:37 20.09.2019
1581 Clouds 22 1010 92 0 0.44 267.678 21:19 20.09.2019
1582 Clouds 22 1010 92 0 0.44 267.678 20:56 20.09.2019
1583 Clouds 22 1010 86 0 0.93 229.647 20:37 20.09.2019
1584 Clouds 22 1010 86 0 0.93 229.647 20:18 20.09.2019
1585 Clouds 22 1010 86 0 0.93 229.647 19:45 20.09.2019
1586 Clouds 22 1010 86 0 0.93 229.647 19:25 20.09.2019
1587 Clouds 22 1010 86 0 0.93 229.647 18:58 20.09.2019
1588 Clouds 22 1010 86 0 0.93 229.647 18:38 20.09.2019
1589 Clouds 29 1008 63 0 1.54 275.844 18:18 20.09.2019
1590 Clouds 29 1008 63 0 1.54 275.844 17:45 20.09.2019
1591 Clouds 29 1008 63 0 1.54 275.844 17:26 20.09.2019
1592 Clouds 29 1008 63 0 1.54 275.844 16:43 20.09.2019
1593 Clouds 29 1008 63 0 1.54 275.844 16:22 20.09.2019
1594 Clouds 29 1008 63 0 1.54 275.844 15:59 20.09.2019
1595 Clouds 29 1008 63 0 1.54 275.844 15:40 20.09.2019
1596 Clouds 29 1009 60 0 2.23 303.512 15:22 20.09.2019
1597 Clouds 29 1009 60 0 2.23 303.512 15:22 20.09.2019
1598 Clouds 29 1009 60 0 2.23 303.512 14:43 20.09.2019
1599 Clouds 29 1009 60 0 2.23 303.512 14:20 20.09.2019
1600 Clouds 29 1009 60 0 2.23 303.512 13:55 20.09.2019
1601 Clouds 29 1009 60 0 2.23 303.512 13:36 20.09.2019
1602 Clouds 30 1008 56 0 1.79 295.833 13:18 20.09.2019
1603 Clouds 30 1008 56 0 1.79 295.833 12:38 20.09.2019
1604 Rain 23 1013 93 0 1.73 308.665 12:19 20.09.2019
1605 Rain 23 1013 93 0 1.73 308.665 11:50 20.09.2019
1606 Rain 23 1013 93 0 1.73 308.665 11:22 20.09.2019
1607 Rain 23 1013 93 0 1.73 308.665 10:58 20.09.2019
1608 Rain 23 1013 93 0 1.73 308.665 10:39 20.09.2019
1609 Rain 23 1013 93 0 1.73 308.665 10:20 20.09.2019
1610 Rain 23 1013 93 0 1.73 308.665 09:38 20.09.2019
1611 Rain 22 1013 99 0 1.23 286.361 09:18 20.09.2019
1612 Rain 22 1013 99 0 1.23 286.361 08:46 20.09.2019
1613 Rain 22 1013 99 0 1.23 286.361 08:26 20.09.2019
1614 Rain 22 1013 99 0 1.23 286.361 07:49 20.09.2019
1615 Rain 22 1013 97 0 0.55 349.992 07:29 20.09.2019
1616 Rain 22 1013 97 0 0.55 349.992 06:48 20.09.2019
1617 Rain 22 1013 97 0 0.55 349.992 06:30 20.09.2019
1618 Rain 21 1011 99 0 0.55 313.671 05:58 20.09.2019
1619 Rain 21 1011 99 0 0.55 313.671 05:58 20.09.2019
1620 Rain 21 1011 99 0 0.55 313.671 04:28 20.09.2019
1621 Rain 21 1011 99 0 0.55 313.671 03:26 20.09.2019
1622 Rain 22 1010 97 0 1.89 266.534 01:50 20.09.2019
1623 Rain 22 1010 96 0 1.43 255.019 01:31 20.09.2019
1624 Rain 22 1010 96 0 1.43 255.019 00:32 20.09.2019
1625 Rain 23 1011 93 0 1.64 276.013 23:46 19.09.2019
1626 Rain 23 1011 93 0 1.64 276.013 23:46 19.09.2019
1627 Rain 23 1011 93 0 1.64 276.013 23:24 19.09.2019
1628 Rain 23 1011 93 0 1.64 276.013 22:57 19.09.2019
1629 Rain 23 1011 93 0 1.64 276.013 22:38 19.09.2019
1630 Rain 23 1011 93 0 1.64 276.013 22:20 19.09.2019
1631 Rain 23 1011 93 0 1.64 276.013 21:56 19.09.2019
1632 Rain 23 1011 93 0 1.64 276.013 21:38 19.09.2019
1633 Clouds 25 1008 80 0 1.11 283.246 21:19 19.09.2019
1634 Clouds 25 1008 80 0 1.11 283.246 20:43 19.09.2019
1635 Clouds 25 1008 80 0 1.11 283.246 20:43 19.09.2019
1636 Clouds 26 1008 76 0 0.98 254.724 20:23 19.09.2019
1637 Clouds 26 1008 76 0 0.98 254.724 19:57 19.09.2019
1638 Clouds 26 1008 76 0 0.98 254.724 19:39 19.09.2019
1639 Clouds 26 1008 76 0 0.98 254.724 19:21 19.09.2019
1640 Clouds 26 1008 76 0 0.98 254.724 18:55 19.09.2019
1641 Clouds 32 1008 66 10000 3.1 210 18:37 19.09.2019
1642 Clouds 32 1008 66 10000 3.1 210 18:18 19.09.2019
1643 Clouds 32 1008 66 10000 3.1 210 17:42 19.09.2019
1644 Clouds 33 1008 59 10000 3.1 210 17:23 19.09.2019
1645 Clouds 33 1008 59 10000 3.1 210 16:58 19.09.2019
1646 Clouds 33 1008 59 10000 3.1 210 16:39 19.09.2019
1647 Clouds 33 1008 59 10000 2.1 180 16:19 19.09.2019
1648 Clouds 33 1008 59 10000 2.1 180 15:39 19.09.2019
1649 Clouds 32 1009 62 10000 2.1 210 15:20 19.09.2019
1650 Clouds 32 1009 62 10000 2.1 210 14:42 19.09.2019
1651 Clouds 32 1012 62 10000 3.1 200 14:24 19.09.2019
1652 Clouds 32 1012 62 10000 3.1 200 13:59 19.09.2019
1653 Clear 36 1006 36 0 1.03 59.784 13:40 19.09.2019
1654 Clouds 31 1012 66 10000 0.93 54.714 13:20 19.09.2019
1655 Clear 36 1007 36 0 0.93 54.714 12:40 19.09.2019
1656 Clouds 29 1023 74 10000 2.1 280 12:20 19.09.2019
1657 Clouds 29 1023 74 10000 2.1 280 11:58 19.09.2019
1658 Clouds 29 1023 74 10000 2.1 280 11:39 19.09.2019
1659 Clouds 29 1013 70 8000 1.2 42.193 11:20 19.09.2019
1660 Clouds 29 1013 70 8000 1.2 42.193 10:56 19.09.2019
1661 Clouds 29 1013 70 8000 1.2 42.193 10:56 19.09.2019
1662 Clouds 29 1013 70 8000 1.2 42.193 10:56 19.09.2019
1663 Clouds 29 1013 70 8000 1.2 42.193 10:56 19.09.2019
1664 Clouds 26 1013 78 8000 3.1 210 10:36 19.09.2019
1665 Clouds 26 1013 78 8000 3.1 210 10:18 19.09.2019
1666 Clouds 26 1013 78 8000 3.1 210 09:41 19.09.2019
1667 Clouds 25 1013 83 6000 3.1 90 09:21 19.09.2019
1668 Clouds 25 1013 83 6000 3.1 90 08:56 19.09.2019
1669 Rain 24 1013 91 0 0.22 290.982 08:29 19.09.2019
1670 Rain 24 1013 91 0 0.22 290.982 07:58 19.09.2019
1671 Rain 24 1013 91 0 0.22 290.982 07:40 19.09.2019
1672 Rain 24 1013 91 0 0.22 290.982 07:21 19.09.2019
1673 Rain 24 1013 91 0 0.22 290.982 06:45 19.09.2019
1674 Rain 21 1010 98 0 0.66 159.935 06:27 19.09.2019
1675 Rain 21 1010 98 0 0.66 159.935 05:51 19.09.2019
1676 Rain 21 1010 98 0 0.66 159.935 04:43 19.09.2019
1677 Rain 21 1010 98 0 0.66 159.935 03:51 19.09.2019
1678 Rain 22 1010 98 0 1.07 153.339 02:27 19.09.2019
1679 Rain 22 1009 95 0 0.79 107.794 01:22 19.09.2019
1680 Rain 22 1009 95 0 0.79 107.794 00:49 19.09.2019
1681 Rain 22 1009 95 0 0.79 107.794 00:25 19.09.2019
1682 Clear 23 1010 86 0 0.69 126.289 00:25 19.09.2019
1683 Clear 23 1010 86 0 0.69 126.289 23:39 18.09.2019
1684 Clear 23 1010 86 0 0.69 126.289 23:21 18.09.2019
1685 Clear 23 1010 86 0 0.69 126.289 22:44 18.09.2019
1686 Clear 23 1010 86 0 0.69 126.289 22:23 18.09.2019
1687 Clear 23 1010 86 0 0.69 126.289 21:59 18.09.2019
1688 Clear 23 1010 86 0 0.69 126.289 21:40 18.09.2019
1689 Clouds 24 1009 80 0 1.1 162.341 21:19 18.09.2019
1690 Rain 25 1008 75 0 1.23 114.899 20:58 18.09.2019
1691 Rain 25 1008 75 0 1.23 114.899 20:40 18.09.2019
1692 Rain 25 1008 75 0 1.23 114.899 20:22 18.09.2019
1693 Rain 25 1008 75 0 1.23 114.899 19:58 18.09.2019
1694 Rain 25 1008 75 0 1.23 114.899 19:58 18.09.2019
1695 Rain 25 1008 75 0 1.23 114.899 19:40 18.09.2019
1696 Rain 27 1009 83 8000 1.5 0 19:19 18.09.2019
1697 Rain 27 1009 83 8000 1.5 0 18:56 18.09.2019
1698 Rain 25 1008 75 0 1.23 114.899 18:37 18.09.2019
1699 Clouds 29 1009 74 10000 2.1 360 18:19 18.09.2019
1700 Clouds 29 1009 74 10000 2.1 360 17:57 18.09.2019
1701 Clouds 29 1009 74 10000 2.1 360 17:57 18.09.2019
1702 Clouds 29 1009 74 10000 2.1 360 17:39 18.09.2019
1703 Clouds 29 1009 74 10000 2.1 240 17:19 18.09.2019
1704 Clouds 29 1009 74 10000 2.1 240 16:56 18.09.2019
1705 Clouds 29 1009 74 10000 2.1 240 16:37 18.09.2019
1706 Clouds 28 1010 74 10000 1.5 0 16:18 18.09.2019
1707 Clouds 28 1010 74 10000 1.5 0 15:55 18.09.2019
1708 Clouds 32 1006 56 0 0.59 164.694 15:37 18.09.2019
1709 Clouds 26 1011 74 10000 3.1 20 15:37 18.09.2019
1710 Clouds 26 1011 74 10000 3.1 20 15:18 18.09.2019
1711 Clouds 26 1011 74 10000 3.1 20 14:57 18.09.2019
1712 Clouds 26 1011 74 10000 3.1 20 14:38 18.09.2019
1713 Clouds 25 1013 83 10000 3.1 130 14:20 18.09.2019
1714 Clouds 25 1013 83 10000 3.1 130 13:43 18.09.2019
1715 Clouds 22 1014 94 8000 3.1 190 13:19 18.09.2019
1716 Clouds 22 1014 94 8000 3.1 190 12:55 18.09.2019
1717 Clouds 34 1007 40 0 1.54 32.773 12:36 18.09.2019
1718 Clouds 31 1011 54 0 2.14 15.765 12:18 18.09.2019
1719 Clouds 31 1011 54 0 2.14 15.765 11:39 18.09.2019
1720 Clouds 31 1011 54 0 2.14 15.765 11:19 18.09.2019
1721 Clouds 31 1011 54 0 2.14 15.765 10:41 18.09.2019
1722 Clouds 31 1011 54 0 2.14 15.765 10:21 18.09.2019
1723 Clouds 31 1011 54 0 2.14 15.765 09:58 18.09.2019
1724 Clouds 31 1011 54 0 2.14 15.765 09:40 18.09.2019
1725 Clouds 23 1014 94 6000 1.53 43.705 09:22 18.09.2019
1726 Rain 23 1012 94 0 1.29 39.823 08:46 18.09.2019
1727 Rain 23 1012 94 0 1.29 39.823 08:26 18.09.2019
1728 Rain 23 1012 94 0 1.29 39.823 07:59 18.09.2019
1729 Rain 23 1012 94 0 1.29 39.823 07:41 18.09.2019
1730 Rain 23 1012 94 0 1.29 39.823 07:22 18.09.2019
1731 Rain 23 1012 94 0 1.29 39.823 06:41 18.09.2019
1732 Rain 21 1011 99 0 0.96 353.633 05:54 18.09.2019
1733 Rain 21 1011 99 0 0.96 353.633 05:21 18.09.2019
1734 Rain 21 1011 99 0 0.96 353.633 03:25 18.09.2019
1735 Rain 21 1009 98 0 0.88 348.766 02:39 18.09.2019
1736 Rain 22 1009 97 0 0.47 4.033 01:35 18.09.2019
1737 Rain 22 1009 97 0 0.47 4.033 00:51 18.09.2019
1738 Rain 22 1009 97 0 0.47 4.033 00:28 18.09.2019
1739 Rain 22 1011 97 0 0.92 166.977 23:47 17.09.2019
1740 Rain 22 1011 97 0 0.92 166.977 23:23 17.09.2019
1741 Rain 22 1011 97 0 0.92 166.977 22:45 17.09.2019
1742 Rain 22 1011 97 0 0.92 166.977 22:25 17.09.2019
1743 Rain 22 1011 97 0 0.92 166.977 21:56 17.09.2019
1744 Rain 22 1011 97 0 0.92 166.977 21:37 17.09.2019
1745 Rain 24 1009 80 0 1.3 48.256 21:19 17.09.2019
1746 Rain 24 1009 80 0 1.3 48.256 21:19 17.09.2019
1747 Rain 24 1009 80 0 1.3 48.256 20:59 17.09.2019
1748 Clouds 24 1009 89 0 0.97 355.094 20:41 17.09.2019
1749 Clouds 24 1009 89 0 0.97 355.094 20:22 17.09.2019
1750 Clouds 24 1009 89 0 0.97 355.094 19:59 17.09.2019
1751 Clouds 24 1009 89 0 0.97 355.094 19:39 17.09.2019
1752 Clouds 24 1009 89 0 0.97 355.094 19:20 17.09.2019
1753 Clouds 24 1009 89 0 0.97 355.094 18:58 17.09.2019
1754 Clouds 24 1009 89 0 0.97 355.094 18:40 17.09.2019
1755 Rain 29 1006 72 0 0.81 301.496 18:21 17.09.2019
1756 Rain 29 1006 72 0 0.81 301.496 17:46 17.09.2019
1757 Rain 29 1006 72 0 0.81 301.496 17:21 17.09.2019
1758 Rain 29 1006 72 0 0.81 301.496 17:21 17.09.2019
1759 Rain 29 1006 72 0 0.81 301.496 16:59 17.09.2019
1760 Rain 29 1006 72 0 0.81 301.496 16:40 17.09.2019
1761 Clouds 31 1009 70 10000 2.1 260 16:22 17.09.2019
1762 Clouds 31 1009 70 10000 2.1 260 16:22 17.09.2019
1763 Clouds 31 1009 70 10000 2.1 260 16:22 17.09.2019
1764 Clouds 31 1009 70 10000 2.1 260 15:40 17.09.2019
1765 Clouds 30 1010 74 10000 2.1 250 15:21 17.09.2019
1766 Clouds 30 1010 74 10000 2.1 250 15:21 17.09.2019
1767 Clouds 30 1010 74 10000 2.1 250 15:21 17.09.2019
1768 Clouds 30 1006 56 0 1.42 253.679 14:58 17.09.2019
1769 Clouds 30 1006 56 0 1.42 253.679 14:40 17.09.2019
1770 Clouds 29 1011 70 10000 1.42 253.679 14:21 17.09.2019
1771 Clouds 29 1011 70 10000 1.42 253.679 13:58 17.09.2019
1772 Clouds 29 1011 70 10000 1.42 253.679 13:58 17.09.2019
1773 Clouds 29 1011 70 10000 1.42 253.679 13:39 17.09.2019
1774 Clouds 32 1006 52 0 1.49 241.512 13:21 17.09.2019
1775 Clouds 32 1006 52 0 1.49 241.512 12:43 17.09.2019
1776 Clouds 27 1011 73 0 1.64 260.888 12:20 17.09.2019
1777 Clouds 27 1011 73 0 1.64 260.888 11:57 17.09.2019
1778 Clouds 27 1011 73 0 1.64 260.888 11:38 17.09.2019
1779 Clouds 27 1011 73 0 1.64 260.888 11:18 17.09.2019
1780 Clouds 27 1011 73 0 1.64 260.888 10:42 17.09.2019
1781 Clouds 27 1011 73 0 1.64 260.888 10:22 17.09.2019
1782 Clouds 27 1011 73 0 1.64 260.888 09:58 17.09.2019
1783 Clouds 27 1011 73 0 1.64 260.888 09:39 17.09.2019
1784 Clouds 23 1012 91 0 0.28 257.516 09:19 17.09.2019
1785 Clouds 23 1012 91 0 0.28 257.516 08:44 17.09.2019
1786 Clouds 24 1012 87 0 1.37 278.925 08:25 17.09.2019
1787 Clouds 24 1012 87 0 1.37 278.925 07:46 17.09.2019
1788 Clouds 24 1012 87 0 1.37 278.925 07:28 17.09.2019
1789 Clouds 24 1012 87 0 1.37 278.925 06:59 17.09.2019
1790 Clouds 24 1012 87 0 1.37 278.925 06:40 17.09.2019
1791 Clouds 21 1010 99 0 1.09 274.172 05:58 17.09.2019
1792 Clouds 21 1010 99 0 1.09 274.172 05:33 17.09.2019
1793 Clouds 21 1010 99 0 1.09 274.172 04:20 17.09.2019
1794 Clouds 21 1010 99 0 1.28 268.703 02:41 17.09.2019
1795 Clouds 21 1010 99 0 1.28 268.703 01:53 17.09.2019
1796 Rain 21 1010 99 0 1.3 258.664 00:58 17.09.2019
1797 Clouds 22 1012 98 0 0.84 245.94 23:57 16.09.2019
1798 Clouds 22 1012 98 0 0.84 245.94 23:36 16.09.2019
1799 Clouds 22 1012 98 0 0.84 245.94 23:36 16.09.2019
1800 Clouds 22 1012 98 0 0.84 245.94 23:36 16.09.2019
1801 Clouds 22 1012 98 0 0.84 245.94 23:18 16.09.2019
1802 Clouds 22 1012 98 0 0.84 245.94 22:42 16.09.2019
1803 Clouds 22 1012 98 0 0.84 245.94 22:24 16.09.2019
1804 Clouds 22 1012 98 0 0.84 245.94 21:59 16.09.2019
1805 Clouds 22 1012 98 0 0.84 245.94 21:59 16.09.2019
1806 Clouds 22 1012 98 0 0.84 245.94 21:38 16.09.2019
1807 Clouds 24 1012 83 8000 3.1 30 21:20 16.09.2019
1808 Clouds 24 1012 83 8000 3.1 30 20:55 16.09.2019
1809 Clouds 22 1010 93 0 0.97 263.211 20:37 16.09.2019
1810 Clouds 22 1010 93 0 0.97 263.211 20:18 16.09.2019
1811 Clouds 22 1010 93 0 0.97 263.211 19:54 16.09.2019
1812 Clouds 22 1010 93 0 0.97 263.211 19:54 16.09.2019
1813 Clouds 22 1010 93 0 0.97 263.211 19:36 16.09.2019
1814 Clouds 22 1010 93 0 0.97 263.211 19:36 16.09.2019
1815 Clouds 25 1011 78 8000 3.1 120 19:18 16.09.2019
1816 Clouds 22 1010 93 0 0.97 263.211 18:42 16.09.2019
1817 Clouds 27 1007 69 0 1.97 252.942 18:24 16.09.2019
1818 Clouds 27 1007 69 0 1.97 252.942 17:43 16.09.2019
1819 Clouds 25 1011 78 8000 4.1 330 17:24 16.09.2019
1820 Clouds 25 1011 78 8000 4.1 330 16:59 16.09.2019
1821 Clouds 25 1011 78 8000 4.1 330 16:40 16.09.2019
1822 Clouds 25 1012 78 8000 5.1 270 16:21 16.09.2019
1823 Clouds 25 1012 78 8000 5.1 270 15:57 16.09.2019
1824 Clouds 25 1012 78 8000 5.1 270 15:38 16.09.2019
1825 Clouds 25 1012 83 10000 4.1 270 15:20 16.09.2019
1826 Clouds 25 1012 83 10000 4.1 270 14:57 16.09.2019
1827 Rain 25 1008 79 0 1.7 234.099 14:38 16.09.2019
1828 Rain 25 1008 79 0 1.7 234.099 14:38 16.09.2019
1829 Clouds 24 1012 88 10000 4.1 290 14:19 16.09.2019
1830 Clouds 24 1012 88 10000 4.1 290 13:40 16.09.2019
1831 Thunderstorm 23 1013 88 8000 3.1 330 13:22 16.09.2019
1832 Thunderstorm 23 1013 88 8000 3.1 330 12:54 16.09.2019
1833 Thunderstorm 23 1013 88 8000 3.1 330 12:54 16.09.2019
1834 Thunderstorm 23 1013 88 8000 3.1 330 12:54 16.09.2019
1835 Rain 29 1008 62 0 1.69 233.652 12:36 16.09.2019
1836 Rain 22 1015 100 6000 3.1 210 12:18 16.09.2019
1837 Rain 22 1015 100 6000 3.1 210 11:44 16.09.2019
1838 Rain 25 1013 88 0 1.83 211.238 11:22 16.09.2019
1839 Rain 25 1013 88 0 1.83 211.238 10:40 16.09.2019
1840 Rain 25 1013 88 0 1.83 211.238 10:21 16.09.2019
1841 Rain 25 1013 88 0 1.83 211.238 09:59 16.09.2019
1842 Rain 25 1013 88 0 1.83 211.238 09:41 16.09.2019
1843 Rain 23 1013 95 0 0.99 211.441 09:20 16.09.2019
1844 Rain 23 1013 95 0 0.99 211.441 08:52 16.09.2019
1845 Rain 23 1013 95 0 0.85 247.613 08:31 16.09.2019
1846 Rain 23 1013 95 0 0.85 247.613 07:58 16.09.2019
1847 Rain 23 1013 95 0 0.85 247.613 07:40 16.09.2019
1848 Rain 23 1013 95 0 0.85 247.613 07:20 16.09.2019
1849 Rain 23 1013 95 0 0.85 247.613 06:49 16.09.2019
1850 Rain 23 1013 95 0 0.85 247.613 06:31 16.09.2019
1851 Rain 22 1010 99 0 0.7 63.066 05:57 16.09.2019
1852 Rain 22 1010 99 0 0.7 63.066 05:39 16.09.2019
1853 Rain 22 1010 99 0 0.7 63.066 04:57 16.09.2019
1854 Rain 22 1010 99 0 0.7 63.066 03:35 16.09.2019
1855 Rain 21 1009 98 0 1.03 216.469 00:57 16.09.2019
1856 Rain 21 1009 98 0 1.03 216.469 00:57 16.09.2019
1857 Rain 21 1009 98 0 1.03 216.469 00:36 16.09.2019
1858 Clouds 24 1010 82 0 0.95 228.643 00:18 16.09.2019
1859 Clouds 24 1010 82 0 0.95 228.643 23:38 15.09.2019
1860 Clouds 24 1010 82 0 0.95 228.643 23:20 15.09.2019
1861 Clouds 24 1010 82 0 0.95 228.643 22:39 15.09.2019
1862 Clouds 24 1010 82 0 0.95 228.643 22:20 15.09.2019
1863 Clouds 24 1010 82 0 0.95 228.643 21:57 15.09.2019
1864 Clouds 24 1010 82 0 0.95 228.643 21:38 15.09.2019
1865 Clouds 25 1007 76 0 1.02 231.034 21:19 15.09.2019
1866 Clouds 25 1008 77 0 1.32 242.155 20:46 15.09.2019
1867 Clouds 25 1008 77 0 1.32 242.155 20:27 15.09.2019
1868 Clouds 25 1008 77 0 1.32 242.155 19:58 15.09.2019
1869 Clouds 25 1008 77 0 1.32 242.155 19:40 15.09.2019
1870 Clouds 31 1008 66 8000 2.1 320 19:22 15.09.2019
1871 Clouds 31 1008 66 8000 2.1 320 18:40 15.09.2019
1872 Clouds 32 1008 59 10000 2.1 320 18:22 15.09.2019
1873 Clouds 32 1008 59 10000 2.1 320 17:56 15.09.2019
1874 Clouds 31 1007 54 0 1.2 303.202 17:36 15.09.2019
1875 Clouds 31 1007 54 0 1.2 303.202 17:18 15.09.2019
1876 Clouds 31 1007 54 0 1.2 303.202 16:42 15.09.2019
1877 Clouds 32 1010 59 10000 2.1 320 16:22 15.09.2019
1878 Clouds 32 1010 59 10000 2.1 320 15:58 15.09.2019
1879 Clouds 32 1010 59 10000 2.1 320 15:38 15.09.2019
1880 Clouds 32 1011 55 10000 2.1 210 15:19 15.09.2019
1881 Clouds 32 1011 55 10000 2.1 210 14:55 15.09.2019
1882 Clouds 32 1011 55 10000 2.1 210 14:37 15.09.2019
1883 Clouds 31 1012 62 10000 4.1 270 14:19 15.09.2019
1884 Clouds 31 1012 62 10000 4.1 270 13:44 15.09.2019
1885 Clouds 31 1013 66 9000 3.1 250 13:22 15.09.2019
1886 Clouds 31 1013 66 9000 3.1 250 12:43 15.09.2019
1887 Clouds 29 1017 70 9000 3.1 270 12:25 15.09.2019
1888 Clouds 29 1017 70 9000 3.1 270 12:25 15.09.2019
1889 Clouds 29 1017 70 9000 3.1 270 11:59 15.09.2019
1890 Clouds 29 1017 70 9000 3.1 270 11:41 15.09.2019
1891 Clouds 28 1015 74 8000 3.1 250 11:21 15.09.2019
1892 Clouds 28 1015 74 8000 3.1 250 10:47 15.09.2019
1893 Clouds 28 1015 74 8000 3.1 250 10:47 15.09.2019
1894 Clouds 31 1013 57 0 0.79 335.719 10:23 15.09.2019
1895 Clouds 31 1013 57 0 0.79 335.719 09:59 15.09.2019
1896 Clouds 31 1013 57 0 0.79 335.719 09:39 15.09.2019
1897 Clouds 25 1014 83 6000 2.1 0 09:19 15.09.2019
1898 Clouds 25 1014 83 6000 2.1 0 08:46 15.09.2019
1899 Clouds 25 1013 83 0 0.75 32.095 08:27 15.09.2019
1900 Clouds 25 1013 83 0 0.75 32.095 07:49 15.09.2019
1901 Clouds 25 1013 83 0 0.75 32.095 07:28 15.09.2019
1902 Clouds 25 1013 83 0 0.75 32.095 06:43 15.09.2019
1903 Clouds 22 1010 94 0 0.64 31.654 03:31 15.09.2019
1904 Clouds 23 1009 88 0 0.22 146.965 02:41 15.09.2019
1905 Clouds 23 1009 88 0 0.22 146.965 01:41 15.09.2019
1906 Clouds 23 1009 88 0 0.22 146.965 01:41 15.09.2019
1907 Rain 22 1009 90 0 0.53 230.484 01:21 15.09.2019
1908 Rain 22 1009 90 0 0.53 230.484 00:46 15.09.2019
1909 Clouds 24 1010 81 0 0.72 136.695 00:24 15.09.2019
1910 Clouds 24 1010 81 0 0.72 136.695 23:58 14.09.2019
1911 Clouds 24 1010 81 0 0.72 136.695 23:40 14.09.2019
1912 Clouds 24 1010 81 0 0.72 136.695 23:21 14.09.2019
1913 Clouds 24 1010 81 0 0.72 136.695 22:59 14.09.2019
1914 Clouds 24 1010 81 0 0.72 136.695 22:40 14.09.2019
1915 Clouds 24 1010 81 0 0.72 136.695 22:21 14.09.2019
1916 Clouds 24 1010 81 0 0.72 136.695 21:57 14.09.2019
1917 Clouds 24 1010 81 0 0.72 136.695 21:39 14.09.2019
1918 Clouds 25 1008 73 0 0.58 286.529 21:19 14.09.2019
1919 Clouds 25 1008 73 0 0.58 286.529 20:54 14.09.2019
1920 Clouds 25 1008 73 0 0.58 286.529 20:54 14.09.2019
1921 Clouds 25 1008 73 0 0.58 286.529 20:54 14.09.2019
1922 Clouds 25 1008 75 0 0.5 217.169 20:36 14.09.2019
1923 Clouds 28 1011 78 6000 2.1 0 20:18 14.09.2019
1924 Clouds 28 1011 78 6000 2.1 0 19:41 14.09.2019
1925 Clouds 30 1010 66 8000 1.5 0 19:20 14.09.2019
1926 Clouds 30 1010 66 8000 1.5 0 18:54 14.09.2019
1927 Clouds 25 1008 75 0 0.5 217.169 18:36 14.09.2019
1928 Clouds 32 1009 59 8000 1.5 0 18:18 14.09.2019
1929 Clouds 32 1009 59 8000 1.5 0 17:41 14.09.2019
1930 Clouds 31 1007 55 0 1.15 282.189 17:22 14.09.2019
1931 Clouds 31 1007 55 0 1.15 282.189 16:46 14.09.2019
1932 Clouds 32 1010 55 9000 3.1 240 16:26 14.09.2019
1933 Clouds 32 1010 55 9000 3.1 240 15:56 14.09.2019
1934 Clouds 32 1010 55 9000 3.1 240 15:56 14.09.2019
1935 Clouds 31 1007 55 0 1.15 282.189 15:38 14.09.2019
1936 Clouds 32 1011 55 10000 3.1 360 15:18 14.09.2019
1937 Clouds 32 1011 55 10000 3.1 360 14:43 14.09.2019
1938 Clouds 34 1008 41 0 1 299.245 14:19 14.09.2019
1939 Clouds 34 1008 41 0 1 299.245 13:48 14.09.2019
1940 Clouds 31 1013 58 10000 3.1 360 13:23 14.09.2019
1941 Clouds 31 1013 58 10000 3.1 360 12:58 14.09.2019
1942 Clouds 35 1008 41 0 0.85 303.915 12:37 14.09.2019
1943 Clouds 32 1013 48 0 0.91 16.567 12:18 14.09.2019
1944 Clouds 32 1013 48 0 0.91 16.567 11:40 14.09.2019
1945 Clouds 32 1013 48 0 0.91 16.567 11:19 14.09.2019
1946 Clouds 32 1013 48 0 0.91 16.567 10:39 14.09.2019
1947 Clouds 32 1013 48 0 0.91 16.567 10:20 14.09.2019
1948 Clouds 32 1013 48 0 0.91 16.567 09:57 14.09.2019
1949 Clouds 32 1013 48 0 0.91 16.567 09:39 14.09.2019
1950 Clouds 24 1014 78 0 0.73 329.212 09:19 14.09.2019
1951 Rain 23 1014 83 0 0.47 150.602 08:46 14.09.2019
1952 Rain 23 1014 83 0 0.47 150.602 08:24 14.09.2019
1953 Rain 23 1014 83 0 0.47 150.602 07:48 14.09.2019
1954 Rain 23 1014 83 0 0.47 150.602 07:28 14.09.2019
1955 Rain 23 1014 83 0 0.47 150.602 06:52 14.09.2019
1956 Rain 23 1014 83 0 0.47 150.602 06:52 14.09.2019
1957 Rain 23 1014 83 0 0.47 150.602 06:28 14.09.2019
1958 Rain 23 1014 83 0 0.47 150.602 06:28 14.09.2019
1959 Clouds 19 1011 99 0 0.87 288.205 05:26 14.09.2019
1960 Clouds 19 1011 99 0 0.87 288.205 03:46 14.09.2019
1961 Clouds 20 1011 98 0 0.94 287.044 02:54 14.09.2019
1962 Clouds 20 1011 98 0 0.94 287.044 01:54 14.09.2019
1963 Clouds 20 1011 98 0 1.01 270.57 01:23 14.09.2019
1964 Clouds 20 1011 98 0 1.01 270.57 01:23 14.09.2019
1965 Clouds 20 1011 98 0 1.01 270.57 00:59 14.09.2019
1966 Clouds 20 1011 98 0 1.01 270.57 00:39 14.09.2019
1967 Clouds 21 1012 92 0 0.91 348.764 00:20 14.09.2019
1968 Clouds 21 1012 92 0 0.91 348.764 23:38 13.09.2019
1969 Clouds 21 1012 92 0 0.91 348.764 23:19 13.09.2019
1970 Clouds 21 1012 92 0 0.91 348.764 22:59 13.09.2019
1971 Clouds 21 1012 92 0 0.91 348.764 22:38 13.09.2019
1972 Clouds 21 1012 92 0 0.91 348.764 22:20 13.09.2019
1973 Clouds 21 1012 92 0 0.91 348.764 21:55 13.09.2019
1974 Clouds 21 1012 92 0 0.91 348.764 21:37 13.09.2019
1975 Clouds 22 1010 85 0 0.97 33.657 21:18 13.09.2019
1976 Clouds 22 1010 85 0 0.97 33.657 20:55 13.09.2019
1977 Clouds 22 1010 85 0 0.23 347.338 20:36 13.09.2019
1978 Clouds 22 1010 85 0 0.23 347.338 20:18 13.09.2019
1979 Clouds 22 1010 85 0 0.23 347.338 19:42 13.09.2019
1980 Clouds 22 1010 85 0 0.23 347.338 19:21 13.09.2019
1981 Clouds 22 1010 85 0 0.23 347.338 18:57 13.09.2019
1982 Clouds 22 1010 85 0 0.23 347.338 18:37 13.09.2019
1983 Clouds 29 1008 57 0 1.1 306.484 18:19 13.09.2019
1984 Clouds 29 1008 57 0 1.1 306.484 17:43 13.09.2019
1985 Clouds 29 1008 57 0 1.1 306.484 17:19 13.09.2019
1986 Clouds 29 1008 57 0 1.1 306.484 16:54 13.09.2019
1987 Clouds 29 1008 57 0 1.1 306.484 16:36 13.09.2019
1988 Clouds 30 1012 58 10000 3.1 230 16:18 13.09.2019
1989 Clouds 29 1008 57 0 1.1 306.484 15:40 13.09.2019
1990 Clouds 30 1013 62 10000 3.1 180 15:21 13.09.2019
1991 Clouds 30 1010 56 0 0.56 313.911 14:44 13.09.2019
1992 Clouds 30 1010 56 0 0.56 313.911 14:44 13.09.2019
1993 Clouds 29 1014 66 10000 3.1 150 14:23 13.09.2019
1994 Clouds 29 1014 66 10000 3.1 150 13:58 13.09.2019
1995 Clouds 30 1010 56 0 0.56 313.911 13:39 13.09.2019
1996 Clouds 28 1015 69 10000 1.35 14.365 13:21 13.09.2019
1997 Clouds 28 1015 69 10000 1.35 14.365 12:44 13.09.2019
1998 Clouds 28 1016 69 10000 3.1 250 12:24 13.09.2019
1999 Clouds 28 1016 69 10000 3.1 250 11:56 13.09.2019
2000 Clouds 27 1023 69 10000 1.1 352.791 11:20 13.09.2019
2001 Clouds 27 1023 69 10000 1.1 352.791 10:41 13.09.2019
2002 Clouds 24 1016 83 10000 2.1 120 10:21 13.09.2019
2003 Clouds 24 1016 83 10000 2.1 120 10:21 13.09.2019
2004 Clouds 24 1016 83 10000 2.1 120 09:54 13.09.2019
2005 Rain 22 1015 88 0 1.1 352.791 09:36 13.09.2019
2006 Rain 22 1015 88 0 1.1 352.791 09:36 13.09.2019
2007 Clouds 24 1015 83 8000 2.1 330 09:18 13.09.2019
2008 Clouds 24 1015 83 8000 2.1 330 08:41 13.09.2019
2009 Rain 21 1015 98 0 1.01 152.094 08:21 13.09.2019
2010 Rain 21 1015 98 0 1.01 152.094 07:57 13.09.2019
2011 Rain 21 1015 98 0 1.01 152.094 07:39 13.09.2019
2012 Rain 21 1015 98 0 1.01 152.094 06:49 13.09.2019
2013 Rain 21 1015 98 0 1.01 152.094 06:49 13.09.2019
2014 Rain 21 1013 98 0 0.68 131.856 05:50 13.09.2019
2015 Rain 21 1013 98 0 0.68 131.856 05:26 13.09.2019
2016 Rain 21 1013 98 0 0.68 131.856 03:44 13.09.2019
2017 Rain 21 1012 96 0 2.56 128.254 02:54 13.09.2019
2018 Rain 21 1012 96 0 2.56 128.254 02:19 13.09.2019
2019 Rain 21 1012 96 0 2.56 128.254 01:35 13.09.2019
2020 Rain 21 1012 96 0 2.56 128.254 01:35 13.09.2019
2021 Clouds 22 1012 92 0 1.74 115.341 00:59 13.09.2019
2022 Clouds 22 1012 92 0 1.74 115.341 00:33 13.09.2019
2023 Rain 22 1013 87 0 0.8 206.854 23:46 12.09.2019
2024 Rain 22 1013 87 0 0.8 206.854 23:22 12.09.2019
2025 Rain 22 1013 87 0 0.8 206.854 22:56 12.09.2019
2026 Rain 22 1013 87 0 0.8 206.854 22:37 12.09.2019
2027 Rain 22 1013 87 0 0.8 206.854 22:18 12.09.2019
2028 Rain 22 1013 87 0 0.8 206.854 21:54 12.09.2019
2029 Rain 22 1013 87 0 0.8 206.854 21:36 12.09.2019
2030 Clouds 24 1010 84 0 1.03 197.559 21:18 12.09.2019
2031 Clouds 23 1010 85 0 0.86 189.167 20:41 12.09.2019
2032 Clouds 23 1010 85 0 0.86 189.167 20:21 12.09.2019
2033 Clouds 23 1010 85 0 0.86 189.167 19:56 12.09.2019
2034 Clouds 23 1010 85 0 0.86 189.167 19:37 12.09.2019
2035 Clouds 23 1010 85 0 0.86 189.167 19:19 12.09.2019
2036 Clouds 23 1010 85 0 0.86 189.167 19:19 12.09.2019
2037 Clouds 23 1010 85 0 0.86 189.167 18:39 12.09.2019
2038 Rain 27 1009 73 0 1.68 202.895 18:20 12.09.2019
2039 Rain 27 1009 73 0 1.68 202.895 17:59 12.09.2019
2040 Rain 27 1009 73 0 1.68 202.895 17:39 12.09.2019
2041 Clouds 31 1010 58 7000 2.1 180 17:20 12.09.2019
2042 Clouds 31 1010 58 7000 2.1 180 16:43 12.09.2019
2043 Clouds 32 1010 55 10000 3.1 210 16:23 12.09.2019
2044 Clouds 32 1010 55 10000 3.1 210 15:59 12.09.2019
2045 Clouds 32 1010 55 10000 3.1 210 15:39 12.09.2019
2046 Clouds 32 1012 55 10000 3.1 210 15:21 12.09.2019
2047 Clouds 32 1012 55 10000 3.1 210 14:45 12.09.2019
2048 Clouds 32 1013 55 10000 4.1 330 14:21 12.09.2019
2049 Clouds 32 1013 55 10000 4.1 330 13:54 12.09.2019
2050 Clouds 31 1014 66 8000 3.1 330 13:36 12.09.2019
2051 Clouds 31 1014 66 8000 3.1 330 13:18 12.09.2019
2052 Clouds 31 1014 66 8000 3.1 330 13:18 12.09.2019
2053 Clouds 31 1014 66 8000 3.1 330 12:41 12.09.2019
2054 Clouds 31 1015 66 8000 2.1 160 12:18 12.09.2019
2055 Clouds 31 1015 66 8000 2.1 160 11:55 12.09.2019
2056 Clear 32 1013 51 0 1.1 345.447 11:36 12.09.2019
2057 Clear 32 1013 51 0 1.1 345.447 11:18 12.09.2019
2058 Clear 32 1013 51 0 1.1 345.447 10:43 12.09.2019
2059 Clouds 27 1015 74 8000 2.1 160 10:24 12.09.2019
2060 Clear 32 1013 51 0 1.1 345.447 09:44 12.09.2019
2061 Clouds 23 1015 88 0 0.57 5.871 09:20 12.09.2019
2062 Clouds 23 1015 88 0 0.57 5.871 08:57 12.09.2019
2063 Clouds 24 1014 77 0 0.91 22.236 08:39 12.09.2019
2064 Clouds 24 1014 77 0 0.91 22.236 08:21 12.09.2019
2065 Clouds 24 1014 77 0 0.91 22.236 07:39 12.09.2019
2066 Clouds 24 1014 77 0 0.91 22.236 07:19 12.09.2019
2067 Clouds 24 1014 77 0 0.91 22.236 06:50 12.09.2019
2068 Clouds 20 1012 96 0 0.48 5.108 06:19 12.09.2019
2069 Clouds 20 1012 96 0 0.48 5.108 05:48 12.09.2019
2070 Clouds 20 1012 96 0 0.48 5.108 05:27 12.09.2019
2071 Clouds 20 1012 96 0 0.48 5.108 04:34 12.09.2019
2072 Clouds 21 1012 96 0 0.61 85.299 01:48 12.09.2019
2073 Clouds 21 1012 96 0 0.77 71.802 01:30 12.09.2019
2074 Clouds 21 1012 96 0 0.77 71.802 00:58 12.09.2019
2075 Clouds 21 1012 96 0 0.77 71.802 00:40 12.09.2019
2076 Clouds 22 1013 89 0 0.64 64.556 00:22 12.09.2019
2077 Clouds 22 1013 89 0 0.64 64.556 23:41 11.09.2019
2078 Clouds 22 1013 89 0 0.64 64.556 23:21 11.09.2019
2079 Clouds 22 1013 89 0 0.64 64.556 22:56 11.09.2019
2080 Clouds 22 1013 89 0 0.64 64.556 22:37 11.09.2019
2081 Clouds 22 1013 89 0 0.64 64.556 22:18 11.09.2019
2082 Clouds 22 1013 89 0 0.64 64.556 21:42 11.09.2019
2083 Clouds 23 1011 85 0 0.41 269.434 21:24 11.09.2019
2084 Clouds 23 1011 85 0 0.41 269.434 20:57 11.09.2019
2085 Rain 23 1011 89 0 0.21 123.536 20:38 11.09.2019
2086 Thunderstorm 26 1012 83 3000 3.1 330 20:19 11.09.2019
2087 Rain 23 1011 89 0 0.21 123.536 19:58 11.09.2019
2088 Rain 23 1011 89 0 0.21 123.536 19:39 11.09.2019
2089 Rain 23 1011 89 0 0.21 123.536 19:39 11.09.2019
2090 Rain 23 1011 89 0 0.21 123.536 19:39 11.09.2019
2091 Thunderstorm 28 1011 78 7000 3.1 310 19:19 11.09.2019
2092 Thunderstorm 28 1011 78 7000 3.1 310 18:56 11.09.2019
2093 Rain 23 1011 89 0 0.21 123.536 18:37 11.09.2019
2094 Clouds 25 1009 77 0 0.45 26.565 18:19 11.09.2019
2095 Clouds 25 1009 77 0 0.45 26.565 17:41 11.09.2019
2096 Thunderstorm 30 1011 66 4000 3.1 330 17:22 11.09.2019
2097 Thunderstorm 30 1011 66 4000 3.1 330 16:59 11.09.2019
2098 Thunderstorm 30 1011 66 4000 3.1 330 16:40 11.09.2019
2099 Clouds 25 1009 77 0 0.45 26.565 16:21 11.09.2019
2100 Clouds 25 1009 77 0 0.45 26.565 15:47 11.09.2019
2101 Clouds 30 1012 62 10000 3.1 30 15:24 11.09.2019
2102 Clouds 30 1012 62 10000 3.1 30 14:59 11.09.2019
2103 Clouds 30 1012 62 10000 3.1 30 14:41 11.09.2019
2104 Clouds 30 1010 53 0 1.85 314.146 14:20 11.09.2019
2105 Clouds 30 1010 53 0 1.85 314.146 13:59 11.09.2019
2106 Clouds 30 1010 53 0 1.85 314.146 13:37 11.09.2019
2107 Clouds 30 1014 66 9000 3.1 360 13:19 11.09.2019
2108 Clouds 30 1014 66 9000 3.1 360 12:42 11.09.2019
2109 Clouds 29 1015 70 8000 1.61 317.091 12:22 11.09.2019
2110 Clouds 29 1015 70 8000 1.61 317.091 11:58 11.09.2019
2111 Clouds 26 1015 72 0 1.61 317.091 11:38 11.09.2019
2112 Clouds 26 1015 72 0 1.61 317.091 11:20 11.09.2019
2113 Clouds 26 1015 72 0 1.61 317.091 10:55 11.09.2019
2114 -273 0 0 0 0 0 10:55 11.09.2019
2115 Clouds 26 1015 72 0 1.61 317.091 10:36 11.09.2019
2116 Clouds 26 1015 72 0 1.61 317.091 10:18 11.09.2019
2117 Clouds 26 1015 72 0 1.61 317.091 09:37 11.09.2019
2118 Clouds 21 1014 97 0 0.23 210.114 09:19 11.09.2019
2119 Rain 21 1014 98 0 0.55 170.811 08:41 11.09.2019
2120 Rain 21 1014 98 0 0.55 170.811 08:21 11.09.2019
2121 Rain 21 1014 98 0 0.55 170.811 07:57 11.09.2019
2122 Rain 21 1014 98 0 0.55 170.811 07:38 11.09.2019
2123 Rain 21 1014 98 0 0.55 170.811 07:19 11.09.2019
2124 Rain 21 1014 98 0 0.55 170.811 06:38 11.09.2019
2125 Rain 21 1012 99 0 1.45 312.85 06:19 11.09.2019
2126 Rain 21 1012 99 0 1.45 312.85 05:33 11.09.2019
2127 Rain 21 1012 99 0 1.45 312.85 04:52 11.09.2019
2128 Rain 21 1012 99 0 1.45 312.85 03:59 11.09.2019
2129 Rain 21 1012 99 0 1.45 312.85 03:26 11.09.2019
2130 Rain 21 1012 99 0 0.61 300.915 02:31 11.09.2019
2131 Clouds 21 1012 93 0 0.76 310.675 01:31 11.09.2019
2132 Clouds 21 1012 93 0 0.76 310.675 00:37 11.09.2019
2133 Clouds 22 1014 90 0 0.89 333.637 00:19 11.09.2019
2134 Clouds 22 1014 90 0 0.89 333.637 23:40 10.09.2019
2135 Clouds 22 1014 90 0 0.89 333.637 23:21 10.09.2019
2136 Clouds 22 1014 90 0 0.89 333.637 22:54 10.09.2019
2137 Clouds 22 1014 90 0 0.89 333.637 22:36 10.09.2019
2138 Clouds 22 1014 90 0 0.89 333.637 22:18 10.09.2019
2139 Clouds 22 1014 90 0 0.89 333.637 21:54 10.09.2019
2140 Clouds 22 1014 90 0 0.89 333.637 21:36 10.09.2019
2141 Clouds 22 1012 91 0 0.66 348.622 21:18 10.09.2019
2142 Clouds 22 1012 91 0 0.66 348.622 20:54 10.09.2019
2143 Clouds 22 1011 88 0 0.65 323.5 20:36 10.09.2019
2144 Clouds 22 1011 88 0 0.65 323.5 20:18 10.09.2019
2145 Clouds 22 1011 88 0 0.65 323.5 19:54 10.09.2019
2146 Clouds 22 1011 88 0 0.65 323.5 19:36 10.09.2019
2147 Clouds 22 1011 88 0 0.65 323.5 19:18 10.09.2019
2148 Clouds 22 1011 88 0 0.65 323.5 18:42 10.09.2019
2149 Clouds 24 1012 94 6000 1.5 0 18:22 10.09.2019
2150 Clouds 24 1012 94 6000 1.5 0 17:55 10.09.2019
2151 Clouds 27 1009 68 0 1.37 298.255 17:37 10.09.2019
2152 Rain 24 1012 94 6000 2.1 340 17:19 10.09.2019
2153 Rain 24 1012 94 6000 2.1 340 16:56 10.09.2019
2154 Clouds 27 1009 68 0 1.37 298.255 16:37 10.09.2019
2155 Clouds 27 1009 68 0 1.37 298.255 16:37 10.09.2019
2156 Thunderstorm 24 1012 94 6000 2.1 340 16:19 10.09.2019
2157 Thunderstorm 24 1012 94 6000 2.1 340 15:43 10.09.2019
2158 Thunderstorm 25 1013 88 6000 1.5 0 15:22 10.09.2019
2159 Thunderstorm 25 1013 88 6000 1.5 0 15:22 10.09.2019
2160 Thunderstorm 25 1013 88 6000 1.5 0 14:57 10.09.2019
2161 Thunderstorm 25 1013 88 6000 1.5 0 14:38 10.09.2019
2162 Clouds 28 1010 65 0 2.64 294.435 14:19 10.09.2019
2163 Clouds 28 1010 65 0 2.64 294.435 13:44 10.09.2019
2164 Clouds 29 1015 70 8000 4.1 270 13:22 10.09.2019
2165 Clouds 29 1015 70 8000 4.1 270 12:52 10.09.2019
2166 Clouds 29 1015 70 8000 4.1 270 12:28 10.09.2019
2167 Clouds 27 1016 78 8000 3.1 240 11:59 10.09.2019
2168 Clouds 27 1016 78 8000 3.1 240 11:40 10.09.2019
2169 Clouds 27 1016 78 8000 3.1 240 11:22 10.09.2019
2170 Clouds 25 1017 88 8000 2.1 260 10:43 10.09.2019
2171 Clouds 24 1016 88 6000 1.5 0 10:21 10.09.2019
2172 Clouds 24 1016 88 6000 1.5 0 09:59 10.09.2019
2173 Clouds 24 1016 88 6000 1.5 0 09:41 10.09.2019
2174 Clouds 24 1016 88 6000 1.5 0 09:19 10.09.2019
2175 Clouds 24 1016 88 6000 1.5 0 09:19 10.09.2019
2176 Rain 22 1015 91 0 0.7 320.831 08:47 10.09.2019
2177 Rain 22 1015 91 0 0.7 320.831 08:29 10.09.2019
2178 Rain 22 1015 91 0 0.7 320.831 07:56 10.09.2019
2179 Rain 22 1015 91 0 0.7 320.831 07:37 10.09.2019
2180 Rain 22 1015 91 0 0.7 320.831 07:19 10.09.2019
2181 Rain 22 1015 91 0 0.7 320.831 06:39 10.09.2019
2182 Rain 22 1015 91 0 0.7 320.831 06:39 10.09.2019
2183 Rain 20 1013 99 0 0.93 293.028 06:20 10.09.2019
2184 Rain 20 1013 99 0 0.93 293.028 04:19 10.09.2019
2185 Rain 20 1013 97 0 0.68 299.786 02:38 10.09.2019
2186 Rain 20 1013 97 0 0.68 299.786 02:38 10.09.2019
2187 Rain 20 1013 97 0 0.68 299.786 02:20 10.09.2019
2188 Rain 20 1013 97 0 0.68 299.786 02:20 10.09.2019
2189 Rain 20 1013 97 0 0.68 299.786 01:50 10.09.2019
2190 Rain 20 1013 97 0 0.68 299.786 01:50 10.09.2019
2191 Rain 20 1013 97 0 0.68 299.786 01:50 10.09.2019
2192 Rain 20 1013 97 0 0.68 299.786 01:50 10.09.2019
2193 Rain 20 1013 98 0 1.07 313.184 01:22 10.09.2019
2194 Rain 20 1013 98 0 1.07 313.184 00:36 10.09.2019
2195 Rain 20 1013 98 0 1.07 313.184 00:36 10.09.2019
2196 Rain 21 1014 97 0 1.09 278.435 23:56 09.09.2019
2197 Rain 21 1014 97 0 1.09 278.435 23:36 09.09.2019
2198 Rain 21 1014 97 0 1.09 278.435 23:18 09.09.2019
2199 Rain 21 1014 97 0 1.09 278.435 22:54 09.09.2019
2200 Rain 21 1014 97 0 1.09 278.435 22:36 09.09.2019
2201 Rain 21 1014 97 0 1.09 278.435 22:18 09.09.2019
2202 Rain 21 1014 97 0 1.09 278.435 21:55 09.09.2019
2203 Rain 21 1014 97 0 1.09 278.435 21:36 09.09.2019
2204 Rain 22 1012 92 0 1.15 219.234 21:18 09.09.2019
2205 Rain 22 1012 92 0 1.15 219.234 20:54 09.09.2019
2206 Rain 23 1011 88 0 0.52 213.353 20:36 09.09.2019
2207 Rain 23 1011 88 0 0.52 213.353 20:18 09.09.2019
2208 Rain 23 1011 88 0 0.52 213.353 19:55 09.09.2019
2209 Rain 23 1011 88 0 0.52 213.353 19:36 09.09.2019
2210 Rain 23 1011 88 0 0.52 213.353 19:18 09.09.2019
2211 Rain 23 1011 88 0 0.52 213.353 19:18 09.09.2019
2212 Rain 23 1011 88 0 0.52 213.353 18:41 09.09.2019
2213 Clouds 29 1011 66 9000 1.5 0 18:22 09.09.2019
2214 Clouds 29 1011 66 9000 1.5 0 17:59 09.09.2019
2215 Clouds 29 1011 66 9000 1.5 0 17:41 09.09.2019
2216 Clouds 29 1011 66 9000 1.5 0 17:21 09.09.2019
2217 Rain 26 1009 87 0 0.45 70.958 16:57 09.09.2019
2218 Rain 26 1009 87 0 0.45 70.958 16:39 09.09.2019
2219 Clouds 29 1012 66 9000 2.1 40 16:20 09.09.2019
2220 Clouds 29 1012 66 9000 2.1 40 16:20 09.09.2019
2221 Clouds 29 1012 66 9000 2.1 40 15:56 09.09.2019
2222 Clouds 29 1012 66 9000 2.1 40 15:37 09.09.2019
2223 Clouds 29 1012 66 9000 2.1 40 15:19 09.09.2019
2224 Clouds 29 1023 66 9000 1.5 0 14:57 09.09.2019
2225 Rain 25 1010 83 0 2.09 77.736 14:38 09.09.2019
2226 Clouds 28 1014 69 9000 3.1 340 14:19 09.09.2019
2227 Rain 25 1010 83 0 2.09 77.736 13:45 09.09.2019
2228 Clouds 28 1015 69 10000 3.1 60 13:21 09.09.2019
2229 Clouds 28 1015 69 10000 3.1 60 12:58 09.09.2019
2230 Rain 28 1010 67 0 1.78 22.632 12:40 09.09.2019
2231 Clouds 28 1016 69 10000 2.1 300 12:20 09.09.2019
2232 Clouds 28 1016 69 10000 2.1 300 11:48 09.09.2019
2233 Clouds 28 1016 69 10000 2.1 300 11:24 09.09.2019
2234 Clouds 26 1017 78 10000 2.1 360 10:59 09.09.2019
2235 Clouds 31 1014 53 0 0.83 348.92 10:41 09.09.2019
2236 Clouds 23 1017 94 6000 2.1 30 10:21 09.09.2019
2237 Clouds 23 1017 94 6000 2.1 30 09:57 09.09.2019
2238 Clouds 23 1017 94 6000 2.1 30 09:57 09.09.2019
2239 Mist 22 1016 94 4000 0.83 348.92 09:38 09.09.2019
2240 Mist 22 1016 94 4000 0.95 345.552 09:19 09.09.2019
2241 Clouds 21 1014 90 0 1.14 350.233 08:39 09.09.2019
2242 Clouds 21 1014 90 0 1.14 350.233 08:20 09.09.2019
2243 Clouds 21 1014 90 0 1.14 350.233 07:48 09.09.2019
2244 Clouds 21 1014 90 0 1.14 350.233 07:23 09.09.2019
2245 Clouds 21 1014 90 0 1.14 350.233 06:58 09.09.2019
2246 Clouds 21 1014 90 0 1.14 350.233 06:40 09.09.2019
2247 Clouds 21 1013 92 0 0.87 356.129 04:56 09.09.2019
2248 Clouds 21 1013 91 0 0.45 271.538 02:59 09.09.2019
2249 Clouds 21 1013 91 0 0.45 271.538 02:39 09.09.2019
2250 Clouds 21 1013 92 0 0.45 297.764 00:50 09.09.2019
2251 Clouds 21 1014 93 0 0.45 310.863 00:22 09.09.2019
2252 Clouds 21 1014 93 0 0.45 310.863 23:46 08.09.2019
2253 Clouds 21 1014 93 0 0.45 310.863 23:24 08.09.2019
2254 Clouds 21 1014 93 0 0.45 310.863 22:57 08.09.2019
2255 Clouds 21 1014 93 0 0.45 310.863 22:38 08.09.2019
2256 Clouds 21 1014 93 0 0.45 310.863 22:20 08.09.2019
2257 Clouds 21 1014 93 0 0.45 310.863 21:55 08.09.2019
2258 Clouds 21 1014 93 0 0.45 310.863 21:36 08.09.2019
2259 Clouds 22 1014 94 7000 2.1 50 21:18 08.09.2019
2260 -273 0 0 0 0 0 20:40 08.09.2019
2261 Clouds 22 1014 94 7000 2.1 50 20:22 08.09.2019
2262 Clouds 23 1014 88 7000 2.1 30 19:59 08.09.2019
2263 Clouds 23 1014 88 7000 2.1 30 19:38 08.09.2019
2264 Clouds 23 1014 88 7000 2.1 30 19:20 08.09.2019
2265 Clouds 24 1014 88 8000 2.1 180 18:57 08.09.2019
2266 Clouds 21 1013 95 0 0.77 241.163 18:38 08.09.2019
2267 Clouds 24 1013 88 8000 3.1 330 18:19 08.09.2019
2268 Clouds 24 1013 88 8000 3.1 330 17:56 08.09.2019
2269 Clouds 24 1013 88 8000 3.1 330 17:37 08.09.2019
2270 Clouds 24 1013 88 8000 3.1 330 17:18 08.09.2019
2271 Clouds 24 1013 83 8000 3.1 330 16:45 08.09.2019
2272 Clouds 24 1013 83 8000 3.1 330 16:22 08.09.2019
2273 Clouds 24 1010 81 0 0.82 282.197 15:59 08.09.2019
2274 Clouds 24 1010 81 0 0.82 282.197 15:41 08.09.2019
2275 Rain 25 1011 78 0 2.27 323.58 15:21 08.09.2019
2276 Rain 25 1011 78 0 2.27 323.58 14:57 08.09.2019
2277 Rain 25 1011 78 0 2.27 323.58 14:39 08.09.2019
2278 Rain 25 1011 78 0 2.27 323.58 14:20 08.09.2019
2279 Rain 25 1011 78 0 2.27 323.58 13:56 08.09.2019
2280 Rain 25 1011 78 0 2.27 323.58 13:37 08.09.2019
2281 Rain 23 1016 88 5000 3.1 330 13:19 08.09.2019
2282 Clouds 33 1008 45 0 1.52 289.007 12:42 08.09.2019
2283 Clouds 28 1013 68 0 1.14 7.25 12:24 08.09.2019
2284 Clouds 28 1013 68 0 1.14 7.25 11:58 08.09.2019
2285 Clouds 28 1013 68 0 1.14 7.25 11:40 08.09.2019
2286 Clouds 28 1013 68 0 1.14 7.25 11:20 08.09.2019
2287 Clouds 28 1013 68 0 1.14 7.25 10:58 08.09.2019
2288 Clouds 28 1013 68 0 1.14 7.25 10:40 08.09.2019
2289 Clouds 22 1016 94 7000 3.1 330 10:22 08.09.2019
2290 Clouds 28 1013 68 0 1.14 7.25 09:39 08.09.2019
2291 Clouds 21 1016 94 7000 3.1 330 09:21 08.09.2019
2292 Clouds 21 1016 94 7000 3.1 330 08:57 08.09.2019
2293 Clouds 23 1013 95 0 1.51 330.354 08:38 08.09.2019
2294 Clouds 23 1013 95 0 1.51 330.354 08:18 08.09.2019
2295 Clouds 23 1013 95 0 1.51 330.354 07:40 08.09.2019
2296 Clouds 23 1013 95 0 1.51 330.354 07:21 08.09.2019
2297 Clouds 23 1013 95 0 1.51 330.354 06:53 08.09.2019
2298 Clouds 23 1013 95 0 1.51 330.354 06:33 08.09.2019
2299 Rain 20 1012 99 0 1 305.245 05:39 08.09.2019
2300 Rain 20 1012 99 0 1 305.245 04:26 08.09.2019
2301 Rain 21 1011 98 0 0.39 275.74 03:19 08.09.2019
2302 Rain 21 1011 98 0 0.39 275.74 02:29 08.09.2019
2303 Rain 21 1011 98 0 0.39 275.74 01:52 08.09.2019
2304 Rain 21 1012 99 0 1.14 241.43 01:23 08.09.2019
2305 Rain 21 1012 99 0 1.14 241.43 00:46 08.09.2019
2306 Rain 21 1012 99 0 1.14 241.43 00:27 08.09.2019
2307 Clouds 22 1012 89 0 0.63 167.422 23:39 07.09.2019
2308 Clouds 22 1012 89 0 0.63 167.422 23:21 07.09.2019
2309 Clouds 22 1012 89 0 0.63 167.422 22:58 07.09.2019
2310 Clouds 22 1012 89 0 0.63 167.422 22:40 07.09.2019
2311 Clouds 22 1012 89 0 0.63 167.422 22:22 07.09.2019
2312 Clouds 22 1012 89 0 0.63 167.422 21:45 07.09.2019
2313 Clouds 22 1012 89 0 0.63 167.422 21:26 07.09.2019
2314 Clouds 23 1010 83 0 0.62 101.219 20:59 07.09.2019
2315 Clouds 23 1010 79 0 0.67 86.306 20:39 07.09.2019
2316 Thunderstorm 23 1010 88 6000 3.1 330 20:20 07.09.2019
2317 Thunderstorm 23 1010 88 6000 3.1 330 19:56 07.09.2019
2318 Thunderstorm 23 1010 88 6000 3.1 330 19:37 07.09.2019
2319 Thunderstorm 23 1010 88 6000 3.1 330 19:19 07.09.2019
2320 Clouds 23 1010 79 0 0.67 86.306 18:56 07.09.2019
2321 Clouds 23 1010 79 0 0.67 86.306 18:37 07.09.2019
2322 Clouds 33 1010 49 8000 5.1 120 18:18 07.09.2019
2323 Clouds 33 1010 49 8000 5.1 120 17:56 07.09.2019
2324 Clouds 33 1010 49 8000 5.1 120 17:38 07.09.2019
2325 Clouds 33 1010 49 8000 5.1 120 17:18 07.09.2019
2326 Clouds 33 1009 55 10000 2.1 180 16:43 07.09.2019
2327 Clouds 33 1009 55 10000 2.1 180 16:23 07.09.2019
2328 Clouds 33 1010 52 10000 2.1 180 15:58 07.09.2019
2329 Clouds 33 1010 52 10000 2.1 180 15:39 07.09.2019
2330 Clouds 33 1010 52 10000 2.1 180 15:21 07.09.2019
2331 Clouds 33 1011 55 10000 3.1 210 14:55 07.09.2019
2332 Clouds 33 1011 55 10000 3.1 210 14:55 07.09.2019
2333 Clouds 33 1011 55 10000 3.1 210 14:55 07.09.2019
2334 Clouds 26 1009 75 0 0.54 120.854 14:36 07.09.2019
2335 Clouds 26 1009 75 0 0.54 120.854 14:18 07.09.2019
2336 Clouds 26 1009 75 0 0.54 120.854 14:18 07.09.2019
2337 Clouds 26 1009 75 0 0.54 120.854 13:44 07.09.2019
2338 Clouds 31 1014 66 10000 3.1 180 13:25 07.09.2019
2339 Clouds 31 1014 66 10000 3.1 180 12:54 07.09.2019
2340 Clouds 35 1009 41 0 0.3 2.298 12:36 07.09.2019
2341 Clouds 35 1009 41 0 0.3 2.298 12:36 07.09.2019
2342 Clouds 31 1014 66 10000 2.1 330 12:18 07.09.2019
2343 Clouds 25 1013 79 0 1.18 139.335 11:40 07.09.2019
2344 Clouds 25 1013 79 0 1.18 139.335 11:21 07.09.2019
2345 Clouds 25 1013 79 0 1.18 139.335 10:41 07.09.2019
2346 Clouds 27 1015 74 8000 2.1 90 10:23 07.09.2019
2347 Clouds 27 1015 74 8000 2.1 90 09:59 07.09.2019
2348 Clouds 27 1015 74 8000 2.1 90 09:41 07.09.2019
2349 Clouds 27 1015 74 8000 2.1 90 09:21 07.09.2019
2350 Clouds 23 1015 94 6000 2.1 180 08:49 07.09.2019
2351 Clouds 23 1013 86 0 1.15 22.677 08:30 07.09.2019
2352 Clouds 23 1013 86 0 1.15 22.677 07:57 07.09.2019
2353 Clouds 23 1013 86 0 1.15 22.677 07:38 07.09.2019
2354 Clouds 23 1013 86 0 1.15 22.677 07:20 07.09.2019
2355 Clouds 23 1013 86 0 1.15 22.677 06:42 07.09.2019
2356 Clouds 21 1012 97 0 0.74 90.078 05:39 07.09.2019
2357 Clouds 21 1012 97 0 0.74 90.078 04:26 07.09.2019
2358 Clouds 21 1012 97 0 0.74 90.078 03:31 07.09.2019
2359 Clouds 21 1012 96 0 0.63 106.734 02:22 07.09.2019
2360 Clouds 21 1012 97 0 0.51 58.137 01:27 07.09.2019
2361 Clouds 21 1012 97 0 0.51 58.137 01:27 07.09.2019
2362 Clouds 21 1012 97 0 0.51 58.137 00:52 07.09.2019
2363 Clouds 21 1012 94 0 0.85 136.432 00:23 07.09.2019
2364 Clouds 21 1012 94 0 0.85 136.432 23:59 06.09.2019
2365 Clouds 21 1012 94 0 0.85 136.432 23:38 06.09.2019
2366 Clouds 21 1012 94 0 0.85 136.432 23:19 06.09.2019
2367 Clouds 21 1012 94 0 0.85 136.432 23:19 06.09.2019
2368 Clouds 21 1012 94 0 0.85 136.432 23:19 06.09.2019
2369 Clouds 21 1012 94 0 0.85 136.432 22:55 06.09.2019
2370 Clouds 21 1012 94 0 0.85 136.432 22:36 06.09.2019
2371 Clouds 21 1012 94 0 0.85 136.432 22:18 06.09.2019
2372 Clouds 21 1012 94 0 0.85 136.432 21:42 06.09.2019
2373 Clouds 23 1011 90 0 0.96 163.364 21:23 06.09.2019
2374 Clouds 23 1011 90 0 0.96 163.364 20:59 06.09.2019
2375 Clouds 23 1011 90 0 0.76 158.367 20:40 06.09.2019
2376 Clouds 23 1011 90 0 0.76 158.367 20:21 06.09.2019
2377 Clouds 23 1011 90 0 0.76 158.367 19:58 06.09.2019
2378 Clouds 23 1011 90 0 0.76 158.367 19:40 06.09.2019
2379 Clouds 23 1011 90 0 0.76 158.367 19:21 06.09.2019
2380 Clouds 23 1011 90 0 0.76 158.367 18:50 06.09.2019
2381 Clouds 23 1011 90 0 0.76 158.367 18:50 06.09.2019
2382 Clouds 23 1011 90 0 0.76 158.367 18:32 06.09.2019
2383 Clouds 25 1010 84 0 0.78 84.56 17:59 06.09.2019
2384 Clouds 25 1010 84 0 0.78 84.56 17:39 06.09.2019
2385 Clouds 25 1010 84 0 0.78 84.56 17:20 06.09.2019
2386 Clouds 25 1010 84 0 0.78 84.56 16:43 06.09.2019
2387 Clouds 25 1010 84 0 0.78 84.56 16:20 06.09.2019
2388 Clouds 25 1010 84 0 0.78 84.56 15:59 06.09.2019
2389 Clouds 25 1010 84 0 0.78 84.56 15:41 06.09.2019
2390 Rain 28 1012 66 0 1.92 343.55 15:22 06.09.2019
2391 Rain 28 1012 66 0 1.92 343.55 14:46 06.09.2019
2392 Rain 28 1012 66 0 1.92 343.55 14:19 06.09.2019
2393 Rain 28 1012 66 0 1.92 343.55 13:44 06.09.2019
2394 Rain 25 1011 82 0 1.46 357.456 13:23 06.09.2019
2395 Rain 25 1011 82 0 1.46 357.456 12:57 06.09.2019
2396 Rain 25 1011 82 0 1.46 357.456 12:37 06.09.2019
2397 Clouds 24 1015 88 0 1.33 109.95 12:18 06.09.2019
2398 Clouds 24 1015 88 0 1.33 109.95 11:41 06.09.2019
2399 Clouds 24 1015 88 0 1.33 109.95 11:23 06.09.2019
2400 Clouds 24 1015 88 0 1.33 109.95 10:56 06.09.2019
2401 Clouds 24 1015 88 0 1.33 109.95 10:56 06.09.2019
2402 Clouds 24 1015 88 0 1.33 109.95 10:38 06.09.2019
2403 Clouds 26 1015 78 0 0.75 66.061 10:18 06.09.2019
2404 Clouds 26 1015 78 0 0.75 66.061 09:38 06.09.2019
2405 Rain 22 1014 96 0 1.12 82.659 09:20 06.09.2019
2406 Rain 22 1014 96 0 1.12 82.659 08:56 06.09.2019
2407 Rain 22 1014 96 0 1.12 82.659 08:37 06.09.2019
2408 Rain 22 1014 96 0 1.12 82.659 08:19 06.09.2019
2409 Rain 22 1014 96 0 1.12 82.659 07:44 06.09.2019
2410 Rain 22 1014 96 0 1.12 82.659 07:25 06.09.2019
2411 Rain 22 1014 96 0 1.12 82.659 07:25 06.09.2019
2412 Rain 22 1014 96 0 1.12 82.659 06:53 06.09.2019
2413 Rain 21 1012 99 0 0.74 59.302 05:58 06.09.2019
2414 Rain 21 1012 99 0 0.74 59.302 04:58 06.09.2019
2415 Rain 21 1012 99 0 0.74 59.302 04:33 06.09.2019
2416 Rain 21 1012 99 0 0.74 59.302 03:39 06.09.2019
2417 Rain 21 1012 96 0 0.83 326.176 01:49 06.09.2019
2418 Rain 22 1011 89 0 0.98 3.5 00:32 06.09.2019
2419 Clouds 24 1012 78 0 0.43 34.862 23:44 05.09.2019
2420 Clouds 24 1012 78 0 0.43 34.862 23:24 05.09.2019
2421 Clouds 24 1012 78 0 0.43 34.862 22:54 05.09.2019
2422 Clouds 24 1012 78 0 0.43 34.862 22:36 05.09.2019
2423 Clouds 24 1012 78 0 0.43 34.862 22:18 05.09.2019
2424 Clouds 24 1012 78 0 0.43 34.862 21:55 05.09.2019
2425 Clouds 24 1012 78 0 0.43 34.862 21:37 05.09.2019
2426 Clouds 25 1010 69 0 0.77 4.496 21:19 05.09.2019
2427 Clouds 25 1009 72 0 0.5 17.815 20:54 05.09.2019
2428 Clouds 25 1009 72 0 0.5 17.815 20:36 05.09.2019
2429 Clouds 25 1009 72 0 0.5 17.815 20:36 05.09.2019
2430 Clouds 29 1011 74 7000 1.5 0 20:18 05.09.2019
2431 Clouds 29 1011 74 7000 1.5 0 19:41 05.09.2019
2432 Clouds 29 1011 74 7000 1.5 0 19:22 05.09.2019
2433 Clouds 31 1010 58 7000 1.5 0 18:57 05.09.2019
2434 Clouds 31 1010 58 7000 1.5 0 18:57 05.09.2019
2435 Clouds 25 1009 72 0 0.5 17.815 18:38 05.09.2019
2436 Clouds 30 1007 58 0 0.39 266.934 18:19 05.09.2019
2437 Clouds 30 1007 58 0 0.39 266.934 17:41 05.09.2019
2438 Clouds 30 1007 58 0 0.39 266.934 17:22 05.09.2019
2439 Clouds 30 1007 58 0 0.39 266.934 16:58 05.09.2019
2440 Clouds 30 1007 58 0 0.39 266.934 16:40 05.09.2019
2441 Clouds 30 1007 58 0 0.39 266.934 16:20 05.09.2019
2442 Clouds 30 1007 58 0 0.39 266.934 15:55 05.09.2019
2443 Clouds 30 1007 58 0 0.39 266.934 15:37 05.09.2019
2444 Clouds 34 1009 38 0 1.3 259.383 15:18 05.09.2019
2445 Clouds 34 1009 38 0 1.3 259.383 14:42 05.09.2019
2446 Clouds 34 1009 38 0 1.3 259.383 14:20 05.09.2019
2447 Clouds 34 1009 38 0 1.3 259.383 13:44 05.09.2019
2448 Clouds 34 1008 41 0 1.33 266.542 13:23 05.09.2019
2449 Clouds 34 1008 41 0 1.33 266.542 12:58 05.09.2019
2450 Clouds 34 1008 41 0 1.33 266.542 12:38 05.09.2019
2451 Clouds 31 1013 50 0 1.62 287.371 12:20 05.09.2019
2452 Clouds 31 1013 50 0 1.62 287.371 11:43 05.09.2019
2453 Clouds 31 1013 50 0 1.62 287.371 11:20 05.09.2019
2454 Clouds 31 1013 50 0 1.62 287.371 10:43 05.09.2019
2455 Clouds 31 1013 50 0 1.62 287.371 10:23 05.09.2019
2456 Clouds 31 1013 50 0 1.62 287.371 10:23 05.09.2019
2457 Clouds 31 1013 50 0 1.62 287.371 09:59 05.09.2019
2458 Clouds 31 1013 50 0 1.62 287.371 09:40 05.09.2019
2459 Clouds 24 1013 77 0 0.78 312.107 09:19 05.09.2019
2460 Clouds 24 1013 77 0 0.78 312.107 08:46 05.09.2019
2461 Clouds 24 1013 77 0 0.78 312.107 08:27 05.09.2019
2462 Clouds 24 1013 77 0 0.78 312.107 07:48 05.09.2019
2463 Clouds 24 1013 77 0 0.78 312.107 07:29 05.09.2019
2464 Clouds 24 1013 77 0 0.78 312.107 06:58 05.09.2019
2465 Clouds 24 1013 77 0 0.78 312.107 06:33 05.09.2019
2466 Clouds 20 1012 92 0 0.12 345.964 05:59 05.09.2019
2467 Clouds 20 1012 92 0 0.12 345.964 05:37 05.09.2019
2468 Clouds 20 1012 92 0 0.12 345.964 05:19 05.09.2019
2469 Clouds 20 1012 92 0 0.12 345.964 04:29 05.09.2019
2470 Clouds 20 1012 92 0 0.12 345.964 03:41 05.09.2019
2471 Clouds 21 1012 92 0 0.56 227.816 02:54 05.09.2019
2472 Clouds 21 1012 92 0 0.56 227.816 02:27 05.09.2019
2473 Clouds 21 1012 92 0 0.56 227.816 01:42 05.09.2019
2474 Clouds 21 1012 94 0 0.57 221.824 00:51 05.09.2019
2475 Clouds 21 1012 92 0 0.94 232.517 00:23 05.09.2019
2476 Clouds 21 1012 92 0 0.94 232.517 23:57 04.09.2019
2477 Clouds 21 1012 92 0 0.94 232.517 23:39 04.09.2019
2478 Clouds 21 1012 92 0 0.94 232.517 23:18 04.09.2019
2479 Clouds 21 1012 92 0 0.94 232.517 23:18 04.09.2019
2480 Clouds 21 1012 92 0 0.94 232.517 23:18 04.09.2019
2481 Clouds 21 1012 92 0 0.94 232.517 22:47 04.09.2019
2482 Clouds 21 1012 92 0 0.94 232.517 22:19 04.09.2019
2483 Clouds 22 1012 86 0 0.64 252.019 21:41 04.09.2019
2484 Clouds 23 1010 77 0 0.52 106.826 21:21 04.09.2019
2485 Clouds 23 1010 77 0 0.52 106.826 20:58 04.09.2019
2486 Clouds 23 1010 77 0 0.52 106.826 20:40 04.09.2019
2487 Clouds 28 1011 74 7000 3.1 360 20:20 04.09.2019
2488 Clouds 28 1011 74 7000 3.1 360 19:58 04.09.2019
2489 Clouds 28 1011 74 7000 3.1 360 19:39 04.09.2019
2490 Clouds 28 1011 74 7000 3.1 360 19:20 04.09.2019
2491 Clouds 23 1010 77 0 0.52 106.826 18:41 04.09.2019
2492 Clouds 31 1011 55 7000 3.1 330 18:23 04.09.2019
2493 Clouds 31 1011 55 7000 3.1 330 17:56 04.09.2019
2494 Clouds 31 1011 55 7000 3.1 330 17:56 04.09.2019
2495 Clouds 31 1011 55 7000 3.1 330 17:38 04.09.2019
2496 Clouds 31 1011 55 7000 3.1 330 17:20 04.09.2019
2497 Clouds 31 1011 58 10000 3.1 310 16:48 04.09.2019
2498 Clouds 31 1011 58 10000 3.1 310 16:28 04.09.2019
2499 Clouds 29 1008 59 0 0.9 344.37 15:59 04.09.2019
2500 Clouds 29 1008 59 0 0.9 344.37 15:39 04.09.2019
2501 Clouds 29 1008 59 0 0.9 344.37 15:39 04.09.2019
2502 Clouds 31 1010 54 0 0.97 279.929 15:21 04.09.2019
2503 Clouds 31 1010 54 0 0.97 279.929 14:58 04.09.2019
2504 Clouds 31 1010 54 0 0.97 279.929 14:37 04.09.2019
2505 Clouds 30 1013 62 10000 0.97 279.929 14:19 04.09.2019
2506 Clouds 30 1013 62 10000 0.97 279.929 13:55 04.09.2019
2507 Clouds 31 1010 54 0 0.97 279.929 13:36 04.09.2019
2508 Clouds 29 1016 66 10000 3.1 210 13:18 04.09.2019
2509 Clouds 29 1016 66 10000 3.1 210 12:40 04.09.2019
2510 Clouds 29 1016 66 10000 3.1 210 12:22 04.09.2019
2511 Clouds 28 1015 69 10000 2.1 300 11:55 04.09.2019
2512 Clouds 28 1015 69 10000 2.1 300 11:37 04.09.2019
2513 Clouds 28 1015 69 10000 2.1 300 11:18 04.09.2019
2514 Clouds 28 1013 63 0 0.82 100.654 10:44 04.09.2019
2515 Clouds 28 1013 63 0 0.82 100.654 10:25 04.09.2019
2516 Clouds 26 1014 70 0 0.94 45.431 09:57 04.09.2019
2517 Clouds 26 1014 70 0 0.94 45.431 09:39 04.09.2019
2518 Clouds 22 1013 95 0 1.03 154.203 09:18 04.09.2019
2519 Clouds 22 1013 95 0 1.03 154.203 08:41 04.09.2019
2520 Clouds 22 1013 95 0 1.03 154.203 08:23 04.09.2019
2521 Clouds 22 1013 95 0 1.03 154.203 07:56 04.09.2019
2522 Clouds 22 1013 95 0 1.03 154.203 07:33 04.09.2019
2523 Clouds 22 1013 95 0 1.03 154.203 06:49 04.09.2019
2524 Clouds 21 1012 99 0 1.15 120.673 06:21 04.09.2019
2525 Clouds 21 1012 99 0 1.15 120.673 04:53 04.09.2019
2526 Clouds 21 1012 99 0 1.15 120.673 04:20 04.09.2019
2527 Clouds 21 1012 98 0 0.75 94.802 02:21 04.09.2019
2528 Clouds 21 1012 98 0 1.02 128.053 00:55 04.09.2019
2529 Clouds 21 1012 98 0 1.02 128.053 00:35 04.09.2019
2530 Clouds 21 1014 99 0 0.74 141.982 00:00 04.09.2019
2531 Clouds 21 1014 99 0 0.74 141.982 23:38 03.09.2019
2532 Clouds 21 1014 99 0 0.74 141.982 23:20 03.09.2019
2533 Clouds 21 1014 99 0 0.74 141.982 22:40 03.09.2019
2534 Clouds 21 1014 99 0 0.74 141.982 22:22 03.09.2019
2535 Clouds 20 1013 98 0 0.6 137.101 21:56 03.09.2019
2536 Clouds 20 1013 98 0 0.6 137.101 21:38 03.09.2019
2537 Clouds 24 1012 47 7000 2.1 120 21:20 03.09.2019
2538 Clouds 24 1012 47 7000 2.1 120 20:44 03.09.2019
2539 Clouds 24 1012 47 7000 2.1 120 20:24 03.09.2019
2540 Clouds 26 1013 74 8000 3.1 330 19:57 03.09.2019
2541 Clouds 26 1013 74 8000 3.1 330 19:39 03.09.2019
2542 Clouds 26 1013 74 8000 3.1 330 19:19 03.09.2019
2543 Clouds 21 1011 96 0 1.05 178.096 18:56 03.09.2019
2544 Clouds 21 1011 96 0 1.05 178.096 18:38 03.09.2019
2545 Thunderstorm 26 1012 74 9000 5.1 330 18:18 03.09.2019
2546 Clouds 22 1010 94 0 0.99 234.618 17:43 03.09.2019
2547 Thunderstorm 26 1013 74 10000 6.2 340 17:21 03.09.2019
2548 Thunderstorm 26 1013 74 10000 6.2 340 16:59 03.09.2019
2549 Thunderstorm 26 1013 74 10000 6.2 340 16:41 03.09.2019
2550 Thunderstorm 26 1013 74 10000 6.2 340 16:22 03.09.2019
2551 Clouds 22 1010 94 0 0.99 234.618 15:42 03.09.2019
2552 Clouds 22 1010 94 0 0.99 234.618 15:42 03.09.2019
2553 Clouds 29 1012 70 9000 4.1 360 15:22 03.09.2019
2554 Clouds 29 1012 70 9000 4.1 360 14:59 03.09.2019
2555 Clouds 29 1012 70 9000 4.1 360 14:41 03.09.2019
2556 Clouds 29 1012 70 9000 4.1 360 14:21 03.09.2019
2557 Clouds 29 1013 70 8000 4.1 360 13:58 03.09.2019
2558 Rain 22 1012 92 0 0.34 264.713 13:38 03.09.2019
2559 Rain 22 1012 95 0 0.8 77.177 13:20 03.09.2019
2560 Rain 22 1012 95 0 0.8 77.177 13:20 03.09.2019
2561 Rain 22 1012 95 0 0.8 77.177 12:57 03.09.2019
2562 Rain 22 1012 95 0 0.8 77.177 12:39 03.09.2019
2563 Rain 20 1016 99 0 1.13 17.342 12:20 03.09.2019
2564 Rain 20 1016 99 0 1.13 17.342 11:42 03.09.2019
2565 Rain 20 1016 99 0 1.13 17.342 11:23 03.09.2019
2566 Rain 20 1016 99 0 1.13 17.342 10:57 03.09.2019
2567 Rain 20 1016 99 0 1.13 17.342 10:39 03.09.2019
2568 Rain 20 1016 99 0 1.13 17.342 10:20 03.09.2019
2569 Rain 20 1016 99 0 1.13 17.342 09:48 03.09.2019
2570 Rain 22 1015 98 0 2.05 40.462 09:30 03.09.2019
2571 Rain 22 1014 97 0 2.74 105.455 08:56 03.09.2019
2572 Rain 22 1014 97 0 2.74 105.455 08:37 03.09.2019
2573 Rain 22 1014 97 0 2.74 105.455 08:19 03.09.2019
2574 Rain 22 1014 97 0 2.74 105.455 07:42 03.09.2019
2575 Rain 22 1014 97 0 2.74 105.455 07:23 03.09.2019
2576 Rain 22 1014 97 0 2.74 105.455 06:45 03.09.2019
2577 Rain 22 1014 97 0 2.74 105.455 06:27 03.09.2019
2578 Rain 21 1011 97 0 0.69 295.785 03:44 03.09.2019
2579 Rain 22 1010 94 0 1.28 255.681 02:47 03.09.2019
2580 Rain 22 1010 94 0 1.28 255.681 02:26 03.09.2019
2581 Rain 22 1010 94 0 1.28 255.681 01:52 03.09.2019
2582 Rain 22 1011 94 0 1.19 255.05 01:33 03.09.2019
2583 Rain 22 1011 94 0 1.19 255.05 00:56 03.09.2019
2584 Rain 22 1011 94 0 1.19 255.05 00:26 03.09.2019
2585 Rain 23 1011 92 0 0.42 305.917 23:40 02.09.2019
2586 Rain 23 1011 92 0 0.42 305.917 23:40 02.09.2019
2587 Rain 23 1011 92 0 0.42 305.917 23:20 02.09.2019
2588 Rain 23 1011 92 0 0.42 305.917 22:57 02.09.2019
2589 Rain 23 1011 92 0 0.42 305.917 22:57 02.09.2019
2590 Rain 23 1011 92 0 0.42 305.917 22:39 02.09.2019
2591 Rain 23 1011 92 0 0.42 305.917 22:20 02.09.2019
2592 Rain 23 1011 92 0 0.42 305.917 21:58 02.09.2019
2593 Clouds 24 1010 81 0 0.64 308.464 21:40 02.09.2019
2594 Clouds 26 1008 72 0 0.66 5.511 21:20 02.09.2019
2595 Clouds 26 1008 72 0 0.66 5.511 20:59 02.09.2019
2596 Clouds 26 1008 72 0 0.66 5.511 20:40 02.09.2019
2597 Clouds 26 1008 72 0 0.66 5.511 20:40 02.09.2019
2598 Clouds 29 1011 79 7000 1.5 0 20:19 02.09.2019
2599 Clouds 29 1011 79 7000 1.5 0 19:57 02.09.2019
2600 Clouds 29 1011 79 7000 1.5 0 19:38 02.09.2019
2601 Clouds 29 1011 79 7000 1.5 0 19:19 02.09.2019
2602 Clouds 31 1010 66 7000 1.5 0 18:40 02.09.2019
2603 Clouds 31 1010 66 7000 1.5 0 18:22 02.09.2019
2604 Clouds 32 1010 55 8000 1.5 0 17:58 02.09.2019
2605 Clouds 32 1010 55 8000 1.5 0 17:58 02.09.2019
2606 Clouds 32 1010 55 8000 1.5 0 17:39 02.09.2019
2607 Clouds 32 1010 55 8000 1.5 0 17:21 02.09.2019
2608 Clouds 32 1010 55 8000 2.1 320 16:58 02.09.2019
2609 Clouds 32 1010 55 8000 2.1 320 16:37 02.09.2019
2610 Clouds 32 1010 55 8000 2.1 320 16:19 02.09.2019
2611 Clouds 32 1010 55 8000 4.1 330 15:44 02.09.2019
2612 Clouds 32 1010 55 8000 4.1 330 15:22 02.09.2019
2613 Clouds 32 1011 55 10000 2.1 290 14:56 02.09.2019
2614 Clouds 36 1008 38 0 0.81 58.878 14:37 02.09.2019
2615 Clouds 31 1012 62 10000 3.1 20 14:19 02.09.2019
2616 Clouds 31 1012 62 10000 3.1 20 13:54 02.09.2019
2617 Clouds 31 1013 62 8000 2.1 340 13:36 02.09.2019
2618 Clouds 31 1013 62 8000 2.1 340 13:18 02.09.2019
2619 Clouds 31 1013 62 8000 2.1 340 12:42 02.09.2019
2620 Clouds 31 1013 62 8000 2.1 340 12:24 02.09.2019
2621 Clouds 30 1014 66 8000 2.1 340 11:58 02.09.2019
2622 Clouds 32 1012 53 0 1.22 2.865 11:38 02.09.2019
2623 Clouds 32 1012 53 0 1.22 2.865 11:19 02.09.2019
2624 Clouds 32 1012 53 0 1.22 2.865 10:55 02.09.2019
2625 Clouds 32 1012 53 0 1.22 2.865 10:36 02.09.2019
2626 Clouds 32 1012 53 0 1.22 2.865 10:18 02.09.2019
2627 Clouds 32 1012 53 0 1.22 2.865 09:42 02.09.2019
2628 Mist 24 1014 50 4000 0.88 351.007 09:20 02.09.2019
2629 Mist 24 1014 50 4000 0.88 351.007 08:44 02.09.2019
2630 Mist 24 1014 50 4000 0.88 351.007 08:22 02.09.2019
2631 Rain 22 1014 96 0 0.88 351.007 07:57 02.09.2019
2632 Rain 22 1014 96 0 0.88 351.007 07:39 02.09.2019
2633 Rain 22 1014 96 0 0.88 351.007 07:20 02.09.2019
2634 Rain 22 1014 96 0 0.88 351.007 06:43 02.09.2019
2635 Rain 21 1011 99 0 1.65 36.481 05:54 02.09.2019
2636 Rain 21 1011 99 0 1.65 36.481 05:54 02.09.2019
2637 Rain 21 1011 99 0 1.65 36.481 05:54 02.09.2019
2638 Rain 21 1011 99 0 1.65 36.481 05:26 02.09.2019
2639 Rain 21 1011 99 0 1.65 36.481 04:50 02.09.2019
2640 Rain 22 1011 93 0 0.49 256.418 02:42 02.09.2019
2641 Rain 22 1011 93 0 0.49 256.418 01:43 02.09.2019
2642 Rain 22 1011 97 0 0.49 262.513 00:46 02.09.2019
2643 Rain 22 1011 97 0 0.49 262.513 00:26 02.09.2019
2644 Rain 22 1011 96 0 1.04 265.635 23:39 01.09.2019
2645 Rain 22 1011 96 0 1.04 265.635 23:20 01.09.2019
2646 Rain 22 1011 96 0 1.04 265.635 22:57 01.09.2019
2647 Rain 22 1011 96 0 1.04 265.635 22:57 01.09.2019
2648 Rain 22 1011 96 0 1.04 265.635 22:39 01.09.2019
2649 Rain 22 1011 96 0 1.04 265.635 22:18 01.09.2019
2650 Rain 22 1011 96 0 1.04 265.635 21:54 01.09.2019
2651 Clouds 22 1011 96 0 0.77 292.935 21:36 01.09.2019
2652 Rain 23 1009 94 0 1.07 316.061 21:18 01.09.2019
2653 Rain 23 1009 94 0 1.07 316.061 20:55 01.09.2019
2654 Clouds 27 1010 78 8000 1.5 0 20:36 01.09.2019
2655 Clouds 27 1010 78 8000 1.5 0 20:18 01.09.2019
2656 Clouds 27 1010 78 8000 1.5 0 19:41 01.09.2019
2657 Clouds 27 1010 78 8000 1.5 0 19:21 01.09.2019
2658 Clouds 29 1010 74 8000 1.5 0 18:57 01.09.2019
2659 Clouds 29 1010 74 8000 1.5 0 18:38 01.09.2019
2660 Clouds 29 1010 74 8000 1.5 0 18:20 01.09.2019
2661 Clouds 31 1010 58 8000 3.1 260 17:54 01.09.2019
2662 Clouds 31 1010 58 8000 3.1 260 17:36 01.09.2019
2663 Clouds 31 1010 58 8000 3.1 260 17:18 01.09.2019
2664 Clouds 32 1009 59 8000 3.1 240 16:39 01.09.2019
2665 Clouds 32 1009 59 8000 3.1 240 16:18 01.09.2019
2666 Clouds 32 1010 59 8000 3.1 300 15:45 01.09.2019
2667 Clouds 32 1010 59 8000 3.1 300 15:26 01.09.2019
2668 Clouds 32 1007 56 0 0.66 11.107 14:55 01.09.2019
2669 Clouds 30 1012 66 8000 3.1 300 14:37 01.09.2019
2670 Clouds 30 1012 66 8000 3.1 300 14:18 01.09.2019
2671 Clouds 30 1012 66 8000 3.1 300 13:41 01.09.2019
2672 Clouds 30 1012 66 8000 3.1 300 13:23 01.09.2019
2673 -273 0 0 0 0 0 12:55 01.09.2019
2674 Clouds 30 1013 66 8000 3.1 300 12:36 01.09.2019
2675 Clouds 30 1013 66 8000 3.1 300 12:18 01.09.2019
2676 Clouds 30 1012 59 0 1.75 316.641 11:39 01.09.2019
2677 Clouds 27 1015 74 8000 3.1 260 11:19 01.09.2019
2678 Clouds 27 1015 74 8000 3.1 260 10:45 01.09.2019
2679 Clouds 27 1015 74 8000 3.1 260 10:24 01.09.2019
2680 Clouds 30 1012 59 0 1.75 316.641 09:59 01.09.2019
2681 Rain 29 1012 60 0 1.95 313.465 09:41 01.09.2019
2682 Rain 23 1012 91 0 0.56 327.419 09:22 01.09.2019
2683 Rain 23 1012 91 0 0.56 327.419 08:43 01.09.2019
2684 Rain 23 1012 91 0 0.56 327.419 08:22 01.09.2019
2685 Rain 23 1012 91 0 0.56 327.419 07:46 01.09.2019
2686 Rain 23 1012 91 0 0.56 327.419 07:22 01.09.2019
2687 Rain 23 1012 91 0 0.56 327.419 06:39 01.09.2019
2688 Clear 20 1010 98 0 0.6 349.216 05:59 01.09.2019
2689 Clear 20 1010 98 0 0.6 349.216 05:27 01.09.2019
2690 Clear 20 1010 98 0 0.6 349.216 04:19 01.09.2019
2691 Clear 20 1010 98 0 0.6 349.216 03:37 01.09.2019
2692 Clouds 20 1009 98 0 0.89 88.511 02:52 01.09.2019
2693 -273 0 0 0 0 0 02:25 01.09.2019
2694 Clouds 20 1009 98 0 0.89 88.511 01:40 01.09.2019
2695 Clear 20 1009 96 0 0.74 80.818 01:21 01.09.2019
2696 Clear 20 1009 96 0 0.74 80.818 00:42 01.09.2019
2697 Rain 21 1011 96 0 0.47 59.937 00:21 01.09.2019
2698 Rain 21 1011 96 0 0.47 59.937 23:47 31.08.2019
2699 Rain 21 1011 96 0 0.47 59.937 23:21 31.08.2019
2700 Rain 21 1011 96 0 0.47 59.937 22:56 31.08.2019
2701 Rain 21 1011 96 0 0.47 59.937 22:37 31.08.2019
2702 Rain 21 1011 96 0 0.47 59.937 22:19 31.08.2019
2703 Rain 21 1011 96 0 0.47 59.937 21:54 31.08.2019
2704 Clear 22 1010 89 0 0.5 48.683 21:36 31.08.2019
2705 Clouds 24 1009 78 0 1.16 99.551 21:18 31.08.2019
2706 Clouds 24 1009 78 0 1.16 99.551 20:42 31.08.2019
2707 Clouds 24 1009 78 0 1.16 99.551 20:23 31.08.2019
2708 Clouds 24 1009 78 0 1.16 99.551 19:43 31.08.2019
2709 Clouds 24 1009 78 0 1.16 99.551 19:23 31.08.2019
2710 Clouds 24 1009 78 0 1.16 99.551 18:58 31.08.2019
2711 Clouds 24 1009 78 0 1.16 99.551 18:38 31.08.2019
2712 Clouds 30 1006 56 0 0.75 29.412 18:19 31.08.2019
2713 Clouds 30 1006 56 0 0.75 29.412 17:55 31.08.2019
2714 Clouds 30 1006 56 0 0.75 29.412 17:37 31.08.2019
2715 Clouds 30 1006 56 0 0.75 29.412 17:37 31.08.2019
2716 Clouds 30 1006 56 0 0.75 29.412 17:18 31.08.2019
2717 Clouds 30 1006 56 0 0.75 29.412 16:55 31.08.2019
2718 Clouds 30 1006 56 0 0.75 29.412 16:36 31.08.2019
2719 Clouds 30 1006 56 0 0.75 29.412 16:18 31.08.2019
2720 Clouds 30 1006 56 0 0.75 29.412 15:41 31.08.2019
2721 Clouds 31 1008 54 0 1.56 9.474 15:19 31.08.2019
2722 Clouds 31 1008 54 0 1.56 9.474 14:54 31.08.2019
2723 Clouds 31 1008 54 0 1.56 9.474 14:36 31.08.2019
2724 Clouds 31 1008 54 0 1.56 9.474 14:18 31.08.2019
2725 Clouds 31 1008 54 0 1.56 9.474 13:39 31.08.2019
2726 Clouds 33 1009 48 0 1.08 13.483 13:21 31.08.2019
2727 Clouds 33 1009 48 0 1.08 13.483 13:21 31.08.2019
2728 Clouds 33 1009 48 0 1.08 13.483 12:57 31.08.2019
2729 Clouds 33 1009 48 0 1.08 13.483 12:57 31.08.2019
2730 Clouds 33 1009 48 0 1.08 13.483 12:38 31.08.2019
2731 Clouds 27 1015 74 10000 3.1 330 12:19 31.08.2019
2732 Clouds 27 1015 74 10000 3.1 330 11:44 31.08.2019
2733 Clouds 28 1012 68 0 0.73 68.94 11:26 31.08.2019
2734 Clouds 28 1012 68 0 0.73 68.94 10:57 31.08.2019
2735 Clouds 28 1012 68 0 0.73 68.94 10:57 31.08.2019
2736 Clouds 28 1012 68 0 0.73 68.94 10:39 31.08.2019
2737 Clouds 24 1015 88 8000 3.1 210 10:18 31.08.2019
2738 Clouds 24 1015 88 8000 3.1 210 09:40 31.08.2019
2739 Clouds 24 1015 88 8000 3.1 210 09:22 31.08.2019
2740 Clouds 22 1013 96 0 1.34 101.562 08:59 31.08.2019
2741 Clouds 22 1013 96 0 1.34 101.562 08:40 31.08.2019
2742 Clouds 22 1013 96 0 1.34 101.562 08:22 31.08.2019
2743 Clouds 22 1013 96 0 1.34 101.562 07:40 31.08.2019
2744 Clouds 22 1013 96 0 1.34 101.562 07:19 31.08.2019
2745 Clouds 22 1013 96 0 1.34 101.562 06:28 31.08.2019
2746 Clouds 20 1011 98 0 0.73 151.477 05:55 31.08.2019
2747 Clouds 20 1011 98 0 0.73 151.477 05:29 31.08.2019
2748 Clouds 20 1011 98 0 0.73 151.477 04:30 31.08.2019
2749 Clouds 20 1011 98 0 0.73 151.477 03:44 31.08.2019
2750 Rain 21 1011 99 0 0.61 243.101 02:23 31.08.2019
2751 Rain 21 1011 99 0 0.61 243.101 01:50 31.08.2019
2752 Clouds 21 1011 99 0 0.62 258.799 01:31 31.08.2019
2753 Clouds 21 1011 99 0 0.62 258.799 00:48 31.08.2019
2754 Clouds 21 1011 99 0 0.62 258.799 00:27 31.08.2019
2755 Clouds 21 1012 97 0 0.13 296.162 23:51 30.08.2019
2756 Clouds 21 1012 97 0 0.13 296.162 23:20 30.08.2019
2757 Clouds 21 1012 97 0 0.13 296.162 22:59 30.08.2019
2758 Clouds 21 1012 97 0 0.13 296.162 22:39 30.08.2019
2759 Clouds 21 1012 97 0 0.13 296.162 22:21 30.08.2019
2760 Clouds 21 1012 97 0 0.13 296.162 21:57 30.08.2019
2761 Clouds 21 1012 98 0 0.32 344.152 21:37 30.08.2019
2762 Clouds 24 1024 88 7000 2.1 0 21:18 30.08.2019
2763 Clouds 24 1024 88 7000 2.1 0 20:58 30.08.2019
2764 Clouds 22 1011 96 0 0.78 315.052 20:38 30.08.2019
2765 Clouds 25 1022 83 8000 3.1 250 20:20 30.08.2019
2766 Clouds 25 1022 83 8000 3.1 250 19:56 30.08.2019
2767 Clouds 29 1012 66 8000 3.1 330 19:38 30.08.2019
2768 Clouds 29 1012 66 8000 3.1 330 19:19 30.08.2019
2769 Clouds 29 1012 66 8000 3.1 330 18:45 30.08.2019
2770 Clouds 29 1012 66 8000 3.1 330 18:24 30.08.2019
2771 Clouds 29 1011 58 10000 3.1 250 17:57 30.08.2019
2772 Clouds 29 1011 58 10000 3.1 250 17:39 30.08.2019
2773 Clouds 29 1011 58 10000 3.1 250 17:19 30.08.2019
2774 Clouds 29 1011 62 10000 2.1 250 16:56 30.08.2019
2775 Clouds 29 1011 62 10000 2.1 250 16:38 30.08.2019
2776 Clouds 29 1011 62 10000 2.1 250 16:38 30.08.2019
2777 Clouds 29 1011 62 10000 2.1 250 16:19 30.08.2019
2778 Clouds 27 1011 78 10000 1.38 349.107 15:39 30.08.2019
2779 Clouds 27 1011 78 10000 1.94 70.143 15:20 30.08.2019
2780 Clouds 26 1012 83 10000 3.1 50 14:45 30.08.2019
2781 Clouds 25 1014 83 8000 3.1 270 14:26 30.08.2019
2782 Clouds 25 1014 83 8000 3.1 270 14:26 30.08.2019
2783 Clouds 25 1014 83 8000 3.1 270 13:57 30.08.2019
2784 Clouds 25 1014 83 8000 3.1 270 13:39 30.08.2019
2785 Clouds 25 1014 83 8000 3.1 270 13:20 30.08.2019
2786 Clouds 23 1015 88 8000 3.1 270 12:45 30.08.2019
2787 Clouds 23 1015 88 8000 3.1 270 12:25 30.08.2019
2788 Clouds 22 1016 94 7000 3.1 90 11:57 30.08.2019
2789 Clouds 22 1016 94 7000 3.1 90 11:39 30.08.2019
2790 Clouds 22 1016 94 7000 3.1 90 11:39 30.08.2019
2791 Clouds 22 1016 94 7000 3.1 90 11:20 30.08.2019
2792 Clouds 23 1014 95 0 1.11 42.955 10:37 30.08.2019
2793 Clouds 23 1014 95 0 1.11 42.955 10:19 30.08.2019
2794 Clouds 23 1014 95 0 1.11 42.955 09:55 30.08.2019
2795 Clouds 23 1014 95 0 1.11 42.955 09:36 30.08.2019
2796 Thunderstorm 21 1016 100 3000 2.1 30 09:18 30.08.2019
2797 Thunderstorm 21 1016 100 3000 2.1 30 08:42 30.08.2019
2798 Thunderstorm 21 1016 100 3000 2.1 30 08:23 30.08.2019
2799 Rain 23 1014 93 0 0.75 53.882 07:46 30.08.2019
2800 Rain 23 1014 93 0 0.75 53.882 07:25 30.08.2019
2801 Rain 23 1014 93 0 0.75 53.882 06:49 30.08.2019
2802 Rain 23 1014 93 0 0.75 53.882 06:31 30.08.2019
2803 Clear 21 1011 97 0 0.83 248.739 05:59 30.08.2019
2804 Clear 21 1011 97 0 0.83 248.739 04:59 30.08.2019
2805 Clear 21 1011 97 0 0.83 248.739 03:56 30.08.2019
2806 Clear 21 1011 97 0 0.83 248.739 03:56 30.08.2019
2807 Clear 21 1011 97 0 0.83 248.739 03:34 30.08.2019
2808 Clouds 21 1010 95 0 0.86 248.384 02:35 30.08.2019
2809 Clouds 21 1010 95 0 0.86 248.384 01:40 30.08.2019
2810 Clouds 21 1011 96 0 0.68 237.87 00:46 30.08.2019
2811 Rain 21 1011 95 0 0.66 213.449 00:18 30.08.2019
2812 Rain 21 1011 95 0 0.66 213.449 23:46 29.08.2019
2813 Rain 21 1011 95 0 0.66 213.449 23:21 29.08.2019
2814 Rain 21 1011 95 0 0.66 213.449 23:21 29.08.2019
2815 Rain 21 1011 95 0 0.66 213.449 22:45 29.08.2019
2816 Rain 21 1011 95 0 0.66 213.449 22:27 29.08.2019
2817 Rain 22 1011 97 0 0.33 298.184 21:58 29.08.2019
2818 Rain 22 1011 97 0 0.33 298.184 21:40 29.08.2019
2819 Rain 23 1010 87 0 0.73 39.284 21:21 29.08.2019
2820 Rain 23 1010 87 0 0.73 39.284 20:58 29.08.2019
2821 Rain 23 1010 87 0 0.73 39.284 20:39 29.08.2019
2822 Clouds 28 1010 74 7000 1.5 0 20:18 29.08.2019
2823 Clouds 28 1010 74 7000 1.5 0 19:47 29.08.2019
2824 Clouds 28 1010 74 7000 1.5 0 19:26 29.08.2019
2825 Clouds 31 1009 58 7000 1.5 0 18:57 29.08.2019
2826 Clouds 31 1009 58 7000 1.5 0 18:39 29.08.2019
2827 Clouds 32 1009 55 7000 1.5 0 18:18 29.08.2019
2828 Clouds 32 1009 55 7000 1.5 0 17:54 29.08.2019
2829 Clouds 32 1009 55 7000 1.5 0 17:36 29.08.2019
2830 Clouds 32 1009 55 7000 1.5 0 17:18 29.08.2019
2831 Clouds 32 1009 55 7000 1.5 0 17:18 29.08.2019
2832 Clouds 32 1009 55 7000 1.5 0 16:41 29.08.2019
2833 Clouds 32 1009 55 7000 1.5 0 16:23 29.08.2019
2834 Clouds 30 1007 57 0 0.82 240.627 15:41 29.08.2019
2835 Clouds 32 1011 55 7000 3.1 360 15:22 29.08.2019
2836 Clouds 32 1011 55 7000 3.1 360 14:58 29.08.2019
2837 Clouds 32 1011 55 7000 3.1 360 14:40 29.08.2019
2838 Clouds 32 1011 55 7000 3.1 360 14:20 29.08.2019
2839 Clouds 36 1009 38 0 0.13 126.597 13:57 29.08.2019
2840 Clouds 36 1009 38 0 0.13 126.597 13:38 29.08.2019
2841 Clouds 36 1009 38 0 0.63 39.933 13:18 29.08.2019
2842 Clouds 36 1009 38 0 0.63 39.933 12:56 29.08.2019
2843 Clouds 36 1009 38 0 0.63 39.933 12:38 29.08.2019
2844 Clouds 31 1013 53 0 0.95 43.04 12:19 29.08.2019
2845 Clouds 31 1013 53 0 0.95 43.04 11:42 29.08.2019
2846 Clouds 31 1013 53 0 0.95 43.04 11:21 29.08.2019
2847 Clouds 31 1013 53 0 0.95 43.04 10:59 29.08.2019
2848 Clouds 31 1013 53 0 0.95 43.04 10:40 29.08.2019
2849 Clouds 31 1013 53 0 0.95 43.04 10:22 29.08.2019
2850 Clouds 32 1013 54 0 0.66 63.898 09:41 29.08.2019
2851 Rain 22 1015 94 0 0.69 180.835 09:19 29.08.2019
2852 Rain 22 1015 94 0 0.69 180.835 08:56 29.08.2019
2853 Rain 22 1015 94 0 0.69 180.835 08:31 29.08.2019
2854 Rain 22 1015 94 0 0.69 180.835 07:59 29.08.2019
2855 Rain 22 1015 94 0 0.69 180.835 07:41 29.08.2019
2856 Rain 22 1015 94 0 0.69 180.835 07:23 29.08.2019
2857 Rain 22 1015 94 0 0.69 180.835 06:41 29.08.2019
2858 Clouds 21 1011 92 0 0.96 45.844 05:54 29.08.2019
2859 Clouds 21 1011 92 0 0.96 45.844 05:33 29.08.2019
2860 Clouds 21 1011 92 0 0.96 45.844 04:49 29.08.2019
2861 Clouds 21 1011 92 0 0.96 45.844 04:28 29.08.2019
2862 Clouds 21 1012 92 0 0.57 17.576 02:27 29.08.2019
2863 Clouds 21 1012 92 0 0.57 17.576 01:41 29.08.2019
2864 Clear 21 1012 92 0 0.74 23.727 00:52 29.08.2019
2865 Clear 22 1013 90 0 1 29.082 00:25 29.08.2019
2866 Clear 22 1013 90 0 1 29.082 23:59 28.08.2019
2867 Clear 22 1013 90 0 1 29.082 23:41 28.08.2019
2868 Clear 22 1013 90 0 1 29.082 23:22 28.08.2019
2869 Clear 22 1013 90 0 1 29.082 22:57 28.08.2019
2870 Clear 22 1013 90 0 1 29.082 22:38 28.08.2019
2871 Clear 22 1013 90 0 1 29.082 22:18 28.08.2019
2872 Clear 22 1012 87 0 1.07 36.162 21:54 28.08.2019
2873 Clear 22 1012 87 0 1.07 36.162 21:36 28.08.2019
2874 Clouds 24 1011 75 0 1.1 11.351 21:18 28.08.2019
2875 Clouds 24 1011 75 0 1.1 11.351 20:40 28.08.2019
2876 Thunderstorm 25 1012 94 6000 1.5 0 20:22 28.08.2019
2877 Thunderstorm 25 1012 94 6000 1.5 0 19:55 28.08.2019
2878 Clouds 24 1011 75 0 1.1 11.351 19:37 28.08.2019
2879 Thunderstorm 26 1011 88 6000 2.1 90 19:18 28.08.2019
2880 Clouds 24 1011 75 0 1.1 11.351 18:41 28.08.2019
2881 Clouds 30 1008 54 0 1.02 359.153 18:21 28.08.2019
2882 Clouds 30 1008 54 0 1.02 359.153 17:39 28.08.2019
2883 Clouds 30 1008 54 0 1.02 359.153 17:20 28.08.2019
2884 Clouds 30 1008 54 0 1.02 359.153 16:58 28.08.2019
2885 Clouds 30 1008 54 0 1.02 359.153 16:40 28.08.2019
2886 Clouds 32 1012 55 8000 3.1 320 16:18 28.08.2019
2887 Clouds 30 1008 54 0 1.02 359.153 15:39 28.08.2019
2888 Clouds 30 1008 54 0 1.02 359.153 15:39 28.08.2019
2889 Rain 31 1010 58 0 1.13 323.252 15:20 28.08.2019
2890 Rain 31 1010 58 0 1.13 323.252 14:58 28.08.2019
2891 Rain 31 1010 58 0 1.13 323.252 14:40 28.08.2019
2892 Clouds 32 1014 55 10000 4.1 340 14:21 28.08.2019
2893 Clouds 32 1014 55 10000 4.1 340 13:59 28.08.2019
2894 Rain 31 1010 58 0 1.13 323.252 13:39 28.08.2019
2895 Clouds 31 1015 58 10000 4.1 320 13:20 28.08.2019
2896 Clouds 31 1015 58 10000 4.1 320 13:20 28.08.2019
2897 Clouds 31 1015 58 10000 4.1 320 12:56 28.08.2019
2898 Clouds 31 1015 58 10000 4.1 320 12:38 28.08.2019
2899 Clouds 31 1015 58 10000 4.1 320 12:20 28.08.2019
2900 Clouds 31 1016 62 10000 4.1 10 11:40 28.08.2019
2901 Clouds 31 1016 62 10000 4.1 10 11:21 28.08.2019
2902 Clouds 28 1017 69 8000 3.1 320 10:56 28.08.2019
2903 Rain 28 1013 74 0 1.07 22.769 10:38 28.08.2019
2904 Rain 28 1013 74 0 1.07 22.769 10:19 28.08.2019
2905 Rain 28 1013 74 0 1.07 22.769 09:42 28.08.2019
2906 Clouds 23 1015 90 0 1.06 10.271 09:21 28.08.2019
2907 Clouds 23 1015 90 0 1.06 10.271 08:57 28.08.2019
2908 Clouds 23 1015 90 0 1.06 10.271 08:38 28.08.2019
2909 Clouds 23 1015 90 0 1.06 10.271 08:19 28.08.2019
2910 Clouds 23 1015 90 0 1.06 10.271 07:38 28.08.2019
2911 Clouds 23 1015 90 0 1.06 10.271 07:20 28.08.2019
2912 Clouds 23 1015 90 0 1.06 10.271 06:49 28.08.2019
2913 Rain 20 1013 97 0 0.61 27.451 05:59 28.08.2019
2914 Rain 20 1013 97 0 0.61 27.451 04:49 28.08.2019
2915 Clouds 21 1013 94 0 0.76 69.206 01:58 28.08.2019
2916 Clear 21 1013 94 0 0.82 66.059 01:30 28.08.2019
2917 Clear 21 1013 94 0 0.82 66.059 00:50 28.08.2019
2918 Clear 21 1013 94 0 0.82 66.059 00:32 28.08.2019
2919 Clear 21 1014 91 0 1.08 84.189 23:45 27.08.2019
2920 Clear 21 1014 91 0 1.08 84.189 23:22 27.08.2019
2921 Clear 21 1014 91 0 1.08 84.189 22:59 27.08.2019
2922 Clear 21 1014 91 0 1.08 84.189 22:41 27.08.2019
2923 Rain 21 1014 96 0 0.97 105.121 22:22 27.08.2019
2924 Rain 21 1014 96 0 0.97 105.121 21:57 27.08.2019
2925 Rain 21 1014 96 0 0.97 105.121 21:38 27.08.2019
2926 Rain 22 1012 91 0 0.65 5.323 21:19 27.08.2019
2927 Rain 22 1012 91 0 0.65 5.323 20:57 27.08.2019
2928 Rain 22 1012 91 0 0.65 5.323 20:38 27.08.2019
2929 Rain 22 1012 91 0 0.65 5.323 20:19 27.08.2019
2930 Rain 22 1012 91 0 0.65 5.323 19:43 27.08.2019
2931 Rain 22 1012 91 0 0.65 5.323 19:25 27.08.2019
2932 Rain 22 1012 91 0 0.65 5.323 18:56 27.08.2019
2933 Clouds 29 1013 66 10000 3.1 210 18:37 27.08.2019
2934 Clouds 29 1013 66 10000 3.1 210 18:18 27.08.2019
2935 Clouds 29 1013 66 10000 3.1 210 17:43 27.08.2019
2936 Clouds 29 1013 66 10000 3.1 210 17:24 27.08.2019
2937 Clouds 31 1013 58 5000 3.1 180 16:57 27.08.2019
2938 Rain 27 1010 81 0 0.82 307.121 16:38 27.08.2019
2939 Rain 27 1010 81 0 0.82 307.121 16:19 27.08.2019
2940 Rain 27 1010 81 0 0.82 307.121 15:42 27.08.2019
2941 Clouds 28 1020 74 7000 3.1 300 15:23 27.08.2019
2942 Clouds 28 1020 74 7000 3.1 300 14:59 27.08.2019
2943 Clouds 28 1020 74 7000 3.1 300 14:59 27.08.2019
2944 Clouds 28 1020 74 7000 3.1 300 14:41 27.08.2019
2945 Clouds 28 1020 74 7000 3.1 300 14:41 27.08.2019
2946 Clouds 28 1020 74 7000 3.1 300 14:23 27.08.2019
2947 Clouds 28 1015 65 9000 3.1 270 13:43 27.08.2019
2948 Clouds 28 1015 65 9000 3.1 270 13:24 27.08.2019
2949 Clouds 29 1017 70 8000 3.1 250 12:56 27.08.2019
2950 Clouds 29 1017 70 8000 3.1 250 12:38 27.08.2019
2951 Clouds 29 1017 70 8000 3.1 250 12:19 27.08.2019
2952 Clouds 27 1017 74 8000 3.1 210 11:45 27.08.2019
2953 Clouds 27 1017 74 8000 3.1 210 11:26 27.08.2019
2954 Clouds 24 1018 88 8000 3.1 120 10:46 27.08.2019
2955 Clouds 24 1018 88 8000 3.1 120 10:26 27.08.2019
2956 Rain 28 1014 65 0 1.05 288.452 09:59 27.08.2019
2957 Rain 28 1014 65 0 1.05 288.452 09:59 27.08.2019
2958 Rain 28 1014 65 0 1.05 288.452 09:39 27.08.2019
2959 Clouds 22 1016 87 0 0.29 43.073 09:21 27.08.2019
2960 Clouds 22 1016 87 0 0.29 43.073 08:56 27.08.2019
2961 Clouds 22 1016 87 0 0.29 43.073 08:37 27.08.2019
2962 Clouds 22 1016 87 0 0.29 43.073 08:18 27.08.2019
2963 Clouds 22 1016 87 0 0.29 43.073 07:41 27.08.2019
2964 Clouds 22 1016 87 0 0.29 43.073 07:41 27.08.2019
2965 Clouds 22 1016 87 0 0.29 43.073 07:20 27.08.2019
2966 Clouds 22 1016 87 0 0.29 43.073 06:54 27.08.2019
2967 Clouds 22 1016 87 0 0.29 43.073 06:26 27.08.2019
2968 Clouds 19 1014 95 0 0.72 287.103 05:47 27.08.2019
2969 Clouds 19 1014 95 0 0.72 287.103 04:44 27.08.2019
2970 Clouds 19 1014 95 0 0.72 287.103 03:39 27.08.2019
2971 Clouds 20 1014 94 0 0.88 257.677 02:23 27.08.2019
2972 Clouds 20 1014 94 0 0.88 257.677 01:40 27.08.2019
2973 Clouds 20 1014 95 0 0.6 282.333 01:21 27.08.2019
2974 Clouds 20 1014 95 0 0.6 282.333 00:43 27.08.2019
2975 Clouds 20 1016 95 0 0.36 208.623 00:23 27.08.2019
2976 Clouds 20 1016 95 0 0.36 208.623 23:39 26.08.2019
2977 Clouds 20 1016 95 0 0.36 208.623 23:20 26.08.2019
2978 Clouds 20 1016 95 0 0.36 208.623 22:41 26.08.2019
2979 Clouds 20 1016 95 0 0.36 208.623 22:20 26.08.2019
2980 Clouds 22 1015 95 0 0.59 298.169 21:59 26.08.2019
2981 Clouds 22 1015 95 0 0.59 298.169 21:38 26.08.2019
2982 Rain 22 1013 96 0 0.69 322.749 21:20 26.08.2019
2983 Rain 22 1013 96 0 0.69 322.749 20:56 26.08.2019
2984 Rain 22 1013 96 0 0.69 322.749 20:38 26.08.2019
2985 Clouds 26 1015 78 8000 1.5 0 20:18 26.08.2019
2986 Clouds 26 1015 78 8000 1.5 0 19:43 26.08.2019
2987 Clouds 26 1015 78 8000 1.5 0 19:20 26.08.2019
2988 Clouds 26 1015 78 8000 2.1 310 18:58 26.08.2019
2989 Clouds 26 1015 78 8000 2.1 310 18:38 26.08.2019
2990 Clouds 26 1015 78 8000 2.1 310 18:19 26.08.2019
2991 Clouds 25 1014 83 9000 3.1 180 17:44 26.08.2019
2992 Clouds 25 1014 83 9000 3.1 180 17:20 26.08.2019
2993 Clouds 26 1014 78 9000 2.1 250 16:58 26.08.2019
2994 Clouds 26 1014 78 9000 2.1 250 16:39 26.08.2019
2995 Clouds 26 1014 78 9000 2.1 250 16:19 26.08.2019
2996 Clouds 26 1015 78 9000 2.1 250 15:56 26.08.2019
2997 Clouds 26 1015 78 9000 2.1 250 15:38 26.08.2019
2998 Clouds 26 1015 78 9000 2.1 250 15:20 26.08.2019
2999 Rain 26 1012 85 0 1.56 246.792 14:44 26.08.2019
3000 Rain 26 1012 85 0 1.56 246.792 14:23 26.08.2019
3001 Rain 26 1012 85 0 1.56 246.792 13:57 26.08.2019
3002 Rain 26 1012 85 0 1.56 246.792 13:38 26.08.2019
3003 Rain 26 1012 84 0 1.74 271.285 13:19 26.08.2019
3004 Rain 26 1012 84 0 1.74 271.285 12:43 26.08.2019
3005 Clouds 24 1018 88 8000 4.1 270 12:23 26.08.2019
3006 Clouds 24 1018 88 8000 4.1 270 11:46 26.08.2019
3007 Clouds 24 1018 88 8000 4.1 270 11:27 26.08.2019
3008 Clouds 26 1016 72 0 2.19 287.648 10:59 26.08.2019
3009 Clouds 26 1016 72 0 2.19 287.648 10:41 26.08.2019
3010 Rain 21 1018 100 4000 3.1 270 10:20 26.08.2019
3011 Rain 21 1018 100 4000 3.1 270 09:47 26.08.2019
3012 Rain 21 1018 100 4000 3.1 270 09:26 26.08.2019
3013 Rain 21 1018 100 4000 3.1 270 09:26 26.08.2019
3014 Rain 22 1016 94 0 1.53 282.33 08:59 26.08.2019
3015 Rain 22 1016 94 0 1.53 282.33 08:41 26.08.2019
3016 Rain 22 1016 94 0 1.53 282.33 08:22 26.08.2019
3017 Rain 22 1016 94 0 1.53 282.33 07:59 26.08.2019
3018 Rain 22 1016 94 0 1.53 282.33 07:38 26.08.2019
3019 Rain 22 1016 94 0 1.53 282.33 07:20 26.08.2019
3020 Rain 22 1016 94 0 1.53 282.33 06:40 26.08.2019
3021 Rain 20 1014 99 0 1.31 279.434 06:21 26.08.2019
3022 Rain 20 1014 99 0 1.31 279.434 05:48 26.08.2019
3023 Rain 20 1014 99 0 1.31 279.434 04:24 26.08.2019
3024 Clouds 21 1014 97 0 2.08 289.16 02:51 26.08.2019
3025 Clouds 21 1014 96 0 2.36 290.292 01:27 26.08.2019
3026 Clouds 21 1014 96 0 2.36 290.292 00:46 26.08.2019
3027 Clouds 21 1014 96 0 2.36 290.292 00:28 26.08.2019
3028 Clouds 21 1015 97 0 1.18 264.034 23:58 25.08.2019
3029 Clouds 21 1015 97 0 1.18 264.034 23:39 25.08.2019
3030 Clouds 21 1015 97 0 1.18 264.034 23:18 25.08.2019
3031 Clouds 21 1015 97 0 1.18 264.034 22:54 25.08.2019
3032 Clouds 21 1015 97 0 1.18 264.034 22:36 25.08.2019
3033 Clouds 21 1015 97 0 1.18 264.034 22:36 25.08.2019
3034 Clouds 21 1015 97 0 1.18 264.034 22:18 25.08.2019
3035 Clouds 21 1015 97 0 1.18 264.034 22:18 25.08.2019
3036 Clouds 21 1015 97 0 1.18 264.034 21:54 25.08.2019
3037 Clouds 21 1014 97 0 1.48 271.626 21:36 25.08.2019
3038 Rain 22 1013 93 0 0.95 275.326 21:18 25.08.2019
3039 Rain 22 1013 93 0 0.95 275.326 20:39 25.08.2019
3040 Rain 21 1014 100 6000 1.5 0 20:19 25.08.2019
3041 Rain 21 1014 100 6000 1.5 0 19:56 25.08.2019
3042 Rain 21 1014 100 6000 1.5 0 19:37 25.08.2019
3043 Clouds 22 1014 94 6000 1.5 0 19:18 25.08.2019
3044 Clouds 22 1014 94 6000 1.5 0 18:55 25.08.2019
3045 Rain 22 1013 93 0 0.95 275.326 18:37 25.08.2019
3046 Rain 23 1010 95 0 1.02 204.071 18:18 25.08.2019
3047 Rain 23 1010 95 0 1.02 204.071 17:41 25.08.2019
3048 Rain 23 1010 95 0 1.02 204.071 17:22 25.08.2019
3049 Rain 23 1010 95 0 1.02 204.071 16:45 25.08.2019
3050 Rain 21 1016 100 6000 4.1 240 16:24 25.08.2019
3051 Rain 21 1016 100 6000 4.1 240 15:59 25.08.2019
3052 Rain 23 1010 95 0 1.02 204.071 15:40 25.08.2019
3053 Rain 25 1012 89 0 1.37 270 15:21 25.08.2019
3054 Rain 25 1012 89 0 1.37 270 14:41 25.08.2019
3055 Rain 21 1017 100 2000 3.1 240 14:23 25.08.2019
3056 Rain 25 1012 89 0 1.37 270 13:47 25.08.2019
3057 Rain 22 1018 100 6000 5.1 240 13:22 25.08.2019
3058 Rain 22 1018 100 6000 5.1 240 12:59 25.08.2019
3059 Rain 22 1018 100 6000 5.1 240 12:40 25.08.2019
3060 Rain 22 1018 100 6000 5.1 240 12:22 25.08.2019
3061 Rain 24 1015 88 0 0.84 267.879 11:57 25.08.2019
3062 Rain 24 1015 88 0 0.84 267.879 11:37 25.08.2019
3063 Clouds 22 1018 100 6000 3.1 260 11:18 25.08.2019
3064 Clouds 22 1018 100 6000 3.1 260 10:55 25.08.2019
3065 Clouds 22 1018 100 6000 3.1 260 10:36 25.08.2019
3066 Clouds 21 1017 100 6000 3.1 260 10:18 25.08.2019
3067 Clouds 21 1017 100 6000 3.1 260 09:42 25.08.2019
3068 Clouds 21 1017 100 6000 3.1 260 09:23 25.08.2019
3069 Rain 22 1015 88 0 1.54 305.348 08:44 25.08.2019
3070 Rain 22 1015 88 0 1.54 305.348 08:25 25.08.2019
3071 Rain 22 1015 88 0 1.54 305.348 07:47 25.08.2019
3072 Rain 22 1015 88 0 1.54 305.348 07:27 25.08.2019
3073 Rain 22 1015 88 0 1.54 305.348 06:37 25.08.2019
3074 Clouds 21 1012 89 0 1.29 348.777 05:27 25.08.2019
3075 Clouds 21 1012 89 0 1.29 348.777 03:43 25.08.2019
3076 Clouds 22 1012 85 0 0.96 268.158 02:42 25.08.2019
3077 Clouds 22 1012 85 0 0.96 268.158 01:49 25.08.2019
3078 Clouds 23 1012 81 0 0.96 272.8 00:44 25.08.2019
3079 Clouds 22 1012 81 0 0.36 147.844 00:22 25.08.2019
3080 Clouds 22 1012 81 0 0.36 147.844 23:54 24.08.2019
3081 Clouds 22 1012 81 0 0.36 147.844 23:24 24.08.2019
3082 Clouds 22 1012 81 0 0.36 147.844 22:59 24.08.2019
3083 Clouds 22 1012 81 0 0.36 147.844 22:40 24.08.2019
3084 Clouds 22 1012 81 0 0.36 147.844 22:19 24.08.2019
3085 Clouds 22 1012 81 0 0.36 147.844 21:57 24.08.2019
3086 Clouds 22 1012 81 0 0.36 147.844 21:57 24.08.2019
3087 Clouds 22 1012 81 0 0.36 147.844 21:39 24.08.2019
3088 Clouds 25 1010 73 0 1.3 92.301 21:21 24.08.2019
3089 Clouds 25 1010 73 0 1.3 92.301 20:57 24.08.2019
3090 Clouds 25 1010 73 0 1.3 92.301 20:38 24.08.2019
3091 Clouds 28 1011 78 7000 1.5 0 20:18 24.08.2019
3092 Clouds 28 1011 78 7000 1.5 0 19:57 24.08.2019
3093 Clouds 28 1011 78 7000 1.5 0 19:38 24.08.2019
3094 Clouds 28 1011 78 7000 1.5 0 19:19 24.08.2019
3095 Clouds 31 1011 62 7000 1.5 0 18:45 24.08.2019
3096 Clouds 31 1011 62 7000 1.5 0 18:23 24.08.2019
3097 Clouds 31 1010 62 7000 1.5 0 17:46 24.08.2019
3098 Clouds 31 1010 62 7000 1.5 0 17:27 24.08.2019
3099 Clouds 32 1010 55 7000 3.1 360 16:56 24.08.2019
3100 Clouds 32 1010 55 7000 3.1 360 16:36 24.08.2019
3101 Clouds 32 1011 59 7000 3.1 330 16:18 24.08.2019
3102 Clouds 32 1011 59 7000 3.1 330 15:43 24.08.2019
3103 Clouds 32 1011 59 7000 3.1 330 15:25 24.08.2019
3104 Clouds 31 1012 62 8000 3.1 340 14:56 24.08.2019
3105 Clouds 31 1012 62 8000 3.1 340 14:37 24.08.2019
3106 Clouds 31 1013 58 8000 3.1 840 14:18 24.08.2019
3107 Rain 34 1010 42 0 0.78 144.342 13:42 24.08.2019
3108 Clouds 31 1014 62 8000 3.1 240 13:22 24.08.2019
3109 Clouds 31 1014 62 8000 3.1 240 12:58 24.08.2019
3110 Clouds 31 1014 62 8000 3.1 240 12:39 24.08.2019
3111 Clouds 31 1014 62 8000 3.1 240 12:21 24.08.2019
3112 Clouds 30 1015 66 8000 1.5 0 11:46 24.08.2019
3113 Clouds 30 1015 66 8000 1.5 0 11:24 24.08.2019
3114 Clouds 28 1016 74 7000 2.1 50 10:57 24.08.2019
3115 Clouds 28 1016 74 7000 2.1 50 10:38 24.08.2019
3116 Clouds 28 1016 74 7000 2.1 50 10:19 24.08.2019
3117 Rain 30 1014 59 0 1.64 59.234 09:40 24.08.2019
3118 Rain 22 1015 96 0 1.4 45.87 09:18 24.08.2019
3119 Rain 22 1015 96 0 1.4 45.87 08:41 24.08.2019
3120 Rain 22 1015 96 0 1.4 45.87 08:23 24.08.2019
3121 Rain 22 1015 96 0 1.4 45.87 07:50 24.08.2019
3122 Rain 22 1015 96 0 1.4 45.87 07:29 24.08.2019
3123 Rain 22 1015 96 0 1.4 45.87 06:31 24.08.2019
3124 Rain 21 1012 95 0 1.23 15.601 05:57 24.08.2019
3125 Rain 21 1012 95 0 1.23 15.601 05:35 24.08.2019
3126 Rain 21 1012 95 0 1.23 15.601 03:40 24.08.2019
3127 Clouds 22 1013 83 0 0.44 11.645 02:41 24.08.2019
3128 Clouds 22 1013 83 0 0.44 11.645 01:53 24.08.2019
3129 Clouds 22 1012 85 0 0.53 34.201 01:22 24.08.2019
3130 Clouds 22 1012 85 0 0.53 34.201 00:45 24.08.2019
3131 Clouds 23 1013 79 0 0.64 83.967 00:21 24.08.2019
3132 Clouds 23 1013 79 0 0.64 83.967 23:44 23.08.2019
3133 Clouds 23 1013 79 0 0.64 83.967 23:19 23.08.2019
3134 Clouds 23 1013 79 0 0.64 83.967 22:44 23.08.2019
3135 Clouds 23 1013 79 0 0.64 83.967 22:24 23.08.2019
3136 Clouds 23 1013 79 0 0.64 83.967 21:55 23.08.2019
3137 Clouds 23 1013 81 0 0.97 57.443 21:37 23.08.2019
3138 Clouds 24 1011 79 0 1.02 92.194 21:18 23.08.2019
3139 Clouds 24 1011 79 0 1.02 92.194 20:50 23.08.2019
3140 Clouds 24 1011 79 0 1.02 92.194 20:32 23.08.2019
3141 Clouds 24 1011 79 0 1.02 92.194 19:46 23.08.2019
3142 Clouds 27 1013 78 8000 2.1 120 19:19 23.08.2019
3143 Clouds 27 1013 78 8000 2.1 120 18:55 23.08.2019
3144 Clouds 27 1013 78 8000 2.1 120 18:37 23.08.2019
3145 Clouds 28 1012 78 10000 1.1 64.674 18:18 23.08.2019
3146 Clouds 28 1012 78 10000 1.1 64.674 17:41 23.08.2019
3147 Clouds 29 1012 74 10000 7.2 360 17:23 23.08.2019
3148 Clouds 29 1012 74 10000 7.2 360 16:49 23.08.2019
3149 Clouds 29 1012 74 10000 7.2 360 16:30 23.08.2019
3150 Clouds 30 1012 66 10000 3.1 30 15:59 23.08.2019
3151 Clouds 30 1012 66 10000 3.1 30 15:40 23.08.2019
3152 Clouds 30 1012 66 10000 3.1 30 15:21 23.08.2019
3153 Clouds 30 1014 66 10000 2.1 60 14:56 23.08.2019
3154 Clouds 30 1014 66 10000 2.1 60 14:38 23.08.2019
3155 Clouds 30 1014 66 10000 2.1 60 14:19 23.08.2019
3156 Clouds 30 1014 66 10000 3.1 360 13:42 23.08.2019
3157 Clouds 30 1014 66 10000 3.1 360 13:23 23.08.2019
3158 Clouds 30 1016 62 9000 2.1 300 12:59 23.08.2019
3159 Clouds 30 1016 62 9000 2.1 300 12:40 23.08.2019
3160 Clouds 30 1016 62 9000 2.1 300 12:21 23.08.2019
3161 Clouds 28 1017 74 8000 0.75 70.147 11:57 23.08.2019
3162 Clouds 28 1017 74 8000 0.75 70.147 11:39 23.08.2019
3163 Clouds 31 1014 52 0 0.75 70.147 11:19 23.08.2019
3164 Clouds 31 1014 52 0 0.75 70.147 10:55 23.08.2019
3165 Clouds 31 1014 52 0 0.75 70.147 10:37 23.08.2019
3166 Mist 24 1017 94 3000 3.1 90 10:18 23.08.2019
3167 Mist 24 1017 94 3000 3.1 90 09:43 23.08.2019
3168 Clouds 23 1015 86 0 0.92 17.011 09:20 23.08.2019
3169 Clouds 23 1015 86 0 0.92 17.011 08:45 23.08.2019
3170 Clouds 23 1015 86 0 0.92 17.011 08:21 23.08.2019
3171 Clouds 23 1015 86 0 0.92 17.011 07:57 23.08.2019
3172 Clouds 23 1015 86 0 0.92 17.011 07:38 23.08.2019
3173 Clouds 23 1015 86 0 0.92 17.011 07:20 23.08.2019
3174 Clouds 23 1015 86 0 0.92 17.011 06:41 23.08.2019
3175 Clouds 20 1012 94 0 1.03 4.003 06:22 23.08.2019
3176 Clouds 20 1012 94 0 1.03 4.003 05:44 23.08.2019
3177 Clouds 20 1012 94 0 1.03 4.003 05:24 23.08.2019
3178 Clouds 20 1012 94 0 1.03 4.003 03:42 23.08.2019
3179 Rain 21 1013 92 0 0.51 313.332 02:38 23.08.2019
3180 Rain 21 1013 92 0 0.51 313.332 02:20 23.08.2019
3181 Clouds 21 1013 89 0 0.59 322.975 00:57 23.08.2019
3182 Clouds 21 1013 89 0 0.59 322.975 00:37 23.08.2019
3183 Clouds 22 1014 83 0 0.54 38.759 00:18 23.08.2019
3184 Clouds 22 1014 83 0 0.54 38.759 23:40 22.08.2019
3185 Clouds 22 1014 83 0 0.54 38.759 23:21 22.08.2019
3186 Clouds 22 1014 83 0 0.54 38.759 22:42 22.08.2019
3187 Clouds 22 1014 83 0 0.54 38.759 22:23 22.08.2019
3188 Clouds 22 1014 83 0 0.54 38.759 21:58 22.08.2019
3189 Clouds 22 1014 83 0 0.54 38.759 21:58 22.08.2019
3190 Rain 22 1013 95 0 0.94 24.236 21:40 22.08.2019
3191 Rain 23 1011 90 0 0.09 81.203 21:21 22.08.2019
3192 Rain 23 1011 90 0 0.09 81.203 20:58 22.08.2019
3193 Rain 23 1011 90 0 0.09 81.203 20:39 22.08.2019
3194 Clouds 25 1013 83 8000 3.1 250 20:20 22.08.2019
3195 Clouds 25 1013 83 8000 3.1 250 19:56 22.08.2019
3196 Clouds 26 1013 78 8000 3.1 210 19:38 22.08.2019
3197 Clouds 26 1013 78 8000 3.1 210 19:38 22.08.2019
3198 Clouds 26 1013 78 8000 3.1 210 19:20 22.08.2019
3199 Clouds 26 1013 78 8000 3.1 210 18:57 22.08.2019
3200 Clouds 26 1013 78 8000 3.1 210 18:39 22.08.2019
3201 Clouds 29 1009 62 0 0.47 178.301 18:18 22.08.2019
3202 Clouds 29 1009 62 0 0.47 178.301 17:43 22.08.2019
3203 Clouds 29 1009 62 0 0.47 178.301 17:24 22.08.2019
3204 Clouds 29 1009 62 0 0.47 178.301 16:59 22.08.2019
3205 Clouds 29 1009 62 0 0.47 178.301 16:40 22.08.2019
3206 Clouds 29 1009 62 0 0.47 178.301 16:21 22.08.2019
3207 Clouds 29 1009 62 0 0.47 178.301 16:21 22.08.2019
3208 Clouds 29 1009 62 0 0.47 178.301 16:21 22.08.2019
3209 Clouds 29 1009 62 0 0.47 178.301 15:59 22.08.2019
3210 Clouds 29 1009 62 0 0.47 178.301 15:59 22.08.2019
3211 Clouds 29 1009 62 0 0.47 178.301 15:40 22.08.2019
3212 Clouds 27 1014 74 10000 3.1 30 15:21 22.08.2019
3213 Clouds 27 1014 74 10000 3.1 30 15:21 22.08.2019
3214 Clouds 27 1014 74 10000 3.1 30 14:57 22.08.2019
3215 Clouds 27 1014 74 10000 3.1 30 14:38 22.08.2019
3216 Clouds 26 1015 78 8000 3.1 30 14:18 22.08.2019
3217 Clouds 26 1015 78 8000 3.1 30 14:18 22.08.2019
3218 Clouds 26 1015 78 8000 3.1 30 13:55 22.08.2019
3219 Clouds 26 1015 78 8000 3.1 30 13:36 22.08.2019
3220 Rain 29 1010 64 0 1.02 248.126 13:18 22.08.2019
3221 Rain 29 1010 64 0 1.02 248.126 12:40 22.08.2019
3222 Clouds 25 1017 83 7000 1.81 336.884 12:21 22.08.2019
3223 Clouds 25 1017 83 7000 1.81 336.884 11:55 22.08.2019
3224 Clouds 25 1017 83 7000 1.81 336.884 11:36 22.08.2019
3225 Clouds 25 1017 83 7000 1.81 336.884 11:18 22.08.2019
3226 Clouds 25 1017 83 7000 1.81 336.884 11:18 22.08.2019
3227 Clouds 30 1014 55 0 1.81 336.884 10:57 22.08.2019
3228 Clouds 30 1014 55 0 1.81 336.884 10:36 22.08.2019
3229 Clouds 30 1014 55 0 1.81 336.884 10:18 22.08.2019
3230 Clouds 31 1013 51 0 1.19 9.502 09:40 22.08.2019
3231 Clouds 23 1014 90 0 1.22 11.273 09:21 22.08.2019
3232 Clouds 23 1014 90 0 1.22 11.273 08:58 22.08.2019
3233 Clouds 23 1014 90 0 1.22 11.273 08:39 22.08.2019
3234 Clouds 23 1014 90 0 1.22 11.273 08:20 22.08.2019
3235 Clouds 23 1014 90 0 1.22 11.273 07:42 22.08.2019
3236 Clouds 23 1014 90 0 1.22 11.273 07:23 22.08.2019
3237 Clouds 23 1014 90 0 1.22 11.273 06:55 22.08.2019
3238 Clouds 23 1014 90 0 1.22 11.273 06:37 22.08.2019
3239 Clear 20 1012 98 0 0.95 316.368 06:18 22.08.2019
3240 Clear 20 1012 98 0 0.95 316.368 04:42 22.08.2019
3241 Clouds 21 1013 96 0 0.85 298.219 02:56 22.08.2019
3242 Clouds 21 1013 96 0 0.85 298.219 02:34 22.08.2019
3243 Clouds 20 1012 97 0 0.75 295.81 01:26 22.08.2019
3244 Clouds 20 1012 97 0 0.75 295.81 00:48 22.08.2019
3245 Clouds 20 1012 97 0 0.75 295.81 00:30 22.08.2019
3246 Clouds 21 1015 95 0 1.02 273.668 23:58 21.08.2019
3247 Clouds 21 1015 95 0 1.02 273.668 23:39 21.08.2019
3248 Clouds 21 1015 95 0 1.02 273.668 23:19 21.08.2019
3249 Clouds 21 1015 95 0 1.02 273.668 22:56 21.08.2019
3250 Clouds 21 1015 95 0 1.02 273.668 22:38 21.08.2019
3251 Clouds 21 1015 95 0 1.02 273.668 22:19 21.08.2019
3252 -273 0 0 0 0 0 21:55 21.08.2019
3253 Rain 22 1014 93 0 1.01 284.504 21:37 21.08.2019
3254 Rain 22 1012 89 0 0.82 260.572 21:18 21.08.2019
3255 Rain 22 1012 89 0 0.82 260.572 20:43 21.08.2019
3256 Rain 22 1012 89 0 0.82 260.572 20:43 21.08.2019
3257 Thunderstorm 24 1013 94 4000 3.1 240 20:24 21.08.2019
3258 Thunderstorm 24 1013 94 4000 3.1 240 19:58 21.08.2019
3259 Thunderstorm 24 1013 94 4000 3.1 240 19:39 21.08.2019
3260 Thunderstorm 24 1013 94 4000 3.1 240 19:21 21.08.2019
3261 Rain 22 1012 89 0 0.82 260.572 18:56 21.08.2019
3262 Rain 22 1012 89 0 0.82 260.572 18:38 21.08.2019
3263 Clouds 29 1012 70 8000 3.1 260 18:19 21.08.2019
3264 Clouds 29 1012 70 8000 3.1 260 17:43 21.08.2019
3265 Clouds 29 1012 70 8000 3.1 260 17:21 21.08.2019
3266 Clouds 30 1012 62 8000 3.1 240 16:56 21.08.2019
3267 Clouds 30 1012 62 8000 3.1 240 16:37 21.08.2019
3268 Clouds 30 1013 66 8000 3.1 270 16:18 21.08.2019
3269 Clouds 30 1013 66 8000 3.1 270 15:56 21.08.2019
3270 Clouds 30 1013 66 8000 3.1 270 15:38 21.08.2019
3271 Rain 29 1011 58 0 2.26 297.892 15:18 21.08.2019
3272 Rain 29 1011 58 0 2.26 297.892 14:54 21.08.2019
3273 Rain 29 1011 58 0 2.26 297.892 14:36 21.08.2019
3274 Rain 29 1011 58 0 2.26 297.892 14:18 21.08.2019
3275 Rain 29 1011 58 0 2.26 297.892 13:42 21.08.2019
3276 Rain 30 1010 55 0 1.95 287.094 13:19 21.08.2019
3277 Rain 30 1010 55 0 1.95 287.094 12:57 21.08.2019
3278 Rain 30 1010 55 0 1.95 287.094 12:38 21.08.2019
3279 Clouds 26 1016 83 8000 2.1 100 12:19 21.08.2019
3280 Clouds 26 1016 83 8000 2.1 100 11:44 21.08.2019
3281 Clouds 26 1016 83 8000 2.1 100 11:24 21.08.2019
3282 Clouds 25 1017 88 7000 2.1 90 10:58 21.08.2019
3283 Clouds 25 1017 88 7000 2.1 90 10:39 21.08.2019
3284 Clouds 25 1017 88 7000 2.1 90 10:21 21.08.2019
3285 Rain 25 1015 89 0 1.66 343.509 09:58 21.08.2019
3286 Rain 25 1015 89 0 1.66 343.509 09:40 21.08.2019
3287 Mist 23 1016 94 4000 1.5 0 09:21 21.08.2019
3288 Mist 23 1016 94 4000 1.5 0 08:49 21.08.2019
3289 Mist 23 1016 94 4000 1.5 0 08:25 21.08.2019
3290 Clouds 23 1013 91 0 1.02 355.554 07:45 21.08.2019
3291 Clouds 23 1013 91 0 1.02 355.554 07:26 21.08.2019
3292 Clouds 23 1013 91 0 1.02 355.554 06:51 21.08.2019
3293 Clouds 23 1013 91 0 1.02 355.554 06:33 21.08.2019
3294 Clouds 22 1012 96 0 0.51 51.533 05:57 21.08.2019
3295 Clouds 22 1012 96 0 0.51 51.533 05:28 21.08.2019
3296 Clouds 22 1012 96 0 0.51 51.533 04:42 21.08.2019
3297 Rain 22 1012 97 0 0.91 342.1 02:40 21.08.2019
3298 Rain 21 1012 97 0 0.89 346.967 01:30 21.08.2019
3299 Rain 21 1012 97 0 0.89 346.967 00:41 21.08.2019
3300 Clouds 23 1013 93 0 0.91 4.336 00:20 21.08.2019
3301 Clouds 23 1013 93 0 0.91 4.336 23:45 20.08.2019
3302 Clouds 23 1013 93 0 0.91 4.336 23:20 20.08.2019
3303 Clouds 23 1013 93 0 0.91 4.336 22:59 20.08.2019
3304 Clouds 23 1013 93 0 0.91 4.336 22:40 20.08.2019
3305 Clouds 23 1013 93 0 0.91 4.336 22:40 20.08.2019
3306 Clouds 23 1013 93 0 0.91 4.336 22:21 20.08.2019
3307 Clouds 23 1013 93 0 0.91 4.336 21:58 20.08.2019
3308 Rain 22 1013 94 0 0.98 340.127 21:39 20.08.2019
3309 Rain 23 1011 85 0 0.38 338.199 21:19 20.08.2019
3310 Rain 23 1011 85 0 0.38 338.199 20:58 20.08.2019
3311 Rain 23 1011 85 0 0.38 338.199 20:58 20.08.2019
3312 Rain 23 1011 85 0 0.38 338.199 20:40 20.08.2019
3313 Rain 23 1011 85 0 0.38 338.199 20:21 20.08.2019
3314 Rain 23 1011 85 0 0.38 338.199 19:39 20.08.2019
3315 Clouds 25 1011 78 8000 2.1 40 19:21 20.08.2019
3316 Clouds 25 1011 78 8000 2.1 40 18:57 20.08.2019
3317 Clouds 25 1011 78 8000 2.1 40 18:39 20.08.2019
3318 Clouds 26 1011 83 8000 2.1 120 18:19 20.08.2019
3319 Clouds 26 1011 83 8000 2.1 120 17:56 20.08.2019
3320 Clouds 26 1011 83 8000 2.1 120 17:38 20.08.2019
3321 Clouds 26 1011 83 8000 2.1 120 17:19 20.08.2019
3322 Clouds 25 1012 88 8000 0.53 11.14 16:44 20.08.2019
3323 Clouds 25 1012 88 8000 0.53 11.14 16:25 20.08.2019
3324 Clouds 30 1009 54 0 0.53 11.14 15:55 20.08.2019
3325 Clouds 30 1009 54 0 0.53 11.14 15:37 20.08.2019
3326 Clouds 29 1011 57 0 0.7 37.066 15:18 20.08.2019
3327 Clouds 29 1011 57 0 0.7 37.066 14:42 20.08.2019
3328 Clouds 29 1011 57 0 0.7 37.066 14:21 20.08.2019
3329 Clouds 29 1011 57 0 0.7 37.066 13:57 20.08.2019
3330 Clouds 29 1011 57 0 0.7 37.066 13:38 20.08.2019
3331 Rain 31 1010 52 0 1.34 5.012 13:20 20.08.2019
3332 Rain 31 1010 52 0 1.34 5.012 12:51 20.08.2019
3333 Clouds 27 1015 78 8000 4.1 320 12:29 20.08.2019
3334 Clouds 27 1015 78 8000 4.1 320 11:58 20.08.2019
3335 Clouds 24 1015 85 0 1.46 61.198 11:38 20.08.2019
3336 Clouds 24 1015 85 0 1.46 61.198 11:19 20.08.2019
3337 Clouds 24 1015 85 0 1.46 61.198 11:19 20.08.2019
3338 Clouds 24 1015 85 0 1.46 61.198 11:19 20.08.2019
3339 Clouds 24 1015 85 0 1.46 61.198 10:57 20.08.2019
3340 Clouds 24 1015 85 0 1.46 61.198 10:38 20.08.2019
3341 Thunderstorm 26 1014 83 8000 4.1 340 10:20 20.08.2019
3342 Thunderstorm 26 1014 83 8000 4.1 340 09:43 20.08.2019
3343 Thunderstorm 26 1014 83 8000 4.1 340 09:25 20.08.2019
3344 Rain 22 1014 97 0 1.91 51.406 08:57 20.08.2019
3345 Rain 22 1014 97 0 1.91 51.406 08:39 20.08.2019
3346 Rain 22 1014 97 0 1.91 51.406 08:20 20.08.2019
3347 Rain 22 1014 97 0 1.91 51.406 07:56 20.08.2019
3348 Rain 22 1014 97 0 1.91 51.406 07:37 20.08.2019
3349 Rain 22 1014 97 0 1.91 51.406 07:18 20.08.2019
3350 Rain 22 1014 97 0 1.91 51.406 06:28 20.08.2019
3351 Rain 21 1012 97 0 2.41 44.208 05:51 20.08.2019
3352 Rain 21 1012 97 0 2.41 44.208 05:30 20.08.2019
3353 Rain 21 1012 97 0 2.41 44.208 04:18 20.08.2019
3354 Rain 22 1011 95 0 1.25 333.128 02:46 20.08.2019
3355 Rain 22 1011 95 0 1.25 333.128 01:43 20.08.2019
3356 Rain 22 1011 94 0 1.14 22.364 00:59 20.08.2019
3357 Rain 22 1011 94 0 1.14 22.364 00:41 20.08.2019
3358 Rain 23 1012 88 0 0.4 323.274 00:21 20.08.2019
3359 Rain 23 1012 88 0 0.4 323.274 23:40 19.08.2019
3360 Rain 23 1012 88 0 0.4 323.274 23:18 19.08.2019
3361 Rain 23 1012 88 0 0.4 323.274 22:56 19.08.2019
3362 Rain 23 1012 88 0 0.4 323.274 22:38 19.08.2019
3363 Rain 23 1012 88 0 0.4 323.274 22:18 19.08.2019
3364 Rain 23 1012 88 0 0.4 323.274 21:56 19.08.2019
3365 Clouds 24 1011 81 0 0.8 32.994 21:37 19.08.2019
3366 Clouds 24 1011 81 0 0.8 32.994 21:37 19.08.2019
3367 Clouds 26 1012 78 8000 0.23 34.869 21:18 19.08.2019
3368 Clouds 25 1008 79 0 0.23 34.869 20:40 19.08.2019
3369 Clouds 25 1008 79 0 0.23 34.869 20:40 19.08.2019
3370 Clouds 25 1008 79 0 0.23 34.869 20:40 19.08.2019
3371 Clouds 25 1008 79 0 0.23 34.869 20:20 19.08.2019
3372 Clouds 25 1008 79 0 0.23 34.869 19:59 19.08.2019
3373 Clouds 25 1008 79 0 0.23 34.869 19:40 19.08.2019
3374 Clouds 27 1010 74 9000 3.1 360 19:19 19.08.2019
3375 Clouds 27 1010 74 9000 3.1 360 18:47 19.08.2019
3376 Clouds 29 1010 66 10000 3.1 330 18:29 19.08.2019
3377 Clouds 29 1010 66 10000 3.1 330 17:59 19.08.2019
3378 Clouds 29 1010 66 10000 3.1 330 17:41 19.08.2019
3379 Clouds 29 1010 66 10000 3.1 330 17:22 19.08.2019
3380 Clouds 31 1006 55 0 1.47 41.215 16:58 19.08.2019
3381 Clouds 31 1006 55 0 1.47 41.215 16:37 19.08.2019
3382 Clouds 31 1006 55 0 1.47 41.215 16:19 19.08.2019
3383 Clouds 31 1006 55 0 1.47 41.215 15:56 19.08.2019
3384 Clouds 31 1006 55 0 1.47 41.215 15:37 19.08.2019
3385 Clouds 36 1007 38 0 0.73 6.244 15:18 19.08.2019
3386 Clouds 36 1007 38 0 0.73 6.244 14:43 19.08.2019
3387 Clouds 36 1007 38 0 0.73 6.244 14:23 19.08.2019
3388 Clouds 36 1007 38 0 0.73 6.244 13:57 19.08.2019
3389 Clouds 36 1007 38 0 0.73 6.244 13:38 19.08.2019
3390 Clouds 27 1014 78 8000 2.1 30 13:19 19.08.2019
3391 Clouds 27 1014 78 8000 2.1 30 12:56 19.08.2019
3392 Clouds 27 1014 78 8000 2.1 30 12:36 19.08.2019
3393 Clouds 31 1012 51 0 1.52 350.878 12:18 19.08.2019
3394 Clouds 31 1012 51 0 1.52 350.878 11:39 19.08.2019
3395 Clouds 31 1012 51 0 1.52 350.878 11:21 19.08.2019
3396 Clouds 31 1012 51 0 1.52 350.878 10:56 19.08.2019
3397 Clouds 31 1012 51 0 1.52 350.878 10:37 19.08.2019
3398 Clouds 31 1012 51 0 1.52 350.878 10:37 19.08.2019
3399 Clouds 31 1012 51 0 1.52 350.878 10:18 19.08.2019
3400 Clouds 31 1012 51 0 1.52 350.878 09:44 19.08.2019
3401 Clouds 23 1012 84 0 1.03 11.507 09:23 19.08.2019
3402 Clouds 23 1012 84 0 1.03 11.507 08:56 19.08.2019
3403 Clouds 23 1012 84 0 1.03 11.507 08:38 19.08.2019
3404 Clouds 23 1012 84 0 1.03 11.507 08:18 19.08.2019
3405 Clouds 23 1012 84 0 1.03 11.507 07:45 19.08.2019
3406 Clouds 23 1012 84 0 1.03 11.507 07:27 19.08.2019
3407 Clouds 23 1012 84 0 1.03 11.507 06:47 19.08.2019
3408 Rain 20 1010 90 0 1.14 26.791 06:25 19.08.2019
3409 Rain 20 1010 90 0 1.14 26.791 04:56 19.08.2019
3410 Rain 20 1010 90 0 1.14 26.791 04:25 19.08.2019
3411 Clouds 22 1010 77 0 0.09 122.845 03:21 19.08.2019
3412 Clouds 22 1010 77 0 0.09 122.845 02:19 19.08.2019
3413 Clouds 22 1010 75 0 0.22 52.706 01:21 19.08.2019
3414 Clouds 22 1010 75 0 0.22 52.706 00:43 19.08.2019
3415 Clouds 22 1010 75 0 0.22 52.706 00:43 19.08.2019
3416 Clouds 23 1011 68 0 0.22 197.784 00:23 19.08.2019
3417 Clouds 23 1011 68 0 0.22 197.784 23:42 18.08.2019
3418 Clouds 23 1011 68 0 0.22 197.784 23:21 18.08.2019
3419 Clouds 23 1011 68 0 0.22 197.784 22:42 18.08.2019
3420 Clouds 23 1011 68 0 0.22 197.784 22:22 18.08.2019
3421 Clouds 23 1011 68 0 0.22 197.784 21:59 18.08.2019
3422 Clouds 23 1011 68 0 0.22 197.784 21:41 18.08.2019
3423 Clouds 25 1008 66 0 1.03 220.965 21:22 18.08.2019
3424 Clouds 25 1008 66 0 1.03 220.965 20:59 18.08.2019
3425 Clouds 25 1008 66 0 1.03 220.965 20:41 18.08.2019
3426 Clouds 25 1008 66 0 1.03 220.965 20:23 18.08.2019
3427 Clouds 25 1008 66 0 1.03 220.965 19:54 18.08.2019
3428 Clouds 25 1008 66 0 1.03 220.965 19:36 18.08.2019
3429 Clouds 25 1008 66 0 1.03 220.965 19:18 18.08.2019
3430 Clouds 25 1008 66 0 1.03 220.965 18:41 18.08.2019
3431 Clouds 31 1006 46 0 2.08 214.119 18:23 18.08.2019
3432 Clouds 31 1006 46 0 2.08 214.119 17:56 18.08.2019
3433 Clouds 31 1006 46 0 2.08 214.119 17:38 18.08.2019
3434 Clouds 31 1006 46 0 2.08 214.119 17:19 18.08.2019
3435 Clouds 31 1006 46 0 2.08 214.119 16:56 18.08.2019
3436 Clouds 31 1006 46 0 2.08 214.119 16:38 18.08.2019
3437 Clouds 31 1006 46 0 2.08 214.119 16:19 18.08.2019
3438 Clouds 31 1006 46 0 2.08 214.119 15:55 18.08.2019
3439 Clouds 31 1006 46 0 2.08 214.119 15:36 18.08.2019
3440 Clouds 34 1008 40 0 0.43 181.61 15:18 18.08.2019
3441 Clouds 34 1008 40 0 0.43 181.61 14:40 18.08.2019
3442 Clouds 34 1008 40 0 0.43 181.61 14:40 18.08.2019
3443 Clouds 34 1008 40 0 0.43 181.61 14:20 18.08.2019
3444 Clouds 34 1008 40 0 0.43 181.61 13:59 18.08.2019
3445 Clouds 34 1008 40 0 0.43 181.61 13:40 18.08.2019
3446 Clouds 34 1008 40 0 0.43 181.61 13:21 18.08.2019
3447 Clouds 34 1008 40 0 0.43 181.61 12:55 18.08.2019
3448 Clouds 34 1008 40 0 0.43 181.61 12:37 18.08.2019
3449 Clouds 31 1013 51 0 1.18 351.87 12:18 18.08.2019
3450 Clouds 31 1013 51 0 1.18 351.87 11:42 18.08.2019
3451 Clouds 31 1013 51 0 1.18 351.87 11:23 18.08.2019
3452 Clouds 31 1013 51 0 1.18 351.87 10:56 18.08.2019
3453 Clouds 31 1013 51 0 1.18 351.87 10:38 18.08.2019
3454 Clouds 31 1013 51 0 1.18 351.87 10:18 18.08.2019
3455 Clouds 31 1013 51 0 1.18 351.87 09:42 18.08.2019
3456 Rain 22 1013 91 0 1.17 64.6 09:19 18.08.2019
3457 Rain 22 1013 91 0 1.17 64.6 08:43 18.08.2019
3458 Rain 22 1013 91 0 1.17 64.6 08:25 18.08.2019
3459 Rain 22 1013 91 0 1.17 64.6 07:53 18.08.2019
3460 Rain 22 1013 91 0 1.17 64.6 07:29 18.08.2019
3461 Rain 22 1013 91 0 1.17 64.6 06:32 18.08.2019
3462 Rain 20 1010 97 0 0.99 49.574 05:41 18.08.2019
3463 Rain 20 1010 97 0 0.99 49.574 03:51 18.08.2019
3464 Rain 21 1011 95 0 0.86 56.645 02:52 18.08.2019
3465 Rain 21 1011 95 0 0.86 56.645 02:32 18.08.2019
3466 Rain 21 1011 95 0 0.86 56.645 01:53 18.08.2019
3467 Clouds 22 1010 95 0 1.25 61.974 01:26 18.08.2019
3468 Clouds 22 1010 95 0 1.25 61.974 01:26 18.08.2019
3469 Clouds 22 1010 95 0 1.25 61.974 00:41 18.08.2019
3470 Rain 22 1012 94 0 0.61 110.917 00:19 18.08.2019
3471 Rain 22 1012 94 0 0.61 110.917 23:57 17.08.2019
3472 Rain 22 1012 94 0 0.61 110.917 23:37 17.08.2019
3473 Rain 22 1012 94 0 0.61 110.917 23:19 17.08.2019
3474 Rain 22 1012 94 0 0.61 110.917 22:57 17.08.2019
3475 Rain 22 1012 94 0 0.61 110.917 22:38 17.08.2019
3476 Rain 22 1012 94 0 0.61 110.917 22:20 17.08.2019
3477 Rain 22 1012 94 0 0.61 110.917 21:43 17.08.2019
3478 Rain 22 1012 94 0 0.61 110.917 21:43 17.08.2019
3479 Rain 23 1011 93 0 1.09 20.225 21:25 17.08.2019
3480 Rain 23 1011 93 0 1.09 20.225 20:59 17.08.2019
3481 Rain 23 1011 93 0 1.09 20.225 20:37 17.08.2019
3482 Rain 23 1011 93 0 1.09 20.225 20:19 17.08.2019
3483 Rain 23 1011 93 0 1.09 20.225 19:43 17.08.2019
3484 Rain 23 1011 93 0 1.09 20.225 19:24 17.08.2019
3485 Rain 23 1011 93 0 1.09 20.225 18:58 17.08.2019
3486 Rain 23 1011 93 0 1.09 20.225 18:38 17.08.2019
3487 Rain 26 1008 86 0 1.26 11.72 18:18 17.08.2019
3488 Rain 26 1008 86 0 1.26 11.72 17:43 17.08.2019
3489 Rain 26 1008 86 0 1.26 11.72 17:22 17.08.2019
3490 Rain 26 1008 86 0 1.26 11.72 16:57 17.08.2019
3491 Rain 26 1008 86 0 1.26 11.72 16:38 17.08.2019
3492 Rain 26 1008 86 0 1.26 11.72 16:20 17.08.2019
3493 Rain 26 1008 86 0 1.26 11.72 15:54 17.08.2019
3494 Rain 26 1008 86 0 1.26 11.72 15:54 17.08.2019
3495 Rain 26 1008 86 0 1.26 11.72 15:36 17.08.2019
3496 Rain 28 1009 71 0 3.13 357.729 15:18 17.08.2019
3497 Rain 28 1009 71 0 3.13 357.729 14:40 17.08.2019
3498 Rain 28 1009 71 0 3.13 357.729 14:21 17.08.2019
3499 Rain 28 1009 71 0 3.13 357.729 13:45 17.08.2019
3500 Rain 28 1009 64 0 2.97 2.78 13:21 17.08.2019
3501 Rain 28 1009 64 0 2.97 2.78 12:45 17.08.2019
3502 Clouds 32 1013 48 0 1.3 348.777 12:21 17.08.2019
3503 Clouds 32 1013 48 0 1.3 348.777 11:59 17.08.2019
3504 Clouds 32 1013 48 0 1.3 348.777 11:39 17.08.2019
3505 Clouds 32 1013 48 0 1.3 348.777 11:20 17.08.2019
3506 Clouds 32 1013 48 0 1.3 348.777 10:42 17.08.2019
3507 Clouds 32 1013 48 0 1.3 348.777 10:42 17.08.2019
3508 Clouds 32 1013 48 0 1.3 348.777 10:22 17.08.2019
3509 Clouds 32 1013 48 0 1.3 348.777 09:59 17.08.2019
3510 Clouds 32 1013 48 0 1.3 348.777 09:40 17.08.2019
3511 Clouds 24 1014 75 0 1.16 44.581 09:21 17.08.2019
3512 Clouds 24 1014 75 0 1.16 44.581 08:51 17.08.2019
3513 Clouds 24 1014 75 0 1.16 44.581 08:22 17.08.2019
3514 Clouds 24 1014 75 0 1.16 44.581 07:44 17.08.2019
3515 Clouds 24 1014 75 0 1.16 44.581 07:20 17.08.2019
3516 Clouds 24 1014 75 0 1.16 44.581 06:34 17.08.2019
3517 Clouds 21 1011 80 0 0.97 14.713 04:48 17.08.2019
3518 Clouds 21 1011 80 0 0.97 14.713 04:21 17.08.2019
3519 Clouds 23 1011 71 0 0.75 331.095 02:43 17.08.2019
3520 Clouds 23 1011 71 0 0.75 331.095 01:40 17.08.2019
3521 Clouds 23 1011 68 0 0.81 340.384 01:20 17.08.2019
3522 Clouds 23 1011 68 0 0.81 340.384 00:47 17.08.2019
3523 Clouds 24 1012 65 0 0.81 359.148 00:24 17.08.2019
3524 Clouds 24 1012 65 0 0.81 359.148 23:46 16.08.2019
3525 Clouds 24 1012 65 0 0.81 359.148 23:25 16.08.2019
3526 Clouds 24 1012 65 0 0.81 359.148 22:43 16.08.2019
3527 Clouds 24 1012 65 0 0.81 359.148 22:20 16.08.2019
3528 Clouds 24 1012 65 0 0.81 359.148 21:59 16.08.2019
3529 Clouds 24 1012 65 0 0.81 359.148 21:39 16.08.2019
3530 Clouds 26 1009 58 0 0.81 218.991 21:19 16.08.2019
3531 Clouds 26 1009 58 0 0.81 218.991 20:43 16.08.2019
3532 Clouds 26 1009 58 0 0.81 218.991 20:21 16.08.2019
3533 Clouds 26 1009 58 0 0.81 218.991 19:59 16.08.2019
3534 Clouds 26 1009 58 0 0.81 218.991 19:39 16.08.2019
3535 Clouds 26 1009 58 0 0.81 218.991 19:19 16.08.2019
3536 Clouds 26 1009 58 0 0.81 218.991 18:42 16.08.2019
3537 Clouds 31 1007 44 0 0.45 159.089 18:23 16.08.2019
3538 Clouds 31 1007 44 0 0.45 159.089 17:48 16.08.2019
3539 Clouds 31 1007 44 0 0.45 159.089 17:28 16.08.2019
3540 Clouds 31 1007 44 0 0.45 159.089 16:59 16.08.2019
3541 Clouds 31 1007 44 0 0.45 159.089 16:59 16.08.2019
3542 Clouds 31 1007 44 0 0.45 159.089 16:40 16.08.2019
3543 Clouds 31 1007 44 0 0.45 159.089 16:19 16.08.2019
3544 Clouds 31 1007 44 0 0.45 159.089 15:56 16.08.2019
3545 Clouds 31 1007 44 0 0.45 159.089 15:38 16.08.2019
3546 Clear 35 1009 33 0 1 231.367 15:19 16.08.2019
3547 Clear 35 1009 33 0 1 231.367 14:56 16.08.2019
3548 Clear 35 1009 33 0 1 231.367 14:37 16.08.2019
3549 Clear 35 1009 33 0 1 231.367 14:18 16.08.2019
3550 Clear 35 1009 33 0 1 231.367 13:40 16.08.2019
3551 Clouds 33 1009 39 0 0.44 123.295 13:21 16.08.2019
3552 Clouds 33 1009 39 0 0.44 123.295 12:41 16.08.2019
3553 Clear 31 1013 51 0 1.03 306.504 12:23 16.08.2019
3554 Clear 31 1013 51 0 1.03 306.504 11:58 16.08.2019
3555 Clear 31 1013 51 0 1.03 306.504 11:39 16.08.2019
3556 Clear 31 1013 51 0 1.03 306.504 11:21 16.08.2019
3557 Clear 31 1013 51 0 1.03 306.504 10:43 16.08.2019
3558 Clear 31 1013 51 0 1.03 306.504 10:21 16.08.2019
3559 Clear 31 1013 51 0 1.03 306.504 09:39 16.08.2019
3560 Clouds 24 1013 81 0 1.13 349.368 09:20 16.08.2019
3561 Clouds 24 1013 81 0 1.13 349.368 08:59 16.08.2019
3562 Clouds 24 1013 81 0 1.13 349.368 08:39 16.08.2019
3563 Clouds 24 1013 81 0 1.13 349.368 08:20 16.08.2019
3564 Clouds 24 1013 81 0 1.13 349.368 07:49 16.08.2019
3565 Clouds 24 1013 81 0 1.13 349.368 07:28 16.08.2019
3566 Clouds 24 1013 81 0 1.13 349.368 06:55 16.08.2019
3567 Clear 20 1012 94 0 0.53 342.009 06:19 16.08.2019
3568 Clear 20 1012 94 0 0.53 342.009 05:34 16.08.2019
3569 Clear 21 1012 87 0 1.07 335.64 03:21 16.08.2019
3570 Clear 21 1012 87 0 1.07 335.64 01:54 16.08.2019
3571 Clouds 21 1012 84 0 1.19 308.78 01:28 16.08.2019
3572 Clouds 21 1012 84 0 1.19 308.78 00:55 16.08.2019
3573 Clouds 21 1012 84 0 1.19 308.78 00:55 16.08.2019
3574 Clouds 21 1012 84 0 1.19 308.78 00:36 16.08.2019
3575 Clear 23 1013 70 0 0.77 254.94 00:18 16.08.2019
3576 Clear 23 1013 70 0 0.77 254.94 23:42 15.08.2019
3577 Clear 23 1013 70 0 0.77 254.94 23:19 15.08.2019
3578 Clear 23 1013 70 0 0.77 254.94 22:55 15.08.2019
3579 Clear 23 1013 70 0 0.77 254.94 22:36 15.08.2019
3580 Clear 23 1013 70 0 0.77 254.94 22:18 15.08.2019
3581 Clouds 23 1012 76 0 1.32 294.038 21:40 15.08.2019
3582 Clouds 25 1010 70 0 0.8 227.087 21:20 15.08.2019
3583 Clouds 25 1010 70 0 0.8 227.087 20:59 15.08.2019
3584 Clouds 25 1010 70 0 0.8 227.087 20:40 15.08.2019
3585 Clouds 25 1010 70 0 0.8 227.087 20:21 15.08.2019
3586 Clouds 25 1010 70 0 0.8 227.087 19:54 15.08.2019
3587 Clouds 25 1010 70 0 0.8 227.087 19:36 15.08.2019
3588 Clouds 25 1010 70 0 0.8 227.087 19:18 15.08.2019
3589 Clouds 25 1010 70 0 0.8 227.087 18:41 15.08.2019
3590 Clouds 31 1007 52 0 0.85 223.995 18:21 15.08.2019
3591 Clouds 31 1007 52 0 0.85 223.995 17:56 15.08.2019
3592 Clouds 31 1007 52 0 0.85 223.995 17:37 15.08.2019
3593 Clouds 31 1007 52 0 0.85 223.995 17:19 15.08.2019
3594 Clouds 31 1007 52 0 0.85 223.995 16:48 15.08.2019
3595 Clouds 31 1007 52 0 0.85 223.995 16:27 15.08.2019
3596 Clouds 31 1007 52 0 0.85 223.995 15:56 15.08.2019
3597 Clouds 31 1007 52 0 0.85 223.995 15:38 15.08.2019
3598 Clouds 33 1009 42 0 1.45 181.027 15:19 15.08.2019
3599 Clouds 33 1009 42 0 1.45 181.027 14:42 15.08.2019
3600 Clouds 33 1009 42 0 1.45 181.027 14:23 15.08.2019
3601 Clouds 33 1009 42 0 1.45 181.027 13:57 15.08.2019
3602 Clouds 33 1009 42 0 1.45 181.027 13:39 15.08.2019
3603 Clouds 33 1009 42 0 1.33 189.851 13:20 15.08.2019
3604 Clouds 33 1009 42 0 1.33 189.851 12:57 15.08.2019
3605 Clouds 33 1009 42 0 1.33 189.851 12:38 15.08.2019
3606 Clouds 33 1009 42 0 1.33 189.851 12:38 15.08.2019
3607 Clouds 27 1014 70 0 0.87 71.897 12:18 15.08.2019
3608 Clouds 27 1014 70 0 0.87 71.897 11:57 15.08.2019
3609 Clouds 27 1014 70 0 0.87 71.897 11:36 15.08.2019
3610 Clouds 27 1014 70 0 0.87 71.897 11:18 15.08.2019
3611 Clouds 27 1014 70 0 0.87 71.897 10:39 15.08.2019
3612 Clouds 27 1014 70 0 0.87 71.897 10:20 15.08.2019
3613 Clouds 27 1014 70 0 0.87 71.897 09:58 15.08.2019
3614 Clouds 27 1014 70 0 0.87 71.897 09:39 15.08.2019
3615 Rain 22 1013 94 0 0.8 15.356 09:21 15.08.2019
3616 Rain 22 1013 94 0 0.8 15.356 08:38 15.08.2019
3617 Rain 22 1013 94 0 0.8 15.356 08:19 15.08.2019
3618 Rain 22 1013 94 0 0.8 15.356 07:46 15.08.2019
3619 Rain 22 1013 94 0 0.8 15.356 07:28 15.08.2019
3620 Rain 22 1013 94 0 0.8 15.356 06:56 15.08.2019
3621 Rain 22 1013 94 0 0.8 15.356 06:34 15.08.2019
3622 Rain 21 1012 97 0 0.84 5.418 05:54 15.08.2019
3623 Rain 21 1012 97 0 0.84 5.418 05:29 15.08.2019
3624 Rain 21 1012 97 0 0.84 5.418 04:39 15.08.2019
3625 Rain 21 1012 97 0 0.84 5.418 03:48 15.08.2019
3626 Clouds 23 1011 88 0 1.11 0.052 02:47 15.08.2019
3627 Clouds 23 1011 88 0 1.11 0.052 01:58 15.08.2019
3628 Clouds 23 1011 88 0 1.11 0.052 01:38 15.08.2019
3629 Clouds 22 1011 91 0 1.18 35.949 00:42 15.08.2019
3630 Clouds 23 1013 89 0 1.22 19.09 00:22 15.08.2019
3631 Clouds 23 1013 89 0 1.22 19.09 23:59 14.08.2019
3632 Clouds 23 1013 89 0 1.22 19.09 23:40 14.08.2019
3633 Clouds 23 1013 89 0 1.22 19.09 23:20 14.08.2019
3634 Clouds 23 1013 89 0 1.22 19.09 22:57 14.08.2019
3635 Clouds 23 1013 89 0 1.22 19.09 22:57 14.08.2019
3636 Clouds 23 1013 89 0 1.22 19.09 22:39 14.08.2019
3637 Clouds 23 1013 89 0 1.22 19.09 22:21 14.08.2019
3638 Clouds 23 1013 89 0 1.22 19.09 21:57 14.08.2019
3639 Clouds 23 1013 89 0 1.22 19.09 21:37 14.08.2019
3640 Rain 21 1011 93 0 1.26 73.323 21:18 14.08.2019
3641 Rain 21 1011 93 0 1.26 73.323 20:42 14.08.2019
3642 Rain 21 1011 93 0 1.26 73.323 20:22 14.08.2019
3643 Rain 21 1011 93 0 1.26 73.323 19:57 14.08.2019
3644 Rain 21 1011 93 0 1.26 73.323 19:38 14.08.2019
3645 Rain 21 1011 93 0 1.26 73.323 19:20 14.08.2019
3646 Rain 21 1011 93 0 1.26 73.323 18:57 14.08.2019
3647 Rain 21 1011 93 0 1.26 73.323 18:38 14.08.2019
3648 Rain 25 1010 82 0 2.41 104.088 18:20 14.08.2019
3649 Rain 25 1010 82 0 2.41 104.088 17:56 14.08.2019
3650 Rain 25 1010 82 0 2.41 104.088 17:37 14.08.2019
3651 Rain 25 1010 82 0 2.41 104.088 17:19 14.08.2019
3652 Rain 25 1010 82 0 2.41 104.088 16:43 14.08.2019
3653 Rain 25 1010 82 0 2.41 104.088 16:21 14.08.2019
3654 Rain 25 1010 82 0 2.41 104.088 16:21 14.08.2019
3655 Rain 25 1010 82 0 2.41 104.088 15:59 14.08.2019
3656 Rain 25 1010 82 0 2.41 104.088 15:40 14.08.2019
3657 Rain 31 1010 56 0 1.93 36.075 15:18 14.08.2019
3658 Rain 31 1010 56 0 1.93 36.075 14:41 14.08.2019
3659 Rain 31 1010 56 0 1.93 36.075 14:19 14.08.2019
3660 Rain 31 1010 56 0 1.93 36.075 13:59 14.08.2019
3661 Rain 31 1010 56 0 1.93 36.075 13:41 14.08.2019
3662 Clouds 33 1010 44 0 0.37 346.304 13:22 14.08.2019
3663 Clouds 33 1010 44 0 0.37 346.304 13:22 14.08.2019
3664 Clouds 33 1010 44 0 0.37 346.304 13:22 14.08.2019
3665 Clouds 33 1010 44 0 0.37 346.304 12:56 14.08.2019
3666 Clouds 33 1010 44 0 0.37 346.304 12:38 14.08.2019
3667 Clear 32 1013 51 0 1.37 356.996 12:20 14.08.2019
3668 Clear 32 1013 51 0 1.37 356.996 11:47 14.08.2019
3669 Clear 32 1013 51 0 1.37 356.996 11:23 14.08.2019
3670 Clear 32 1013 51 0 1.37 356.996 10:59 14.08.2019
3671 Clear 32 1013 51 0 1.37 356.996 10:39 14.08.2019
3672 Clear 32 1013 51 0 1.37 356.996 10:39 14.08.2019
3673 Clear 32 1013 51 0 1.37 356.996 10:21 14.08.2019
3674 Clear 32 1013 51 0 1.37 356.996 09:45 14.08.2019
3675 Clouds 25 1013 81 0 0.97 31.045 09:21 14.08.2019
3676 Clouds 25 1013 81 0 0.97 31.045 08:49 14.08.2019
3677 Clouds 25 1013 81 0 0.97 31.045 08:30 14.08.2019
3678 Clouds 25 1013 81 0 0.97 31.045 07:57 14.08.2019
3679 Clouds 25 1013 81 0 0.97 31.045 07:39 14.08.2019
3680 Clouds 25 1013 81 0 0.97 31.045 07:20 14.08.2019
3681 Clouds 25 1013 81 0 0.97 31.045 06:43 14.08.2019
3682 Clouds 22 1011 92 0 0.97 290.494 05:47 14.08.2019
3683 Clouds 22 1011 92 0 0.97 290.494 04:45 14.08.2019
3684 Clouds 22 1012 90 0 0.64 280.822 02:47 14.08.2019
3685 Clouds 22 1012 90 0 0.64 280.822 02:25 14.08.2019
3686 Clouds 22 1012 91 0 0.72 307.25 01:30 14.08.2019
3687 Clouds 22 1012 91 0 0.72 307.25 00:47 14.08.2019
3688 Rain 23 1013 84 0 0.21 342.433 23:46 13.08.2019
3689 Rain 23 1013 84 0 0.21 342.433 23:20 13.08.2019
3690 Rain 23 1013 84 0 0.21 342.433 22:57 13.08.2019
3691 Rain 23 1013 84 0 0.21 342.433 22:38 13.08.2019
3692 Rain 23 1013 84 0 0.21 342.433 22:20 13.08.2019
3693 Rain 23 1013 84 0 0.21 342.433 21:56 13.08.2019
3694 Rain 23 1013 84 0 0.21 342.433 21:56 13.08.2019
3695 Rain 23 1013 84 0 0.21 342.433 21:36 13.08.2019
3696 Rain 25 1010 80 0 1.7 243.994 21:18 13.08.2019
3697 Rain 25 1010 80 0 1.7 243.994 20:44 13.08.2019
3698 Rain 25 1010 80 0 1.7 243.994 20:20 13.08.2019
3699 Rain 25 1010 80 0 1.7 243.994 19:58 13.08.2019
3700 Rain 25 1010 80 0 1.7 243.994 19:40 13.08.2019
3701 Rain 25 1010 80 0 1.7 243.994 19:21 13.08.2019
3702 Rain 25 1010 80 0 1.7 243.994 18:42 13.08.2019
3703 Clouds 29 1008 64 0 0.9 311.628 18:22 13.08.2019
3704 Clouds 29 1008 64 0 0.9 311.628 18:22 13.08.2019
3705 Clouds 29 1008 64 0 0.9 311.628 17:57 13.08.2019
3706 Clouds 29 1008 64 0 0.9 311.628 17:39 13.08.2019
3707 Clouds 29 1008 64 0 0.9 311.628 17:19 13.08.2019
3708 Clouds 29 1008 64 0 0.9 311.628 17:19 13.08.2019
3709 Clouds 29 1008 64 0 0.9 311.628 16:56 13.08.2019
3710 Clouds 29 1008 64 0 0.9 311.628 16:56 13.08.2019
3711 Clouds 29 1008 64 0 0.9 311.628 16:37 13.08.2019
3712 Clouds 29 1008 64 0 0.9 311.628 16:18 13.08.2019
3713 Clouds 29 1008 64 0 0.9 311.628 15:39 13.08.2019
3714 Clouds 34 1009 43 0 0.49 327.538 15:20 13.08.2019
3715 Clouds 34 1009 43 0 0.49 327.538 15:20 13.08.2019
3716 Clouds 34 1009 43 0 0.49 327.538 14:55 13.08.2019
3717 Clouds 34 1009 43 0 0.49 327.538 14:37 13.08.2019
3718 Clouds 34 1009 43 0 0.49 327.538 14:18 13.08.2019
3719 Clouds 34 1009 43 0 0.49 327.538 13:41 13.08.2019
3720 Clouds 31 1010 49 0 1.28 332.775 13:21 13.08.2019
3721 Clouds 31 1010 49 0 1.28 332.775 12:58 13.08.2019
3722 Clouds 31 1010 49 0 1.28 332.775 12:39 13.08.2019
3723 Clear 31 1013 53 0 1.23 22.638 12:21 13.08.2019
3724 Clear 31 1013 53 0 1.23 22.638 11:56 13.08.2019
3725 Clear 31 1013 53 0 1.23 22.638 11:37 13.08.2019
3726 Clear 31 1013 53 0 1.23 22.638 11:18 13.08.2019
3727 Clear 31 1013 53 0 1.23 22.638 10:55 13.08.2019
3728 Clear 31 1013 53 0 1.23 22.638 10:36 13.08.2019
3729 Clear 31 1013 53 0 1.23 22.638 10:18 13.08.2019
3730 Clear 31 1013 53 0 1.23 22.638 09:41 13.08.2019
3731 Clear 24 1014 79 0 0.84 38.596 09:22 13.08.2019
3732 Clear 24 1014 79 0 0.84 38.596 08:42 13.08.2019
3733 Clear 24 1014 79 0 0.84 38.596 08:22 13.08.2019
3734 Clear 24 1014 79 0 0.84 38.596 07:56 13.08.2019
3735 Clear 24 1014 79 0 0.84 38.596 07:32 13.08.2019
3736 Clear 24 1014 79 0 0.84 38.596 06:46 13.08.2019
3737 Clear 21 1012 93 0 0.4 20.758 06:23 13.08.2019
3738 Clear 21 1012 93 0 0.4 20.758 05:33 13.08.2019
3739 Clouds 22 1012 90 0 0.67 37.058 02:38 13.08.2019
3740 Clouds 22 1012 90 0 0.67 37.058 01:58 13.08.2019
3741 Clouds 22 1012 90 0 0.67 36.116 00:55 13.08.2019
3742 Clouds 22 1012 90 0 0.67 36.116 00:36 13.08.2019
3743 Clouds 23 1013 88 0 0.74 18.41 23:49 12.08.2019
3744 Clouds 23 1013 88 0 0.74 18.41 23:24 12.08.2019
3745 Clouds 23 1013 88 0 0.74 18.41 22:57 12.08.2019
3746 Clouds 23 1013 88 0 0.74 18.41 22:38 12.08.2019
3747 Clouds 23 1013 88 0 0.74 18.41 22:19 12.08.2019
3748 Clouds 23 1013 88 0 0.74 18.41 21:55 12.08.2019
3749 Clouds 23 1013 88 0 0.74 18.41 21:36 12.08.2019
3750 Rain 23 1010 90 0 1.26 61.987 21:18 12.08.2019
3751 Rain 23 1010 90 0 1.26 61.987 20:55 12.08.2019
3752 Rain 23 1010 90 0 1.26 61.987 20:36 12.08.2019
3753 Rain 23 1010 90 0 1.26 61.987 20:18 12.08.2019
3754 Rain 23 1010 90 0 1.26 61.987 19:54 12.08.2019
3755 Rain 23 1010 90 0 1.26 61.987 19:36 12.08.2019
3756 Rain 23 1010 90 0 1.26 61.987 19:18 12.08.2019
3757 Rain 23 1010 90 0 1.26 61.987 18:41 12.08.2019
3758 Clouds 28 1008 66 0 0.88 246.836 18:21 12.08.2019
3759 Clouds 28 1008 66 0 0.88 246.836 17:56 12.08.2019
3760 Clouds 28 1008 66 0 0.88 246.836 17:56 12.08.2019
3761 Clouds 28 1008 66 0 0.88 246.836 17:38 12.08.2019
3762 Clouds 28 1008 66 0 0.88 246.836 17:20 12.08.2019
3763 Clouds 28 1008 66 0 0.88 246.836 16:55 12.08.2019
3764 Clouds 28 1008 66 0 0.88 246.836 16:55 12.08.2019
3765 Clouds 28 1008 66 0 0.88 246.836 16:37 12.08.2019
3766 Clouds 28 1008 66 0 0.88 246.836 16:18 12.08.2019
3767 Clouds 28 1008 66 0 0.88 246.836 16:18 12.08.2019
3768 Clouds 28 1008 66 0 0.88 246.836 15:42 12.08.2019
3769 Clouds 28 1008 66 0 0.88 246.836 15:41 12.08.2019
3770 Clouds 34 1009 42 0 0.92 255.024 15:21 12.08.2019
3771 Clouds 34 1009 42 0 0.92 255.024 14:57 12.08.2019
3772 Clouds 34 1009 42 0 0.92 255.024 14:57 12.08.2019
3773 Clouds 34 1009 42 0 0.92 255.024 14:39 12.08.2019
3774 Clouds 34 1009 42 0 0.92 255.024 14:39 12.08.2019
3775 Clouds 34 1009 42 0 0.92 255.024 14:20 12.08.2019
3776 -273 0 0 0 0 0 14:20 12.08.2019
3777 Clouds 34 1009 42 0 0.92 255.024 14:20 12.08.2019
3778 Clouds 34 1009 42 0 0.92 255.024 13:47 12.08.2019
3779 Clouds 34 1009 42 0 0.92 255.024 13:47 12.08.2019
3780 Rain 32 1009 45 0 1.37 248.098 13:24 12.08.2019
3781 Rain 32 1009 45 0 1.37 248.098 12:59 12.08.2019
3782 Rain 32 1009 45 0 1.37 248.098 12:40 12.08.2019
3783 Rain 27 1013 81 0 1.09 310.298 12:18 12.08.2019
3784 Rain 27 1013 81 0 1.09 310.298 12:18 12.08.2019
3785 Rain 27 1013 81 0 1.09 310.298 11:42 12.08.2019
3786 Rain 27 1013 81 0 1.09 310.298 11:42 12.08.2019
3787 Rain 27 1013 81 0 1.09 310.298 11:23 12.08.2019
3788 Rain 27 1013 81 0 1.09 310.298 10:43 12.08.2019
3789 Rain 27 1013 81 0 1.09 310.298 10:23 12.08.2019
3790 Rain 27 1013 81 0 1.09 310.298 09:57 12.08.2019
3791 Rain 27 1013 81 0 1.09 310.298 09:38 12.08.2019
3792 Clouds 23 1014 94 0 0.9 337.268 09:20 12.08.2019
3793 Clouds 23 1014 94 0 0.9 337.268 08:58 12.08.2019
3794 Clouds 23 1014 94 0 0.9 337.268 08:39 12.08.2019
3795 Clouds 23 1014 94 0 0.9 337.268 08:20 12.08.2019
3796 Clouds 23 1014 94 0 0.9 337.268 08:20 12.08.2019
3797 Clouds 23 1014 94 0 0.9 337.268 07:52 12.08.2019
3798 Clouds 23 1014 94 0 0.9 337.268 07:28 12.08.2019
3799 Clouds 23 1014 94 0 0.9 337.268 06:52 12.08.2019
3800 Clouds 21 1012 98 0 0.42 277.703 05:40 12.08.2019
3801 Rain 21 1013 97 0 1.06 251.24 02:44 12.08.2019
3802 Rain 21 1013 97 0 1.06 251.24 01:55 12.08.2019
3803 Rain 21 1013 97 0 1.06 251.24 01:22 12.08.2019
3804 Rain 21 1013 97 0 1.06 251.24 00:58 12.08.2019
3805 Rain 21 1013 97 0 1.06 251.24 00:39 12.08.2019
3806 Rain 22 1014 94 0 0.57 185.511 00:20 12.08.2019
3807 Rain 22 1014 94 0 0.57 185.511 23:56 11.08.2019
3808 Rain 22 1014 94 0 0.57 185.511 23:37 11.08.2019
3809 Rain 22 1014 94 0 0.57 185.511 23:18 11.08.2019
3810 Rain 22 1014 94 0 0.57 185.511 22:40 11.08.2019
3811 Rain 22 1014 94 0 0.57 185.511 22:20 11.08.2019
3812 Rain 22 1014 94 0 0.57 185.511 22:20 11.08.2019
3813 Rain 22 1014 94 0 0.57 185.511 21:59 11.08.2019
3814 Rain 22 1014 94 0 0.57 185.511 21:41 11.08.2019
3815 Clouds 24 1011 74 0 0.43 141.611 21:22 11.08.2019
3816 Clouds 24 1011 74 0 0.43 141.611 20:57 11.08.2019
3817 Clouds 24 1011 74 0 0.43 141.611 20:39 11.08.2019
3818 Clouds 24 1011 74 0 0.43 141.611 20:20 11.08.2019
3819 Clouds 24 1011 74 0 0.43 141.611 19:44 11.08.2019
3820 Clouds 24 1011 74 0 0.43 141.611 19:20 11.08.2019
3821 Clouds 24 1011 74 0 0.43 141.611 18:42 11.08.2019
3822 Clouds 30 1009 57 0 1.14 248.413 18:23 11.08.2019
3823 Clouds 30 1009 57 0 1.14 248.413 17:59 11.08.2019
3824 Clouds 30 1009 57 0 1.14 248.413 17:41 11.08.2019
3825 Clouds 30 1009 57 0 1.14 248.413 17:20 11.08.2019
3826 Clouds 30 1009 57 0 1.14 248.413 16:57 11.08.2019
3827 Clouds 30 1009 57 0 1.14 248.413 16:38 11.08.2019
3828 Clouds 30 1009 57 0 1.14 248.413 16:20 11.08.2019
3829 Clouds 30 1009 57 0 1.14 248.413 15:44 11.08.2019
3830 Clouds 31 1009 49 0 1.71 188.779 15:25 11.08.2019
3831 Clouds 31 1009 49 0 1.71 188.779 14:59 11.08.2019
3832 Clouds 31 1009 49 0 1.71 188.779 14:39 11.08.2019
3833 Clouds 31 1009 49 0 1.71 188.779 14:20 11.08.2019
3834 Clouds 31 1009 49 0 1.71 188.779 13:45 11.08.2019
3835 Clouds 31 1010 51 0 1.4 184.73 13:26 11.08.2019
3836 Clouds 31 1010 51 0 1.4 184.73 12:57 11.08.2019
3837 Clouds 31 1010 51 0 1.4 184.73 12:37 11.08.2019
3838 Clouds 30 1015 53 0 1.25 277.655 12:19 11.08.2019
3839 Clouds 30 1015 53 0 1.25 277.655 11:40 11.08.2019
3840 Clouds 30 1015 53 0 1.25 277.655 11:22 11.08.2019
3841 Clouds 30 1015 53 0 1.25 277.655 10:56 11.08.2019
3842 Clouds 30 1015 53 0 1.25 277.655 10:56 11.08.2019
3843 Clouds 30 1015 53 0 1.25 277.655 10:37 11.08.2019
3844 Clouds 30 1015 53 0 1.25 277.655 10:19 11.08.2019
3845 Clouds 30 1015 53 0 1.25 277.655 09:43 11.08.2019
3846 Clouds 21 1015 91 0 0.96 150.056 09:24 11.08.2019
3847 Clouds 21 1016 92 0 0.67 139.93 08:56 11.08.2019
3848 Clouds 21 1016 92 0 0.67 139.93 08:36 11.08.2019
3849 Clouds 21 1016 92 0 0.67 139.93 08:18 11.08.2019
3850 Clouds 21 1016 92 0 0.67 139.93 07:32 11.08.2019
3851 Clouds 21 1016 92 0 0.67 139.93 06:52 11.08.2019
3852 Clouds 21 1016 92 0 0.67 139.93 06:31 11.08.2019
3853 Rain 19 1014 98 0 0.84 162.626 04:46 11.08.2019
3854 Rain 20 1014 97 0 0.75 69.56 02:53 11.08.2019
3855 Rain 20 1014 97 0 0.75 69.56 01:58 11.08.2019
3856 Rain 20 1014 97 0 0.75 69.56 01:32 11.08.2019
3857 Clouds 20 1014 96 0 0.74 101.885 00:56 11.08.2019
3858 Clouds 20 1014 96 0 0.74 101.885 00:56 11.08.2019
3859 Clouds 20 1014 96 0 0.74 101.885 00:36 11.08.2019
3860 Clouds 20 1015 96 0 0.8 117.968 23:55 10.08.2019
3861 Clouds 20 1015 96 0 0.8 117.968 23:34 10.08.2019
3862 Clouds 20 1015 96 0 0.8 117.968 22:57 10.08.2019
3863 Clouds 20 1015 96 0 0.8 117.968 22:38 10.08.2019
3864 Clouds 20 1015 96 0 0.8 117.968 22:19 10.08.2019
3865 Clouds 20 1015 96 0 0.8 117.968 21:41 10.08.2019
3866 Clouds 21 1014 97 0 1.02 111.414 21:21 10.08.2019
3867 Clouds 21 1013 97 0 1.12 93.831 20:59 10.08.2019
3868 Clouds 21 1013 97 0 1.12 93.831 20:59 10.08.2019
3869 Clouds 21 1013 97 0 1.12 93.831 20:40 10.08.2019
3870 Clouds 21 1013 97 0 1.12 93.831 20:20 10.08.2019
3871 Clouds 21 1013 97 0 1.12 93.831 19:54 10.08.2019
3872 Clouds 21 1013 97 0 1.12 93.831 19:36 10.08.2019
3873 Clouds 21 1013 97 0 1.12 93.831 19:18 10.08.2019
3874 Clouds 21 1013 97 0 1.12 93.831 18:38 10.08.2019
3875 Clouds 25 1013 80 0 1.07 280.348 18:20 10.08.2019
3876 Clouds 25 1013 80 0 1.07 280.348 17:40 10.08.2019
3877 Clouds 25 1013 80 0 1.07 280.348 17:21 10.08.2019
3878 Clouds 25 1013 80 0 1.07 280.348 16:43 10.08.2019
3879 Clouds 25 1013 80 0 1.07 280.348 16:25 10.08.2019
3880 Clouds 25 1013 80 0 1.07 280.348 15:51 10.08.2019
3881 Rain 24 1014 88 0 1.6 65.363 15:22 10.08.2019
3882 Rain 24 1014 88 0 1.6 65.363 14:44 10.08.2019
3883 Rain 24 1014 88 0 1.6 65.363 14:21 10.08.2019
3884 Rain 24 1014 88 0 1.6 65.363 14:21 10.08.2019
3885 Rain 24 1014 88 0 1.6 65.363 13:42 10.08.2019
3886 Rain 24 1013 86 0 1.75 12.412 13:21 10.08.2019
3887 Rain 24 1013 86 0 1.75 12.412 12:57 10.08.2019
3888 Rain 24 1013 86 0 1.75 12.412 12:39 10.08.2019
3889 Rain 22 1017 97 0 1.73 17.285 12:21 10.08.2019
3890 Rain 22 1017 97 0 1.73 17.285 11:42 10.08.2019
3891 Rain 22 1017 97 0 1.73 17.285 11:23 10.08.2019
3892 Rain 22 1017 97 0 1.73 17.285 11:23 10.08.2019
3893 Rain 22 1017 97 0 1.73 17.285 10:58 10.08.2019
3894 Rain 22 1017 97 0 1.73 17.285 10:37 10.08.2019
3895 Rain 22 1017 97 0 1.73 17.285 10:19 10.08.2019
3896 Rain 22 1017 97 0 1.73 17.285 09:43 10.08.2019
3897 Rain 22 1017 97 0 1.73 17.285 09:43 10.08.2019
3898 Rain 21 1016 99 0 1.6 94.52 09:24 10.08.2019
3899 Rain 21 1016 99 0 1.33 86.672 08:56 10.08.2019
3900 Rain 21 1016 99 0 1.33 86.672 08:37 10.08.2019
3901 Rain 21 1016 99 0 1.33 86.672 08:18 10.08.2019
3902 Rain 21 1016 99 0 1.33 86.672 07:46 10.08.2019
3903 Rain 21 1016 99 0 1.33 86.672 07:22 10.08.2019
3904 Rain 21 1016 99 0 1.33 86.672 06:46 10.08.2019
3905 Rain 22 1014 94 0 0.63 270.274 05:46 10.08.2019
3906 Rain 22 1014 94 0 0.63 270.274 05:20 10.08.2019
3907 Rain 22 1014 94 0 0.63 270.274 03:54 10.08.2019
3908 Clouds 22 1014 89 0 0.54 282.368 02:48 10.08.2019
3909 Clouds 22 1014 89 0 0.54 282.368 01:56 10.08.2019
3910 Clouds 22 1014 89 0 0.54 282.368 01:36 10.08.2019
3911 Rain 22 1013 92 0 0.26 289.342 01:18 10.08.2019
3912 Rain 22 1013 92 0 0.26 289.342 00:41 10.08.2019
3913 Clouds 23 1015 82 0 0.48 46.281 00:19 10.08.2019
3914 Clouds 23 1015 82 0 0.48 46.281 23:39 09.08.2019
3915 Clouds 23 1015 82 0 0.48 46.281 23:21 09.08.2019
3916 Clouds 23 1015 82 0 0.48 46.281 22:55 09.08.2019
3917 Clouds 23 1015 82 0 0.48 46.281 22:37 09.08.2019
3918 Clouds 23 1015 82 0 0.48 46.281 22:18 09.08.2019
3919 Clouds 23 1015 82 0 0.48 46.281 21:41 09.08.2019
3920 Clouds 26 1012 69 0 0.61 49.571 21:22 09.08.2019
3921 Clouds 26 1012 69 0 0.61 49.571 20:58 09.08.2019
3922 Rain 23 1012 86 0 0.54 84.605 20:39 09.08.2019
3923 Rain 23 1012 86 0 0.54 84.605 20:20 09.08.2019
3924 Rain 23 1012 86 0 0.54 84.605 19:43 09.08.2019
3925 Rain 23 1012 86 0 0.54 84.605 19:23 09.08.2019
3926 Rain 23 1012 86 0 0.54 84.605 18:59 09.08.2019
3927 Rain 23 1012 86 0 0.54 84.605 18:38 09.08.2019
3928 Clear 30 1010 52 0 0.73 355.703 18:19 09.08.2019
3929 Clear 30 1010 52 0 0.73 355.703 17:45 09.08.2019
3930 Clear 30 1010 52 0 0.73 355.703 17:25 09.08.2019
3931 -273 0 0 0 0 0 16:56 09.08.2019
3932 Clear 30 1010 52 0 0.73 355.703 16:37 09.08.2019
3933 Clear 30 1010 52 0 0.73 355.703 16:18 09.08.2019
3934 -273 0 0 0 0 0 15:42 09.08.2019
3935 Clouds 27 1012 63 0 1.36 269.409 15:21 09.08.2019
3936 Clouds 27 1012 63 0 1.36 269.409 14:58 09.08.2019
3937 Clouds 27 1012 63 0 1.36 269.409 14:40 09.08.2019
3938 -273 0 0 0 0 0 14:21 09.08.2019
3939 Clouds 27 1012 63 0 1.36 269.409 13:46 09.08.2019
3940 Rain 24 1013 91 0 1.17 103.35 13:23 09.08.2019
3941 Rain 24 1013 91 0 1.17 103.35 12:58 09.08.2019
3942 Rain 24 1013 91 0 1.17 103.35 12:40 09.08.2019
3943 Rain 24 1016 87 0 0.81 268.294 12:21 09.08.2019
3944 Rain 24 1016 87 0 0.81 268.294 11:41 09.08.2019
3945 Rain 24 1016 87 0 0.81 268.294 11:21 09.08.2019
3946 Rain 24 1016 87 0 0.81 268.294 10:57 09.08.2019
3947 Rain 24 1016 87 0 0.81 268.294 10:38 09.08.2019
3948 Rain 24 1016 87 0 0.81 268.294 10:20 09.08.2019
3949 -273 0 0 0 0 0 09:41 09.08.2019
3950 Rain 23 1016 89 0 0.42 330.879 09:19 09.08.2019
3951 Rain 21 1016 96 0 0.47 326.956 08:45 09.08.2019
3952 Rain 21 1016 96 0 0.47 326.956 08:25 09.08.2019
3953 Rain 21 1016 96 0 0.47 326.956 07:58 09.08.2019
3954 Rain 21 1016 96 0 0.47 326.956 07:40 09.08.2019
3955 Rain 21 1016 96 0 0.47 326.956 07:40 09.08.2019
3956 Rain 21 1016 96 0 0.47 326.956 07:20 09.08.2019
3957 Rain 21 1016 96 0 0.47 326.956 06:44 09.08.2019
3958 Rain 21 1014 98 0 0.9 285.144 06:21 09.08.2019
3959 Rain 21 1014 98 0 0.9 285.144 05:37 09.08.2019
3960 Clouds 22 1014 90 0 0.92 304.746 02:29 09.08.2019
3961 Rain 21 1014 97 0 0.86 310.833 01:26 09.08.2019
3962 Rain 21 1014 97 0 0.86 310.833 00:42 09.08.2019
3963 Rain 22 1015 93 0 0.59 321.355 00:23 09.08.2019
3964 Rain 22 1015 93 0 0.59 321.355 23:57 08.08.2019
3965 Rain 22 1015 93 0 0.59 321.355 23:57 08.08.2019
3966 Rain 22 1015 93 0 0.59 321.355 23:37 08.08.2019
3967 Rain 22 1015 93 0 0.59 321.355 23:19 08.08.2019
3968 Rain 22 1015 93 0 0.59 321.355 22:55 08.08.2019
3969 Rain 22 1015 93 0 0.59 321.355 22:36 08.08.2019
3970 Rain 22 1015 93 0 0.59 321.355 22:18 08.08.2019
3971 Rain 22 1015 93 0 0.59 321.355 21:42 08.08.2019
3972 Rain 22 1015 93 0 0.59 321.355 21:42 08.08.2019
3973 Clouds 23 1012 82 0 0.85 314.857 21:23 08.08.2019
3974 Clouds 23 1011 82 0 0.75 310.079 20:58 08.08.2019
3975 Clouds 23 1011 82 0 0.75 310.079 20:40 08.08.2019
3976 Clouds 23 1011 82 0 0.75 310.079 20:19 08.08.2019
3977 Clouds 23 1011 82 0 0.75 310.079 19:49 08.08.2019
3978 Clouds 23 1011 82 0 0.75 310.079 19:29 08.08.2019
3979 Clouds 23 1011 82 0 0.75 310.079 18:59 08.08.2019
3980 Clouds 23 1011 82 0 0.75 310.079 18:40 08.08.2019
3981 Clouds 29 1009 58 0 1.79 293.784 18:19 08.08.2019
3982 Clouds 29 1009 58 0 1.79 293.784 17:42 08.08.2019
3983 Clouds 29 1009 58 0 1.79 293.784 17:24 08.08.2019
3984 Clouds 29 1009 58 0 1.79 293.784 16:58 08.08.2019
3985 Clouds 29 1009 58 0 1.79 293.784 16:40 08.08.2019
3986 Clouds 29 1009 58 0 1.79 293.784 16:22 08.08.2019
3987 Clouds 29 1009 58 0 1.79 293.784 15:57 08.08.2019
3988 Clouds 29 1009 58 0 1.79 293.784 15:38 08.08.2019
3989 Clouds 30 1011 54 0 2 322.506 15:20 08.08.2019
3990 Clouds 30 1011 54 0 2 322.506 14:38 08.08.2019
3991 Clouds 30 1011 54 0 2 322.506 14:19 08.08.2019
3992 Clouds 30 1011 54 0 2 322.506 13:43 08.08.2019
3993 Rain 25 1013 82 0 2.05 312.923 13:24 08.08.2019
3994 Rain 25 1013 82 0 2.05 312.923 12:58 08.08.2019
3995 Rain 25 1013 82 0 2.05 312.923 12:58 08.08.2019
3996 Rain 25 1013 82 0 2.05 312.923 12:38 08.08.2019
3997 Rain 22 1015 96 0 1.46 317.191 12:18 08.08.2019
3998 Rain 22 1015 96 0 1.46 317.191 11:43 08.08.2019
3999 Rain 22 1015 96 0 1.46 317.191 11:24 08.08.2019
4000 Rain 22 1015 96 0 1.46 317.191 10:42 08.08.2019
4001 Rain 22 1015 96 0 1.46 317.191 10:22 08.08.2019
4002 Rain 22 1015 96 0 1.46 317.191 09:58 08.08.2019
4003 Rain 22 1015 96 0 1.46 317.191 09:39 08.08.2019
4004 Rain 22 1015 97 0 0.79 1.819 09:20 08.08.2019
4005 Rain 22 1014 97 0 0.58 59.205 08:42 08.08.2019
4006 Rain 22 1014 97 0 0.58 59.205 08:21 08.08.2019
4007 Rain 22 1014 97 0 0.58 59.205 07:56 08.08.2019
4008 Rain 22 1014 97 0 0.58 59.205 07:37 08.08.2019
4009 Rain 22 1014 97 0 0.58 59.205 07:18 08.08.2019
4010 Rain 22 1014 97 0 0.58 59.205 06:41 08.08.2019
4011 Clouds 21 1013 99 0 0.62 109.141 05:57 08.08.2019
4012 Clouds 21 1013 99 0 0.62 109.141 05:39 08.08.2019
4013 Clouds 21 1013 99 0 0.62 109.141 04:18 08.08.2019
4014 Clouds 21 1013 99 0 0.62 109.141 03:41 08.08.2019
4015 Rain 22 1013 96 0 1.85 276.849 01:47 08.08.2019
4016 Rain 21 1013 97 0 1.98 288.782 00:59 08.08.2019
4017 Rain 22 1013 93 0 1.35 276.73 00:22 08.08.2019
4018 Rain 22 1013 93 0 1.35 276.73 23:38 07.08.2019
4019 Rain 22 1013 93 0 1.35 276.73 23:18 07.08.2019
4020 Rain 22 1013 93 0 1.35 276.73 22:41 07.08.2019
4021 Rain 22 1013 93 0 1.35 276.73 22:21 07.08.2019
4022 Rain 22 1013 93 0 1.35 276.73 21:58 07.08.2019
4023 Rain 22 1013 93 0 1.35 276.73 21:40 07.08.2019
4024 Clouds 23 1011 85 0 0.89 356.057 21:21 07.08.2019
4025 Clouds 23 1011 85 0 0.89 356.057 21:21 07.08.2019
4026 Clouds 23 1011 85 0 0.89 356.057 20:59 07.08.2019
4027 Clouds 24 1011 81 0 1.16 347.867 20:41 07.08.2019
4028 Clouds 24 1011 81 0 1.16 347.867 20:20 07.08.2019
4029 Clouds 24 1011 81 0 1.16 347.867 19:55 07.08.2019
4030 Clouds 24 1011 81 0 1.16 347.867 19:36 07.08.2019
4031 Clouds 24 1011 81 0 1.16 347.867 19:18 07.08.2019
4032 Clouds 24 1011 81 0 1.16 347.867 18:40 07.08.2019
4033 Clear 33 1008 44 0 0.08 281.712 18:20 07.08.2019
4034 Clear 33 1008 44 0 0.08 281.712 17:55 07.08.2019
4035 Clear 33 1008 44 0 0.08 281.712 17:55 07.08.2019
4036 Clear 33 1008 44 0 0.08 281.712 17:37 07.08.2019
4037 Clear 33 1008 44 0 0.08 281.712 17:19 07.08.2019
4038 Clear 33 1008 44 0 0.08 281.712 16:56 07.08.2019
4039 Clear 33 1008 44 0 0.08 281.712 16:56 07.08.2019
4040 Clear 33 1008 44 0 0.08 281.712 16:38 07.08.2019
4041 Clear 33 1008 44 0 0.08 281.712 16:19 07.08.2019
4042 Clear 33 1008 44 0 0.08 281.712 15:43 07.08.2019
4043 Rain 35 1010 39 0 0.52 55.053 15:21 07.08.2019
4044 Rain 35 1010 39 0 0.52 55.053 14:50 07.08.2019
4045 Rain 35 1010 39 0 0.52 55.053 14:31 07.08.2019
4046 Rain 35 1010 39 0 0.52 55.053 13:59 07.08.2019
4047 Rain 35 1010 39 0 0.52 55.053 13:40 07.08.2019
4048 Rain 36 1010 37 0 0.44 12.176 13:19 07.08.2019
4049 Rain 36 1010 37 0 0.44 12.176 12:57 07.08.2019
4050 Rain 36 1010 37 0 0.44 12.176 12:38 07.08.2019
4051 Rain 28 1013 76 0 1.03 62.221 12:19 07.08.2019
4052 Rain 28 1013 76 0 1.03 62.221 11:58 07.08.2019
4053 Rain 28 1013 76 0 1.03 62.221 11:58 07.08.2019
4054 Rain 28 1013 76 0 1.03 62.221 11:40 07.08.2019
4055 Rain 28 1013 76 0 1.03 62.221 11:18 07.08.2019
4056 Rain 28 1013 76 0 1.03 62.221 10:41 07.08.2019
4057 Rain 28 1013 76 0 1.03 62.221 10:20 07.08.2019
4058 Rain 28 1013 76 0 1.03 62.221 09:59 07.08.2019
4059 Rain 28 1013 76 0 1.03 62.221 09:39 07.08.2019
4060 Clouds 25 1014 76 0 1.07 60.613 09:18 07.08.2019
4061 Clouds 25 1014 75 0 1.38 48.791 08:45 07.08.2019
4062 Clouds 25 1014 75 0 1.38 48.791 08:25 07.08.2019
4063 Clouds 25 1014 75 0 1.38 48.791 07:51 07.08.2019
4064 Clouds 25 1014 75 0 1.38 48.791 07:30 07.08.2019
4065 Clouds 25 1014 75 0 1.38 48.791 06:47 07.08.2019
4066 Clouds 22 1011 85 0 0.51 343.54 06:22 07.08.2019
4067 Clouds 22 1011 85 0 0.51 343.54 05:42 07.08.2019
4068 Clouds 22 1011 85 0 0.51 343.54 04:40 07.08.2019
4069 Clouds 23 1011 80 0 0.61 290.359 02:58 07.08.2019
4070 Clouds 23 1011 80 0 0.61 290.359 02:38 07.08.2019
4071 Clouds 23 1011 80 0 0.61 290.359 01:51 07.08.2019
4072 Clear 23 1011 80 0 0.53 299.044 01:22 07.08.2019
4073 Clear 24 1012 75 0 0.72 349.302 00:24 07.08.2019
4074 Clear 24 1012 75 0 0.72 349.302 23:59 06.08.2019
4075 Clear 24 1012 75 0 0.72 349.302 23:38 06.08.2019
4076 Clear 24 1012 75 0 0.72 349.302 23:20 06.08.2019
4077 Clear 24 1012 75 0 0.72 349.302 22:40 06.08.2019
4078 Clear 24 1012 75 0 0.72 349.302 22:21 06.08.2019
4079 Clear 24 1012 75 0 0.72 349.302 21:57 06.08.2019
4080 Clear 24 1012 75 0 0.72 349.302 21:38 06.08.2019
4081 Clouds 26 1011 66 0 0.37 19.371 21:19 06.08.2019
4082 Clouds 26 1010 65 0 0.33 334.447 20:46 06.08.2019
4083 Clouds 26 1010 65 0 0.33 334.447 20:27 06.08.2019
4084 Clouds 26 1010 65 0 0.33 334.447 19:57 06.08.2019
4085 Clouds 26 1010 65 0 0.33 334.447 19:38 06.08.2019
4086 Clouds 26 1010 65 0 0.33 334.447 19:19 06.08.2019
4087 Clouds 26 1010 65 0 0.33 334.447 18:41 06.08.2019
4088 Clouds 31 1009 52 0 0.67 1.372 18:23 06.08.2019
4089 Clouds 31 1009 52 0 0.67 1.372 17:58 06.08.2019
4090 Clouds 31 1009 52 0 0.67 1.372 17:38 06.08.2019
4091 Clouds 31 1009 52 0 0.67 1.372 17:19 06.08.2019
4092 Clouds 31 1009 52 0 0.67 1.372 16:48 06.08.2019
4093 Clouds 31 1009 52 0 0.67 1.372 16:25 06.08.2019
4094 Clouds 31 1009 52 0 0.67 1.372 15:59 06.08.2019
4095 Clouds 31 1009 52 0 0.67 1.372 15:41 06.08.2019
4096 Clouds 33 1011 40 0 0.99 22.691 15:22 06.08.2019
4097 Clouds 33 1011 40 0 0.99 22.691 14:59 06.08.2019
4098 Clouds 33 1011 40 0 0.99 22.691 14:38 06.08.2019
4099 Clouds 33 1011 40 0 0.99 22.691 14:20 06.08.2019
4100 Clouds 33 1011 40 0 0.99 22.691 13:55 06.08.2019
4101 Clouds 33 1011 40 0 0.99 22.691 13:36 06.08.2019
4102 Clouds 35 1011 36 0 1.14 45.534 13:18 06.08.2019
4103 Clouds 35 1011 36 0 1.14 45.534 12:40 06.08.2019
4104 Clouds 32 1014 49 0 1.67 44.174 12:22 06.08.2019
4105 Clouds 32 1014 49 0 1.67 44.174 11:46 06.08.2019
4106 Clouds 32 1014 49 0 1.67 44.174 11:22 06.08.2019
4107 Clouds 32 1014 49 0 1.67 44.174 10:59 06.08.2019
4108 Clouds 32 1014 49 0 1.67 44.174 10:40 06.08.2019
4109 Clouds 32 1014 49 0 1.67 44.174 10:22 06.08.2019
4110 Clouds 32 1014 49 0 1.67 44.174 09:43 06.08.2019
4111 Clouds 24 1015 78 0 1.32 49.833 09:23 06.08.2019
4112 Clouds 24 1015 78 0 1.32 49.833 08:55 06.08.2019
4113 Clouds 24 1015 77 0 1.41 49.58 08:36 06.08.2019
4114 Clouds 24 1015 77 0 1.41 49.58 08:18 06.08.2019
4115 Clouds 24 1015 77 0 1.41 49.58 07:31 06.08.2019
4116 Clouds 24 1015 77 0 1.41 49.58 06:45 06.08.2019
4117 Clear 21 1012 89 0 0.78 57.721 06:24 06.08.2019
4118 Clear 21 1012 89 0 0.78 57.721 05:46 06.08.2019
4119 Clouds 22 1013 88 0 0.83 93.533 02:58 06.08.2019
4120 Clouds 22 1013 88 0 0.9 95.028 01:26 06.08.2019
4121 Clouds 22 1013 88 0 0.9 95.028 00:55 06.08.2019
4122 Clouds 23 1013 80 0 0.91 91.132 00:23 06.08.2019
4123 Clouds 23 1013 80 0 0.91 91.132 23:21 05.08.2019
4124 Clouds 23 1013 80 0 0.91 91.132 22:58 05.08.2019
4125 Clouds 23 1013 80 0 0.91 91.132 22:39 05.08.2019
4126 Clouds 23 1013 80 0 0.91 91.132 22:20 05.08.2019
4127 Clouds 23 1013 80 0 0.91 91.132 21:42 05.08.2019
4128 Clouds 25 1011 69 0 0.86 9.626 21:21 05.08.2019
4129 Clouds 25 1011 74 0 0.6 16.406 20:58 05.08.2019
4130 Clouds 25 1011 74 0 0.6 16.406 20:39 05.08.2019
4131 Clouds 25 1011 74 0 0.6 16.406 20:21 05.08.2019
4132 Clouds 25 1011 74 0 0.6 16.406 19:57 05.08.2019
4133 Clouds 25 1011 74 0 0.6 16.406 19:38 05.08.2019
4134 Clouds 25 1011 74 0 0.6 16.406 19:19 05.08.2019
4135 Clouds 25 1011 74 0 0.6 16.406 18:41 05.08.2019
4136 Clouds 30 1010 57 0 0.59 345.823 18:20 05.08.2019
4137 Clouds 30 1010 57 0 0.59 345.823 18:20 05.08.2019
4138 Clouds 30 1010 57 0 0.59 345.823 17:48 05.08.2019
4139 Clouds 30 1010 57 0 0.59 345.823 17:29 05.08.2019
4140 Clouds 30 1010 57 0 0.59 345.823 16:59 05.08.2019
4141 Clouds 30 1010 57 0 0.59 345.823 16:59 05.08.2019
4142 Clouds 30 1010 57 0 0.59 345.823 16:41 05.08.2019
4143 Clouds 30 1010 57 0 0.59 345.823 16:22 05.08.2019
4144 Clouds 30 1010 57 0 0.59 345.823 15:41 05.08.2019
4145 Clouds 31 1012 47 0 0.94 295.224 15:20 05.08.2019
4146 Clouds 31 1012 47 0 0.94 295.224 14:42 05.08.2019
4147 Clouds 31 1012 47 0 0.94 295.224 14:22 05.08.2019
4148 Clouds 31 1012 47 0 0.94 295.224 13:49 05.08.2019
4149 Clouds 31 1012 47 0 0.68 322.426 13:24 05.08.2019
4150 Clouds 31 1012 47 0 0.68 322.426 12:56 05.08.2019
4151 Clouds 31 1012 47 0 0.68 322.426 12:37 05.08.2019
4152 Clouds 31 1015 50 0 0.93 16.652 12:18 05.08.2019
4153 Clouds 31 1015 50 0 0.93 16.652 11:42 05.08.2019
4154 Clouds 31 1015 50 0 0.93 16.652 11:24 05.08.2019
4155 Clouds 31 1015 50 0 0.93 16.652 10:46 05.08.2019
4156 Clouds 31 1015 50 0 0.93 16.652 10:28 05.08.2019
4157 Clouds 31 1015 50 0 0.93 16.652 09:55 05.08.2019
4158 Clouds 31 1015 50 0 0.93 16.652 09:36 05.08.2019
4159 Clouds 23 1016 87 0 0.68 14.3 09:18 05.08.2019
4160 Clouds 23 1015 85 0 0.62 8.613 08:43 05.08.2019
4161 Clouds 23 1015 85 0 0.62 8.613 08:21 05.08.2019
4162 Clouds 23 1015 85 0 0.62 8.613 07:47 05.08.2019
4163 Clouds 23 1015 85 0 0.62 8.613 07:27 05.08.2019
4164 Clouds 23 1015 85 0 0.62 8.613 06:41 05.08.2019
4165 Clouds 20 1014 95 0 0.7 297.766 05:53 05.08.2019
4166 Clouds 20 1014 95 0 0.7 297.766 05:22 05.08.2019
4167 Clouds 20 1014 95 0 0.7 297.766 04:32 05.08.2019
4168 Clouds 20 1014 95 0 0.7 297.766 03:42 05.08.2019
4169 Rain 20 1014 95 0 0.79 349.87 02:37 05.08.2019
4170 Rain 20 1014 95 0 0.79 349.87 01:40 05.08.2019
4171 Rain 20 1014 95 0 0.79 349.87 01:40 05.08.2019
4172 Rain 20 1014 95 0 0.79 349.87 01:40 05.08.2019
4173 Clouds 21 1014 96 0 0.68 306.887 00:56 05.08.2019
4174 Clouds 21 1014 96 0 0.68 306.887 00:37 05.08.2019
4175 Rain 22 1015 89 0 1.1 317.031 00:18 05.08.2019
4176 Rain 22 1015 89 0 1.1 317.031 23:41 04.08.2019
4177 Rain 22 1015 89 0 1.1 317.031 23:21 04.08.2019
4178 Rain 22 1015 89 0 1.1 317.031 22:57 04.08.2019
4179 Rain 22 1015 89 0 1.1 317.031 22:37 04.08.2019
4180 Rain 22 1015 89 0 1.1 317.031 22:19 04.08.2019
4181 Rain 22 1015 89 0 1.1 317.031 21:45 04.08.2019
4182 Clouds 24 1012 79 0 1.19 228.928 21:23 04.08.2019
4183 Clouds 23 1012 81 0 1.01 222.483 20:56 04.08.2019
4184 Clouds 23 1012 81 0 1.01 222.483 20:37 04.08.2019
4185 Clouds 23 1012 81 0 1.01 222.483 20:18 04.08.2019
4186 Clouds 23 1012 81 0 1.01 222.483 19:43 04.08.2019
4187 Clouds 23 1012 81 0 1.01 222.483 19:24 04.08.2019
4188 Clouds 23 1012 81 0 1.01 222.483 18:42 04.08.2019
4189 Clouds 28 1010 62 0 2.76 184.848 18:21 04.08.2019
4190 Clouds 28 1010 62 0 2.76 184.848 17:58 04.08.2019
4191 Clouds 28 1010 62 0 2.76 184.848 17:40 04.08.2019
4192 Clouds 28 1010 62 0 2.76 184.848 17:20 04.08.2019
4193 Clouds 28 1010 62 0 2.76 184.848 16:42 04.08.2019
4194 Clouds 28 1010 62 0 2.76 184.848 16:24 04.08.2019
4195 Clouds 28 1010 62 0 2.76 184.848 15:45 04.08.2019
4196 Clouds 31 1011 46 0 1.1 185.43 15:23 04.08.2019
4197 Clouds 31 1011 46 0 1.1 185.43 14:55 04.08.2019
4198 Clouds 31 1011 46 0 1.1 185.43 14:37 04.08.2019
4199 Clouds 31 1011 46 0 1.1 185.43 14:19 04.08.2019
4200 Clouds 31 1011 46 0 1.1 185.43 13:42 04.08.2019
4201 Clouds 32 1012 44 0 1.2 176.135 13:22 04.08.2019
4202 Clouds 32 1012 44 0 1.2 176.135 12:45 04.08.2019
4203 Clouds 32 1012 44 0 1.2 176.135 12:27 04.08.2019
4204 Clear 31 1015 49 0 0.69 160.828 11:57 04.08.2019
4205 Clear 31 1015 49 0 0.69 160.828 11:37 04.08.2019
4206 Clear 31 1015 49 0 0.69 160.828 11:19 04.08.2019
4207 Clear 31 1015 49 0 0.69 160.828 10:41 04.08.2019
4208 Clear 31 1015 49 0 0.69 160.828 10:20 04.08.2019
4209 Clear 31 1015 49 0 0.69 160.828 09:45 04.08.2019
4210 Clouds 22 1015 83 0 0.9 225.947 09:22 04.08.2019
4211 Clouds 22 1015 85 0 0.9 223.649 08:47 04.08.2019
4212 Clouds 22 1015 85 0 0.9 223.649 08:26 04.08.2019
4213 Clouds 22 1015 85 0 0.9 223.649 07:52 04.08.2019
4214 Clouds 22 1015 85 0 0.9 223.649 06:57 04.08.2019
4215 Clouds 22 1015 85 0 0.9 223.649 06:28 04.08.2019
4216 Clouds 19 1014 99 0 0.8 246.51 04:26 04.08.2019
4217 Clouds 19 1014 99 0 0.76 290.53 02:43 04.08.2019
4218 Clouds 19 1014 99 0 0.76 290.53 01:39 04.08.2019
4219 Clouds 19 1014 99 0 0.84 279.227 01:18 04.08.2019
4220 Clouds 19 1014 99 0 0.84 279.227 01:18 04.08.2019
4221 Clouds 19 1014 99 0 0.84 279.227 00:41 04.08.2019
4222 Clouds 20 1015 98 0 1.05 271.205 00:19 04.08.2019
4223 Clouds 20 1015 98 0 1.05 271.205 23:40 03.08.2019
4224 Clouds 20 1015 98 0 1.05 271.205 23:18 03.08.2019
4225 Clouds 20 1015 98 0 1.05 271.205 22:44 03.08.2019
4226 Clouds 20 1015 98 0 1.05 271.205 22:22 03.08.2019
4227 Clouds 20 1015 98 0 1.05 271.205 21:56 03.08.2019
4228 Clouds 20 1015 98 0 1.05 271.205 21:36 03.08.2019
4229 Clouds 20 1015 98 0 1.05 271.205 21:36 03.08.2019
4230 Clouds 21 1013 91 0 1.22 279.942 21:18 03.08.2019
4231 Clouds 21 1013 91 0 1.22 279.942 21:18 03.08.2019
4232 Clouds 21 1013 88 0 1.92 280.877 20:41 03.08.2019
4233 Clouds 21 1013 88 0 1.92 280.877 20:20 03.08.2019
4234 Clouds 21 1013 88 0 1.92 280.877 19:42 03.08.2019
4235 Clouds 21 1013 88 0 1.92 280.877 19:42 03.08.2019
4236 Clouds 21 1013 88 0 1.92 280.877 19:23 03.08.2019
4237 Clouds 21 1013 88 0 1.92 280.877 18:53 03.08.2019
4238 Clouds 21 1013 88 0 1.92 280.877 18:27 03.08.2019
4239 Clouds 25 1011 70 0 2.29 277.722 17:49 03.08.2019
4240 Clouds 25 1011 70 0 2.29 277.722 17:21 03.08.2019
4241 Clouds 25 1011 70 0 2.29 277.722 16:56 03.08.2019
4242 Clouds 25 1011 70 0 2.29 277.722 16:37 03.08.2019
4243 Clouds 25 1011 70 0 2.29 277.722 16:19 03.08.2019
4244 Clouds 25 1011 70 0 2.29 277.722 15:43 03.08.2019
4245 Rain 24 1012 84 0 2.18 277.873 15:22 03.08.2019
4246 Rain 24 1012 84 0 2.18 277.873 14:40 03.08.2019
4247 Rain 24 1012 84 0 2.18 277.873 14:21 03.08.2019
4248 Rain 24 1012 84 0 2.18 277.873 13:51 03.08.2019
4249 Rain 22 1012 88 0 1.55 262.476 13:25 03.08.2019
4250 Rain 22 1012 88 0 1.55 262.476 12:57 03.08.2019
4251 Rain 22 1012 88 0 1.55 262.476 12:39 03.08.2019
4252 Rain 25 1014 85 0 1.93 278.545 12:21 03.08.2019
4253 Rain 25 1014 85 0 1.93 278.545 11:48 03.08.2019
4254 Rain 25 1014 85 0 1.93 278.545 11:26 03.08.2019
4255 Rain 25 1014 85 0 1.93 278.545 10:41 03.08.2019
4256 Rain 25 1014 85 0 1.93 278.545 10:22 03.08.2019
4257 Rain 25 1014 85 0 1.93 278.545 09:41 03.08.2019
4258 Rain 22 1014 96 0 0.76 294.601 09:21 03.08.2019
4259 Rain 22 1014 97 0 1.73 98.463 08:51 03.08.2019
4260 Rain 22 1014 97 0 1.73 98.463 07:52 03.08.2019
4261 Rain 22 1014 97 0 1.73 98.463 07:31 03.08.2019
4262 Rain 21 1012 98 0 0.51 274.764 06:24 03.08.2019
4263 Rain 21 1012 98 0 0.51 274.764 04:41 03.08.2019
4264 Rain 22 1012 97 0 0.57 259.812 02:38 03.08.2019
4265 Rain 22 1012 97 0 0.57 259.812 01:42 03.08.2019
4266 Rain 22 1012 97 0 0.23 292.27 00:49 03.08.2019
4267 Rain 22 1012 95 0 1.24 200.772 23:58 02.08.2019
4268 Rain 22 1012 95 0 1.24 200.772 23:40 02.08.2019
4269 Rain 22 1012 95 0 1.24 200.772 23:18 02.08.2019
4270 Rain 22 1012 95 0 1.24 200.772 22:56 02.08.2019
4271 Rain 22 1012 95 0 1.24 200.772 22:38 02.08.2019
4272 Rain 22 1012 95 0 1.24 200.772 22:38 02.08.2019
4273 Rain 22 1012 95 0 1.24 200.772 22:18 02.08.2019
4274 Rain 22 1012 95 0 1.24 200.772 21:43 02.08.2019
4275 Rain 23 1010 90 0 0.66 31.904 21:23 02.08.2019
4276 Clouds 24 1010 78 0 1.2 23.167 20:55 02.08.2019
4277 Clouds 24 1010 78 0 1.2 23.167 20:37 02.08.2019
4278 Clouds 24 1010 78 0 1.2 23.167 20:19 02.08.2019
4279 Clouds 24 1010 78 0 1.2 23.167 19:42 02.08.2019
4280 Clouds 24 1010 78 0 1.2 23.167 19:24 02.08.2019
4281 Clouds 24 1010 78 0 1.2 23.167 18:44 02.08.2019
4282 Clear 32 1008 49 0 0.67 216.955 18:24 02.08.2019
4283 Clear 32 1008 49 0 0.67 216.955 17:44 02.08.2019
4284 Clear 32 1008 49 0 0.67 216.955 17:24 02.08.2019
4285 Clear 32 1008 49 0 0.67 216.955 16:56 02.08.2019
4286 Clear 32 1008 49 0 0.67 216.955 16:37 02.08.2019
4287 Clear 32 1008 49 0 0.67 216.955 16:18 02.08.2019
4288 Clear 32 1008 49 0 0.67 216.955 15:39 02.08.2019
4289 Rain 31 1009 55 0 1.46 211.744 15:19 02.08.2019
4290 Rain 31 1009 55 0 1.46 211.744 14:45 02.08.2019
4291 Rain 31 1009 55 0 1.46 211.744 14:18 02.08.2019
4292 Rain 31 1009 55 0 1.46 211.744 13:48 02.08.2019
4293 Rain 31 1009 54 0 1.68 226.254 13:25 02.08.2019
4294 Rain 31 1009 54 0 1.68 226.254 12:45 02.08.2019
4295 Clouds 30 1012 55 0 1.95 5.69 12:21 02.08.2019
4296 Clouds 30 1012 55 0 1.95 5.69 11:51 02.08.2019
4297 Clouds 30 1012 55 0 1.95 5.69 11:32 02.08.2019
4298 Clouds 30 1012 55 0 1.95 5.69 10:55 02.08.2019
4299 Clouds 30 1012 55 0 1.95 5.69 10:37 02.08.2019
4300 Clouds 30 1012 55 0 1.95 5.69 10:19 02.08.2019
4301 Clouds 30 1012 55 0 1.95 5.69 09:51 02.08.2019
4302 Rain 23 1013 90 0 1.38 24.879 09:25 02.08.2019
4303 Rain 24 1013 81 0 1.43 14.589 08:47 02.08.2019
4304 Rain 24 1013 81 0 1.43 14.589 08:21 02.08.2019
4305 Rain 24 1013 81 0 1.43 14.589 07:49 02.08.2019
4306 Rain 24 1013 81 0 1.43 14.589 07:31 02.08.2019
4307 Rain 24 1013 81 0 1.43 14.589 06:44 02.08.2019
4308 Rain 22 1011 86 0 0.73 348.091 05:52 02.08.2019
4309 Rain 22 1011 86 0 0.73 348.091 05:52 02.08.2019
4310 Rain 22 1011 86 0 0.73 348.091 05:21 02.08.2019
4311 Rain 22 1011 86 0 0.73 348.091 03:27 02.08.2019
4312 Clouds 23 1010 81 0 0.87 316.671 02:33 02.08.2019
4313 Clouds 23 1009 82 0 1.07 313.594 00:40 02.08.2019
4314 Clouds 24 1011 77 0 0.71 2.497 23:47 01.08.2019
4315 Clouds 24 1011 77 0 0.71 2.497 23:28 01.08.2019
4316 Clouds 24 1011 77 0 0.71 2.497 22:59 01.08.2019
4317 Clouds 24 1011 77 0 0.71 2.497 22:39 01.08.2019
4318 Clouds 24 1011 77 0 0.71 2.497 22:20 01.08.2019
4319 Clouds 24 1011 77 0 0.71 2.497 21:43 01.08.2019
4320 Clouds 26 1009 69 0 1.18 322.168 21:24 01.08.2019
4321 Clouds 26 1008 70 0 1.29 308.43 20:55 01.08.2019
4322 Clouds 26 1008 70 0 1.29 308.43 20:37 01.08.2019
4323 Clouds 26 1008 70 0 1.29 308.43 20:19 01.08.2019
4324 Clouds 26 1008 70 0 1.29 308.43 19:41 01.08.2019
4325 Clouds 26 1008 70 0 1.29 308.43 19:19 01.08.2019
4326 Clouds 26 1008 70 0 1.29 308.43 18:44 01.08.2019
4327 Clouds 32 1006 46 0 1.41 294.582 18:24 01.08.2019
4328 Clouds 32 1006 46 0 1.41 294.582 17:55 01.08.2019
4329 Clouds 32 1006 46 0 1.41 294.582 17:36 01.08.2019
4330 Clouds 32 1006 46 0 1.41 294.582 17:18 01.08.2019
4331 Clouds 32 1006 46 0 1.41 294.582 16:44 01.08.2019
4332 Clouds 32 1006 46 0 1.41 294.582 16:21 01.08.2019
4333 Clouds 32 1006 46 0 1.41 294.582 15:41 01.08.2019
4334 Clouds 35 1008 40 0 0.62 24.529 15:20 01.08.2019
4335 Clouds 35 1008 40 0 0.62 24.529 14:44 01.08.2019
4336 Clouds 35 1008 40 0 0.62 24.529 14:21 01.08.2019
4337 Clouds 35 1008 40 0 0.62 24.529 13:58 01.08.2019
4338 Clouds 35 1008 40 0 0.62 24.529 13:40 01.08.2019
4339 Clouds 34 1009 42 0 0.6 358.1 13:21 01.08.2019
4340 Clouds 34 1009 42 0 0.6 358.1 12:49 01.08.2019
4341 Clouds 34 1009 42 0 0.6 358.1 12:28 01.08.2019
4342 Clouds 33 1013 47 0 0.97 3.065 11:55 01.08.2019
4343 Clouds 33 1013 47 0 0.97 3.065 11:36 01.08.2019
4344 Clouds 33 1013 47 0 0.97 3.065 11:18 01.08.2019
4345 Clouds 33 1013 47 0 0.97 3.065 10:41 01.08.2019
4346 Clouds 33 1013 47 0 0.97 3.065 10:41 01.08.2019
4347 Clouds 33 1013 47 0 0.97 3.065 10:22 01.08.2019
4348 Clouds 33 1013 47 0 0.97 3.065 09:48 01.08.2019
4349 Clouds 24 1013 82 0 1 347.066 09:23 01.08.2019
4350 Clouds 22 1013 90 0 0.78 30.66 08:50 01.08.2019
4351 Clouds 22 1013 90 0 0.78 30.66 08:21 01.08.2019
4352 Clouds 22 1013 90 0 0.78 30.66 07:55 01.08.2019
4353 Clouds 22 1013 90 0 0.78 30.66 07:29 01.08.2019
4354 Clouds 22 1013 90 0 0.78 30.66 06:58 01.08.2019
4355 Clouds 22 1013 90 0 0.78 30.66 06:36 01.08.2019
4356 Clouds 21 1011 95 0 0.77 347.455 05:32 01.08.2019
4357 Clouds 21 1011 95 0 0.77 347.455 05:32 01.08.2019
4358 Rain 21 1011 92 0 0.56 253.077 02:36 01.08.2019
4359 Rain 21 1011 95 0 0.41 280.542 01:33 01.08.2019
4360 Rain 21 1011 95 0 0.41 280.542 00:27 01.08.2019
4361 Clouds 22 1013 84 0 0.79 15.044 23:59 31.07.2019
4362 Clouds 22 1013 84 0 0.79 15.044 23:40 31.07.2019
4363 Clouds 22 1013 84 0 0.79 15.044 23:19 31.07.2019
4364 Clouds 22 1013 84 0 0.79 15.044 22:45 31.07.2019
4365 Clouds 22 1013 84 0 0.79 15.044 22:25 31.07.2019
4366 Clouds 22 1013 84 0 0.79 15.044 21:42 31.07.2019
4367 Rain 24 1010 75 0 0.9 315.901 21:23 31.07.2019
4368 Clouds 24 1010 80 0 0.51 348.668 20:51 31.07.2019
4369 Clouds 24 1010 80 0 0.51 348.668 20:25 31.07.2019
4370 Clouds 24 1010 80 0 0.51 348.668 19:58 31.07.2019
4371 Clouds 24 1010 80 0 0.51 348.668 19:37 31.07.2019
4372 Clouds 24 1010 80 0 0.51 348.668 19:19 31.07.2019
4373 Clouds 24 1010 80 0 0.51 348.668 18:39 31.07.2019
4374 Clouds 30 1008 58 0 1.34 312.55 18:19 31.07.2019
4375 Clouds 30 1008 58 0 1.34 312.55 17:45 31.07.2019
4376 Clouds 30 1008 58 0 1.34 312.55 17:20 31.07.2019
4377 Clouds 30 1008 58 0 1.34 312.55 16:54 31.07.2019
4378 Clouds 30 1008 58 0 1.34 312.55 16:34 31.07.2019
4379 Clouds 30 1008 58 0 1.34 312.55 16:00 31.07.2019
4380 Clouds 30 1008 58 0 1.34 312.55 15:40 31.07.2019
4381 Rain 32 1009 45 0 1.46 257.147 15:21 31.07.2019
4382 Rain 32 1009 45 0 1.46 257.147 14:42 31.07.2019
4383 Rain 32 1009 45 0 1.46 257.147 14:20 31.07.2019
4384 -273 0 0 0 0 0 13:56 31.07.2019
4385 Rain 32 1009 45 0 1.46 257.147 13:56 31.07.2019
4386 Rain 32 1009 45 0 1.46 257.147 13:37 31.07.2019
4387 Rain 32 1009 46 0 1.43 276.841 13:19 31.07.2019
4388 Rain 32 1009 46 0 1.43 276.841 12:42 31.07.2019
4389 Clouds 28 1013 64 0 1.51 18.399 12:23 31.07.2019
4390 Clouds 28 1013 64 0 1.51 18.399 11:40 31.07.2019
4391 Clouds 28 1013 64 0 1.51 18.399 11:21 31.07.2019
4392 Clouds 28 1013 64 0 1.51 18.399 10:56 31.07.2019
4393 Clouds 28 1013 64 0 1.51 18.399 10:38 31.07.2019
4394 Clouds 28 1013 64 0 1.51 18.399 10:19 31.07.2019
4395 Clouds 28 1013 64 0 1.51 18.399 09:43 31.07.2019
4396 Clouds 23 1012 89 0 0.84 53.253 09:23 31.07.2019
4397 Clouds 23 1012 87 0 0.76 63.063 08:44 31.07.2019
4398 Clouds 23 1012 87 0 0.76 63.063 08:24 31.07.2019
4399 Clouds 23 1012 87 0 0.76 63.063 07:50 31.07.2019
4400 Clouds 23 1012 87 0 0.76 63.063 07:31 31.07.2019
4401 Clouds 22 1010 87 0 0.86 74.447 05:24 31.07.2019
4402 Clouds 22 1010 87 0 0.86 74.447 04:21 31.07.2019
4403 Rain 21 1010 89 0 0.92 35.392 00:41 31.07.2019
4404 Rain 22 1012 82 0 0.89 40.052 23:51 30.07.2019
4405 Rain 22 1012 82 0 0.89 40.052 23:30 30.07.2019
4406 Rain 22 1012 82 0 0.89 40.052 22:59 30.07.2019
4407 Rain 22 1012 82 0 0.89 40.052 22:40 30.07.2019
4408 Rain 22 1012 82 0 0.89 40.052 22:21 30.07.2019
4409 Rain 22 1012 82 0 0.89 40.052 21:38 30.07.2019
4410 Clouds 24 1011 73 0 1.21 17.016 21:19 30.07.2019
4411 Clouds 24 1010 75 0 1.18 6.103 20:56 30.07.2019
4412 Clouds 24 1010 75 0 1.18 6.103 20:38 30.07.2019
4413 Clouds 24 1010 75 0 1.18 6.103 20:19 30.07.2019
4414 Clouds 24 1010 75 0 1.18 6.103 19:47 30.07.2019
4415 Clouds 24 1010 75 0 1.18 6.103 19:28 30.07.2019
4416 Clouds 24 1010 75 0 1.18 6.103 18:48 30.07.2019
4417 Clouds 31 1008 48 0 1.74 278.386 18:25 30.07.2019
4418 Clouds 31 1008 48 0 1.74 278.386 17:58 30.07.2019
4419 Clouds 31 1008 48 0 1.74 278.386 17:40 30.07.2019
4420 Clouds 31 1008 48 0 1.74 278.386 17:18 30.07.2019
4421 Clouds 31 1008 48 0 1.74 278.386 16:44 30.07.2019
4422 Clouds 31 1008 48 0 1.74 278.386 16:19 30.07.2019
4423 Clouds 31 1008 48 0 1.74 278.386 15:39 30.07.2019
4424 Rain 32 1010 40 0 2.19 268.164 15:19 30.07.2019
4425 Rain 32 1010 40 0 2.19 268.164 14:43 30.07.2019
4426 Rain 32 1010 40 0 2.19 268.164 14:43 30.07.2019
4427 Rain 32 1010 40 0 2.19 268.164 14:22 30.07.2019
4428 Rain 32 1010 40 0 2.19 268.164 13:55 30.07.2019
4429 Rain 32 1010 40 0 2.19 268.164 13:36 30.07.2019
4430 Rain 32 1010 40 0 2.4 289.35 13:18 30.07.2019
4431 Rain 32 1010 40 0 2.4 289.35 12:43 30.07.2019
4432 Rain 29 1013 67 0 1.71 297.422 12:24 30.07.2019
4433 Rain 29 1013 67 0 1.71 297.422 12:24 30.07.2019
4434 Rain 29 1013 67 0 1.71 297.422 11:46 30.07.2019
4435 Rain 29 1013 67 0 1.71 297.422 11:23 30.07.2019
4436 Rain 31 1014 52 0 1.71 335.389 10:56 30.07.2019
4437 Rain 31 1014 52 0 1.71 335.389 10:38 30.07.2019
4438 Rain 31 1014 52 0 1.71 335.389 10:20 30.07.2019
4439 Rain 31 1014 52 0 1.71 335.389 09:46 30.07.2019
4440 Rain 31 1014 52 0 1.71 335.389 09:27 30.07.2019
4441 Clouds 23 1013 82 0 0.59 296.303 08:39 30.07.2019
4442 Clouds 23 1013 82 0 0.59 296.303 08:18 30.07.2019
4443 Clouds 23 1013 82 0 0.59 296.303 07:40 30.07.2019
4444 Clouds 23 1013 82 0 0.59 296.303 07:22 30.07.2019
4445 Clouds 23 1013 82 0 0.59 296.303 06:43 30.07.2019
4446 Clouds 22 1011 85 0 0.49 12.144 05:35 30.07.2019
4447 Clouds 22 1011 85 0 0.49 12.144 04:29 30.07.2019
4448 Clouds 22 1011 80 0 0.1 172.807 01:23 30.07.2019
4449 Clouds 23 1011 71 0 0.36 295.201 00:27 30.07.2019
4450 Clouds 23 1011 71 0 0.36 295.201 00:27 30.07.2019
4451 Clouds 23 1011 71 0 0.36 295.201 23:59 29.07.2019
4452 Clouds 23 1011 71 0 0.36 295.201 23:39 29.07.2019
4453 Clouds 23 1011 71 0 0.36 295.201 23:20 29.07.2019
4454 Clouds 23 1011 71 0 0.36 295.201 22:55 29.07.2019
4455 Clouds 23 1011 71 0 0.36 295.201 22:37 29.07.2019
4456 Clouds 23 1011 71 0 0.36 295.201 22:18 29.07.2019
4457 Clouds 23 1011 71 0 0.36 295.201 21:41 29.07.2019
4458 Clouds 25 1009 70 0 0.66 22.122 21:23 29.07.2019
4459 Clouds 25 1009 70 0 0.66 22.122 20:57 29.07.2019
4460 Clouds 25 1009 70 0 0.66 22.122 20:38 29.07.2019
4461 Clouds 25 1009 70 0 0.66 22.122 20:19 29.07.2019
4462 Clouds 25 1009 70 0 0.66 22.122 19:45 29.07.2019
4463 Clouds 25 1009 70 0 0.66 22.122 19:23 29.07.2019
4464 Clouds 25 1009 70 0 0.66 22.122 18:57 29.07.2019
4465 Clouds 25 1009 70 0 0.66 22.122 18:38 29.07.2019
4466 Clouds 31 1007 49 0 0.88 260.366 18:19 29.07.2019
4467 Clouds 31 1007 49 0 0.88 260.366 17:47 29.07.2019
4468 Clouds 31 1007 49 0 0.88 260.366 17:47 29.07.2019
4469 Clouds 31 1007 49 0 0.88 260.366 17:27 29.07.2019
4470 Clouds 31 1007 49 0 0.88 260.366 16:46 29.07.2019
4471 Clouds 31 1007 49 0 0.88 260.366 16:46 29.07.2019
4472 Clouds 31 1007 49 0 0.88 260.366 16:27 29.07.2019
4473 Clouds 31 1007 49 0 0.88 260.366 15:54 29.07.2019
4474 Clouds 31 1007 49 0 0.88 260.366 15:36 29.07.2019
4475 Clouds 32 1008 47 0 1.07 228.576 14:59 29.07.2019
4476 Clouds 32 1008 47 0 1.07 228.576 14:40 29.07.2019
4477 Clouds 32 1008 47 0 1.07 228.576 14:21 29.07.2019
4478 Clouds 32 1008 47 0 1.07 228.576 13:45 29.07.2019
4479 Clouds 32 1008 43 0 1.34 221.258 13:24 29.07.2019
4480 Clouds 32 1008 43 0 1.34 221.258 12:45 29.07.2019
4481 Clouds 32 1008 43 0 1.34 221.258 12:26 29.07.2019
4482 Clouds 33 1012 46 0 0.62 263.875 11:59 29.07.2019
4483 Clouds 33 1012 46 0 0.62 263.875 11:39 29.07.2019
4484 Clouds 33 1012 46 0 0.62 263.875 11:18 29.07.2019
4485 Clouds 33 1012 46 0 0.62 263.875 10:42 29.07.2019
4486 Clouds 33 1012 46 0 0.62 263.875 10:21 29.07.2019
4487 Clouds 33 1012 46 0 0.62 263.875 09:43 29.07.2019
4488 Clouds 22 1013 86 0 1.12 280.758 09:21 29.07.2019
4489 Clouds 22 1013 86 0 1.12 280.758 09:21 29.07.2019
4490 Clouds 23 1013 81 0 1.11 275.772 08:43 29.07.2019
4491 Clouds 23 1013 81 0 1.11 275.772 08:24 29.07.2019
4492 Clouds 23 1013 81 0 1.11 275.772 07:46 29.07.2019
4493 Clouds 23 1013 81 0 1.11 275.772 07:26 29.07.2019
4494 Clouds 21 1011 90 0 0.3 80.134 05:57 29.07.2019
4495 Clouds 21 1011 90 0 0.3 80.134 05:31 29.07.2019
4496 Clouds 21 1011 92 0 0.23 95.863 02:43 29.07.2019
4497 Clouds 21 1011 92 0 0.23 95.863 01:47 29.07.2019
4498 Clouds 21 1011 91 0 0.66 86.326 01:26 29.07.2019
4499 Clouds 21 1011 91 0 0.66 86.326 00:52 29.07.2019
4500 Clouds 22 1012 87 0 0.96 28.135 00:23 29.07.2019
4501 Clouds 22 1012 87 0 0.96 28.135 23:41 28.07.2019
4502 Clouds 22 1012 87 0 0.96 28.135 23:22 28.07.2019
4503 Clouds 22 1012 87 0 0.96 28.135 23:22 28.07.2019
4504 Clouds 22 1012 87 0 0.96 28.135 22:43 28.07.2019
4505 Clouds 22 1012 87 0 0.96 28.135 22:24 28.07.2019
4506 Clouds 22 1012 87 0 0.96 28.135 21:50 28.07.2019
4507 Clouds 24 1011 80 0 1.24 59.02 21:20 28.07.2019
4508 Clouds 24 1010 80 0 1.27 65.238 20:49 28.07.2019
4509 Clouds 24 1010 80 0 1.27 65.238 20:30 28.07.2019
4510 Clouds 24 1010 80 0 1.27 65.238 19:57 28.07.2019
4511 Clouds 24 1010 80 0 1.27 65.238 19:38 28.07.2019
4512 Clouds 24 1010 80 0 1.27 65.238 19:20 28.07.2019
4513 Clouds 24 1010 80 0 1.27 65.238 18:45 28.07.2019
4514 Clouds 30 1008 50 0 0.64 51.242 18:25 28.07.2019
4515 Clouds 30 1008 50 0 0.64 51.242 17:55 28.07.2019
4516 Clouds 30 1008 50 0 0.64 51.242 17:55 28.07.2019
4517 Clouds 30 1008 50 0 0.64 51.242 17:37 28.07.2019
4518 Clouds 30 1008 50 0 0.64 51.242 17:19 28.07.2019
4519 Clouds 30 1008 50 0 0.64 51.242 16:41 28.07.2019
4520 Clouds 30 1008 50 0 0.64 51.242 16:41 28.07.2019
4521 Clouds 30 1008 50 0 0.64 51.242 16:22 28.07.2019
4522 Clouds 30 1008 50 0 0.64 51.242 15:44 28.07.2019
4523 Clouds 31 1010 47 0 1.28 358.213 15:25 28.07.2019
4524 Clouds 31 1010 47 0 1.28 358.213 14:39 28.07.2019
4525 Clouds 31 1010 47 0 1.28 358.213 14:20 28.07.2019
4526 Clouds 31 1010 47 0 1.28 358.213 13:56 28.07.2019
4527 Clouds 31 1010 47 0 1.28 358.213 13:56 28.07.2019
4528 Clouds 31 1010 47 0 1.28 358.213 13:37 28.07.2019
4529 Clouds 32 1010 47 0 1.12 16.17 13:19 28.07.2019
4530 Clouds 32 1010 47 0 1.12 16.17 12:42 28.07.2019
4531 Clouds 28 1013 60 0 1.31 21.192 12:23 28.07.2019
4532 Clouds 28 1013 60 0 1.31 21.192 11:50 28.07.2019
4533 Clouds 28 1013 60 0 1.31 21.192 11:28 28.07.2019
4534 Clouds 28 1013 60 0 1.31 21.192 10:56 28.07.2019
4535 Clouds 28 1013 60 0 1.31 21.192 10:37 28.07.2019
4536 Clouds 28 1013 60 0 1.31 21.192 10:18 28.07.2019
4537 Clouds 28 1013 60 0 1.31 21.192 09:40 28.07.2019
4538 Clouds 21 1013 94 0 0.8 46.009 09:20 28.07.2019
4539 Clouds 22 1013 93 0 0.85 29.022 08:41 28.07.2019
4540 Clouds 22 1013 93 0 0.85 29.022 08:21 28.07.2019
4541 Clouds 22 1013 93 0 0.85 29.022 07:40 28.07.2019
4542 Clouds 22 1013 93 0 0.85 29.022 06:59 28.07.2019
4543 Clouds 22 1013 93 0 0.85 29.022 06:33 28.07.2019
4544 Clouds 21 1011 96 0 0.9 354.84 05:19 28.07.2019
4545 Clouds 21 1011 95 0 0.69 25.342 02:37 28.07.2019
4546 Clouds 21 1011 96 0 0.8 32.631 01:32 28.07.2019
4547 Clouds 21 1011 96 0 0.8 32.631 00:52 28.07.2019
4548 Clouds 22 1013 94 0 0.94 306.036 00:25 28.07.2019
4549 Clouds 22 1013 94 0 0.94 306.036 23:52 27.07.2019
4550 Clouds 22 1013 94 0 0.94 306.036 23:27 27.07.2019
4551 Clouds 22 1013 94 0 0.94 306.036 22:44 27.07.2019
4552 Clouds 22 1013 94 0 0.94 306.036 22:26 27.07.2019
4553 Clouds 22 1013 94 0 0.94 306.036 21:47 27.07.2019
4554 Rain 22 1012 93 0 1.67 326.738 21:23 27.07.2019
4555 Rain 22 1012 95 0 1.28 350.781 20:56 27.07.2019
4556 Rain 22 1012 95 0 1.28 350.781 20:37 27.07.2019
4557 Rain 22 1012 95 0 1.28 350.781 20:19 27.07.2019
4558 Rain 22 1012 95 0 1.28 350.781 19:39 27.07.2019
4559 Rain 22 1012 95 0 1.28 350.781 19:21 27.07.2019
4560 Rain 22 1012 95 0 1.28 350.781 18:47 27.07.2019
4561 Rain 22 1012 95 0 1.28 350.781 18:28 27.07.2019
4562 Rain 23 1009 91 0 1.85 349.872 17:50 27.07.2019
4563 Rain 23 1009 91 0 1.85 349.872 17:32 27.07.2019
4564 Rain 23 1009 91 0 1.85 349.872 16:56 27.07.2019
4565 Rain 23 1009 91 0 1.85 349.872 16:37 27.07.2019
4566 Rain 23 1009 91 0 1.85 349.872 15:56 27.07.2019
4567 Rain 23 1009 91 0 1.85 349.872 15:38 27.07.2019
4568 Rain 27 1010 73 0 2.48 325.726 15:18 27.07.2019
4569 Rain 27 1010 73 0 2.48 325.726 14:45 27.07.2019
4570 Rain 27 1010 73 0 2.48 325.726 14:25 27.07.2019
4571 Rain 27 1010 73 0 2.48 325.726 13:48 27.07.2019
4572 Rain 30 1010 55 0 2.04 300.636 13:23 27.07.2019
4573 Rain 30 1010 55 0 2.04 300.636 12:50 27.07.2019
4574 Rain 30 1010 55 0 2.04 300.636 12:27 27.07.2019
4575 Rain 27 1012 76 0 1.86 310.893 11:56 27.07.2019
4576 Rain 27 1012 76 0 1.86 310.893 11:37 27.07.2019
4577 Rain 27 1012 76 0 1.86 310.893 11:19 27.07.2019
4578 Rain 27 1012 76 0 1.86 310.893 10:40 27.07.2019
4579 Rain 27 1012 76 0 1.86 310.893 10:21 27.07.2019
4580 Rain 27 1012 76 0 1.86 310.893 09:41 27.07.2019
4581 Rain 23 1012 89 0 0.3 315.822 09:22 27.07.2019
4582 Clouds 24 1013 81 0 1.17 308.98 08:48 27.07.2019
4583 Clouds 24 1013 81 0 1.17 308.98 08:29 27.07.2019
4584 Clouds 24 1013 81 0 1.17 308.98 07:54 27.07.2019
4585 Clouds 24 1013 81 0 1.17 308.98 07:27 27.07.2019
4586 Clouds 24 1013 81 0 1.17 308.98 06:56 27.07.2019
4587 Clouds 24 1013 81 0 1.17 308.98 06:31 27.07.2019
4588 Clouds 22 1011 89 0 0.71 284.115 05:51 27.07.2019
4589 Clouds 22 1011 89 0 0.71 284.115 05:18 27.07.2019
4590 Clouds 22 1011 89 0 0.71 284.115 04:30 27.07.2019
4591 Clouds 22 1010 86 0 0.23 295.431 02:58 27.07.2019
4592 Clouds 22 1010 86 0 0.23 295.431 02:32 27.07.2019
4593 Clouds 22 1010 86 0 0.23 295.431 01:47 27.07.2019
4594 Clouds 23 1010 83 0 0.49 348.141 01:00 27.07.2019
4595 Clouds 23 1010 83 0 0.49 348.141 00:32 27.07.2019
4596 Rain 24 1010 73 0 0.99 339.125 23:54 26.07.2019
4597 Rain 24 1010 73 0 0.99 339.125 23:33 26.07.2019
4598 Rain 24 1010 73 0 0.99 339.125 22:57 26.07.2019
4599 Rain 24 1010 73 0 0.99 339.125 22:38 26.07.2019
4600 Rain 24 1010 73 0 0.99 339.125 22:20 26.07.2019
4601 Rain 24 1010 73 0 0.99 339.125 21:49 26.07.2019
4602 Clouds 27 1008 60 0 0.61 94.544 21:19 26.07.2019
4603 Clouds 27 1008 60 0 0.85 58.829 20:43 26.07.2019
4604 Clouds 27 1008 60 0 0.85 58.829 20:24 26.07.2019
4605 Clouds 27 1008 60 0 0.85 58.829 19:44 26.07.2019
4606 Clouds 27 1008 60 0 0.85 58.829 19:25 26.07.2019
4607 Clouds 27 1008 60 0 0.85 58.829 18:58 26.07.2019
4608 Clouds 27 1008 60 0 0.85 58.829 18:37 26.07.2019
4609 Clouds 32 1006 45 0 0.63 178.167 18:19 26.07.2019
4610 Clouds 32 1006 45 0 0.63 178.167 17:46 26.07.2019
4611 Clouds 32 1006 45 0 0.63 178.167 17:19 26.07.2019
4612 Clouds 32 1006 45 0 0.63 178.167 16:57 26.07.2019
4613 Clouds 32 1006 45 0 0.63 178.167 16:57 26.07.2019
4614 Clouds 32 1006 45 0 0.63 178.167 16:38 26.07.2019
4615 Clouds 32 1006 45 0 0.63 178.167 16:20 26.07.2019
4616 Clouds 32 1006 45 0 0.63 178.167 15:56 26.07.2019
4617 Clouds 32 1006 45 0 0.63 178.167 15:38 26.07.2019
4618 Clouds 36 1008 31 0 1.38 230.311 15:18 26.07.2019
4619 Clouds 36 1008 31 0 1.38 230.311 14:42 26.07.2019
4620 Clouds 36 1008 31 0 1.38 230.311 14:22 26.07.2019
4621 Clouds 36 1008 31 0 1.38 230.311 13:42 26.07.2019
4622 Clouds 35 1008 33 0 1.19 244.791 13:24 26.07.2019
4623 Clouds 35 1008 33 0 1.19 244.791 12:49 26.07.2019
4624 Clouds 34 1011 39 0 1.21 332.864 12:20 26.07.2019
4625 Clouds 34 1011 39 0 1.21 332.864 11:47 26.07.2019
4626 Clouds 34 1011 39 0 1.21 332.864 11:22 26.07.2019
4627 Clouds 34 1011 39 0 1.21 332.864 10:58 26.07.2019
4628 Clouds 34 1011 39 0 1.21 332.864 10:39 26.07.2019
4629 Clouds 34 1011 39 0 1.21 332.864 10:18 26.07.2019
4630 Clouds 34 1011 39 0 1.21 332.864 09:42 26.07.2019
4631 Clouds 25 1012 67 0 0.53 9.551 09:24 26.07.2019
4632 Clouds 25 1012 66 0 0.56 355.039 08:40 26.07.2019
4633 Clouds 25 1012 66 0 0.56 355.039 08:20 26.07.2019
4634 Clouds 25 1012 66 0 0.56 355.039 07:39 26.07.2019
4635 Clouds 25 1012 66 0 0.56 355.039 07:18 26.07.2019
4636 Clouds 22 1010 74 0 0.81 306.09 05:44 26.07.2019
4637 Clouds 22 1010 74 0 0.81 306.09 04:30 26.07.2019
4638 Clouds 22 1010 74 0 0.81 306.09 03:44 26.07.2019
4639 Clouds 23 1010 72 0 0.62 354.336 01:45 26.07.2019
4640 Clouds 23 1010 72 0 0.59 352.548 01:18 26.07.2019
4641 Clouds 23 1010 72 0 0.59 352.548 00:27 26.07.2019
4642 Clouds 24 1010 64 0 0.19 322.339 23:40 25.07.2019
4643 Clouds 24 1010 64 0 0.19 322.339 23:19 25.07.2019
4644 Clouds 24 1010 64 0 0.19 322.339 22:41 25.07.2019
4645 Clouds 24 1010 64 0 0.19 322.339 22:21 25.07.2019
4646 Clouds 24 1010 64 0 0.19 322.339 21:47 25.07.2019
4647 Clouds 27 1009 56 0 0.31 32.161 21:23 25.07.2019
4648 Clouds 26 1009 57 0 0.16 319.246 20:57 25.07.2019
4649 Clouds 26 1009 57 0 0.16 319.246 20:38 25.07.2019
4650 Clouds 26 1009 57 0 0.16 319.246 20:18 25.07.2019
4651 Clouds 26 1009 57 0 0.16 319.246 19:40 25.07.2019
4652 Clouds 26 1009 57 0 0.16 319.246 19:21 25.07.2019
4653 Clouds 26 1009 57 0 0.16 319.246 18:41 25.07.2019
4654 Clouds 32 1006 44 0 1.05 258.359 18:23 25.07.2019
4655 Clouds 32 1006 44 0 1.05 258.359 17:50 25.07.2019
4656 Clouds 32 1006 44 0 1.05 258.359 17:31 25.07.2019
4657 Clouds 32 1006 44 0 1.05 258.359 16:56 25.07.2019
4658 Clouds 32 1006 44 0 1.05 258.359 16:37 25.07.2019
4659 Clouds 32 1006 44 0 1.05 258.359 16:19 25.07.2019
4660 Clouds 32 1006 44 0 1.05 258.359 15:43 25.07.2019
4661 Clear 36 1008 30 0 1.61 224.723 15:19 25.07.2019
4662 Clear 36 1008 30 0 1.61 224.723 14:42 25.07.2019
4663 Clear 36 1008 30 0 1.61 224.723 14:23 25.07.2019
4664 Clear 36 1008 30 0 1.61 224.723 13:45 25.07.2019
4665 Clear 36 1009 30 0 1.4 232.959 13:26 25.07.2019
4666 Clear 36 1009 30 0 1.4 232.959 12:58 25.07.2019
4667 Clear 36 1009 30 0 1.4 232.959 12:29 25.07.2019
4668 Clear 34 1012 41 0 0.2 98.545 11:47 25.07.2019
4669 Clear 34 1012 41 0 0.2 98.545 11:25 25.07.2019
4670 Clear 34 1012 41 0 0.2 98.545 10:59 25.07.2019
4671 Clear 34 1012 41 0 0.2 98.545 10:37 25.07.2019
4672 Clear 34 1012 41 0 0.2 98.545 10:18 25.07.2019
4673 Clear 34 1012 41 0 0.2 98.545 09:42 25.07.2019
4674 Clear 25 1013 75 0 0.4 46.521 09:23 25.07.2019
4675 Clouds 24 1013 75 0 0.6 12.57 08:42 25.07.2019
4676 Clouds 24 1013 75 0 0.6 12.57 07:56 25.07.2019
4677 Clouds 24 1013 75 0 0.6 12.57 07:34 25.07.2019
4678 Clouds 24 1013 75 0 0.6 12.57 06:43 25.07.2019
4679 Clear 20 1010 95 0 0.83 16.838 05:39 25.07.2019
4680 Clear 20 1010 95 0 0.83 16.838 05:20 25.07.2019
4681 Clear 20 1010 95 0 0.83 16.838 04:36 25.07.2019
4682 Clear 21 1011 93 0 0.79 70.283 01:45 25.07.2019
4683 Clouds 21 1011 93 0 0.74 66.882 01:18 25.07.2019
4684 Clouds 21 1012 90 0 0.66 41.178 00:20 25.07.2019
4685 Clouds 21 1012 90 0 0.66 41.178 23:46 24.07.2019
4686 Clouds 21 1012 90 0 0.66 41.178 23:27 24.07.2019
4687 Clouds 21 1012 90 0 0.66 41.178 22:55 24.07.2019
4688 Clouds 21 1012 90 0 0.66 41.178 22:36 24.07.2019
4689 Clouds 21 1012 90 0 0.66 41.178 22:18 24.07.2019
4690 Clouds 21 1012 90 0 0.66 41.178 21:43 24.07.2019
4691 Clouds 22 1011 87 0 1.04 73.338 21:21 24.07.2019
4692 Clouds 22 1011 87 0 1.04 73.338 21:21 24.07.2019
4693 Clouds 23 1010 84 0 0.74 68.733 20:56 24.07.2019
4694 Clouds 23 1010 84 0 0.74 68.733 20:37 24.07.2019
4695 Clouds 23 1010 84 0 0.74 68.733 20:19 24.07.2019
4696 Clouds 23 1010 84 0 0.74 68.733 19:42 24.07.2019
4697 Clouds 23 1010 84 0 0.74 68.733 19:22 24.07.2019
4698 Clouds 23 1010 84 0 0.74 68.733 18:58 24.07.2019
4699 Clouds 23 1010 84 0 0.74 68.733 18:37 24.07.2019
4700 Rain 26 1008 82 0 0.74 45.329 18:19 24.07.2019
4701 Rain 26 1008 82 0 0.74 45.329 17:42 24.07.2019
4702 Rain 26 1008 82 0 0.74 45.329 17:19 24.07.2019
4703 Rain 26 1008 82 0 0.74 45.329 16:41 24.07.2019
4704 Rain 26 1008 82 0 0.74 45.329 16:21 24.07.2019
4705 Rain 26 1008 82 0 0.74 45.329 15:40 24.07.2019
4706 Rain 25 1009 84 0 1.06 358.643 15:21 24.07.2019
4707 Rain 25 1009 84 0 1.06 358.643 14:50 24.07.2019
4708 Rain 25 1009 84 0 1.06 358.643 14:23 24.07.2019
4709 Rain 25 1009 84 0 1.06 358.643 13:59 24.07.2019
4710 Rain 25 1009 84 0 1.06 358.643 13:36 24.07.2019
4711 Clouds 29 1009 56 0 2.2 27.913 13:18 24.07.2019
4712 Clouds 29 1009 56 0 2.2 27.913 12:46 24.07.2019
4713 Clouds 32 1012 49 0 1.18 336.75 12:24 24.07.2019
4714 Clouds 32 1012 49 0 1.18 336.75 11:38 24.07.2019
4715 Clouds 32 1012 49 0 1.18 336.75 11:19 24.07.2019
4716 Clouds 32 1012 49 0 1.18 336.75 10:43 24.07.2019
4717 Clouds 32 1012 49 0 1.18 336.75 10:24 24.07.2019
4718 Clouds 32 1012 49 0 1.18 336.75 09:45 24.07.2019
4719 Clouds 24 1012 79 0 0.78 16.65 09:24 24.07.2019
4720 Clouds 24 1012 79 0 0.78 16.65 08:56 24.07.2019
4721 Clouds 24 1012 78 0 0.9 32.912 08:30 24.07.2019
4722 Clouds 24 1012 78 0 0.9 32.912 08:30 24.07.2019
4723 Clouds 24 1012 78 0 0.9 32.912 07:51 24.07.2019
4724 Clouds 24 1012 78 0 0.9 32.912 07:24 24.07.2019
4725 Clouds 24 1012 78 0 0.9 32.912 06:29 24.07.2019
4726 Clouds 21 1011 92 0 0.67 30.876 05:33 24.07.2019
4727 Clouds 22 1011 80 0 0.74 60.621 01:59 24.07.2019
4728 Clouds 22 1011 80 0 0.76 55.495 01:29 24.07.2019
4729 Clouds 22 1011 80 0 0.76 55.495 00:57 24.07.2019
4730 Clouds 22 1013 80 0 0.64 339.633 00:22 24.07.2019
4731 Clouds 22 1013 80 0 0.64 339.633 23:42 23.07.2019
4732 Clouds 22 1013 80 0 0.64 339.633 23:23 23.07.2019
4733 Clouds 22 1013 80 0 0.64 339.633 22:40 23.07.2019
4734 Clouds 22 1013 80 0 0.64 339.633 22:20 23.07.2019
4735 Clouds 22 1013 80 0 0.64 339.633 21:58 23.07.2019
4736 Clouds 22 1013 80 0 0.64 339.633 21:40 23.07.2019
4737 Clouds 23 1010 78 0 0.62 107.913 21:21 23.07.2019
4738 Clouds 24 1010 75 0 0.8 0 20:47 23.07.2019
4739 Clouds 24 1010 75 0 0.8 0 20:21 23.07.2019
4740 Clouds 24 1010 75 0 0.8 0 19:42 23.07.2019
4741 Clouds 24 1010 75 0 0.8 0 19:19 23.07.2019
4742 Clouds 24 1010 75 0 0.8 0 18:48 23.07.2019
4743 Clouds 28 1008 63 0 0.74 99.121 18:24 23.07.2019
4744 Clouds 28 1008 63 0 0.74 99.121 17:45 23.07.2019
4745 Clouds 28 1008 63 0 0.74 99.121 17:26 23.07.2019
4746 Clouds 28 1008 63 0 0.74 99.121 16:58 23.07.2019
4747 Clouds 28 1008 63 0 0.74 99.121 16:40 23.07.2019
4748 Clouds 28 1008 63 0 0.74 99.121 16:19 23.07.2019
4749 Clouds 28 1008 63 0 0.74 99.121 15:46 23.07.2019
4750 Clouds 30 1010 52 0 0.09 345.635 15:24 23.07.2019
4751 Clouds 30 1010 52 0 0.09 345.635 14:40 23.07.2019
4752 Clouds 30 1010 52 0 0.09 345.635 14:21 23.07.2019
4753 Clouds 30 1010 52 0 0.09 345.635 13:58 23.07.2019
4754 Clouds 30 1010 52 0 0.09 345.635 13:39 23.07.2019
4755 Rain 32 1010 43 0 1.78 236.693 13:20 23.07.2019
4756 Rain 32 1010 43 0 1.78 236.693 12:48 23.07.2019
4757 Rain 29 1013 69 0 0.83 326.656 12:26 23.07.2019
4758 Rain 29 1013 69 0 0.83 326.656 11:50 23.07.2019
4759 Rain 29 1013 69 0 0.83 326.656 11:32 23.07.2019
4760 Rain 29 1013 69 0 0.83 326.656 10:59 23.07.2019
4761 Rain 29 1013 69 0 0.83 326.656 10:40 23.07.2019
4762 Rain 29 1013 69 0 0.83 326.656 10:20 23.07.2019
4763 Rain 29 1013 69 0 0.83 326.656 09:41 23.07.2019
4764 Clouds 24 1014 77 0 0.69 14.379 09:19 23.07.2019
4765 Clouds 24 1013 78 0 0.92 19.082 08:43 23.07.2019
4766 Clouds 24 1013 78 0 0.92 19.082 08:19 23.07.2019
4767 Clouds 24 1013 78 0 0.92 19.082 07:55 23.07.2019
4768 Clouds 24 1013 78 0 0.92 19.082 07:34 23.07.2019
4769 Clouds 24 1013 78 0 0.92 19.082 06:46 23.07.2019
4770 Clouds 21 1011 91 0 0.74 335.575 06:28 23.07.2019
4771 Clouds 22 1012 87 0 0.79 38.194 02:57 23.07.2019
4772 Clouds 21 1011 89 0 0.82 9.588 01:32 23.07.2019
4773 Clouds 21 1011 89 0 0.82 9.588 00:30 23.07.2019
4774 Clouds 22 1012 85 0 0.96 50.05 23:43 22.07.2019
4775 Clouds 22 1012 85 0 0.96 50.05 23:22 22.07.2019
4776 Clouds 22 1012 85 0 0.96 50.05 22:59 22.07.2019
4777 Clouds 22 1012 85 0 0.96 50.05 22:41 22.07.2019
4778 Clouds 22 1012 85 0 0.96 50.05 22:20 22.07.2019
4779 Clouds 22 1012 85 0 0.96 50.05 21:43 22.07.2019
4780 Clouds 24 1011 75 0 0.88 56.867 21:22 22.07.2019
4781 Clouds 24 1011 69 0 0.36 65.743 20:49 22.07.2019
4782 Clouds 24 1011 69 0 0.36 65.743 20:31 22.07.2019
4783 Clouds 24 1011 69 0 0.36 65.743 19:57 22.07.2019
4784 Clouds 24 1011 69 0 0.36 65.743 19:37 22.07.2019
4785 Clouds 24 1011 69 0 0.36 65.743 19:18 22.07.2019
4786 Clouds 24 1011 69 0 0.36 65.743 18:44 22.07.2019
4787 Clouds 24 1011 69 0 0.36 65.743 18:26 22.07.2019
4788 Clouds 30 1009 50 0 1.57 194.01 17:44 22.07.2019
4789 Clouds 30 1009 50 0 1.57 194.01 17:26 22.07.2019
4790 Clouds 30 1009 50 0 1.57 194.01 16:58 22.07.2019
4791 Clouds 30 1009 50 0 1.57 194.01 16:38 22.07.2019
4792 Clouds 30 1009 50 0 1.57 194.01 16:18 22.07.2019
4793 Clouds 30 1009 50 0 1.57 194.01 15:43 22.07.2019
4794 Clouds 33 1010 40 0 1.44 270.319 15:19 22.07.2019
4795 Clouds 33 1010 40 0 1.44 270.319 14:44 22.07.2019
4796 Clouds 33 1010 40 0 1.44 270.319 14:22 22.07.2019
4797 Clouds 33 1010 40 0 1.44 270.319 13:50 22.07.2019
4798 Clouds 33 1010 40 0 1.44 270.319 13:30 22.07.2019
4799 Clouds 33 1010 40 0 1.44 270.319 12:51 22.07.2019
4800 Clouds 33 1010 40 0 1.44 270.319 12:31 22.07.2019
4801 Clouds 27 1014 67 0 1.22 312.381 11:55 22.07.2019
4802 Clouds 27 1014 67 0 1.22 312.381 11:36 22.07.2019
4803 Clouds 27 1014 67 0 1.22 312.381 11:18 22.07.2019
4804 Clouds 27 1014 67 0 1.22 312.381 10:34 22.07.2019
4805 Clouds 27 1014 67 0 1.22 312.381 09:46 22.07.2019
4806 Clouds 27 1014 67 0 1.22 312.381 09:26 22.07.2019
4807 Rain 22 1014 90 0 0.95 318.531 08:59 22.07.2019
4808 Rain 22 1014 90 0 0.95 318.531 08:38 22.07.2019
4809 Rain 22 1014 90 0 0.95 318.531 08:19 22.07.2019
4810 Rain 22 1014 90 0 0.95 318.531 07:47 22.07.2019
4811 Rain 22 1014 90 0 0.95 318.531 07:27 22.07.2019
4812 Rain 21 1013 91 0 0.76 262.819 05:20 22.07.2019
4813 Clouds 22 1012 81 0 0.52 290.647 02:59 22.07.2019
4814 Clouds 22 1012 83 0 0.49 334.805 00:59 22.07.2019
4815 Clouds 22 1012 83 0 0.49 334.805 00:39 22.07.2019
4816 Clear 23 1013 77 0 0.71 276.511 00:20 22.07.2019
4817 Clear 23 1013 77 0 0.71 276.511 23:46 21.07.2019
4818 Clear 23 1013 77 0 0.71 276.511 22:58 21.07.2019
4819 Clear 23 1013 77 0 0.71 276.511 22:39 21.07.2019
4820 Clear 23 1013 77 0 0.71 276.511 22:20 21.07.2019
4821 Clear 23 1013 77 0 0.71 276.511 21:49 21.07.2019
4822 Clouds 25 1011 65 0 1.33 184.316 21:26 21.07.2019
4823 Clouds 25 1011 65 0 1.33 184.316 20:57 21.07.2019
4824 Clouds 25 1010 66 0 1.42 185.546 20:39 21.07.2019
4825 Clouds 25 1010 66 0 1.42 185.546 20:21 21.07.2019
4826 Clouds 25 1010 66 0 1.42 185.546 19:48 21.07.2019
4827 Clouds 25 1010 66 0 1.42 185.546 19:28 21.07.2019
4828 Clouds 25 1010 66 0 1.42 185.546 18:51 21.07.2019
4829 Clouds 25 1010 66 0 1.42 185.546 18:28 21.07.2019
4830 Clouds 31 1008 48 0 2.06 186.045 17:56 21.07.2019
4831 Clouds 31 1008 48 0 2.06 186.045 17:38 21.07.2019
4832 Clouds 31 1008 48 0 2.06 186.045 17:18 21.07.2019
4833 Clouds 31 1008 48 0 2.06 186.045 16:41 21.07.2019
4834 Clouds 31 1008 48 0 2.06 186.045 16:22 21.07.2019
4835 Clouds 31 1008 48 0 2.06 186.045 15:41 21.07.2019
4836 Clouds 33 1010 41 0 2.14 239.859 15:20 21.07.2019
4837 Clouds 33 1010 41 0 2.14 239.859 15:20 21.07.2019
4838 Clouds 33 1010 41 0 2.14 239.859 14:44 21.07.2019
4839 Clouds 33 1010 41 0 2.14 239.859 14:24 21.07.2019
4840 Clouds 33 1010 41 0 2.14 239.859 13:53 21.07.2019
4841 Clouds 33 1010 41 0 2.14 239.859 13:33 21.07.2019
4842 Clouds 33 1010 40 0 2.17 237.765 12:55 21.07.2019
4843 Clouds 33 1010 40 0 2.17 237.765 12:37 21.07.2019
4844 Clouds 31 1014 48 0 1.27 275.268 12:18 21.07.2019
4845 Clouds 31 1014 48 0 1.27 275.268 11:44 21.07.2019
4846 Clouds 31 1014 48 0 1.27 275.268 11:25 21.07.2019
4847 Clouds 31 1014 48 0 1.27 275.268 10:43 21.07.2019
4848 Clouds 31 1014 48 0 1.27 275.268 10:23 21.07.2019
4849 Clouds 31 1014 48 0 1.27 275.268 09:49 21.07.2019
4850 Clouds 31 1014 48 0 1.27 275.268 09:30 21.07.2019
4851 Clouds 23 1015 81 0 0.43 275.086 08:45 21.07.2019
4852 Clouds 23 1015 81 0 0.43 275.086 08:27 21.07.2019
4853 Clouds 23 1015 81 0 0.43 275.086 07:39 21.07.2019
4854 Clouds 23 1015 81 0 0.43 275.086 06:54 21.07.2019
4855 Clouds 20 1012 94 0 0.91 273.215 05:45 21.07.2019
4856 Clouds 20 1013 94 0 0.89 266.408 02:59 21.07.2019
4857 Clouds 20 1013 93 0 0.86 293.058 01:33 21.07.2019
4858 Clouds 20 1013 93 0 0.86 293.058 00:42 21.07.2019
4859 Clouds 20 1013 93 0 0.86 293.058 00:42 21.07.2019
4860 Clouds 22 1014 92 0 0.83 285.698 00:19 21.07.2019
4861 Clouds 22 1014 92 0 0.83 285.698 23:43 20.07.2019
4862 Clouds 22 1014 92 0 0.83 285.698 23:21 20.07.2019
4863 Clouds 22 1014 92 0 0.83 285.698 22:46 20.07.2019
4864 Clouds 22 1014 92 0 0.83 285.698 22:22 20.07.2019
4865 Clouds 22 1014 92 0 0.83 285.698 21:57 20.07.2019
4866 Clouds 22 1014 92 0 0.83 285.698 21:38 20.07.2019
4867 Rain 23 1013 92 0 0.75 307.908 21:20 20.07.2019
4868 Rain 22 1013 93 0 0.87 286.136 20:41 20.07.2019
4869 Rain 22 1013 93 0 0.87 286.136 20:19 20.07.2019
4870 Rain 22 1013 93 0 0.87 286.136 19:45 20.07.2019
4871 Rain 22 1013 93 0 0.87 286.136 19:45 20.07.2019
4872 Rain 22 1013 93 0 0.87 286.136 19:20 20.07.2019
4873 Rain 22 1013 93 0 0.87 286.136 18:43 20.07.2019
4874 Rain 26 1010 82 0 1.1 309.008 18:20 20.07.2019
4875 Rain 26 1010 82 0 1.1 309.008 17:54 20.07.2019
4876 Rain 26 1010 82 0 1.1 309.008 17:25 20.07.2019
4877 Rain 26 1010 82 0 1.1 309.008 16:44 20.07.2019
4878 Rain 26 1010 82 0 1.1 309.008 16:26 20.07.2019
4879 Rain 26 1010 82 0 1.1 309.008 15:58 20.07.2019
4880 Rain 26 1010 82 0 1.1 309.008 15:38 20.07.2019
4881 Rain 27 1011 77 0 2.17 284.113 15:20 20.07.2019
4882 Rain 27 1011 77 0 2.17 284.113 14:47 20.07.2019
4883 Rain 27 1011 77 0 2.17 284.113 14:28 20.07.2019
4884 Rain 27 1011 77 0 2.17 284.113 13:39 20.07.2019
4885 Rain 27 1011 76 0 1.97 290.307 13:21 20.07.2019
4886 Rain 27 1011 76 0 1.97 290.307 12:59 20.07.2019
4887 Rain 27 1011 76 0 1.97 290.307 12:26 20.07.2019
4888 Rain 26 1013 81 0 1.54 302.856 11:59 20.07.2019
4889 Rain 26 1013 81 0 1.54 302.856 11:37 20.07.2019
4890 Rain 26 1013 81 0 1.54 302.856 11:19 20.07.2019
4891 Rain 26 1013 81 0 1.54 302.856 10:37 20.07.2019
4892 Rain 26 1013 81 0 1.54 302.856 10:18 20.07.2019
4893 Rain 26 1013 81 0 1.54 302.856 10:18 20.07.2019
4894 Rain 26 1013 81 0 1.54 302.856 09:45 20.07.2019
4895 Clouds 24 1014 80 0 1.8 328.796 09:22 20.07.2019
4896 Rain 24 1014 87 0 1.48 318.861 08:46 20.07.2019
4897 Rain 24 1014 87 0 1.48 318.861 08:20 20.07.2019
4898 Rain 24 1014 87 0 1.48 318.861 07:21 20.07.2019
4899 Rain 24 1014 87 0 1.48 318.861 06:42 20.07.2019
4900 Rain 21 1011 96 0 0.81 349.853 04:57 20.07.2019
4901 Rain 21 1011 96 0 0.81 349.853 04:29 20.07.2019
4902 Clouds 22 1011 91 0 0.33 239.244 01:21 20.07.2019
4903 Clouds 22 1011 91 0 0.33 239.244 01:21 20.07.2019
4904 Clouds 22 1011 91 0 0.33 239.244 00:47 20.07.2019
4905 Clouds 23 1012 83 0 1.36 338.026 00:23 20.07.2019
4906 Clouds 23 1012 83 0 1.36 338.026 23:45 19.07.2019
4907 Clouds 23 1012 83 0 1.36 338.026 23:26 19.07.2019
4908 Clouds 23 1012 83 0 1.36 338.026 22:51 19.07.2019
4909 Clouds 23 1012 83 0 1.36 338.026 22:26 19.07.2019
4910 Clouds 23 1012 83 0 1.36 338.026 21:59 19.07.2019
4911 Clouds 23 1012 83 0 1.36 338.026 21:39 19.07.2019
4912 Clouds 25 1009 74 0 0.63 67.555 21:21 19.07.2019
4913 Clouds 25 1009 74 0 0.63 67.555 20:42 19.07.2019
4914 Clouds 25 1009 74 0 0.63 67.555 20:23 19.07.2019
4915 Clouds 25 1009 74 0 0.63 67.555 19:37 19.07.2019
4916 Clouds 25 1009 74 0 0.63 67.555 18:47 19.07.2019
4917 Clouds 27 1008 66 0 1.63 336.326 18:26 19.07.2019
4918 Clouds 27 1008 66 0 1.63 336.326 17:58 19.07.2019
4919 Clouds 27 1008 66 0 1.63 336.326 17:40 19.07.2019
4920 Clouds 27 1008 66 0 1.63 336.326 17:21 19.07.2019
4921 Clouds 27 1008 66 0 1.63 336.326 16:47 19.07.2019
4922 Clouds 27 1008 66 0 1.63 336.326 16:24 19.07.2019
4923 Clouds 27 1008 66 0 1.63 336.326 15:47 19.07.2019
4924 Clouds 29 1012 79 7000 3.1 90 15:29 19.07.2019
4925 Clouds 29 1012 79 7000 3.1 90 14:55 19.07.2019
4926 Clouds 29 1012 79 7000 3.1 90 14:37 19.07.2019
4927 Clouds 36 1009 36 0 0.47 242.071 14:19 19.07.2019
4928 Clouds 36 1009 36 0 0.47 242.071 13:42 19.07.2019
4929 Clouds 30 1014 70 8000 3.1 340 13:22 19.07.2019
4930 Rain 33 1009 40 0 1.31 241.946 12:48 19.07.2019
4931 Clouds 29 1014 70 8000 2.1 340 12:28 19.07.2019
4932 Clouds 29 1014 70 8000 2.1 340 11:47 19.07.2019
4933 Clouds 28 1014 74 8000 3.1 340 11:19 19.07.2019
4934 Clouds 28 1014 74 8000 3.1 340 10:57 19.07.2019
4935 Clouds 28 1014 74 8000 3.1 340 10:57 19.07.2019
4936 Clouds 28 1014 74 8000 3.1 340 10:38 19.07.2019
4937 Clouds 25 1014 88 6000 3.1 340 10:18 19.07.2019
4938 Clouds 25 1014 88 6000 3.1 340 09:43 19.07.2019
4939 Clouds 25 1014 88 6000 3.1 340 09:22 19.07.2019
4940 Mist 24 1014 88 4000 2.1 340 08:50 19.07.2019
4941 Clouds 24 1012 75 0 0.68 301.47 08:28 19.07.2019
4942 Clouds 24 1012 75 0 0.68 301.47 07:33 19.07.2019
4943 Clouds 24 1012 75 0 0.68 301.47 06:37 19.07.2019
4944 Clear 22 1010 77 0 0.57 323.251 05:26 19.07.2019
4945 Clouds 24 1009 72 0 0.79 241.817 01:45 19.07.2019
4946 Clouds 23 1010 73 0 0.54 277.875 00:58 19.07.2019
4947 Clouds 25 1010 68 0 0.84 133.787 00:21 19.07.2019
4948 Clouds 25 1010 68 0 0.84 133.787 23:41 18.07.2019
4949 Clouds 25 1010 68 0 0.84 133.787 23:23 18.07.2019
4950 Clouds 25 1010 68 0 0.84 133.787 22:55 18.07.2019
4951 Clouds 25 1010 68 0 0.84 133.787 22:36 18.07.2019
4952 Clouds 25 1010 68 0 0.84 133.787 22:18 18.07.2019
4953 Clouds 25 1010 68 0 0.84 133.787 21:39 18.07.2019
4954 Clouds 27 1009 59 0 0.08 330.945 21:19 18.07.2019
4955 Clouds 26 1009 59 0 0.41 244.318 20:46 18.07.2019
4956 Clouds 26 1009 59 0 0.41 244.318 20:25 18.07.2019
4957 Clouds 26 1009 59 0 0.41 244.318 19:49 18.07.2019
4958 Clouds 26 1009 59 0 0.41 244.318 19:27 18.07.2019
4959 Clouds 26 1009 59 0 0.41 244.318 18:52 18.07.2019
4960 Haze 30 1012 70 5000 3.1 50 18:23 18.07.2019
4961 Haze 30 1012 70 5000 3.1 50 17:57 18.07.2019
4962 Haze 30 1012 70 5000 3.1 50 17:37 18.07.2019
4963 Haze 31 1011 62 5000 3.1 30 17:19 18.07.2019
4964 Haze 31 1011 62 5000 3.1 30 16:49 18.07.2019
4965 Haze 31 1011 62 5000 3.1 30 16:25 18.07.2019
4966 Haze 30 1011 70 5000 3.1 330 15:57 18.07.2019
4967 Clear 33 1006 41 0 0.75 143.622 15:36 18.07.2019
4968 Clouds 31 1014 62 7000 3.1 50 14:56 18.07.2019
4969 Clouds 31 1014 62 7000 3.1 50 14:38 18.07.2019
4970 Clouds 30 1014 70 7000 3.1 310 14:19 18.07.2019
4971 Clouds 30 1014 70 7000 3.1 310 13:38 18.07.2019
4972 Clouds 30 1014 62 6000 3.1 310 13:19 18.07.2019
4973 Clouds 30 1014 62 6000 3.1 310 12:44 18.07.2019
4974 Clouds 29 1014 70 6000 4.1 330 12:21 18.07.2019
4975 Clouds 29 1014 70 6000 4.1 330 11:51 18.07.2019
4976 Clouds 29 1014 70 6000 4.1 330 11:33 18.07.2019
4977 Clouds 26 1015 83 6000 3.1 310 10:52 18.07.2019
4978 Clouds 26 1015 83 6000 3.1 310 10:23 18.07.2019
4979 Clouds 26 1015 83 6000 2.1 210 09:45 18.07.2019
4980 Clouds 26 1015 83 6000 2.1 210 09:23 18.07.2019
4981 Mist 23 1014 94 4000 2.1 180 08:47 18.07.2019
4982 Clear 25 1012 73 0 0.14 131.299 08:20 18.07.2019
4983 Clear 25 1012 73 0 0.14 131.299 07:39 18.07.2019
4984 Clear 25 1012 73 0 0.14 131.299 07:20 18.07.2019
4985 Clear 25 1012 73 0 0.14 131.299 06:36 18.07.2019
4986 Clear 22 1011 83 0 0.56 313.772 04:21 18.07.2019
4987 Clear 23 1010 78 0 0.49 220.855 02:55 18.07.2019
4988 Clear 23 1010 76 0 0.7 252.131 01:50 18.07.2019
4989 Clear 23 1010 76 0 0.7 252.131 00:35 18.07.2019
4990 Clear 24 1011 73 0 0.15 120.39 23:49 17.07.2019
4991 Clear 24 1011 73 0 0.15 120.39 23:19 17.07.2019
4992 Clear 24 1011 73 0 0.15 120.39 22:55 17.07.2019
4993 Clear 24 1011 73 0 0.15 120.39 22:36 17.07.2019
4994 Clear 24 1011 73 0 0.15 120.39 22:18 17.07.2019
4995 Clear 24 1011 73 0 0.15 120.39 21:43 17.07.2019
4996 Clouds 26 1010 68 0 1.18 211.538 21:25 17.07.2019
4997 Clouds 25 1010 68 0 1.19 220.445 20:58 17.07.2019
4998 Clouds 25 1010 68 0 1.19 220.445 20:39 17.07.2019
4999 Clouds 25 1010 68 0 1.19 220.445 20:20 17.07.2019
5000 Clouds 25 1010 68 0 1.19 220.445 20:20 17.07.2019
5001 Clouds 25 1010 68 0 1.19 220.445 19:43 17.07.2019
5002 Clouds 25 1010 68 0 1.19 220.445 19:22 17.07.2019
5003 Clouds 25 1010 68 0 1.19 220.445 18:59 17.07.2019
5004 Clouds 25 1010 68 0 1.19 220.445 18:40 17.07.2019
5005 Clouds 33 1010 55 10000 3.1 110 18:20 17.07.2019
5006 Clouds 29 1008 59 0 1.06 157.388 17:49 17.07.2019
5007 Clouds 33 1010 52 10000 3.1 90 17:25 17.07.2019
5008 Clouds 33 1010 52 10000 3.1 90 16:45 17.07.2019
5009 Clouds 33 1010 52 10000 3.1 90 16:23 17.07.2019
5010 Clouds 32 1012 59 10000 2.1 180 15:52 17.07.2019
5011 Clouds 32 1012 59 10000 2.1 180 15:32 17.07.2019
5012 Clouds 32 1012 59 10000 2.1 180 15:32 17.07.2019
5013 Clouds 32 1012 59 10000 2.1 180 15:32 17.07.2019
5014 Clouds 32 1013 62 10000 3.1 210 14:59 17.07.2019
5015 Clear 35 1010 35 0 1.24 132.811 14:41 17.07.2019
5016 Clouds 32 1014 62 10000 1.5 0 14:21 17.07.2019
5017 Clouds 32 1014 62 10000 1.5 0 13:59 17.07.2019
5018 Clouds 32 1014 62 10000 1.5 0 13:40 17.07.2019
5019 Clouds 32 1014 62 10000 1.5 0 13:19 17.07.2019
5020 Clear 35 1010 35 0 1.26 135.322 12:39 17.07.2019
5021 Clouds 30 1015 66 8000 1.12 51.148 12:20 17.07.2019
5022 Clouds 32 1013 49 0 1.12 51.148 11:44 17.07.2019
5023 Clouds 32 1013 49 0 1.12 51.148 11:21 17.07.2019
5024 Clouds 32 1013 49 0 1.12 51.148 10:50 17.07.2019
5025 Clouds 32 1013 49 0 1.12 51.148 10:29 17.07.2019
5026 Clouds 32 1013 49 0 1.12 51.148 09:55 17.07.2019
5027 Clouds 32 1013 49 0 1.12 51.148 09:55 17.07.2019
5028 Clouds 32 1013 49 0 1.12 51.148 09:55 17.07.2019
5029 Clouds 32 1013 49 0 1.12 51.148 09:37 17.07.2019
5030 Mist 24 1015 94 3000 2.1 180 09:18 17.07.2019
5031 Clear 24 1014 77 0 1.08 45.187 08:41 17.07.2019
5032 Clear 24 1014 77 0 1.08 45.187 08:21 17.07.2019
5033 Clear 24 1014 77 0 1.08 45.187 07:47 17.07.2019
5034 Clear 24 1014 77 0 1.08 45.187 07:23 17.07.2019
5035 Clear 24 1014 77 0 1.08 45.187 07:23 17.07.2019
5036 Clear 24 1014 77 0 1.08 45.187 06:46 17.07.2019
5037 Clear 24 1014 77 0 1.08 45.187 06:46 17.07.2019
5038 Clear 24 1014 77 0 1.08 45.187 06:28 17.07.2019
5039 Clear 21 1012 86 0 0.73 73.61 05:43 17.07.2019
5040 Clear 21 1012 86 0 0.73 73.61 05:23 17.07.2019
5041 Clear 21 1012 86 0 0.73 73.61 04:29 17.07.2019
5042 Clouds 22 1012 81 0 0.91 118.206 02:47 17.07.2019
5043 Clouds 22 1012 81 0 0.91 118.206 01:58 17.07.2019
5044 Clouds 22 1012 85 0 0.94 82.64 01:24 17.07.2019
5045 Clouds 22 1012 85 0 0.94 82.64 00:44 17.07.2019
5046 Rain 23 1012 79 0 0.61 65.649 00:23 17.07.2019
5047 Rain 23 1012 79 0 0.61 65.649 23:55 16.07.2019
5048 Rain 23 1012 79 0 0.61 65.649 23:29 16.07.2019
5049 Rain 23 1012 79 0 0.61 65.649 22:58 16.07.2019
5050 Rain 23 1012 79 0 0.61 65.649 22:39 16.07.2019
5051 Rain 23 1012 79 0 0.61 65.649 22:19 16.07.2019
5052 Rain 23 1012 79 0 0.61 65.649 21:45 16.07.2019
5053 Clouds 25 1011 70 0 0.46 107.797 21:21 16.07.2019
5054 Clouds 24 1011 75 0 1.1 38.848 20:58 16.07.2019
5055 Clouds 24 1011 75 0 1.1 38.848 20:38 16.07.2019
5056 Clouds 24 1011 75 0 1.1 38.848 20:20 16.07.2019
5057 Clouds 24 1011 75 0 1.1 38.848 19:46 16.07.2019
5058 Clouds 24 1011 75 0 1.1 38.848 19:27 16.07.2019
5059 Clouds 24 1011 75 0 1.1 38.848 18:46 16.07.2019
5060 Clouds 30 1011 66 8000 1.5 0 18:21 16.07.2019
5061 Clouds 30 1011 66 8000 1.5 0 17:58 16.07.2019
5062 Clouds 30 1011 66 8000 1.5 0 17:39 16.07.2019
5063 Clouds 30 1011 66 8000 1.5 0 17:20 16.07.2019
5064 Clouds 31 1009 52 0 0.98 8.791 16:42 16.07.2019
5065 Clouds 30 1012 62 8000 2.1 340 16:20 16.07.2019
5066 Clouds 30 1012 62 8000 2.1 340 15:41 16.07.2019
5067 Clouds 30 1012 62 8000 2.1 340 15:21 16.07.2019
5068 Rain 32 1010 46 0 0.99 11.969 14:58 16.07.2019
5069 Rain 32 1010 46 0 0.99 11.969 14:40 16.07.2019
5070 Clouds 31 1014 58 8000 4.1 340 14:22 16.07.2019
5071 Rain 32 1010 46 0 0.99 11.969 13:45 16.07.2019
5072 Clouds 30 1014 62 8000 4.1 340 13:24 16.07.2019
5073 Clouds 35 1010 39 0 0.8 81.494 12:54 16.07.2019
5074 Clouds 35 1010 39 0 0.8 81.494 12:36 16.07.2019
5075 Clouds 29 1015 70 8000 3.1 340 12:18 16.07.2019
5076 Clouds 30 1013 61 0 1.33 19.225 11:42 16.07.2019
5077 Clouds 28 1016 74 8000 3.1 340 11:22 16.07.2019
5078 Clouds 28 1016 74 8000 3.1 340 10:47 16.07.2019
5079 Clouds 25 1016 83 6000 2.1 340 10:22 16.07.2019
5080 Clouds 25 1016 83 6000 2.1 340 09:59 16.07.2019
5081 Clouds 30 1013 61 0 1.33 19.225 09:40 16.07.2019
5082 Mist 22 1016 94 3500 1.5 0 09:19 16.07.2019
5083 Mist 22 1016 94 3500 1.5 0 08:42 16.07.2019
5084 Mist 22 1016 94 3500 1.5 0 08:20 16.07.2019
5085 Rain 23 1014 92 0 1.38 33.943 07:48 16.07.2019
5086 Rain 23 1014 92 0 1.38 33.943 07:30 16.07.2019
5087 Rain 23 1014 92 0 1.38 33.943 06:49 16.07.2019
5088 Rain 23 1014 92 0 1.38 33.943 06:31 16.07.2019
5089 Rain 21 1011 97 0 0.8 9.238 05:39 16.07.2019
5090 Rain 21 1011 97 0 0.8 9.238 05:21 16.07.2019
5091 Rain 21 1011 97 0 0.8 9.238 04:19 16.07.2019
5092 Rain 21 1012 96 0 0.81 295.038 03:21 16.07.2019
5093 Rain 21 1012 96 0 0.81 295.038 02:31 16.07.2019
5094 Rain 21 1012 96 0 0.81 295.038 01:49 16.07.2019
5095 Rain 21 1012 96 0 0.81 295.038 00:49 16.07.2019
5096 Rain 22 1012 93 0 1.15 34.146 00:22 16.07.2019
5097 Rain 22 1012 93 0 1.15 34.146 23:53 15.07.2019
5098 Rain 22 1012 93 0 1.15 34.146 23:34 15.07.2019
5099 Rain 22 1012 93 0 1.15 34.146 22:55 15.07.2019
5100 Rain 22 1012 93 0 1.15 34.146 22:36 15.07.2019
5101 Rain 22 1012 93 0 1.15 34.146 22:18 15.07.2019
5102 Rain 22 1012 93 0 1.15 34.146 22:18 15.07.2019
5103 Rain 22 1012 93 0 1.15 34.146 21:42 15.07.2019
5104 Clouds 24 1010 78 0 1.17 120.049 21:20 15.07.2019
5105 Clouds 24 1010 78 0 1.17 120.049 20:57 15.07.2019
5106 Clouds 24 1010 78 0 1.17 120.049 20:57 15.07.2019
5107 Clouds 24 1010 78 0 1.17 120.049 20:38 15.07.2019
5108 Clouds 24 1010 78 0 1.17 120.049 20:20 15.07.2019
5109 Clouds 24 1010 78 0 1.17 120.049 19:43 15.07.2019
5110 Clouds 24 1010 78 0 1.17 120.049 19:22 15.07.2019
5111 Clouds 24 1010 78 0 1.17 120.049 18:57 15.07.2019
5112 Clouds 24 1010 78 0 1.17 120.049 18:38 15.07.2019
5113 Clouds 30 1008 60 0 0.41 303.923 18:19 15.07.2019
5114 Clouds 30 1008 60 0 0.41 303.923 17:45 15.07.2019
5115 Clouds 30 1008 60 0 0.41 303.923 17:27 15.07.2019
5116 Clouds 30 1008 60 0 0.41 303.923 16:59 15.07.2019
5117 Clouds 30 1008 60 0 0.41 303.923 16:59 15.07.2019
5118 Clouds 30 1008 60 0 0.41 303.923 16:39 15.07.2019
5119 Clouds 30 1008 60 0 0.41 303.923 16:20 15.07.2019
5120 Clouds 30 1008 60 0 0.41 303.923 15:56 15.07.2019
5121 Clouds 30 1008 60 0 0.41 303.923 15:37 15.07.2019
5122 Clouds 30 1008 60 0 0.41 303.923 15:37 15.07.2019
5123 Clouds 34 1009 43 0 0.66 322.542 15:19 15.07.2019
5124 Clouds 34 1009 43 0 0.66 322.542 14:44 15.07.2019
5125 Clouds 34 1009 43 0 0.66 322.542 14:25 15.07.2019
5126 Clouds 34 1009 43 0 0.66 322.542 13:51 15.07.2019
5127 Clouds 35 1009 41 0 0.16 232.765 13:25 15.07.2019
5128 Clouds 35 1009 41 0 0.16 232.765 12:59 15.07.2019
5129 Clouds 35 1009 41 0 0.16 232.765 12:41 15.07.2019
5130 Clouds 35 1009 41 0 0.16 232.765 12:41 15.07.2019
5131 Clear 30 1012 54 0 1.19 352.095 12:20 15.07.2019
5132 Clear 30 1012 54 0 1.19 352.095 11:42 15.07.2019
5133 Clear 30 1012 54 0 1.19 352.095 11:24 15.07.2019
5134 Clear 30 1012 54 0 1.19 352.095 10:47 15.07.2019
5135 Clear 30 1012 54 0 1.19 352.095 10:28 15.07.2019
5136 Clear 30 1012 54 0 1.19 352.095 09:48 15.07.2019
5137 Clear 30 1012 54 0 1.19 352.095 09:28 15.07.2019
5138 Clear 24 1012 78 0 1.04 356.376 08:59 15.07.2019
5139 Clear 24 1012 78 0 1.04 356.376 08:41 15.07.2019
5140 Clear 24 1012 78 0 1.04 356.376 08:23 15.07.2019
5141 Clear 24 1012 78 0 1.04 356.376 07:39 15.07.2019
5142 Clear 24 1012 78 0 1.04 356.376 07:18 15.07.2019
5143 Clear 24 1012 78 0 1.04 356.376 06:39 15.07.2019
5144 Clear 21 1011 86 0 0.98 355.552 05:44 15.07.2019
5145 Clear 21 1011 86 0 0.98 355.552 05:26 15.07.2019
5146 Clear 21 1011 86 0 0.98 355.552 04:41 15.07.2019
5147 Clear 21 1011 86 0 0.98 355.552 03:48 15.07.2019
5148 Clouds 22 1010 82 0 0.42 171.985 02:44 15.07.2019
5149 Clouds 22 1010 82 0 0.42 171.985 01:43 15.07.2019
5150 Clouds 22 1010 83 0 0.51 159.853 01:24 15.07.2019
5151 Clouds 22 1010 83 0 0.51 159.853 00:51 15.07.2019
5152 Clouds 23 1011 78 0 0.72 321.353 00:19 15.07.2019
5153 Clouds 23 1011 78 0 0.72 321.353 23:55 14.07.2019
5154 Clouds 23 1011 78 0 0.72 321.353 23:36 14.07.2019
5155 Clouds 23 1011 78 0 0.72 321.353 23:18 14.07.2019
5156 Clouds 23 1011 78 0 0.72 321.353 22:40 14.07.2019
5157 Clouds 23 1011 78 0 0.72 321.353 22:40 14.07.2019
5158 Clouds 23 1011 78 0 0.72 321.353 22:22 14.07.2019
5159 Clouds 23 1011 78 0 0.72 321.353 21:59 14.07.2019
5160 Clouds 23 1011 78 0 0.72 321.353 21:41 14.07.2019
5161 Clouds 25 1009 69 0 0.62 312.18 21:18 14.07.2019
5162 Clouds 25 1009 69 0 0.62 312.18 20:55 14.07.2019
5163 Clouds 25 1009 69 0 0.62 312.18 20:55 14.07.2019
5164 Clouds 25 1009 69 0 0.62 312.18 20:36 14.07.2019
5165 Clouds 25 1009 69 0 0.62 312.18 20:18 14.07.2019
5166 Clouds 25 1009 69 0 0.62 312.18 19:43 14.07.2019
5167 Clouds 25 1009 69 0 0.62 312.18 19:24 14.07.2019
5168 Clouds 25 1009 69 0 0.62 312.18 18:57 14.07.2019
5169 Clouds 25 1009 69 0 0.62 312.18 18:38 14.07.2019
5170 Clouds 30 1010 66 8000 0.8 120.334 18:18 14.07.2019
5171 Clouds 30 1010 66 8000 0.8 120.334 17:47 14.07.2019
5172 Clouds 30 1010 66 8000 0.8 120.334 17:20 14.07.2019
5173 Clouds 31 1007 49 0 0.8 120.334 16:46 14.07.2019
5174 Clouds 31 1015 62 10000 3.1 250 16:24 14.07.2019
5175 Clouds 31 1015 62 10000 3.1 250 15:54 14.07.2019
5176 Clouds 31 1015 62 10000 3.1 250 15:29 14.07.2019
5177 Clouds 31 1012 62 10000 4.1 210 14:49 14.07.2019
5178 Clouds 31 1012 62 10000 4.1 210 14:21 14.07.2019
5179 Clouds 30 1013 66 10000 4.1 180 13:49 14.07.2019
5180 Clouds 34 1009 41 0 0.95 125.965 13:26 14.07.2019
5181 Clouds 34 1009 41 0 0.95 125.965 12:59 14.07.2019
5182 Clouds 34 1009 41 0 0.95 125.965 12:40 14.07.2019
5183 Clouds 31 1013 53 0 0.97 151.267 12:21 14.07.2019
5184 Clouds 31 1013 53 0 0.97 151.267 11:52 14.07.2019
5185 Clouds 25 1015 88 7000 4.1 180 11:22 14.07.2019
5186 Clouds 25 1015 88 7000 4.1 180 10:50 14.07.2019
5187 Clouds 31 1013 53 0 0.97 151.267 10:25 14.07.2019
5188 Clouds 31 1013 53 0 0.97 151.267 09:55 14.07.2019
5189 Clouds 31 1013 53 0 0.97 151.267 09:37 14.07.2019
5190 Fog 20 1014 100 50 3.1 180 09:18 14.07.2019
5191 Clear 22 1014 87 0 0.52 180.556 08:41 14.07.2019
5192 Clear 22 1014 87 0 0.52 180.556 07:56 14.07.2019
5193 Clear 22 1014 87 0 0.52 180.556 07:35 14.07.2019
5194 Clear 22 1014 87 0 0.52 180.556 06:29 14.07.2019
5195 Clear 19 1013 97 0 0.61 141.953 05:44 14.07.2019
5196 Clear 19 1013 97 0 0.61 141.953 03:46 14.07.2019
5197 Clear 19 1013 97 0 0.61 141.953 03:27 14.07.2019
5198 Clear 20 1013 95 0 0.78 127.991 02:39 14.07.2019
5199 Clear 20 1013 95 0 0.78 127.991 02:20 14.07.2019
5200 Clear 20 1012 95 0 0.65 116.249 01:31 14.07.2019
5201 Clear 20 1012 95 0 0.65 116.249 00:55 14.07.2019
5202 Clear 20 1012 95 0 0.65 116.249 00:37 14.07.2019
5203 Clear 21 1014 93 0 0.96 110.556 00:19 14.07.2019
5204 Clear 21 1014 93 0 0.96 110.556 23:43 13.07.2019
5205 Clear 21 1014 93 0 0.96 110.556 23:23 13.07.2019
5206 Clear 21 1014 93 0 0.96 110.556 22:43 13.07.2019
5207 Clear 21 1014 93 0 0.96 110.556 22:22 13.07.2019
5208 Clear 21 1014 93 0 0.96 110.556 21:54 13.07.2019
5209 Rain 22 1013 90 0 0.85 86.959 21:23 13.07.2019
5210 Rain 22 1012 90 0 0.76 92.878 20:59 13.07.2019
5211 Rain 22 1012 90 0 0.76 92.878 20:39 13.07.2019
5212 Rain 22 1012 90 0 0.76 92.878 20:21 13.07.2019
5213 Rain 22 1012 90 0 0.76 92.878 19:41 13.07.2019
5214 Rain 22 1012 90 0 0.76 92.878 19:23 13.07.2019
5215 Rain 22 1012 90 0 0.76 92.878 18:40 13.07.2019
5216 Clouds 27 1013 78 10000 3.1 120 18:19 13.07.2019
5217 Clouds 27 1013 78 10000 3.1 120 17:38 13.07.2019
5218 Clouds 27 1013 78 10000 3.1 120 17:19 13.07.2019
5219 Clouds 28 1014 69 10000 3.1 120 16:45 13.07.2019
5220 Clouds 28 1014 69 10000 3.1 120 16:26 13.07.2019
5221 Rain 26 1011 83 0 0.83 83.568 15:50 13.07.2019
5222 Rain 26 1011 83 0 0.83 83.568 15:50 13.07.2019
5223 Clouds 32 1012 46 0 0.9 74.834 15:25 13.07.2019
5224 Clouds 32 1012 46 0 0.9 74.834 14:59 13.07.2019
5225 Clouds 32 1012 46 0 0.9 74.834 14:41 13.07.2019
5226 Clouds 32 1012 46 0 0.9 74.834 14:20 13.07.2019
5227 Clouds 32 1012 46 0 0.9 74.834 13:44 13.07.2019
5228 Rain 29 1012 63 0 1.88 93.683 13:19 13.07.2019
5229 Rain 29 1012 63 0 1.88 93.683 12:42 13.07.2019
5230 Clouds 28 1016 57 0 1.26 38.952 12:23 13.07.2019
5231 Clouds 28 1016 57 0 1.26 38.952 11:57 13.07.2019
5232 Clouds 28 1016 57 0 1.26 38.952 11:37 13.07.2019
5233 Clouds 28 1016 57 0 1.26 38.952 11:18 13.07.2019
5234 Clouds 28 1016 57 0 1.26 38.952 10:40 13.07.2019
5235 Clouds 28 1016 57 0 1.26 38.952 10:22 13.07.2019
5236 Clouds 28 1016 57 0 1.26 38.952 09:42 13.07.2019
5237 Clouds 21 1016 87 0 1.37 54.841 09:24 13.07.2019
5238 Clouds 22 1016 87 0 1.23 54.223 08:55 13.07.2019
5239 Clouds 22 1016 87 0 1.23 54.223 08:27 13.07.2019
5240 Clouds 22 1016 87 0 1.23 54.223 07:50 13.07.2019
5241 Clouds 22 1016 87 0 1.23 54.223 07:23 13.07.2019
5242 Clouds 22 1016 87 0 1.23 54.223 06:29 13.07.2019
5243 Clouds 20 1015 98 0 0.53 119.107 05:47 13.07.2019
5244 Clouds 20 1015 98 0 0.53 119.107 04:40 13.07.2019
5245 Clouds 20 1015 98 0 0.53 119.107 04:20 13.07.2019
5246 Clouds 20 1015 98 0 0.53 119.107 03:41 13.07.2019
5247 Clouds 20 1015 97 0 0.72 64.462 02:54 13.07.2019
5248 Clouds 20 1015 97 0 0.72 64.462 01:53 13.07.2019
5249 Clouds 20 1014 97 0 0.69 66.856 01:21 13.07.2019
5250 Clouds 20 1014 97 0 0.69 66.856 00:58 13.07.2019
5251 Clouds 21 1016 92 0 0.78 31.114 00:21 13.07.2019
5252 Clouds 21 1016 92 0 0.78 31.114 23:50 12.07.2019
5253 Clouds 21 1016 92 0 0.78 31.114 23:50 12.07.2019
5254 Clouds 21 1016 92 0 0.78 31.114 23:30 12.07.2019
5255 Clouds 21 1016 92 0 0.78 31.114 22:58 12.07.2019
5256 Clouds 21 1016 92 0 0.78 31.114 22:40 12.07.2019
5257 Clouds 21 1016 92 0 0.78 31.114 22:21 12.07.2019
5258 Clouds 21 1016 92 0 0.78 31.114 21:42 12.07.2019
5259 Clouds 22 1014 90 0 1.33 23.329 21:19 12.07.2019
5260 Clouds 22 1014 90 0 1.33 23.329 20:46 12.07.2019
5261 Clouds 22 1014 90 0 1.33 23.329 20:23 12.07.2019
5262 Clouds 22 1014 90 0 1.33 23.329 19:44 12.07.2019
5263 Clouds 22 1014 90 0 1.33 23.329 19:26 12.07.2019
5264 Clouds 22 1014 90 0 1.33 23.329 18:57 12.07.2019
5265 Clouds 22 1014 90 0 1.33 23.329 18:36 12.07.2019
5266 Rain 25 1014 83 7000 3.1 340 18:18 12.07.2019
5267 Clouds 26 1011 75 0 2.04 23.139 17:43 12.07.2019
5268 Clouds 25 1014 83 8000 3.1 340 17:23 12.07.2019
5269 Clouds 26 1011 75 0 2.04 23.139 16:37 12.07.2019
5270 Clouds 26 1011 75 0 2.04 23.139 16:19 12.07.2019
5271 Clouds 26 1011 75 0 2.04 23.139 15:40 12.07.2019
5272 Rain 27 1012 67 0 2.47 342.049 15:20 12.07.2019
5273 Rain 27 1012 67 0 2.47 342.049 14:46 12.07.2019
5274 Rain 27 1012 67 0 2.47 342.049 14:46 12.07.2019
5275 Clouds 25 1016 78 8000 3.1 40 14:21 12.07.2019
5276 Clouds 25 1016 78 8000 3.1 40 14:21 12.07.2019
5277 Clouds 25 1016 78 8000 3.1 40 13:54 12.07.2019
5278 Rain 28 1012 63 0 2.17 344.893 13:34 12.07.2019
5279 Rain 28 1012 63 0 2.17 344.893 12:44 12.07.2019
5280 Clouds 24 1017 83 6000 2.27 338.99 12:24 12.07.2019
5281 Clouds 24 1017 83 6000 2.27 338.99 11:59 12.07.2019
5282 Clouds 24 1017 83 6000 2.27 338.99 11:40 12.07.2019
5283 Clouds 24 1017 83 6000 2.27 338.99 11:19 12.07.2019
5284 Rain 25 1015 77 0 2.27 338.99 10:42 12.07.2019
5285 Rain 25 1015 77 0 2.27 338.99 10:23 12.07.2019
5286 Rain 25 1015 77 0 2.27 338.99 09:53 12.07.2019
5287 Mist 21 1017 100 4000 2.27 338.99 09:29 12.07.2019
5288 Mist 21 1017 100 4000 1.94 333.382 08:56 12.07.2019
5289 Mist 21 1017 100 4000 1.94 333.382 08:26 12.07.2019
5290 Clouds 22 1015 93 0 1.94 333.382 07:55 12.07.2019
5291 Clouds 22 1015 93 0 1.94 333.382 07:32 12.07.2019
5292 Clouds 22 1015 93 0 1.94 333.382 06:51 12.07.2019
5293 Clouds 21 1013 97 0 1.78 320.692 06:26 12.07.2019
5294 Clouds 21 1013 97 0 1.78 320.692 05:24 12.07.2019
5295 Rain 21 1013 97 0 1.15 321.418 03:20 12.07.2019
5296 Rain 21 1013 97 0 1.15 321.418 01:39 12.07.2019
5297 Rain 21 1013 98 0 1.18 321.462 00:54 12.07.2019
5298 Rain 21 1014 97 0 1.2 315.507 00:20 12.07.2019
5299 Rain 21 1014 97 0 1.2 315.507 23:43 11.07.2019
5300 Rain 21 1014 97 0 1.2 315.507 23:24 11.07.2019
5301 Rain 21 1014 97 0 1.2 315.507 22:52 11.07.2019
5302 Rain 21 1014 97 0 1.2 315.507 22:26 11.07.2019
5303 Rain 21 1014 97 0 1.2 315.507 22:26 11.07.2019
5304 Rain 21 1014 97 0 1.2 315.507 21:57 11.07.2019
5305 Rain 21 1014 97 0 1.2 315.507 21:38 11.07.2019
5306 Rain 22 1012 93 0 0.85 286.409 21:18 11.07.2019
5307 Rain 22 1012 93 0 0.85 286.409 20:42 11.07.2019
5308 Rain 22 1012 93 0 0.85 286.409 20:23 11.07.2019
5309 Rain 22 1012 93 0 0.85 286.409 19:57 11.07.2019
5310 Rain 22 1012 93 0 0.85 286.409 19:39 11.07.2019
5311 Rain 22 1012 93 0 0.85 286.409 19:20 11.07.2019
5312 Rain 22 1012 93 0 0.85 286.409 18:42 11.07.2019
5313 Clouds 26 1022 78 7000 2.1 280 18:24 11.07.2019
5314 Clouds 26 1022 78 7000 2.1 280 17:49 11.07.2019
5315 Clouds 29 1012 66 7000 2.1 260 17:31 11.07.2019
5316 Clouds 29 1012 66 7000 2.1 260 16:55 11.07.2019
5317 Clouds 29 1012 66 7000 2.1 260 16:37 11.07.2019
5318 Clouds 29 1012 66 7000 2.1 260 16:18 11.07.2019
5319 Rain 26 1009 84 0 1.19 214.355 15:40 11.07.2019
5320 Clouds 26 1013 83 6000 4.1 260 15:20 11.07.2019
5321 Clouds 26 1013 83 6000 4.1 260 14:45 11.07.2019
5322 Clouds 26 1013 83 6000 4.1 260 14:25 11.07.2019
5323 Clouds 25 1014 88 6000 3.1 260 13:56 11.07.2019
5324 Clouds 29 1010 60 0 1.84 266.393 13:37 11.07.2019
5325 Clouds 25 1015 88 6000 4.1 260 13:18 11.07.2019
5326 Clouds 30 1010 57 0 1.99 240.137 12:38 11.07.2019
5327 Clouds 25 1017 73 6000 4.1 260 12:19 11.07.2019
5328 Clouds 25 1017 73 6000 4.1 260 11:45 11.07.2019
5329 Clouds 24 1015 88 6000 4.1 260 11:24 11.07.2019
5330 Clouds 24 1015 88 6000 4.1 260 10:51 11.07.2019
5331 Clouds 24 1015 94 6000 3.1 260 10:20 11.07.2019
5332 Clouds 24 1015 94 6000 3.1 260 09:52 11.07.2019
5333 Clouds 28 1013 63 0 1.42 261.036 09:31 11.07.2019
5334 Clouds 22 1014 90 0 0.68 292.756 08:59 11.07.2019
5335 Clouds 22 1014 90 0 0.68 292.756 08:39 11.07.2019
5336 Clouds 22 1014 90 0 0.68 292.756 08:19 11.07.2019
5337 Clouds 22 1014 90 0 0.68 292.756 07:43 11.07.2019
5338 Clouds 22 1014 90 0 0.68 292.756 06:55 11.07.2019
5339 Clouds 21 1012 96 0 0.74 286.551 06:18 11.07.2019
5340 Clouds 21 1012 96 0 0.74 286.551 05:32 11.07.2019
5341 Clouds 21 1012 96 0 0.74 286.551 04:56 11.07.2019
5342 Clouds 21 1012 96 0 0.74 286.551 03:57 11.07.2019
5343 Clouds 21 1012 94 0 0.73 221.588 02:20 11.07.2019
5344 Clouds 21 1012 94 0 0.62 238.162 00:35 11.07.2019
5345 Clouds 22 1012 92 0 0.62 210.9 23:51 10.07.2019
5346 Clouds 22 1012 92 0 0.62 210.9 23:27 10.07.2019
5347 Clouds 22 1012 92 0 0.62 210.9 22:57 10.07.2019
5348 Clouds 22 1012 92 0 0.62 210.9 22:26 10.07.2019
5349 Clouds 22 1012 92 0 0.62 210.9 21:57 10.07.2019
5350 Clouds 22 1012 92 0 0.62 210.9 21:39 10.07.2019
5351 Rain 22 1011 90 0 0.61 303.04 21:21 10.07.2019
5352 Rain 22 1011 90 0 0.61 303.04 20:47 10.07.2019
5353 Rain 22 1011 90 0 0.61 303.04 20:26 10.07.2019
5354 Rain 22 1011 90 0 0.61 303.04 19:58 10.07.2019
5355 Rain 22 1011 90 0 0.61 303.04 19:40 10.07.2019
5356 Rain 22 1011 90 0 0.61 303.04 19:20 10.07.2019
5357 Rain 22 1011 90 0 0.61 303.04 18:46 10.07.2019
5358 Clouds 28 1011 78 8000 3.1 50 18:24 10.07.2019
5359 Clouds 28 1011 78 8000 3.1 50 17:49 10.07.2019
5360 Clouds 28 1011 78 8000 3.1 50 17:30 10.07.2019
5361 Clouds 28 1011 74 8000 2.1 50 16:47 10.07.2019
5362 Clouds 28 1011 74 8000 2.1 50 16:21 10.07.2019
5363 Clouds 28 1011 74 8000 2.1 50 16:21 10.07.2019
5364 Clouds 28 1012 74 8000 2.1 160 15:47 10.07.2019
5365 Clouds 28 1012 74 8000 2.1 160 15:47 10.07.2019
5366 Clouds 28 1012 74 8000 2.1 160 15:26 10.07.2019
5367 Mist 25 1015 69 4000 4.1 300 14:55 10.07.2019
5368 Mist 25 1015 69 4000 4.1 300 14:37 10.07.2019
5369 Mist 25 1015 69 4000 4.1 300 14:18 10.07.2019
5370 Rain 27 1010 78 0 1.64 146.106 13:38 10.07.2019
5371 Clouds 27 1014 83 8000 2.1 180 13:18 10.07.2019
5372 Clouds 27 1014 83 8000 2.1 180 12:41 10.07.2019
5373 Clouds 27 1014 83 8000 2.1 180 12:21 10.07.2019
5374 Clouds 25 1013 76 0 1.15 197.646 11:50 10.07.2019
5375 Clouds 25 1013 76 0 1.15 197.646 11:22 10.07.2019
5376 Clouds 25 1013 76 0 1.15 197.646 10:58 10.07.2019
5377 Clouds 25 1013 76 0 1.15 197.646 10:24 10.07.2019
5378 Clouds 25 1013 76 0 1.15 197.646 09:59 10.07.2019
5379 Clouds 25 1013 76 0 1.15 197.646 09:41 10.07.2019
5380 Clouds 21 1014 93 0 0.25 51.739 09:19 10.07.2019
5381 Clouds 22 1014 92 0 0.18 35.248 08:49 10.07.2019
5382 Clouds 22 1014 92 0 0.18 35.248 08:26 10.07.2019
5383 Clouds 22 1014 92 0 0.18 35.248 07:51 10.07.2019
5384 Clouds 22 1014 92 0 0.18 35.248 07:24 10.07.2019
5385 Clouds 22 1014 92 0 0.18 35.248 06:40 10.07.2019
5386 Clouds 20 1013 99 0 0.89 294.107 05:42 10.07.2019
5387 Clouds 20 1013 99 0 0.89 294.107 04:33 10.07.2019
5388 Clouds 20 1013 99 0 0.89 294.107 04:33 10.07.2019
5389 Clouds 20 1015 100 6000 1.04 250.435 02:38 10.07.2019
5390 Clouds 20 1013 99 0 1.02 252.204 00:44 10.07.2019
5391 Clouds 22 1015 93 0 0.34 185.86 23:44 09.07.2019
5392 Clouds 22 1015 93 0 0.34 185.86 23:25 09.07.2019
5393 Clouds 22 1015 93 0 0.34 185.86 22:59 09.07.2019
5394 Clouds 22 1015 93 0 0.34 185.86 22:40 09.07.2019
5395 Clouds 22 1015 93 0 0.34 185.86 22:20 09.07.2019
5396 Clouds 22 1015 93 0 0.34 185.86 21:47 09.07.2019
5397 Clouds 22 1013 89 0 0.69 164.043 21:26 09.07.2019
5398 Clouds 23 1012 88 0 0.14 110.225 20:56 09.07.2019
5399 Clouds 23 1012 88 0 0.14 110.225 20:36 09.07.2019
5400 Clouds 21 1013 94 8000 2.1 120 20:18 09.07.2019
5401 Clouds 21 1013 94 8000 2.1 120 19:37 09.07.2019
5402 Clouds 21 1013 94 8000 2.1 120 19:19 09.07.2019
5403 Clouds 23 1012 88 0 0.14 110.225 18:39 09.07.2019
5404 Clouds 22 1013 94 8000 3.1 120 18:19 09.07.2019
5405 Clouds 22 1013 94 8000 3.1 120 17:44 09.07.2019
5406 Clouds 22 1013 94 8000 3.1 120 17:22 09.07.2019
5407 Haze 25 1020 53 5000 8.7 270 16:58 09.07.2019
5408 Haze 25 1020 53 5000 8.7 270 16:40 09.07.2019
5409 Haze 25 1020 53 5000 8.7 270 16:22 09.07.2019
5410 Clouds 27 1010 67 0 0.64 19.678 15:42 09.07.2019
5411 Rain 25 1012 83 0 2.13 287.312 15:23 09.07.2019
5412 Rain 25 1012 83 0 2.13 287.312 14:45 09.07.2019
5413 Thunderstorm 21 1016 100 3000 3.1 30 14:23 09.07.2019
5414 Thunderstorm 21 1016 100 3000 3.1 30 13:56 09.07.2019
5415 Rain 25 1012 83 0 2.13 287.312 13:38 09.07.2019
5416 Rain 28 1012 69 0 0.98 312.226 13:18 09.07.2019
5417 Rain 28 1012 69 0 0.98 312.226 12:39 09.07.2019
5418 Rain 21 1016 98 0 1.59 322.662 12:19 09.07.2019
5419 Rain 21 1016 98 0 1.59 322.662 11:56 09.07.2019
5420 Rain 21 1016 98 0 1.59 322.662 11:37 09.07.2019
5421 Rain 21 1016 98 0 1.59 322.662 11:19 09.07.2019
5422 Rain 21 1016 98 0 1.59 322.662 10:47 09.07.2019
5423 Rain 21 1016 98 0 1.59 322.662 10:25 09.07.2019
5424 Rain 21 1016 98 0 1.59 322.662 09:38 09.07.2019
5425 Rain 23 1015 94 2500 2.1 50 09:20 09.07.2019
5426 Rain 23 1015 94 2500 2.1 50 08:44 09.07.2019
5427 Rain 22 1015 97 0 0.16 277.878 08:19 09.07.2019
5428 Clouds 22 1010 82 0 0.33 4.372 03:49 05.07.2019
5429 Clear 23 1009 78 0 0.63 45.194 03:24 05.07.2019
5430 Clear 23 1009 78 0 0.63 45.194 02:52 05.07.2019
5431 Clear 23 1009 78 0 0.63 45.194 02:26 05.07.2019
5432 Clear 23 1009 78 0 0.63 45.194 01:36 05.07.2019
5433 Clear 23 1010 76 0 0.53 41.553 00:52 05.07.2019
5434 Clear 23 1010 76 0 0.53 41.553 00:32 05.07.2019
5435 Clear 24 1011 72 0 0.67 127.317 23:47 04.07.2019
5436 Clear 24 1011 72 0 0.67 127.317 23:19 04.07.2019
5437 Clear 24 1011 72 0 0.67 127.317 22:43 04.07.2019
5438 Clear 24 1011 72 0 0.67 127.317 22:24 04.07.2019
5439 Clear 24 1011 72 0 0.67 127.317 21:45 04.07.2019
5440 Clear 24 1011 72 0 0.67 127.317 21:26 04.07.2019
5441 Clouds 25 1009 66 0 0.65 109.328 20:59 04.07.2019
5442 Clouds 25 1009 66 0 0.65 109.328 20:38 04.07.2019
5443 Clouds 25 1009 66 0 0.65 109.328 20:20 04.07.2019
5444 Clouds 25 1009 66 0 0.65 109.328 19:42 04.07.2019
5445 Clouds 25 1009 66 0 0.65 109.328 19:22 04.07.2019
5446 Clouds 25 1009 66 0 0.65 109.328 18:56 04.07.2019
5447 Clouds 25 1009 66 0 0.65 109.328 18:37 04.07.2019
5448 Clouds 31 1007 47 0 1.95 156.318 18:18 04.07.2019
5449 Clouds 31 1007 47 0 1.95 156.318 17:43 04.07.2019
5450 Clouds 31 1007 47 0 1.95 156.318 17:19 04.07.2019
5451 Clouds 31 1007 47 0 1.95 156.318 15:57 04.07.2019
5452 Clouds 31 1007 47 0 1.95 156.318 15:39 04.07.2019
5453 Clouds 34 1009 40 0 1.98 171.058 15:19 04.07.2019
5454 Clouds 34 1009 40 0 1.98 171.058 14:44 04.07.2019
5455 Clouds 34 1009 40 0 1.98 171.058 14:25 04.07.2019
5456 Clouds 34 1009 40 0 1.98 171.058 13:58 04.07.2019
5457 Clouds 34 1009 40 0 1.98 171.058 13:39 04.07.2019
5458 Clouds 33 1009 45 0 2.46 129.895 13:21 04.07.2019
5459 Clouds 33 1009 45 0 2.46 129.895 12:40 04.07.2019
5460 Clouds 31 1012 50 0 1.76 54.03 12:21 04.07.2019
5461 Clouds 31 1012 50 0 1.76 54.03 11:57 04.07.2019
5462 Clouds 31 1012 50 0 1.76 54.03 11:37 04.07.2019
5463 Clouds 31 1012 50 0 1.76 54.03 11:19 04.07.2019
5464 Clouds 31 1012 50 0 1.76 54.03 10:40 04.07.2019
5465 Clouds 31 1012 50 0 1.76 54.03 10:19 04.07.2019
5466 Clouds 31 1012 50 0 1.76 54.03 09:41 04.07.2019
5467 Clouds 23 1013 89 0 1.65 45.788 09:21 04.07.2019
5468 Rain 23 1013 90 0 1.74 42.302 08:56 04.07.2019
5469 Rain 23 1013 90 0 1.74 42.302 08:22 04.07.2019
5470 Rain 23 1013 90 0 1.74 42.302 07:43 04.07.2019
5471 Rain 23 1013 90 0 1.74 42.302 07:22 04.07.2019
5472 Rain 23 1013 90 0 1.74 42.302 06:39 04.07.2019
5473 Clouds 22 1011 95 0 1.47 8.334 05:50 04.07.2019
5474 Clouds 22 1011 95 0 1.47 8.334 05:31 04.07.2019
5475 Rain 22 1010 95 0 1.1 145.748 02:41 04.07.2019
5476 Rain 22 1010 95 0 1.1 145.748 01:41 04.07.2019
5477 Rain 22 1010 93 0 0.72 94.651 01:19 04.07.2019
5478 -273 0 0 0 0 0 23:56 03.07.2019
5479 Clouds 24 1011 75 0 1.02 31.928 23:36 03.07.2019
5480 Clouds 24 1011 75 0 1.02 31.928 23:18 03.07.2019
5481 Clouds 24 1011 75 0 1.02 31.928 22:39 03.07.2019
5482 Rain 22 1011 96 0 1.17 62.253 22:21 03.07.2019
5483 Rain 22 1011 96 0 1.17 62.253 21:58 03.07.2019
5484 Rain 22 1011 96 0 1.17 62.253 21:38 03.07.2019
5485 Clouds 24 1009 79 0 0.97 339.182 21:20 03.07.2019
5486 Clouds 24 1009 79 0 0.97 339.182 20:42 03.07.2019
5487 Clouds 24 1009 79 0 0.97 339.182 20:23 03.07.2019
5488 Clouds 24 1009 79 0 0.97 339.182 19:50 03.07.2019
5489 Clouds 24 1009 79 0 0.97 339.182 19:32 03.07.2019
5490 Clouds 24 1009 79 0 0.97 339.182 18:48 03.07.2019
5491 Clouds 24 1009 79 0 0.97 339.182 18:27 03.07.2019
5492 Clouds 32 1007 50 0 0.36 320.52 17:55 03.07.2019
5493 Clouds 32 1007 50 0 0.36 320.52 17:55 03.07.2019
5494 Clouds 32 1007 50 0 0.36 320.52 17:36 03.07.2019
5495 Clouds 32 1007 50 0 0.36 320.52 17:18 03.07.2019
5496 Clouds 32 1007 50 0 0.36 320.52 16:43 03.07.2019
5497 Clouds 32 1007 50 0 0.36 320.52 16:20 03.07.2019
5498 Clouds 32 1007 50 0 0.36 320.52 15:47 03.07.2019
5499 Clouds 32 1007 50 0 0.36 320.52 15:29 03.07.2019
5500 Clouds 36 1007 35 0 0.63 30.401 14:53 03.07.2019
5501 Clouds 36 1007 35 0 0.63 30.401 14:26 03.07.2019
5502 Clouds 36 1007 35 0 0.63 30.401 13:59 03.07.2019
5503 Clouds 37 1007 34 0 0.31 289.542 13:34 03.07.2019
5504 Clouds 37 1007 34 0 0.31 289.542 12:54 03.07.2019
5505 Clouds 32 1011 47 0 1.28 2.947 12:21 03.07.2019
5506 Clouds 32 1011 47 0 1.28 2.947 11:58 03.07.2019
5507 Clouds 32 1011 47 0 1.28 2.947 11:40 03.07.2019
5508 Clouds 32 1011 47 0 1.28 2.947 11:21 03.07.2019
5509 Clouds 32 1011 47 0 1.28 2.947 10:42 03.07.2019
5510 Clouds 32 1011 47 0 1.28 2.947 10:23 03.07.2019
5511 Clouds 32 1011 47 0 1.28 2.947 09:43 03.07.2019
5512 Clouds 25 1011 69 0 0.15 61.543 09:21 03.07.2019
5513 Clouds 25 1011 69 0 0.15 61.543 08:53 03.07.2019
5514 Clouds 25 1011 69 0 0.15 61.543 08:32 03.07.2019
5515 Clear 25 1011 70 0 1.09 34.738 07:57 03.07.2019
5516 Clear 25 1011 70 0 1.09 34.738 07:37 03.07.2019
5517 Clear 25 1011 70 0 1.09 34.738 06:55 03.07.2019
5518 Clear 22 1009 80 0 0.67 15.218 05:56 03.07.2019
5519 Clear 22 1009 80 0 0.67 15.218 05:24 03.07.2019
5520 Clear 22 1009 80 0 0.67 15.218 03:55 03.07.2019
5521 Clouds 23 1009 76 0 0.54 36.806 02:47 03.07.2019
5522 Clouds 22 1009 76 0 0.45 49.868 01:37 03.07.2019
5523 Clouds 22 1009 76 0 0.45 49.868 01:19 03.07.2019
5524 Clouds 22 1009 76 0 0.45 49.868 00:40 03.07.2019
5525 Clouds 24 1010 68 0 0.44 51.975 23:54 02.07.2019
5526 Clouds 24 1010 68 0 0.44 51.975 23:36 02.07.2019
5527 Clouds 24 1010 68 0 0.44 51.975 23:18 02.07.2019
5528 Clouds 24 1010 68 0 0.44 51.975 22:41 02.07.2019
5529 Clouds 24 1010 68 0 0.44 51.975 22:22 02.07.2019
5530 Clouds 24 1010 68 0 0.44 51.975 21:57 02.07.2019
5531 Clouds 24 1010 68 0 0.44 51.975 21:38 02.07.2019
5532 Clouds 26 1008 63 0 0.18 66.168 21:19 02.07.2019
5533 Clouds 26 1007 61 0 0.67 54.592 20:42 02.07.2019
5534 Clouds 26 1007 61 0 0.67 54.592 20:24 02.07.2019
5535 Clouds 26 1007 61 0 0.67 54.592 19:59 02.07.2019
5536 Clouds 26 1007 61 0 0.67 54.592 19:40 02.07.2019
5537 Clouds 26 1007 61 0 0.67 54.592 19:20 02.07.2019
5538 Clouds 26 1007 61 0 0.67 54.592 18:45 02.07.2019
5539 Clouds 33 1006 44 0 0.8 166.104 18:18 02.07.2019
5540 Clouds 33 1006 44 0 0.8 166.104 17:41 02.07.2019
5541 Clouds 33 1006 44 0 0.8 166.104 17:21 02.07.2019
5542 Clouds 33 1006 44 0 0.8 166.104 16:47 02.07.2019
5543 Clouds 33 1006 44 0 0.8 166.104 16:29 02.07.2019
5544 Clouds 33 1006 44 0 0.8 166.104 15:45 02.07.2019
5545 Clouds 36 1008 37 0 0.18 138.604 15:25 02.07.2019
5546 Clouds 36 1008 37 0 0.18 138.604 14:54 02.07.2019
5547 Clouds 36 1008 37 0 0.18 138.604 14:36 02.07.2019
5548 Clouds 36 1008 37 0 0.18 138.604 13:56 02.07.2019
5549 Clouds 35 1008 40 0 0.48 69.204 13:36 02.07.2019
5550 Clouds 35 1008 40 0 0.48 69.204 13:18 02.07.2019
5551 Clouds 35 1008 40 0 0.48 69.204 12:43 02.07.2019
5552 Clouds 30 1011 57 0 1.69 358.778 12:21 02.07.2019
5553 Clouds 30 1011 57 0 1.69 358.778 11:42 02.07.2019
5554 Clouds 30 1011 57 0 1.69 358.778 11:22 02.07.2019
5555 Clouds 30 1011 57 0 1.69 358.778 10:47 02.07.2019
5556 Clouds 30 1011 57 0 1.69 358.778 10:26 02.07.2019
5557 Clouds 30 1011 57 0 1.69 358.778 09:46 02.07.2019
5558 Clouds 24 1012 81 0 1.41 8.457 09:22 02.07.2019
5559 Clouds 24 1012 81 0 1.41 8.457 08:52 02.07.2019
5560 Clouds 24 1012 82 0 1.86 19.73 08:34 02.07.2019
5561 Clouds 24 1012 82 0 1.86 19.73 07:55 02.07.2019
5562 Clouds 24 1012 82 0 1.86 19.73 07:21 02.07.2019
5563 Clouds 24 1012 82 0 1.86 19.73 06:53 02.07.2019
5564 Clouds 24 1012 82 0 1.86 19.73 06:35 02.07.2019
5565 Clouds 22 1010 82 0 0.75 3.538 04:58 02.07.2019
5566 Clouds 24 1010 67 0 1.05 322.264 02:28 02.07.2019
5567 Clouds 25 1011 61 0 0.38 196.699 00:23 02.07.2019
5568 Clouds 25 1011 61 0 0.38 196.699 23:24 01.07.2019
5569 Clouds 25 1011 61 0 0.38 196.699 22:48 01.07.2019
5570 Clouds 25 1011 61 0 0.38 196.699 22:28 01.07.2019
5571 Clouds 25 1011 61 0 0.38 196.699 21:49 01.07.2019
5572 Clouds 25 1011 61 0 0.38 196.699 21:28 01.07.2019
5573 Clouds 26 1009 62 0 0.89 183.994 20:57 01.07.2019
5574 Clouds 26 1009 63 0 0.76 172.856 20:39 01.07.2019
5575 Clouds 26 1009 63 0 0.76 172.856 20:19 01.07.2019
5576 Clouds 26 1009 63 0 0.76 172.856 19:42 01.07.2019
5577 Clouds 26 1009 63 0 0.76 172.856 19:24 01.07.2019
5578 Clouds 26 1009 63 0 0.76 172.856 18:55 01.07.2019
5579 Clouds 26 1009 63 0 0.76 172.856 18:37 01.07.2019
5580 Clouds 33 1007 47 0 1.01 163.453 18:18 01.07.2019
5581 Clouds 33 1007 47 0 1.01 163.453 17:42 01.07.2019
5582 Clouds 33 1007 47 0 1.01 163.453 17:22 01.07.2019
5583 Clouds 33 1007 47 0 1.01 163.453 16:47 01.07.2019
5584 Clouds 33 1007 47 0 1.01 163.453 16:26 01.07.2019
5585 Clouds 33 1007 47 0 1.01 163.453 15:55 01.07.2019
5586 Clouds 33 1007 47 0 1.01 163.453 15:36 01.07.2019
5587 Clouds 34 1008 36 0 2.23 191.883 15:18 01.07.2019
5588 Clouds 34 1008 36 0 2.23 191.883 14:42 01.07.2019
5589 Clouds 34 1008 36 0 2.23 191.883 14:20 01.07.2019
5590 Clouds 34 1008 36 0 2.23 191.883 13:42 01.07.2019
5591 Clouds 34 1008 35 0 1.9 191.369 13:22 01.07.2019
5592 Clouds 34 1008 35 0 1.9 191.369 12:51 01.07.2019
5593 Clouds 34 1008 35 0 1.9 191.369 12:32 01.07.2019
5594 Clouds 34 1012 44 0 0.44 91.174 11:59 01.07.2019
5595 Clouds 34 1012 44 0 0.44 91.174 11:39 01.07.2019
5596 Clouds 34 1012 44 0 0.44 91.174 11:19 01.07.2019
5597 Clouds 34 1012 44 0 0.44 91.174 10:47 01.07.2019
5598 Clouds 34 1012 44 0 0.44 91.174 10:23 01.07.2019
5599 Clouds 34 1012 44 0 0.44 91.174 09:45 01.07.2019
5600 Clouds 34 1012 44 0 0.44 91.174 09:27 01.07.2019
5601 Clouds 25 1012 73 0 0.54 48.604 08:59 01.07.2019
5602 Clouds 24 1013 74 0 0.58 23.499 08:37 01.07.2019
5603 Clouds 24 1013 74 0 0.58 23.499 07:39 01.07.2019
5604 Clouds 24 1013 74 0 0.58 23.499 06:52 01.07.2019
5605 Clouds 22 1011 82 0 0.26 87.357 05:39 01.07.2019
5606 Clouds 22 1011 78 0 0.61 128.306 01:28 01.07.2019
5607 Clouds 22 1011 78 0 0.61 128.306 00:44 01.07.2019
5608 Clouds 24 1012 73 0 1.1 150.631 00:24 01.07.2019
5609 Clouds 24 1012 73 0 1.1 150.631 23:39 30.06.2019
5610 Clouds 24 1012 73 0 1.1 150.631 23:19 30.06.2019
5611 Clouds 24 1012 73 0 1.1 150.631 22:43 30.06.2019
5612 Clouds 24 1012 73 0 1.1 150.631 22:20 30.06.2019
5613 Clouds 24 1012 73 0 1.1 150.631 21:41 30.06.2019
5614 Clouds 25 1010 70 0 1.28 157.841 21:20 30.06.2019
5615 Clouds 25 1010 70 0 1.28 157.841 20:55 30.06.2019
5616 Clouds 25 1010 70 0 1.24 159.954 20:36 30.06.2019
5617 Clouds 25 1010 70 0 1.24 159.954 20:18 30.06.2019
5618 Clouds 25 1010 70 0 1.24 159.954 19:43 30.06.2019
5619 Clouds 25 1010 70 0 1.24 159.954 19:24 30.06.2019
5620 Clear 32 1008 48 0 1.32 180.087 18:26 30.06.2019
5621 Clear 32 1008 48 0 1.32 180.087 17:59 30.06.2019
5622 Clear 32 1008 48 0 1.32 180.087 17:38 30.06.2019
5623 Clear 32 1008 48 0 1.32 180.087 17:18 30.06.2019
5624 Clear 32 1008 48 0 1.32 180.087 16:46 30.06.2019
5625 Clear 32 1008 48 0 1.32 180.087 16:26 30.06.2019
5626 Clear 32 1008 48 0 1.32 180.087 15:38 30.06.2019
5627 Clouds 34 1010 40 0 1.88 171.913 15:19 30.06.2019
5628 Clouds 34 1010 40 0 1.88 171.913 14:51 30.06.2019
5629 Clouds 34 1010 40 0 1.88 171.913 14:30 30.06.2019
5630 Clouds 34 1010 40 0 1.88 171.913 13:48 30.06.2019
5631 Clouds 34 1010 40 0 1.97 171.422 13:29 30.06.2019
5632 Clouds 34 1010 40 0 1.97 171.422 12:53 30.06.2019
5633 Clouds 34 1010 40 0 1.97 171.422 12:29 30.06.2019
5634 Clouds 32 1013 48 0 1.54 140.836 11:58 30.06.2019
5635 Clouds 32 1013 48 0 1.54 140.836 11:39 30.06.2019
5636 Clouds 32 1013 48 0 1.54 140.836 11:20 30.06.2019
5637 Clouds 32 1013 48 0 1.54 140.836 11:20 30.06.2019
5638 Clouds 32 1013 48 0 1.54 140.836 10:54 30.06.2019
5639 Clouds 32 1013 48 0 1.54 140.836 10:36 30.06.2019
5640 Clouds 32 1013 48 0 1.54 140.836 10:18 30.06.2019
5641 Clouds 32 1013 48 0 1.54 140.836 09:42 30.06.2019
5642 Clouds 25 1014 77 0 0.46 32.862 09:20 30.06.2019
5643 Clouds 24 1014 83 0 0.4 95.468 08:40 30.06.2019
5644 Clouds 24 1014 83 0 0.4 95.468 08:21 30.06.2019
5645 Clouds 24 1014 83 0 0.4 95.468 07:47 30.06.2019
5646 Clouds 24 1014 83 0 0.4 95.468 07:24 30.06.2019
5647 Clouds 24 1014 83 0 0.4 95.468 06:37 30.06.2019
5648 Rain 21 1012 93 0 0.93 79.101 03:32 30.06.2019
5649 Rain 21 1012 93 0 0.93 79.101 03:32 30.06.2019
5650 Clouds 22 1012 82 0 0.82 94.7 01:53 30.06.2019
5651 Clouds 23 1012 81 0 0.75 108.046 00:47 30.06.2019
5652 Clouds 24 1012 76 0 0.93 93.998 00:24 30.06.2019
5653 Clouds 24 1012 76 0 0.93 93.998 23:48 29.06.2019
5654 Clouds 24 1012 76 0 0.93 93.998 23:23 29.06.2019
5655 Clouds 24 1012 76 0 0.93 93.998 22:48 29.06.2019
5656 Clouds 24 1012 76 0 0.93 93.998 22:24 29.06.2019
5657 Rain 23 1012 94 0 1.02 87.014 21:55 29.06.2019
5658 Clouds 25 1011 77 0 0.55 71.797 21:25 29.06.2019
5659 Clouds 25 1011 77 0 0.55 71.797 20:56 29.06.2019
5660 Clouds 25 1011 77 0 0.55 71.797 20:36 29.06.2019
5661 Clouds 25 1011 77 0 0.55 71.797 20:18 29.06.2019
5662 Clouds 25 1011 77 0 0.55 71.797 19:41 29.06.2019
5663 Clouds 25 1011 77 0 0.55 71.797 19:21 29.06.2019
5664 Clouds 25 1011 77 0 0.55 71.797 18:47 29.06.2019
5665 Clouds 29 1009 63 0 0.86 241.326 18:24 29.06.2019
5666 Clouds 29 1009 63 0 0.86 241.326 17:38 29.06.2019
5667 Clouds 29 1009 63 0 0.86 241.326 17:19 29.06.2019
5668 Clouds 29 1009 63 0 0.86 241.326 16:43 29.06.2019
5669 Clouds 29 1009 63 0 0.86 241.326 16:25 29.06.2019
5670 Clouds 29 1009 63 0 0.86 241.326 15:33 29.06.2019
5671 Clouds 35 1010 40 0 0.33 260.682 14:59 29.06.2019
5672 Clouds 35 1010 40 0 0.33 260.682 14:40 29.06.2019
5673 Clouds 35 1010 40 0 0.33 260.682 14:21 29.06.2019
5674 Clouds 35 1010 40 0 0.33 260.682 13:43 29.06.2019
5675 Clouds 34 1010 42 0 1.04 229.357 13:24 29.06.2019
5676 Clouds 34 1010 42 0 1.04 229.357 12:42 29.06.2019
5677 Clouds 32 1013 49 0 0.63 329.083 12:23 29.06.2019
5678 Clouds 32 1013 49 0 0.63 329.083 11:48 29.06.2019
5679 Clouds 32 1013 49 0 0.63 329.083 11:28 29.06.2019
5680 Clouds 32 1013 49 0 0.63 329.083 10:52 29.06.2019
5681 Clouds 32 1013 49 0 0.63 329.083 10:26 29.06.2019
5682 Clouds 32 1013 49 0 0.63 329.083 09:58 29.06.2019
5683 Clouds 24 1014 75 0 0.46 327.113 09:22 29.06.2019
5684 Clouds 24 1014 75 0 0.47 6.974 08:36 29.06.2019
5685 Clouds 24 1014 75 0 0.47 6.974 07:46 29.06.2019
5686 Clouds 24 1014 75 0 0.47 6.974 07:18 29.06.2019
5687 Clouds 24 1014 75 0 0.47 6.974 06:40 29.06.2019
5688 Clouds 20 1012 87 0 0.49 294.848 06:19 29.06.2019
5689 Clouds 21 1013 84 0 0.47 349.629 02:25 29.06.2019
5690 Clouds 21 1012 86 0 0.39 354.753 00:57 29.06.2019
5691 Clouds 23 1013 82 0 0.94 296.1 23:55 28.06.2019
5692 Clouds 23 1013 82 0 0.94 296.1 23:22 28.06.2019
5693 Clouds 23 1013 82 0 0.94 296.1 22:50 28.06.2019
5694 Clouds 23 1013 82 0 0.94 296.1 22:27 28.06.2019
5695 Clouds 23 1013 82 0 0.94 296.1 21:46 28.06.2019
5696 Clouds 24 1012 77 0 0.59 354.867 21:20 28.06.2019
5697 Clear 24 1012 81 0 1.02 316.187 20:43 28.06.2019
5698 Clear 24 1012 81 0 1.02 316.187 20:20 28.06.2019
5699 Clear 24 1012 81 0 1.02 316.187 19:43 28.06.2019
5700 Clear 24 1012 81 0 1.02 316.187 19:24 28.06.2019
5701 Clear 24 1012 81 0 1.02 316.187 18:43 28.06.2019
5702 Clear 30 1010 57 0 0.8 227.997 18:22 28.06.2019
5703 Clear 30 1010 57 0 0.8 227.997 17:56 28.06.2019
5704 Clear 30 1010 57 0 0.8 227.997 17:56 28.06.2019
5705 Clear 30 1010 57 0 0.8 227.997 17:29 28.06.2019
5706 Clear 30 1010 57 0 0.8 227.997 16:49 28.06.2019
5707 Clear 30 1010 57 0 0.8 227.997 16:24 28.06.2019
5708 Clear 30 1010 57 0 0.8 227.997 15:48 28.06.2019
5709 Clouds 32 1011 48 0 0.72 261.567 15:22 28.06.2019
5710 Clouds 32 1011 48 0 0.72 261.567 14:43 28.06.2019
5711 Clouds 32 1011 48 0 0.72 261.567 14:43 28.06.2019
5712 Clouds 32 1011 48 0 0.72 261.567 14:22 28.06.2019
5713 Clouds 32 1011 48 0 0.72 261.567 13:51 28.06.2019
5714 Clouds 31 1011 49 0 1.2 232.528 13:30 28.06.2019
5715 Clouds 31 1011 49 0 1.2 232.528 12:58 28.06.2019
5716 Clouds 31 1011 49 0 1.2 232.528 12:40 28.06.2019
5717 Rain 25 1015 79 0 0.57 312.219 11:50 28.06.2019
5718 Rain 25 1015 79 0 0.57 312.219 11:22 28.06.2019
5719 Rain 25 1015 79 0 0.57 312.219 10:44 28.06.2019
5720 Rain 25 1015 79 0 0.57 312.219 10:44 28.06.2019
5721 Rain 25 1015 79 0 0.57 312.219 10:21 28.06.2019
5722 Rain 25 1015 79 0 0.57 312.219 09:47 28.06.2019
5723 Rain 25 1015 79 0 0.57 312.219 09:29 28.06.2019
5724 Rain 21 1015 97 0 0.22 119.386 08:45 28.06.2019
5725 Rain 21 1015 97 0 0.22 119.386 08:25 28.06.2019
5726 Rain 21 1015 97 0 0.22 119.386 07:46 28.06.2019
5727 Rain 21 1015 97 0 0.22 119.386 06:57 28.06.2019
5728 Rain 20 1013 99 0 0.81 320.951 05:42 28.06.2019
5729 Rain 20 1014 98 0 0.82 258.979 01:22 28.06.2019
5730 Rain 20 1014 98 0 0.82 258.979 00:33 28.06.2019
5731 Rain 20 1015 98 0 1.58 267.821 23:48 27.06.2019
5732 Rain 20 1015 98 0 1.58 267.821 23:25 27.06.2019
5733 Rain 20 1015 98 0 1.58 267.821 22:55 27.06.2019
5734 Rain 20 1015 98 0 1.58 267.821 22:36 27.06.2019
5735 Rain 20 1015 98 0 1.58 267.821 22:18 27.06.2019
5736 Rain 20 1015 98 0 1.58 267.821 21:47 27.06.2019
5737 Rain 20 1015 98 0 1.58 267.821 21:29 27.06.2019
5738 Clouds 21 1014 94 0 1.28 211.072 20:55 27.06.2019
5739 Clouds 21 1014 94 0 1.28 211.072 20:36 27.06.2019
5740 Clouds 21 1014 94 0 1.28 211.072 20:18 27.06.2019
5741 Clouds 21 1014 94 0 1.28 211.072 19:41 27.06.2019
5742 Clouds 21 1014 94 0 1.28 211.072 19:23 27.06.2019
5743 Clouds 21 1014 94 0 1.28 211.072 18:42 27.06.2019
5744 Clouds 23 1012 85 0 1.61 264.091 18:19 27.06.2019
5745 Clouds 23 1012 85 0 1.61 264.091 17:43 27.06.2019
5746 Clouds 23 1012 85 0 1.61 264.091 17:22 27.06.2019
5747 Clouds 23 1012 85 0 1.61 264.091 16:39 27.06.2019
5748 Clouds 23 1012 85 0 1.61 264.091 16:19 27.06.2019
5749 Clouds 23 1012 85 0 1.61 264.091 15:51 27.06.2019
5750 Clouds 23 1012 85 0 1.61 264.091 15:31 27.06.2019
5751 Rain 23 1013 90 0 2.33 270.074 14:57 27.06.2019
5752 Rain 23 1013 90 0 2.33 270.074 14:36 27.06.2019
5753 Rain 23 1013 90 0 2.33 270.074 14:18 27.06.2019
5754 Rain 23 1013 90 0 2.33 270.074 13:42 27.06.2019
5755 Rain 23 1013 87 0 2.62 263.926 13:24 27.06.2019
5756 Rain 23 1013 87 0 2.62 263.926 12:43 27.06.2019
5757 Rain 23 1015 92 0 1.48 229.982 12:23 27.06.2019
5758 Rain 23 1015 92 0 1.48 229.982 11:45 27.06.2019
5759 Rain 23 1015 92 0 1.48 229.982 11:22 27.06.2019
5760 Rain 23 1015 92 0 1.48 229.982 10:56 27.06.2019
5761 Rain 23 1015 92 0 1.48 229.982 10:36 27.06.2019
5762 Rain 23 1015 92 0 1.48 229.982 10:18 27.06.2019
5763 Rain 23 1015 92 0 1.48 229.982 10:18 27.06.2019
5764 Rain 23 1015 92 0 1.48 229.982 09:38 27.06.2019
5765 Rain 22 1014 95 0 0.96 293.427 09:20 27.06.2019
5766 Rain 21 1015 97 0 0.93 284.769 08:46 27.06.2019
5767 Rain 21 1015 97 0 0.93 284.769 08:46 27.06.2019
5768 Rain 21 1015 97 0 0.93 284.769 08:26 27.06.2019
5769 Rain 21 1015 97 0 0.93 284.769 07:40 27.06.2019
5770 Rain 21 1015 97 0 0.93 284.769 06:56 27.06.2019
5771 Rain 21 1013 98 0 0.66 204.466 06:30 27.06.2019
5772 Rain 21 1013 98 0 0.66 204.466 03:50 27.06.2019
5773 Rain 21 1012 97 0 0.71 290.189 02:41 27.06.2019
5774 Rain 21 1012 97 0 1.04 284.811 01:19 27.06.2019
5775 Rain 21 1012 97 0 1.04 284.811 00:48 27.06.2019
5776 Rain 22 1014 94 0 0.56 328.179 00:26 27.06.2019
5777 Rain 22 1014 94 0 0.56 328.179 23:48 26.06.2019
5778 Rain 22 1014 94 0 0.56 328.179 23:22 26.06.2019
5779 Rain 22 1014 94 0 0.56 328.179 22:57 26.06.2019
5780 Rain 22 1014 94 0 0.56 328.179 22:38 26.06.2019
5781 Rain 22 1014 94 0 0.56 328.179 22:18 26.06.2019
5782 Rain 22 1014 94 0 0.56 328.179 21:41 26.06.2019
5783 Rain 22 1012 94 0 0.7 5.638 21:20 26.06.2019
5784 Clouds 23 1012 84 0 0.74 313.744 20:51 26.06.2019
5785 Clouds 23 1012 84 0 0.74 313.744 20:31 26.06.2019
5786 Clouds 23 1012 84 0 0.74 313.744 20:00 26.06.2019
5787 Clouds 23 1012 84 0 0.74 313.744 19:40 26.06.2019
5788 Clouds 23 1012 84 0 0.74 313.744 19:22 26.06.2019
5789 Clouds 23 1012 84 0 0.74 313.744 18:45 26.06.2019
5790 Clouds 29 1009 61 0 1.87 310.398 18:22 26.06.2019
5791 Clouds 29 1009 61 0 1.87 310.398 17:54 26.06.2019
5792 Clouds 29 1009 61 0 1.87 310.398 17:27 26.06.2019
5793 Clouds 29 1009 61 0 1.87 310.398 16:52 26.06.2019
5794 Clouds 29 1009 61 0 1.87 310.398 16:30 26.06.2019
5795 Clouds 29 1009 61 0 1.87 310.398 15:58 26.06.2019
5796 Clouds 29 1009 61 0 1.87 310.398 15:30 26.06.2019
5797 Clouds 31 1010 56 0 0.83 347.606 14:58 26.06.2019
5798 -273 0 0 0 0 0 14:37 26.06.2019
5799 Clouds 31 1010 56 0 0.83 347.606 14:18 26.06.2019
5800 Clouds 31 1010 56 0 0.83 347.606 13:39 26.06.2019
5801 Clouds 30 1011 58 0 1.17 326.513 13:19 26.06.2019
5802 Clouds 30 1011 58 0 1.17 326.513 12:40 26.06.2019
5803 Clouds 24 1014 87 0 1.27 41.476 12:21 26.06.2019
5804 Clouds 24 1014 87 0 1.27 41.476 11:42 26.06.2019
5805 Clouds 24 1014 87 0 1.27 41.476 11:19 26.06.2019
5806 Clouds 24 1014 87 0 1.27 41.476 10:41 26.06.2019
5807 Clouds 24 1014 87 0 1.27 41.476 10:21 26.06.2019
5808 Clouds 24 1014 87 0 1.27 41.476 09:37 26.06.2019
5809 Rain 21 1014 97 0 1.01 36.542 09:18 26.06.2019
5810 Rain 21 1014 97 0 1.01 36.542 08:39 26.06.2019
5811 Clouds 21 1014 97 0 1.16 349.165 08:19 26.06.2019
5812 Clouds 21 1014 97 0 1.16 349.165 07:43 26.06.2019
5813 Clouds 21 1014 97 0 1.16 349.165 06:34 26.06.2019
5814 Clouds 21 1012 98 0 1.01 1.762 03:52 26.06.2019
5815 Clouds 21 1011 97 0 1.02 4.274 00:57 26.06.2019
5816 Rain 21 1014 98 0 0.25 18.869 00:19 26.06.2019
5817 Rain 21 1014 98 0 0.25 18.869 23:41 25.06.2019
5818 Rain 21 1014 98 0 0.25 18.869 23:23 25.06.2019
5819 Rain 21 1014 98 0 0.25 18.869 22:55 25.06.2019
5820 Rain 21 1014 98 0 0.25 18.869 22:37 25.06.2019
5821 Rain 21 1014 98 0 0.25 18.869 22:18 25.06.2019
5822 Rain 21 1014 98 0 0.25 18.869 21:37 25.06.2019
5823 Rain 21 1013 97 0 1.26 50.463 21:19 25.06.2019
5824 Rain 22 1012 95 0 1.48 33.915 20:38 25.06.2019
5825 Rain 22 1012 95 0 1.48 33.915 20:38 25.06.2019
5826 Rain 22 1012 95 0 1.48 33.915 20:19 25.06.2019
5827 Rain 22 1012 95 0 1.48 33.915 19:45 25.06.2019
5828 Rain 22 1012 95 0 1.48 33.915 19:22 25.06.2019
5829 Rain 22 1012 95 0 1.48 33.915 18:43 25.06.2019
5830 Rain 24 1009 93 0 1.75 75.598 18:25 25.06.2019
5831 -273 0 0 0 0 0 17:51 25.06.2019
5832 -273 0 0 0 0 0 17:51 25.06.2019
5833 -273 0 0 0 0 0 17:51 25.06.2019
5834 -273 0 0 0 0 0 17:51 25.06.2019
5835 -273 0 0 0 0 0 17:29 25.06.2019
5836 Rain 24 1009 93 0 1.75 75.598 16:57 25.06.2019
5837 Rain 24 1009 93 0 1.75 75.598 16:38 25.06.2019
5838 Rain 24 1009 93 0 1.75 75.598 16:19 25.06.2019
5839 Rain 24 1009 93 0 1.75 75.598 15:40 25.06.2019
5840 Rain 28 1009 76 0 1.36 331.831 15:21 25.06.2019
5841 Rain 28 1009 76 0 1.36 331.831 14:53 25.06.2019
5842 Rain 28 1009 76 0 1.36 331.831 14:33 25.06.2019
5843 Rain 28 1009 76 0 1.36 331.831 13:45 25.06.2019
5844 Rain 31 1009 57 0 1.57 304.923 13:26 25.06.2019
5845 Rain 31 1009 57 0 1.57 304.923 12:43 25.06.2019
5846 Rain 28 1011 77 0 1.04 306.452 12:24 25.06.2019
5847 Rain 28 1011 77 0 1.04 306.452 11:48 25.06.2019
5848 Rain 28 1011 77 0 1.04 306.452 11:26 25.06.2019
5849 Rain 28 1011 77 0 1.04 306.452 10:59 25.06.2019
5850 Rain 28 1011 77 0 1.04 306.452 10:38 25.06.2019
5851 Rain 28 1011 77 0 1.04 306.452 10:19 25.06.2019
5852 Rain 28 1011 77 0 1.04 306.452 09:40 25.06.2019
5853 Rain 24 1013 87 0 0.26 301.378 09:22 25.06.2019
5854 Rain 24 1013 87 0 0.26 301.378 09:00 25.06.2019
5855 Rain 24 1013 87 0 0.26 301.378 08:32 25.06.2019
5856 Clouds 24 1013 83 0 0.56 328.861 07:58 25.06.2019
5857 Clouds 24 1013 83 0 0.56 328.861 07:36 25.06.2019
5858 Clouds 24 1013 83 0 0.56 328.861 06:52 25.06.2019
5859 Rain 21 1010 93 0 0.92 289.066 06:25 25.06.2019
5860 Clear 22 1010 88 0 0.47 13.977 02:45 25.06.2019
5861 Clear 22 1010 86 0 0.34 51.964 01:26 25.06.2019
5862 Clear 22 1010 86 0 0.34 51.964 00:28 25.06.2019
5863 Clear 23 1011 83 0 0.13 60.199 23:53 24.06.2019
5864 Clear 23 1011 83 0 0.13 60.199 23:33 24.06.2019
5865 Clear 23 1011 83 0 0.13 60.199 22:59 24.06.2019
5866 Clear 23 1011 83 0 0.13 60.199 22:38 24.06.2019
5867 Clear 23 1011 83 0 0.13 60.199 22:18 24.06.2019
5868 Clear 23 1011 83 0 0.13 60.199 21:38 24.06.2019
5869 Rain 25 1010 76 0 0.48 279.987 21:18 24.06.2019
5870 Rain 25 1010 76 0 0.48 279.987 20:54 24.06.2019
5871 Rain 26 1009 72 0 0.49 327.146 20:36 24.06.2019
5872 Rain 26 1009 72 0 0.49 327.146 20:18 24.06.2019
5873 Rain 26 1009 72 0 0.49 327.146 19:41 24.06.2019
5874 Rain 26 1009 72 0 0.49 327.146 19:21 24.06.2019
5875 Rain 26 1009 72 0 0.49 327.146 18:43 24.06.2019
5876 Rain 30 1007 59 0 0.32 166.978 18:24 24.06.2019
5877 Rain 30 1007 59 0 0.32 166.978 17:38 24.06.2019
5878 Rain 30 1007 59 0 0.32 166.978 17:19 24.06.2019
5879 Rain 30 1007 59 0 0.32 166.978 16:45 24.06.2019
5880 Rain 30 1007 59 0 0.32 166.978 16:20 24.06.2019
5881 Rain 30 1007 59 0 0.32 166.978 15:46 24.06.2019
5882 Rain 31 1009 55 0 0.93 277.171 15:25 24.06.2019
5883 Rain 31 1009 55 0 0.93 277.171 14:39 24.06.2019
5884 Rain 31 1009 55 0 0.93 277.171 14:21 24.06.2019
5885 Rain 31 1009 55 0 0.93 277.171 13:44 24.06.2019
5886 Rain 28 1009 77 0 1.07 270.373 13:23 24.06.2019
5887 Rain 28 1009 77 0 1.07 270.373 12:42 24.06.2019
5888 Rain 28 1012 75 0 0.22 261.254 12:21 24.06.2019
5889 Rain 28 1012 75 0 0.22 261.254 11:45 24.06.2019
5890 Rain 28 1012 75 0 0.22 261.254 11:27 24.06.2019
5891 Rain 28 1012 75 0 0.22 261.254 10:53 24.06.2019
5892 Rain 28 1012 75 0 0.22 261.254 10:53 24.06.2019
5893 Rain 28 1012 75 0 0.22 261.254 10:34 24.06.2019
5894 -273 0 0 0 0 0 09:57 24.06.2019
5895 -273 0 0 0 0 0 09:57 24.06.2019
5896 Rain 28 1012 75 0 0.22 261.254 09:39 24.06.2019
5897 Rain 23 1013 91 0 0.33 46.219 09:18 24.06.2019
5898 Rain 23 1013 91 0 0.33 46.219 08:36 24.06.2019
5899 Clouds 25 1013 74 0 0.31 131.54 07:59 24.06.2019
5900 Clouds 25 1013 74 0 0.31 131.54 07:40 24.06.2019
5901 Clouds 25 1013 74 0 0.31 131.54 07:21 24.06.2019
5902 Clear 22 1011 85 0 0.34 350.903 06:23 24.06.2019
5903 Clear 22 1011 85 0 0.34 350.903 05:40 24.06.2019
5904 Clear 22 1011 85 0 0.34 350.903 04:43 24.06.2019
5905 Clear 22 1011 85 0 0.34 350.903 03:48 24.06.2019
5906 Clouds 23 1011 81 0 0.74 299.927 02:47 24.06.2019
5907 Clouds 23 1011 81 0 0.74 299.927 01:55 24.06.2019
5908 Clouds 22 1011 82 0 0.92 338.199 01:33 24.06.2019
5909 Clouds 22 1011 82 0 0.92 338.199 00:50 24.06.2019
5910 Clouds 24 1012 75 0 0.39 308.591 00:20 24.06.2019
5911 Clouds 24 1012 75 0 0.39 308.591 23:48 23.06.2019
5912 Clouds 24 1012 75 0 0.39 308.591 23:48 23.06.2019
5913 Clouds 24 1012 75 0 0.39 308.591 23:28 23.06.2019
5914 Clouds 24 1012 75 0 0.39 308.591 23:28 23.06.2019
5915 Clouds 24 1012 75 0 0.39 308.591 22:58 23.06.2019
5916 Clouds 24 1012 75 0 0.39 308.591 22:39 23.06.2019
5917 Clouds 24 1012 75 0 0.39 308.591 22:19 23.06.2019
5918 Clouds 24 1012 75 0 0.39 308.591 21:41 23.06.2019
5919 Clouds 25 1010 71 0 0.65 236.115 21:22 23.06.2019
5920 Clouds 25 1010 71 0 0.65 236.115 20:51 23.06.2019
5921 Clouds 25 1010 70 0 1.08 267.238 20:29 23.06.2019
5922 Clouds 25 1010 70 0 1.08 267.238 19:54 23.06.2019
5923 Clouds 25 1010 70 0 1.08 267.238 19:36 23.06.2019
5924 Clouds 25 1010 70 0 1.08 267.238 19:18 23.06.2019
5925 Clouds 25 1010 70 0 1.08 267.238 18:41 23.06.2019
5926 Clouds 31 1008 50 0 1.21 243.435 18:19 23.06.2019
5927 Clouds 31 1008 50 0 1.21 243.435 17:41 23.06.2019
5928 Clouds 31 1008 50 0 1.21 243.435 17:21 23.06.2019
5929 Clouds 31 1008 50 0 1.21 243.435 16:44 23.06.2019
5930 Clouds 31 1008 50 0 1.21 243.435 16:44 23.06.2019
5931 Clouds 31 1008 50 0 1.21 243.435 16:24 23.06.2019
5932 Clouds 31 1008 50 0 1.21 243.435 15:43 23.06.2019
5933 Clouds 31 1009 46 0 1.28 236.768 15:24 23.06.2019
5934 Clouds 31 1009 46 0 1.28 236.768 14:59 23.06.2019
5935 Clouds 31 1009 46 0 1.28 236.768 14:37 23.06.2019
5936 Clouds 31 1009 46 0 1.28 236.768 14:19 23.06.2019
5937 Clouds 31 1009 46 0 1.28 236.768 13:42 23.06.2019
5938 Clouds 32 1009 41 0 1.32 238.455 13:20 23.06.2019
5939 Clouds 32 1009 41 0 1.32 238.455 12:56 23.06.2019
5940 Clouds 32 1009 41 0 1.32 238.455 12:37 23.06.2019
5941 Clouds 33 1013 45 0 0.47 256.969 12:18 23.06.2019
5942 Clouds 33 1013 45 0 0.47 256.969 11:44 23.06.2019
5943 Clouds 33 1013 45 0 0.47 256.969 11:24 23.06.2019
5944 Clouds 33 1013 45 0 0.47 256.969 10:47 23.06.2019
5945 Clouds 33 1013 45 0 0.47 256.969 10:21 23.06.2019
5946 Clouds 33 1013 45 0 0.47 256.969 09:54 23.06.2019
5947 Clouds 25 1013 76 0 0.38 145.008 09:22 23.06.2019
5948 Clouds 25 1013 76 0 0.38 145.008 08:46 23.06.2019
5949 Clouds 23 1013 87 0 0.22 114.614 08:27 23.06.2019
5950 Clouds 23 1013 87 0 0.22 114.614 07:55 23.06.2019
5951 Clouds 23 1013 87 0 0.22 114.614 07:55 23.06.2019
5952 Clouds 23 1013 87 0 0.22 114.614 07:25 23.06.2019
5953 Clouds 23 1013 87 0 0.22 114.614 06:55 23.06.2019
5954 Clouds 22 1011 83 0 0.62 10.784 05:59 23.06.2019
5955 Clouds 22 1011 83 0 0.62 10.784 04:38 23.06.2019
5956 Clouds 23 1012 81 0 0.26 144.953 02:24 23.06.2019
5957 Clouds 23 1012 81 0 0.26 144.953 01:37 23.06.2019
5958 Clouds 23 1011 81 0 0.15 7.815 00:37 23.06.2019
5959 Clouds 22 1013 84 0 0.32 48.631 23:58 22.06.2019
5960 Clouds 22 1013 84 0 0.32 48.631 23:39 22.06.2019
5961 Clouds 22 1013 84 0 0.32 48.631 23:20 22.06.2019
5962 Clouds 22 1013 84 0 0.32 48.631 22:45 22.06.2019
5963 Clouds 22 1013 84 0 0.32 48.631 22:24 22.06.2019
5964 Clouds 22 1013 84 0 0.32 48.631 21:41 22.06.2019
5965 Clouds 23 1012 80 0 0.88 262.479 21:20 22.06.2019
5966 Clouds 23 1012 80 0 0.88 262.479 20:53 22.06.2019
5967 Rain 23 1012 93 0 0.75 278.011 20:26 22.06.2019
5968 Rain 23 1012 93 0 0.75 278.011 19:53 22.06.2019
5969 Rain 23 1012 93 0 0.75 278.011 19:28 22.06.2019
5970 Rain 23 1012 93 0 0.75 278.011 18:59 22.06.2019
5971 Rain 23 1012 93 0 0.75 278.011 18:41 22.06.2019
5972 Rain 25 1011 89 0 1.16 262.912 18:19 22.06.2019
5973 Rain 25 1011 89 0 1.16 262.912 17:38 22.06.2019
5974 Rain 25 1011 89 0 1.16 262.912 17:38 22.06.2019
5975 Rain 25 1011 89 0 1.16 262.912 17:19 22.06.2019
5976 Rain 25 1011 89 0 1.16 262.912 16:39 22.06.2019
5977 Rain 25 1011 89 0 1.16 262.912 16:21 22.06.2019
5978 Rain 25 1011 89 0 1.16 262.912 15:41 22.06.2019
5979 Rain 27 1012 79 0 1.18 281.272 15:23 22.06.2019
5980 Rain 27 1012 79 0 1.18 281.272 14:46 22.06.2019
5981 Rain 27 1012 79 0 1.18 281.272 14:28 22.06.2019
5982 Rain 27 1012 79 0 1.18 281.272 13:44 22.06.2019
5983 Rain 27 1012 77 0 1.2 311.145 13:26 22.06.2019
5984 Rain 27 1012 77 0 1.2 311.145 12:54 22.06.2019
5985 Rain 27 1012 77 0 1.2 311.145 12:36 22.06.2019
5986 Rain 25 1015 87 0 1.5 28.057 11:59 22.06.2019
5987 Rain 25 1015 87 0 1.5 28.057 11:36 22.06.2019
5988 Rain 25 1015 87 0 1.5 28.057 10:54 22.06.2019
5989 Rain 25 1015 87 0 1.5 28.057 10:22 22.06.2019
5990 Rain 25 1015 87 0 1.5 28.057 09:55 22.06.2019
5991 Rain 25 1015 87 0 1.5 28.057 09:27 22.06.2019
5992 Rain 24 1014 89 0 1.72 19.333 08:44 22.06.2019
5993 Clouds 23 1015 88 0 1.49 29.013 08:25 22.06.2019
5994 Clouds 23 1015 88 0 1.49 29.013 07:43 22.06.2019
5995 Clouds 23 1015 88 0 1.49 29.013 06:58 22.06.2019
5996 Clouds 23 1015 88 0 1.49 29.013 06:31 22.06.2019
5997 Clouds 21 1013 97 0 0.92 25.254 02:38 22.06.2019
5998 Clouds 21 1013 97 0 0.92 25.254 01:35 22.06.2019
5999 Clouds 22 1012 95 0 0.82 24.467 00:47 22.06.2019
6000 Clouds 22 1014 96 0 1.31 308.571 00:22 22.06.2019
6001 Clouds 22 1014 96 0 1.31 308.571 23:45 21.06.2019
6002 Clouds 22 1014 96 0 1.31 308.571 23:22 21.06.2019
6003 Clouds 22 1014 96 0 1.31 308.571 22:53 21.06.2019
6004 Clouds 22 1014 96 0 1.31 308.571 22:25 21.06.2019
6005 Clouds 22 1014 96 0 1.31 308.571 21:56 21.06.2019
6006 Clouds 22 1014 96 0 1.31 308.571 21:37 21.06.2019
6007 Rain 23 1011 93 0 1.13 326.002 21:18 21.06.2019
6008 Rain 23 1012 92 0 0.95 318.125 20:45 21.06.2019
6009 Rain 23 1012 92 0 0.95 318.125 20:22 21.06.2019
6010 Rain 23 1012 92 0 0.95 318.125 19:38 21.06.2019
6011 Rain 23 1012 92 0 0.95 318.125 18:55 21.06.2019
6012 Rain 23 1012 92 0 0.95 318.125 18:34 21.06.2019
6013 Rain 27 1010 82 0 0.99 13.783 17:48 21.06.2019
6014 Rain 27 1010 82 0 0.99 13.783 17:48 21.06.2019
6015 Rain 27 1010 82 0 0.99 13.783 17:30 21.06.2019
6016 Rain 27 1010 82 0 0.99 13.783 16:42 21.06.2019
6017 Rain 27 1010 82 0 0.99 13.783 16:23 21.06.2019
6018 Rain 27 1010 82 0 0.99 13.783 15:53 21.06.2019
6019 Rain 27 1010 82 0 0.99 13.783 15:33 21.06.2019
6020 Rain 27 1011 80 0 1.04 337.465 14:53 21.06.2019
6021 Rain 27 1011 80 0 1.04 337.465 14:31 21.06.2019
6022 Rain 27 1011 80 0 1.04 337.465 13:59 21.06.2019
6023 Rain 27 1011 80 0 1.04 337.465 13:36 21.06.2019
6024 Rain 28 1011 65 0 1.07 275.769 13:18 21.06.2019
6025 Rain 28 1011 65 0 1.07 275.769 12:42 21.06.2019
6026 Rain 26 1015 86 0 1.71 7.495 12:22 21.06.2019
6027 Rain 26 1015 86 0 1.71 7.495 11:48 21.06.2019
6028 Rain 26 1015 86 0 1.71 7.495 11:27 21.06.2019
6029 Rain 26 1015 86 0 1.71 7.495 10:56 21.06.2019
6030 Rain 26 1015 86 0 1.71 7.495 10:38 21.06.2019
6031 Rain 26 1015 86 0 1.71 7.495 10:19 21.06.2019
6032 Rain 26 1015 86 0 1.71 7.495 09:41 21.06.2019
6033 Rain 24 1014 90 0 1.55 3.634 09:21 21.06.2019
6034 Rain 24 1014 90 0 1.55 3.634 08:44 21.06.2019
6035 Rain 23 1015 93 0 1.67 19.29 08:24 21.06.2019
6036 Rain 23 1015 93 0 1.67 19.29 07:54 21.06.2019
6037 Rain 23 1015 93 0 1.67 19.29 07:36 21.06.2019
6038 Rain 23 1015 93 0 1.67 19.29 06:58 21.06.2019
6039 Rain 22 1012 94 0 1.31 57.596 06:23 21.06.2019
6040 Rain 22 1012 94 0 1.31 57.596 05:30 21.06.2019
6041 Rain 22 1012 94 0 1.31 57.596 04:30 21.06.2019
6042 Rain 22 1012 94 0 1.31 57.596 03:34 21.06.2019
6043 Clouds 23 1012 84 0 0.39 0.731 02:53 21.06.2019
6044 Clouds 23 1012 84 0 0.39 0.731 01:53 21.06.2019
6045 Clouds 23 1012 85 0 0.14 27.104 00:58 21.06.2019
6046 Clouds 23 1012 85 0 0.14 27.104 00:27 21.06.2019
6047 Clouds 25 1013 71 0 1.02 66.271 23:49 20.06.2019
6048 Clouds 25 1013 71 0 1.02 66.271 23:23 20.06.2019
6049 Clouds 25 1013 71 0 1.02 66.271 22:58 20.06.2019
6050 Clouds 25 1013 71 0 1.02 66.271 22:39 20.06.2019
6051 Clouds 25 1013 71 0 1.02 66.271 22:20 20.06.2019
6052 Clouds 25 1013 71 0 1.02 66.271 21:49 20.06.2019
6053 Clouds 27 1011 60 0 0.14 175.825 21:19 20.06.2019
6054 Clouds 27 1011 60 0 0.14 175.825 20:50 20.06.2019
6055 Clouds 27 1011 59 0 0.53 165.02 20:27 20.06.2019
6056 Clouds 27 1011 59 0 0.53 165.02 19:59 20.06.2019
6057 Clouds 27 1011 59 0 0.53 165.02 19:39 20.06.2019
6058 Clouds 27 1011 59 0 0.53 165.02 19:18 20.06.2019
6059 Clouds 27 1011 59 0 0.53 165.02 18:43 20.06.2019
6060 Clouds 32 1008 49 0 0.34 170.594 18:23 20.06.2019
6061 Clouds 32 1008 49 0 0.34 170.594 18:23 20.06.2019
6062 Clouds 32 1008 49 0 0.34 170.594 17:56 20.06.2019
6063 Clouds 32 1008 49 0 0.34 170.594 17:38 20.06.2019
6064 Clouds 32 1008 49 0 0.34 170.594 16:57 20.06.2019
6065 Clouds 32 1008 49 0 0.34 170.594 16:39 20.06.2019
6066 Clouds 32 1008 49 0 0.34 170.594 16:19 20.06.2019
6067 Clouds 32 1008 49 0 0.34 170.594 16:19 20.06.2019
6068 Clouds 32 1008 49 0 0.34 170.594 15:42 20.06.2019
6069 Clouds 32 1008 49 0 0.34 170.594 15:42 20.06.2019
6070 Clouds 33 1009 39 0 1.14 192.393 15:22 20.06.2019
6071 Clouds 33 1009 39 0 1.14 192.393 14:50 20.06.2019
6072 Clouds 33 1009 39 0 1.14 192.393 14:24 20.06.2019
6073 Clouds 33 1009 39 0 1.14 192.393 13:42 20.06.2019
6074 Clouds 33 1009 41 0 1.1 204.53 13:21 20.06.2019
6075 Clouds 33 1009 41 0 1.1 204.53 12:54 20.06.2019
6076 Clouds 33 1009 41 0 1.1 204.53 12:36 20.06.2019
6077 Clear 34 1014 40 0 0.51 302.065 12:18 20.06.2019
6078 Clear 34 1014 40 0 0.51 302.065 11:40 20.06.2019
6079 Clear 34 1014 40 0 0.51 302.065 11:22 20.06.2019
6080 Clear 34 1014 40 0 0.51 302.065 10:43 20.06.2019
6081 Clear 34 1014 40 0 0.51 302.065 10:23 20.06.2019
6082 Clear 34 1014 40 0 0.51 302.065 09:41 20.06.2019
6083 Clear 34 1014 40 0 0.51 302.065 09:41 20.06.2019
6084 Clear 25 1014 65 0 0.18 339.298 09:23 20.06.2019
6085 Clear 25 1014 66 0 0.36 107.775 08:48 20.06.2019
6086 Clear 25 1014 66 0 0.36 107.775 08:28 20.06.2019
6087 Clear 25 1014 66 0 0.36 107.775 07:59 20.06.2019
6088 Clear 25 1014 66 0 0.36 107.775 07:31 20.06.2019
6089 Clear 25 1014 66 0 0.36 107.775 06:57 20.06.2019
6090 Clear 22 1013 75 0 0.5 153.692 06:18 20.06.2019
6091 Clear 22 1013 75 0 0.5 153.692 03:39 20.06.2019
6092 Clouds 23 1012 73 0 0.5 68.564 00:59 20.06.2019
6093 Clouds 23 1012 73 0 0.5 68.564 00:33 20.06.2019
6094 Clouds 25 1013 63 0 0.74 229.745 23:43 19.06.2019
6095 Clouds 25 1013 63 0 0.74 229.745 23:25 19.06.2019
6096 Clouds 25 1013 63 0 0.74 229.745 22:48 19.06.2019
6097 Clouds 25 1013 63 0 0.74 229.745 22:24 19.06.2019
6098 Clouds 25 1013 63 0 0.74 229.745 21:55 19.06.2019
6099 Clouds 25 1013 63 0 0.74 229.745 21:37 19.06.2019
6100 Clouds 25 1013 63 0 0.74 229.745 21:37 19.06.2019
6101 Clouds 26 1012 60 0 0.87 156.084 21:18 19.06.2019
6102 Clouds 26 1012 60 0 0.87 156.084 20:39 19.06.2019
6103 Clouds 26 1012 60 0 0.87 156.084 20:20 19.06.2019
6104 Clouds 26 1012 60 0 0.87 156.084 19:43 19.06.2019
6105 Clouds 26 1012 60 0 0.87 156.084 19:24 19.06.2019
6106 Clouds 26 1012 60 0 0.87 156.084 18:55 19.06.2019
6107 Clouds 29 1009 57 0 1.26 191.924 18:23 19.06.2019
6108 Clouds 29 1009 57 0 1.26 191.924 17:43 19.06.2019
6109 Clouds 29 1009 57 0 1.26 191.924 17:25 19.06.2019
6110 Clouds 29 1009 57 0 1.26 191.924 16:56 19.06.2019
6111 Clouds 29 1009 57 0 1.26 191.924 16:36 19.06.2019
6112 Clouds 29 1009 57 0 1.26 191.924 16:18 19.06.2019
6113 Clouds 29 1009 57 0 1.26 191.924 15:42 19.06.2019
6114 Clear 35 1010 34 0 1.04 138.128 15:20 19.06.2019
6115 Clear 35 1010 34 0 1.04 138.128 14:43 19.06.2019
6116 Clear 35 1010 34 0 1.04 138.128 14:23 19.06.2019
6117 Clear 35 1010 34 0 1.04 138.128 13:44 19.06.2019
6118 Clear 35 1011 34 0 1.12 144.105 13:25 19.06.2019
6119 Clear 35 1011 34 0 1.12 144.105 13:25 19.06.2019
6120 Clear 35 1011 34 0 1.12 144.105 12:48 19.06.2019
6121 Clear 32 1014 46 0 1.18 78.508 12:22 19.06.2019
6122 Clear 32 1014 46 0 1.18 78.508 11:58 19.06.2019
6123 Clear 32 1014 46 0 1.18 78.508 11:39 19.06.2019
6124 Clear 32 1014 46 0 1.18 78.508 11:20 19.06.2019
6125 Clear 32 1014 46 0 1.18 78.508 10:46 19.06.2019
6126 Clear 32 1014 46 0 1.18 78.508 10:28 19.06.2019
6127 Clear 32 1014 46 0 1.18 78.508 09:51 19.06.2019
6128 Clouds 24 1015 80 0 0.98 56.099 09:23 19.06.2019
6129 Clouds 24 1015 80 0 0.98 56.099 08:58 19.06.2019
6130 Clouds 24 1015 80 0 0.98 56.099 08:58 19.06.2019
6131 Clear 23 1015 80 0 1.1 52.079 08:38 19.06.2019
6132 Clear 23 1015 80 0 1.1 52.079 08:19 19.06.2019
6133 Clear 23 1015 80 0 1.1 52.079 07:43 19.06.2019
6134 Clear 23 1015 80 0 1.1 52.079 07:22 19.06.2019
6135 Clear 23 1015 80 0 1.1 52.079 06:36 19.06.2019
6136 Clear 20 1013 95 0 0.83 96.524 06:18 19.06.2019
6137 Clear 20 1013 95 0 0.83 96.524 05:24 19.06.2019
6138 Clear 20 1013 95 0 0.83 96.524 03:53 19.06.2019
6139 Clouds 21 1014 93 0 0.88 80.165 02:40 19.06.2019
6140 Clouds 21 1014 93 0 0.88 80.165 01:39 19.06.2019
6141 Clouds 21 1014 92 0 0.79 55.103 00:54 19.06.2019
6142 Clouds 21 1014 92 0 0.79 55.103 00:36 19.06.2019
6143 Clouds 22 1015 91 0 1.05 29.934 23:58 18.06.2019
6144 Clouds 22 1015 91 0 1.05 29.934 23:37 18.06.2019
6145 Clouds 22 1015 91 0 1.05 29.934 23:19 18.06.2019
6146 Clouds 22 1015 91 0 1.05 29.934 22:41 18.06.2019
6147 Clouds 22 1015 91 0 1.05 29.934 22:21 18.06.2019
6148 Clouds 22 1015 91 0 1.05 29.934 21:44 18.06.2019
6149 Rain 23 1014 90 0 1.05 11.182 21:22 18.06.2019
6150 Rain 23 1014 90 0 1.05 11.182 20:58 18.06.2019
6151 Rain 22 1013 94 0 0.85 33.671 20:38 18.06.2019
6152 Rain 22 1013 94 0 0.85 33.671 20:19 18.06.2019
6153 Rain 22 1013 94 0 0.85 33.671 19:39 18.06.2019
6154 Rain 22 1013 94 0 0.85 33.671 19:21 18.06.2019
6155 Rain 22 1013 94 0 0.85 33.671 18:49 18.06.2019
6156 Rain 26 1011 75 0 2.47 345.272 18:25 18.06.2019
6157 Rain 26 1011 75 0 2.47 345.272 17:46 18.06.2019
6158 Rain 26 1011 75 0 2.47 345.272 17:22 18.06.2019
6159 Rain 26 1011 75 0 2.47 345.272 16:58 18.06.2019
6160 Rain 26 1011 75 0 2.47 345.272 16:39 18.06.2019
6161 Rain 26 1011 75 0 2.47 345.272 16:20 18.06.2019
6162 Rain 26 1011 75 0 2.47 345.272 15:39 18.06.2019
6163 Clouds 35 1012 36 0 0.56 114.097 15:20 18.06.2019
6164 Clouds 35 1012 36 0 0.56 114.097 14:56 18.06.2019
6165 Clouds 35 1012 36 0 0.56 114.097 14:37 18.06.2019
6166 Clouds 26 1016 83 8000 4.1 340 14:18 18.06.2019
6167 Clouds 26 1016 83 8000 4.1 340 13:43 18.06.2019
6168 Clouds 26 1016 83 8000 4.1 340 13:22 18.06.2019
6169 Clouds 27 1017 74 8000 4.1 340 12:45 18.06.2019
6170 Clouds 27 1017 74 8000 4.1 340 12:27 18.06.2019
6171 Clouds 28 1017 74 8000 3.1 340 11:49 18.06.2019
6172 Clouds 28 1017 74 8000 3.1 340 11:23 18.06.2019
6173 Clouds 28 1017 74 8000 3.1 340 11:23 18.06.2019
6174 Clouds 26 1017 83 8000 2.1 340 10:58 18.06.2019
6175 Clouds 26 1017 83 8000 2.1 340 10:38 18.06.2019
6176 Clouds 31 1015 51 0 1.07 30.697 10:20 18.06.2019
6177 Clouds 31 1015 51 0 1.07 30.697 09:51 18.06.2019
6178 Clouds 24 1015 79 0 0.87 18.914 09:24 18.06.2019
6179 Clouds 24 1015 79 0 0.87 18.914 08:47 18.06.2019
6180 Clear 24 1015 80 0 0.8 29.549 08:22 18.06.2019
6181 Clear 24 1015 80 0 0.8 29.549 07:45 18.06.2019
6182 Clear 24 1015 80 0 0.8 29.549 07:24 18.06.2019
6183 Clear 24 1015 80 0 0.8 29.549 06:45 18.06.2019
6184 Rain 20 1014 90 0 0.57 333.03 05:21 18.06.2019
6185 Rain 20 1014 90 0 0.57 333.03 03:59 18.06.2019
6186 Clouds 21 1014 81 0 0.03 90 02:27 18.06.2019
6187 Clouds 21 1014 81 0 0.38 84.668 01:25 18.06.2019
6188 Clouds 21 1014 81 0 0.38 84.668 00:57 18.06.2019
6189 Clouds 21 1014 81 0 0.38 84.668 00:30 18.06.2019
6190 Clouds 22 1015 73 0 0.92 23.501 23:42 17.06.2019
6191 Clouds 22 1015 73 0 0.92 23.501 23:22 17.06.2019
6192 Clouds 22 1015 73 0 0.92 23.501 22:58 17.06.2019
6193 Clouds 22 1015 73 0 0.92 23.501 22:38 17.06.2019
6194 Clouds 22 1015 73 0 0.92 23.501 22:20 17.06.2019
6195 Clouds 22 1015 73 0 0.92 23.501 21:42 17.06.2019
6196 Clouds 24 1013 67 0 0.22 193.665 21:23 17.06.2019
6197 Clouds 24 1013 67 0 0.22 193.665 20:40 17.06.2019
6198 Clouds 24 1013 69 0 0.34 353.191 20:21 17.06.2019
6199 Clouds 24 1013 69 0 0.34 353.191 19:56 17.06.2019
6200 Clouds 24 1013 69 0 0.34 353.191 19:38 17.06.2019
6201 Clouds 24 1013 69 0 0.34 353.191 19:19 17.06.2019
6202 Clouds 24 1013 69 0 0.34 353.191 18:39 17.06.2019
6203 Thunderstorm 28 1012 83 6000 3.1 340 18:18 17.06.2019
6204 Clouds 28 1010 54 0 1.78 154.991 17:48 17.06.2019
6205 Clouds 28 1010 54 0 1.78 154.991 17:48 17.06.2019
6206 Clouds 28 1010 54 0 1.78 154.991 17:29 17.06.2019
6207 Clouds 28 1010 54 0 1.78 154.991 16:56 17.06.2019
6208 Clouds 28 1010 54 0 1.78 154.991 16:38 17.06.2019
6209 Clouds 30 1013 66 7000 1.5 0 16:20 17.06.2019
6210 Clouds 30 1013 66 7000 1.5 0 15:43 17.06.2019
6211 Clouds 30 1013 66 7000 1.5 0 15:20 17.06.2019
6212 Clouds 32 1012 42 0 1.42 130.466 14:56 17.06.2019
6213 Clouds 32 1012 42 0 1.42 130.466 14:36 17.06.2019
6214 Clouds 32 1012 42 0 1.42 130.466 14:36 17.06.2019
6215 Clouds 32 1012 42 0 1.42 130.466 14:18 17.06.2019
6216 Clouds 32 1012 42 0 1.42 130.466 13:40 17.06.2019
6217 Clouds 30 1016 70 8000 0.45 209.888 13:20 17.06.2019
6218 Clouds 32 1012 45 0 0.45 209.888 12:39 17.06.2019
6219 Clouds 29 1016 74 10000 0.79 15.866 12:19 17.06.2019
6220 Clouds 25 1015 74 0 0.79 15.866 11:43 17.06.2019
6221 Clouds 25 1015 74 0 0.79 15.866 11:24 17.06.2019
6222 Clouds 25 1015 74 0 0.79 15.866 10:47 17.06.2019
6223 Clouds 26 1017 88 7000 0.79 15.866 10:29 17.06.2019
6224 Clouds 26 1017 88 7000 0.79 15.866 09:56 17.06.2019
6225 Clouds 25 1015 74 0 0.79 15.866 09:33 17.06.2019
6226 Clouds 23 1016 81 0 0.7 70.945 08:48 17.06.2019
6227 Clouds 23 1016 81 0 0.7 70.945 08:25 17.06.2019
6228 Clouds 23 1016 81 0 0.7 70.945 07:58 17.06.2019
6229 Clouds 23 1016 81 0 0.7 70.945 07:32 17.06.2019
6230 Clouds 23 1016 81 0 0.7 70.945 06:59 17.06.2019
6231 Clouds 22 1013 82 0 0.58 111.209 06:22 17.06.2019
6232 Clouds 22 1013 82 0 0.58 111.209 05:29 17.06.2019
6233 Clouds 22 1013 82 0 0.58 111.209 04:30 17.06.2019
6234 Clouds 22 1013 82 0 0.58 111.209 03:31 17.06.2019
6235 Clouds 22 1013 87 0 0.63 131.348 02:46 17.06.2019
6236 Clouds 22 1013 87 0 0.63 131.348 02:28 17.06.2019
6237 Clouds 22 1013 87 0 0.63 131.348 01:36 17.06.2019
6238 Clouds 21 1013 90 0 0.75 112.143 00:58 17.06.2019
6239 Clouds 21 1013 90 0 0.75 112.143 00:38 17.06.2019
6240 Clear 22 1014 83 0 0.32 78.166 00:19 17.06.2019
6241 Clear 22 1014 83 0 0.32 78.166 23:39 16.06.2019
6242 Clear 22 1014 83 0 0.32 78.166 23:39 16.06.2019
6243 Clear 22 1014 83 0 0.32 78.166 23:20 16.06.2019
6244 Clear 22 1014 83 0 0.32 78.166 22:45 16.06.2019
6245 Clear 22 1014 83 0 0.32 78.166 22:20 16.06.2019
6246 Clear 22 1014 83 0 0.32 78.166 21:58 16.06.2019
6247 Clear 22 1014 83 0 0.32 78.166 21:40 16.06.2019
6248 Clouds 24 1013 73 0 0.85 93.715 21:20 16.06.2019
6249 Clouds 24 1012 82 0 0.56 90.824 20:40 16.06.2019
6250 Clouds 24 1012 82 0 0.56 90.824 20:19 16.06.2019
6251 Clouds 24 1012 82 0 0.56 90.824 19:58 16.06.2019
6252 Clouds 24 1012 82 0 0.56 90.824 19:58 16.06.2019
6253 Clouds 24 1012 82 0 0.56 90.824 19:39 16.06.2019
6254 Clouds 24 1012 82 0 0.56 90.824 19:21 16.06.2019
6255 Clouds 24 1012 82 0 0.56 90.824 18:42 16.06.2019
6256 Clouds 27 1010 68 0 1.17 249.1 18:21 16.06.2019
6257 Clouds 27 1010 68 0 1.17 249.1 17:58 16.06.2019
6258 Clouds 27 1010 68 0 1.17 249.1 17:40 16.06.2019
6259 Clouds 27 1010 68 0 1.17 249.1 17:21 16.06.2019
6260 Clouds 27 1010 68 0 1.17 249.1 16:55 16.06.2019
6261 Clouds 27 1010 68 0 1.17 249.1 16:37 16.06.2019
6262 Clouds 28 1013 74 10000 2.1 30 16:18 16.06.2019
6263 Clouds 28 1013 74 10000 2.1 30 15:41 16.06.2019
6264 Clouds 28 1013 74 10000 2.1 30 15:23 16.06.2019
6265 Clouds 33 1011 43 0 0.88 145.912 14:41 16.06.2019
6266 Clouds 25 1015 88 7000 2.1 30 14:22 16.06.2019
6267 Clouds 25 1015 88 7000 2.1 30 13:51 16.06.2019
6268 Clouds 25 1015 88 7000 2.1 30 13:51 16.06.2019
6269 Clouds 25 1015 88 7000 2.1 30 13:51 16.06.2019
6270 Clouds 25 1015 88 7000 2.1 30 13:26 16.06.2019
6271 Clouds 25 1015 88 7000 2.1 30 13:26 16.06.2019
6272 Clouds 25 1016 83 7000 0.11 324.525 12:56 16.06.2019
6273 Clouds 25 1016 83 7000 0.11 324.525 12:38 16.06.2019
6274 Clouds 25 1016 83 7000 0.81 28.959 12:18 16.06.2019
6275 Clouds 24 1016 88 7000 2.1 330 11:40 16.06.2019
6276 Clouds 24 1016 88 7000 2.1 330 11:19 16.06.2019
6277 Clouds 30 1015 54 0 0.81 28.959 10:45 16.06.2019
6278 Mist 22 1016 94 4000 2.1 90 10:20 16.06.2019
6279 Mist 22 1016 94 4000 2.1 90 10:20 16.06.2019
6280 Clouds 30 1015 54 0 0.81 28.959 09:48 16.06.2019
6281 Clouds 23 1015 82 0 0.44 51.894 09:26 16.06.2019
6282 Clouds 23 1015 82 0 0.44 51.894 08:56 16.06.2019
6283 Clouds 23 1015 82 0 0.44 51.894 08:38 16.06.2019
6284 Clouds 23 1015 82 0 0.44 51.894 08:18 16.06.2019
6285 Clouds 23 1015 82 0 0.44 51.894 07:42 16.06.2019
6286 Clouds 23 1015 82 0 0.44 51.894 06:57 16.06.2019
6287 Clouds 23 1015 82 0 0.44 51.894 06:27 16.06.2019
6288 Clouds 20 1013 95 0 0.58 61.022 05:29 16.06.2019
6289 Clouds 20 1013 95 0 0.58 61.022 04:36 16.06.2019
6290 Clouds 20 1013 95 0 0.58 61.022 03:53 16.06.2019
6291 Clouds 20 1013 95 0 0.58 61.022 03:30 16.06.2019
6292 Clouds 21 1013 89 0 0.44 7.398 01:59 16.06.2019
6293 Clouds 21 1013 89 0 0.44 7.398 01:40 16.06.2019
6294 Clouds 21 1013 89 0 0.44 7.398 01:21 16.06.2019
6295 Clouds 21 1013 91 0 0.58 20.671 00:39 16.06.2019
6296 Clouds 21 1015 92 0 0.74 43.849 00:19 16.06.2019
6297 Clouds 21 1015 92 0 0.74 43.849 23:42 15.06.2019
6298 Clouds 21 1015 92 0 0.74 43.849 23:22 15.06.2019
6299 Clouds 21 1015 92 0 0.74 43.849 22:49 15.06.2019
6300 Clouds 21 1015 92 0 0.74 43.849 22:26 15.06.2019
6301 Clouds 21 1015 92 0 0.74 43.849 21:47 15.06.2019
6302 Clouds 21 1015 92 0 0.74 43.849 21:29 15.06.2019
6303 Clouds 22 1013 90 0 0.78 353.401 20:56 15.06.2019
6304 Clouds 22 1013 90 0 0.78 353.401 20:36 15.06.2019
6305 Clouds 22 1013 90 0 0.78 353.401 20:18 15.06.2019
6306 Clouds 22 1013 90 0 0.78 353.401 19:40 15.06.2019
6307 Clouds 22 1013 90 0 0.78 353.401 19:22 15.06.2019
6308 Clouds 22 1013 90 0 0.78 353.401 18:39 15.06.2019
6309 Clouds 25 1010 82 0 0.61 35.571 18:20 15.06.2019
6310 Clouds 25 1010 82 0 0.61 35.571 17:43 15.06.2019
6311 Clouds 25 1010 82 0 0.61 35.571 17:43 15.06.2019
6312 Clouds 25 1010 82 0 0.61 35.571 17:21 15.06.2019
6313 Clouds 25 1010 82 0 0.61 35.571 16:46 15.06.2019
6314 Thunderstorm 22 1015 100 300 3.1 90 16:19 15.06.2019
6315 Clouds 25 1010 82 0 0.61 35.571 15:43 15.06.2019
6316 Rain 25 1011 82 0 0.72 50.113 15:23 15.06.2019
6317 Rain 25 1011 82 0 0.72 50.113 14:43 15.06.2019
6318 Rain 25 1011 82 0 0.72 50.113 14:19 15.06.2019
6319 Rain 25 1011 82 0 0.72 50.113 13:57 15.06.2019
6320 -273 0 0 0 0 0 13:39 15.06.2019
6321 Rain 25 1011 82 0 0.72 50.113 13:18 15.06.2019
6322 Rain 25 1011 82 0 0.72 50.113 12:47 15.06.2019
6323 Clouds 27 1016 78 7000 3.1 330 12:23 15.06.2019
6324 Clouds 27 1016 78 7000 3.1 330 11:51 15.06.2019
6325 Clouds 27 1016 78 7000 3.1 330 11:32 15.06.2019
6326 Rain 26 1014 77 0 0.58 146.255 10:47 15.06.2019
6327 Rain 26 1014 77 0 0.58 146.255 10:26 15.06.2019
6328 Rain 26 1014 77 0 0.58 146.255 09:56 15.06.2019
6329 Rain 26 1014 77 0 0.58 146.255 09:38 15.06.2019
6330 Clouds 22 1014 94 0 0.91 103.683 09:18 15.06.2019
6331 Clouds 22 1014 94 0 0.91 103.683 08:41 15.06.2019
6332 Clouds 22 1014 94 0 0.91 103.683 08:18 15.06.2019
6333 Clouds 22 1014 94 0 0.91 103.683 08:18 15.06.2019
6334 Clouds 22 1014 94 0 0.91 103.683 07:26 15.06.2019
6335 Clouds 22 1014 94 0 0.91 103.683 06:48 15.06.2019
6336 Clouds 22 1014 94 0 0.91 103.683 06:29 15.06.2019
6337 Clouds 21 1012 95 0 0.95 332.513 05:39 15.06.2019
6338 Clouds 21 1012 95 0 0.95 332.513 04:56 15.06.2019
6339 Clouds 21 1012 95 0 0.95 332.513 04:26 15.06.2019
6340 Clouds 21 1012 95 0 0.95 332.513 03:33 15.06.2019
6341 Clouds 21 1012 95 0 0.95 332.513 03:33 15.06.2019
6342 Clouds 21 1013 96 0 0.97 322.276 02:37 15.06.2019
6343 Clouds 21 1013 96 0 0.97 322.276 01:57 15.06.2019
6344 Clouds 21 1013 96 0 0.97 322.276 01:57 15.06.2019
6345 Clouds 21 1013 96 0 0.97 322.276 01:24 15.06.2019
6346 Clouds 21 1013 96 0 0.97 322.276 00:42 15.06.2019
6347 Clouds 21 1014 97 0 0.92 317.924 00:23 15.06.2019
6348 Clouds 21 1014 97 0 0.74 328.003 23:49 14.06.2019
6349 Clouds 21 1014 97 0 0.74 328.003 23:20 14.06.2019
6350 Clouds 21 1014 97 0 0.74 328.003 22:41 14.06.2019
6351 Clouds 21 1014 97 0 0.74 328.003 22:41 14.06.2019
6352 Clouds 21 1014 97 0 0.74 328.003 22:21 14.06.2019
6353 Clouds 21 1014 97 0 0.74 328.003 21:49 14.06.2019
6354 Clouds 21 1014 97 0 0.74 328.003 21:28 14.06.2019
6355 Rain 22 1013 96 0 1.2 310.934 20:57 14.06.2019
6356 Rain 22 1013 96 0 1.2 310.934 20:38 14.06.2019
6357 Rain 22 1013 96 0 1.2 310.934 20:18 14.06.2019
6358 Rain 22 1013 96 0 1.2 310.934 19:41 14.06.2019
6359 Rain 22 1013 96 0 1.2 310.934 19:22 14.06.2019
6360 Rain 22 1013 96 0 1.2 310.934 18:54 14.06.2019
6361 Rain 22 1013 96 0 1.2 310.934 18:54 14.06.2019
6362 Clouds 26 1012 83 6000 5.1 280 18:36 14.06.2019
6363 Clouds 26 1012 83 6000 5.1 280 18:18 14.06.2019
6364 Clouds 26 1012 83 6000 5.1 280 17:44 14.06.2019
6365 Clouds 26 1012 83 6000 5.1 280 17:23 14.06.2019
6366 Clouds 30 1011 70 7000 3.1 40 16:49 14.06.2019
6367 Clouds 30 1011 70 7000 3.1 40 16:24 14.06.2019
6368 Clouds 30 1011 70 7000 3.1 40 16:24 14.06.2019
6369 Clouds 30 1011 70 7000 3.1 40 16:24 14.06.2019
6370 Clouds 30 1012 70 7000 2.1 340 15:59 14.06.2019
6371 Clouds 30 1012 70 7000 2.1 340 15:39 14.06.2019
6372 Clouds 30 1012 70 7000 2.1 340 15:20 14.06.2019
6373 Clouds 30 1012 74 7000 2.1 340 14:47 14.06.2019
6374 Rain 28 1014 83 7000 1.2 96.735 14:29 14.06.2019
6375 Rain 28 1014 83 7000 1.2 96.735 13:47 14.06.2019
6376 Rain 28 1014 83 7000 1.12 96.34 13:28 14.06.2019
6377 -273 0 0 0 0 0 12:59 14.06.2019
6378 -273 0 0 0 0 0 12:59 14.06.2019
6379 Rain 30 1011 57 0 1.12 96.34 12:39 14.06.2019
6380 Clouds 28 1016 78 0 2.1 300 12:21 14.06.2019
6381 Clouds 28 1016 78 0 2.1 300 12:21 14.06.2019
6382 Clouds 28 1016 78 0 2.1 300 11:42 14.06.2019
6383 Clouds 28 1016 78 0 2.1 300 11:42 14.06.2019
6384 Clouds 28 1016 78 0 2.1 300 11:42 14.06.2019
6385 Clouds 28 1016 78 0 2.1 300 11:42 14.06.2019
6386 Clouds 28 1016 78 0 2.1 300 11:23 14.06.2019
6387 Clouds 27 1016 83 8000 2.1 330 10:47 14.06.2019
6388 Clouds 27 1016 83 8000 2.1 330 10:21 14.06.2019
6389 Rain 26 1014 80 0 2.09 89.672 09:55 14.06.2019
6390 Fog 24 1016 94 500 1.58 13.71 09:34 14.06.2019
6391 Fog 24 1016 94 500 1.36 21.661 08:49 14.06.2019
6392 Clouds 25 1014 79 0 1.36 21.661 08:21 14.06.2019
6393 Clouds 25 1014 79 0 1.36 21.661 07:55 14.06.2019
6394 Clouds 25 1014 79 0 1.36 21.661 07:24 14.06.2019
6395 Clouds 25 1014 79 0 1.36 21.661 06:55 14.06.2019
6396 Clouds 22 1012 91 0 0.92 336.769 06:19 14.06.2019
6397 Clouds 22 1012 91 0 0.92 336.769 05:42 14.06.2019
6398 Clouds 22 1012 91 0 0.92 336.769 04:51 14.06.2019
6399 Clouds 22 1012 91 0 0.92 336.769 04:27 14.06.2019
6400 Clouds 22 1012 91 0 0.92 336.769 03:39 14.06.2019
6401 Clouds 23 1012 83 0 0.99 316.439 03:21 14.06.2019
6402 Clouds 23 1012 83 0 0.99 316.439 02:36 14.06.2019
6403 Clouds 23 1012 83 0 0.99 316.439 01:47 14.06.2019
6404 Clouds 23 1012 83 0 0.99 316.439 00:37 14.06.2019
6405 Clouds 25 1012 68 0 0.66 31.038 00:19 14.06.2019
6406 Clouds 25 1012 68 0 0.66 31.038 23:49 13.06.2019
6407 Clouds 25 1012 68 0 0.66 31.038 23:25 13.06.2019
6408 Clouds 25 1012 68 0 0.66 31.038 22:41 13.06.2019
6409 Clouds 25 1012 68 0 0.66 31.038 22:22 13.06.2019
6410 Clouds 25 1012 68 0 0.66 31.038 21:59 13.06.2019
6411 Clouds 25 1012 68 0 0.66 31.038 21:37 13.06.2019
6412 Clouds 27 1011 60 0 0.14 312.019 21:19 13.06.2019
6413 Clouds 27 1011 60 0 0.14 312.019 20:45 13.06.2019
6414 Clouds 27 1011 60 0 0.14 312.019 20:20 13.06.2019
6415 Clouds 27 1011 60 0 0.14 312.019 19:43 13.06.2019
6416 Clouds 27 1011 60 0 0.14 312.019 19:25 13.06.2019
6417 Clouds 27 1011 60 0 0.14 312.019 19:00 13.06.2019
6418 Clouds 27 1011 60 0 0.14 312.019 18:41 13.06.2019
6419 Clouds 31 1009 50 0 0.37 163.241 18:23 13.06.2019
6420 Clouds 31 1009 50 0 0.37 163.241 17:56 13.06.2019
6421 Clouds 31 1009 50 0 0.37 163.241 17:36 13.06.2019
6422 Clouds 31 1009 50 0 0.37 163.241 17:18 13.06.2019
6423 Clouds 31 1009 50 0 0.37 163.241 16:41 13.06.2019
6424 Clouds 31 1009 50 0 0.37 163.241 16:20 13.06.2019
6425 Clouds 31 1009 50 0 0.37 163.241 15:43 13.06.2019
6426 Clouds 30 1013 70 8000 1.5 0 15:24 13.06.2019
6427 Clouds 30 1013 70 8000 1.5 0 14:52 13.06.2019
6428 Clouds 30 1013 70 8000 1.5 0 14:31 13.06.2019
6429 Clouds 29 1014 70 8000 1.5 0 13:59 13.06.2019
6430 Clouds 28 1015 78 8000 3.1 160 13:39 13.06.2019
6431 Clouds 28 1015 78 8000 3.1 160 13:21 13.06.2019
6432 Clouds 28 1015 78 8000 3.1 160 12:42 13.06.2019
6433 Clouds 28 1015 78 8000 3.1 160 12:22 13.06.2019
6434 Clouds 28 1016 74 8000 3.1 220 11:47 13.06.2019
6435 Clouds 28 1016 74 8000 3.1 220 11:29 13.06.2019
6436 Clouds 33 1013 44 0 1.2 104.873 10:55 13.06.2019
6437 Clouds 33 1013 44 0 1.2 104.873 10:37 13.06.2019
6438 Clouds 33 1013 44 0 1.2 104.873 10:18 13.06.2019
6439 Clouds 33 1013 44 0 1.2 104.873 09:42 13.06.2019
6440 Clouds 25 1014 75 0 1.17 74.156 09:22 13.06.2019
6441 Clouds 25 1014 75 0 1.17 74.156 08:44 13.06.2019
6442 Clouds 25 1014 75 0 1.17 74.156 08:23 13.06.2019
6443 Clouds 25 1014 75 0 1.17 74.156 07:52 13.06.2019
6444 Clouds 25 1014 75 0 1.17 74.156 07:25 13.06.2019
6445 Clouds 25 1014 75 0 1.17 74.156 06:47 13.06.2019
6446 Clouds 22 1012 85 0 1.05 64.68 06:23 13.06.2019
6447 Clouds 22 1012 85 0 1.05 64.68 05:55 13.06.2019
6448 Clouds 22 1012 85 0 1.05 64.68 05:36 13.06.2019
6449 Clouds 22 1012 85 0 1.05 64.68 04:57 13.06.2019
6450 Clouds 24 1012 74 0 1.37 124.039 02:26 13.06.2019
6451 Clouds 24 1012 74 0 1.37 124.039 00:47 13.06.2019
6452 Clouds 26 1012 64 0 0.48 244.926 00:22 13.06.2019
6453 Clouds 26 1012 64 0 0.48 244.926 23:24 12.06.2019
6454 Clouds 26 1012 64 0 0.48 244.926 22:45 12.06.2019
6455 Clouds 26 1012 64 0 0.48 244.926 22:26 12.06.2019
6456 Clouds 26 1012 64 0 0.48 244.926 21:57 12.06.2019
6457 Clouds 26 1012 64 0 0.48 244.926 21:38 12.06.2019
6458 Clouds 27 1011 58 0 0.74 27.12 21:18 12.06.2019
6459 Clouds 27 1011 58 0 0.74 27.12 20:38 12.06.2019
6460 Clouds 27 1011 58 0 0.74 27.12 20:20 12.06.2019
6461 Clouds 27 1011 58 0 0.74 27.12 19:42 12.06.2019
6462 Clouds 27 1011 58 0 0.74 27.12 19:23 12.06.2019
6463 Clouds 27 1011 58 0 0.74 27.12 18:57 12.06.2019
6464 Clouds 27 1011 58 0 0.74 27.12 18:39 12.06.2019
6465 Clouds 31 1009 49 0 0.51 12.735 18:19 12.06.2019
6466 Clouds 31 1009 49 0 0.51 12.735 17:44 12.06.2019
6467 Clouds 31 1009 49 0 0.51 12.735 17:21 12.06.2019
6468 Clouds 31 1009 49 0 0.51 12.735 16:42 12.06.2019
6469 Clouds 31 1009 49 0 0.51 12.735 16:23 12.06.2019
6470 Clouds 31 1009 49 0 0.51 12.735 15:54 12.06.2019
6471 Clouds 32 1011 62 7000 4.1 210 15:32 12.06.2019
6472 Clouds 32 1011 62 7000 4.1 210 14:50 12.06.2019
6473 Clouds 32 1011 62 7000 4.1 210 14:29 12.06.2019
6474 Clouds 32 1012 62 7000 3.1 270 13:55 12.06.2019
6475 Clouds 32 1012 62 7000 3.1 270 13:36 12.06.2019
6476 Clouds 32 1012 62 7000 3.1 270 13:18 12.06.2019
6477 Clouds 37 1009 30 0 0.57 181.72 12:39 12.06.2019
6478 Clouds 37 1009 30 0 0.57 181.72 12:39 12.06.2019
6479 -273 0 0 0 0 0 12:19 12.06.2019
6480 Haze 30 1014 70 5000 2.1 120 12:19 12.06.2019
6481 Haze 30 1014 70 5000 2.1 120 11:47 12.06.2019
6482 Haze 30 1014 70 5000 2.1 120 11:29 12.06.2019
6483 Haze 29 1015 70 5000 2.1 50 10:52 12.06.2019
6484 Haze 29 1015 70 5000 2.1 50 10:34 12.06.2019
6485 Clouds 33 1013 40 0 1 128.768 09:55 12.06.2019
6486 Clouds 33 1013 40 0 1 128.768 09:37 12.06.2019
6487 Clouds 25 1014 63 0 1.01 113.109 09:18 12.06.2019
6488 Clouds 25 1014 63 0 1.01 113.109 08:25 12.06.2019
6489 Clouds 25 1014 63 0 1.01 113.109 07:52 12.06.2019
6490 Clouds 25 1014 63 0 1.01 113.109 06:55 12.06.2019
6491 Clouds 22 1012 68 0 0.25 151.299 05:54 12.06.2019
6492 Clouds 22 1012 68 0 0.25 151.299 05:24 12.06.2019
6493 Clouds 23 1013 65 0 0.4 184.476 02:19 12.06.2019
6494 Clouds 23 1012 64 0 0.45 142.192 00:41 12.06.2019
6495 Clouds 24 1013 62 0 0.81 172.937 23:53 11.06.2019
6496 Clouds 24 1013 62 0 0.81 172.937 23:34 11.06.2019
6497 Clouds 24 1012 61 0 0.75 175.255 22:45 11.06.2019
6498 Clouds 24 1012 61 0 0.75 175.255 22:24 11.06.2019
6499 Clouds 24 1012 61 0 0.75 175.255 21:58 11.06.2019
6500 Clouds 24 1012 61 0 0.75 175.255 21:40 11.06.2019
6501 Clouds 26 1011 57 0 0.54 165.197 21:21 11.06.2019
6502 Clouds 26 1011 57 0 0.54 165.197 20:50 11.06.2019
6503 Clouds 26 1011 57 0 0.54 165.197 20:28 11.06.2019
6504 Clouds 26 1011 57 0 0.54 165.197 19:59 11.06.2019
6505 Clouds 26 1011 57 0 0.54 165.197 19:40 11.06.2019
6506 Clouds 26 1011 57 0 0.54 165.197 19:22 11.06.2019
6507 Clouds 26 1011 57 0 0.54 165.197 18:41 11.06.2019
6508 Clouds 29 1009 53 0 0.56 192.138 18:19 11.06.2019
6509 Clouds 29 1009 53 0 0.56 192.138 17:41 11.06.2019
6510 Clouds 29 1009 53 0 0.56 192.138 17:20 11.06.2019
6511 Clouds 29 1009 53 0 0.56 192.138 16:43 11.06.2019
6512 Clouds 29 1009 53 0 0.56 192.138 16:23 11.06.2019
6513 Clouds 29 1009 53 0 0.56 192.138 15:43 11.06.2019
6514 Clouds 35 1010 31 0 1.24 190.136 15:25 11.06.2019
6515 Clouds 35 1010 31 0 1.24 190.136 14:56 11.06.2019
6516 Clouds 35 1010 31 0 1.24 190.136 14:38 11.06.2019
6517 Clouds 35 1010 31 0 1.24 190.136 14:19 11.06.2019
6518 Clouds 35 1010 31 0 1.24 190.136 13:42 11.06.2019
6519 Clouds 35 1010 31 0 1.24 190.136 13:21 11.06.2019
6520 Clouds 35 1010 32 0 1.39 185.886 12:42 11.06.2019
6521 Clouds 30 1014 66 7000 2.1 210 12:21 11.06.2019
6522 Clouds 30 1014 66 7000 2.1 210 11:54 11.06.2019
6523 Clouds 30 1014 66 7000 2.1 210 11:32 11.06.2019
6524 Clouds 28 1015 78 6000 1.42 161.335 10:51 11.06.2019
6525 Clouds 28 1015 78 6000 1.42 161.335 10:27 11.06.2019
6526 Haze 26 1014 83 5000 1.5 0 09:51 11.06.2019
6527 Clouds 25 1013 66 0 0.88 147.614 09:26 11.06.2019
6528 Clouds 25 1013 66 0 0.88 147.614 08:58 11.06.2019
6529 Clouds 25 1013 66 0 0.88 147.614 08:40 11.06.2019
6530 Clouds 25 1013 66 0 0.88 147.614 08:19 11.06.2019
6531 Clouds 25 1013 66 0 0.88 147.614 07:33 11.06.2019
6532 Clouds 25 1013 66 0 0.95 144.062 06:52 11.06.2019
6533 Clouds 22 1011 76 0 0.7 157.549 05:21 11.06.2019
6534 Clouds 22 1011 76 0 0.7 157.549 04:38 11.06.2019
6535 Clouds 23 1012 72 0 0.3 148.095 02:26 11.06.2019
6536 Clouds 23 1011 73 0 0.22 157.179 00:52 11.06.2019
6537 Clouds 24 1012 69 0 0.4 343.398 00:26 11.06.2019
6538 Clouds 24 1012 69 0 0.4 343.398 23:45 10.06.2019
6539 Clouds 24 1012 67 0 0.37 73.926 23:21 10.06.2019
6540 Clouds 24 1012 67 0 0.37 73.926 22:45 10.06.2019
6541 Clouds 24 1012 67 0 0.37 73.926 22:26 10.06.2019
6542 Clouds 24 1012 67 0 0.37 73.926 21:56 10.06.2019
6543 Clouds 24 1012 67 0 0.37 73.926 21:38 10.06.2019
6544 Clouds 25 1010 63 0 0.19 92.398 21:19 10.06.2019
6545 Clouds 25 1010 63 0 0.19 92.398 20:42 10.06.2019
6546 Clouds 25 1010 63 0 0.19 92.398 20:21 10.06.2019
6547 Clouds 25 1010 63 0 0.19 92.398 19:44 10.06.2019
6548 Clouds 25 1010 63 0 0.19 92.398 19:22 10.06.2019
6549 Clouds 25 1010 63 0 0.19 92.398 18:57 10.06.2019
6550 Clouds 25 1010 63 0 0.19 92.398 18:39 10.06.2019
6551 Clouds 32 1009 46 0 0.77 217.122 18:19 10.06.2019
6552 Clouds 32 1009 46 0 0.77 217.122 17:44 10.06.2019
6553 Clouds 32 1009 46 0 0.77 217.122 17:24 10.06.2019
6554 Clouds 32 1009 46 0 0.77 217.122 16:49 10.06.2019
6555 Clouds 32 1009 46 0 0.77 217.122 16:30 10.06.2019
6556 Clouds 32 1009 46 0 0.77 217.122 15:58 10.06.2019
6557 Clouds 32 1009 46 0 0.77 217.122 15:39 10.06.2019
6558 Clouds 33 1010 38 0 1.66 190.876 15:21 10.06.2019
6559 Clouds 33 1010 38 0 1.66 190.876 14:42 10.06.2019
6560 Clouds 33 1010 38 0 1.66 190.876 14:24 10.06.2019
6561 Clouds 33 1010 38 0 1.66 190.876 13:46 10.06.2019
6562 Clouds 33 1010 38 0 1.66 190.876 13:46 10.06.2019
6563 Clouds 33 1010 38 0 1.66 190.876 13:28 10.06.2019
6564 Clouds 33 1010 38 0 1.55 189.826 12:54 10.06.2019
6565 Clouds 33 1010 38 0 1.55 189.826 12:31 10.06.2019
6566 Rain 29 1013 70 0 0.56 117.337 11:58 10.06.2019
6567 Rain 29 1013 70 0 0.56 117.337 11:38 10.06.2019
6568 Rain 29 1013 70 0 0.56 117.337 11:18 10.06.2019
6569 Rain 29 1013 70 0 0.56 117.337 10:41 10.06.2019
6570 Rain 29 1013 70 0 0.56 117.337 10:19 10.06.2019
6571 Rain 29 1013 70 0 0.56 117.337 09:51 10.06.2019
6572 Rain 29 1013 70 0 0.56 117.337 09:29 10.06.2019
6573 Clouds 24 1014 84 0 0.78 55.105 08:50 10.06.2019
6574 Clouds 24 1014 84 0 0.78 55.105 08:27 10.06.2019
6575 Clouds 24 1014 84 0 0.78 55.105 07:46 10.06.2019
6576 Clouds 21 1013 92 0 0.07 120.677 04:44 10.06.2019
6577 Clouds 21 1013 92 0 0.07 120.677 03:29 10.06.2019
6578 Clouds 21 1013 91 0 0.53 120.411 01:56 10.06.2019
6579 Clouds 21 1013 91 0 0.53 120.411 01:22 10.06.2019
6580 Clouds 21 1013 91 0 0.53 120.411 00:47 10.06.2019
6581 Rain 22 1013 90 0 0.41 125.038 23:49 09.06.2019
6582 Rain 22 1013 90 0 0.41 125.038 23:25 09.06.2019
6583 Rain 22 1013 90 0 0.41 125.038 22:59 09.06.2019
6584 Rain 22 1013 90 0 0.41 125.038 22:39 09.06.2019
6585 Rain 22 1013 90 0 0.41 125.038 22:21 09.06.2019
6586 Rain 22 1013 90 0 0.41 125.038 21:39 09.06.2019
6587 Clouds 24 1012 72 0 0.34 55.612 21:21 09.06.2019
6588 Clouds 24 1012 72 0 0.34 55.612 20:42 09.06.2019
6589 Clouds 24 1012 72 0 0.34 55.612 20:22 09.06.2019
6590 Clouds 24 1012 72 0 0.34 55.612 19:46 09.06.2019
6591 Clouds 23 1012 79 0 0.79 102.019 19:19 09.06.2019
6592 Clouds 23 1012 79 0 0.79 102.019 18:56 09.06.2019
6593 Clouds 23 1012 79 0 0.79 102.019 18:36 09.06.2019
6594 Clouds 29 1011 56 0 0.79 90.145 18:18 09.06.2019
6595 Clouds 29 1011 56 0 0.79 90.145 17:42 09.06.2019
6596 Clouds 29 1011 56 0 0.79 90.145 17:23 09.06.2019
6597 Clouds 29 1011 56 0 0.79 90.145 16:41 09.06.2019
6598 Clouds 29 1011 56 0 0.79 90.145 16:21 09.06.2019
6599 Clouds 29 1011 56 0 0.79 90.145 16:21 09.06.2019
6600 Clouds 29 1011 56 0 0.79 90.145 15:51 09.06.2019
6601 Clouds 29 1011 56 0 0.79 90.145 15:30 09.06.2019
6602 Clouds 26 1012 75 0 0.85 117.68 14:59 09.06.2019
6603 Clouds 26 1012 75 0 0.85 117.68 14:41 09.06.2019
6604 Clouds 26 1012 75 0 0.85 117.68 14:20 09.06.2019
6605 Clouds 26 1012 75 0 0.85 117.68 13:48 09.06.2019
6606 Clouds 26 1012 75 0 0.85 117.68 13:18 09.06.2019
6607 Clouds 28 1012 61 0 2.09 168.34 12:39 09.06.2019
6608 Clouds 31 1014 53 0 0.21 267.016 12:21 09.06.2019
6609 Clouds 31 1014 53 0 0.21 267.016 11:39 09.06.2019
6610 Clouds 31 1014 53 0 0.21 267.016 11:20 09.06.2019
6611 Clouds 33 1014 46 0 1 119.724 10:44 09.06.2019
6612 Clouds 33 1014 46 0 1 119.724 10:22 09.06.2019
6613 Clouds 33 1014 46 0 1 119.724 09:40 09.06.2019
6614 Clouds 25 1015 73 0 0.59 119.962 09:21 09.06.2019
6615 Clouds 25 1015 74 0 0.53 110.709 08:46 09.06.2019
6616 Clouds 25 1015 74 0 0.53 110.709 08:28 09.06.2019
6617 Clouds 25 1015 74 0 0.53 110.709 07:21 09.06.2019
6618 Clouds 25 1015 74 0 0.53 110.709 06:30 09.06.2019
6619 -273 0 0 0 0 0 04:57 09.06.2019
6620 Clouds 22 1014 82 0 0.7 315.633 01:39 09.06.2019
6621 Clouds 22 1014 82 0 0.51 343.021 01:21 09.06.2019
6622 Clouds 22 1014 82 0 0.51 343.021 01:21 09.06.2019
6623 Clouds 22 1014 82 0 0.51 343.021 00:58 09.06.2019
6624 Clouds 23 1014 83 0 0.87 321.155 23:44 08.06.2019
6625 Clouds 23 1014 83 0 0.87 321.155 23:24 08.06.2019
6626 Clouds 23 1014 83 0 0.87 321.155 22:58 08.06.2019
6627 Clouds 23 1014 83 0 0.87 321.155 22:40 08.06.2019
6628 Clouds 23 1014 83 0 0.87 321.155 22:19 08.06.2019
6629 Clouds 23 1014 83 0 0.87 321.155 22:19 08.06.2019
6630 Clouds 23 1014 83 0 0.87 321.155 21:51 08.06.2019
6631 Clouds 23 1014 83 0 0.87 321.155 21:27 08.06.2019
6632 Clouds 24 1013 83 0 1.03 324.605 20:50 08.06.2019
6633 Clouds 24 1013 83 0 1.03 324.605 20:26 08.06.2019
6634 Clouds 24 1013 83 0 1.03 324.605 19:59 08.06.2019
6635 Clouds 24 1013 83 0 1.03 324.605 19:39 08.06.2019
6636 Rain 24 1013 85 0 1.05 331.796 19:20 08.06.2019
6637 Rain 24 1013 85 0 1.05 331.796 18:56 08.06.2019
6638 Rain 24 1013 85 0 1.05 331.796 18:35 08.06.2019
6639 Rain 30 1011 56 0 1.41 322.625 17:51 08.06.2019
6640 Rain 30 1011 56 0 1.41 322.625 17:25 08.06.2019
6641 Rain 30 1011 56 0 1.41 322.625 16:58 08.06.2019
6642 Rain 30 1011 56 0 1.41 322.625 16:38 08.06.2019
6643 Rain 30 1011 56 0 1.41 322.625 15:57 08.06.2019
6644 Rain 30 1011 56 0 1.41 322.625 15:37 08.06.2019
6645 Rain 31 1012 54 0 1.63 285.598 14:50 08.06.2019
6646 Rain 31 1012 54 0 1.63 285.598 14:31 08.06.2019
6647 Rain 31 1012 54 0 1.63 285.598 13:54 08.06.2019
6648 Clouds 30 1016 66 10000 3.1 270 13:22 08.06.2019
6649 Rain 32 1012 47 0 1.72 273.765 12:42 08.06.2019
6650 Clouds 29 1016 66 10000 2.1 330 11:59 08.06.2019
6651 Rain 27 1014 83 0 0.83 244.674 11:40 08.06.2019
6652 Cloud